# Wetter Temperatur Luftdruck Luftfeuchtigkeit Sichtweite Windgeschwindigkeit Windrichtung Zeit
1 Mist 1 1026 74 4000 1 0 21:58 28.01.2020
2 Mist -1 1026 79 4000 0.21 182 21:39 28.01.2020
3 Mist 0 1026 79 4000 0.21 182 21:19 28.01.2020
4 Mist 0 1027 74 4000 0.21 182 20:46 28.01.2020
5 Mist 1 1027 68 4000 1 0 20:26 28.01.2020
6 Mist 0 1027 74 4000 1 0 19:56 28.01.2020
7 Mist 0 1027 74 4000 1 10 19:37 28.01.2020
8 Mist 0 1027 74 4000 1 10 19:19 28.01.2020
9 Mist 0 1027 79 4000 1 0 19:19 28.01.2020
10 Mist 0 1027 79 4000 1 0 18:54 28.01.2020
11 Mist 0 1026 73 4000 1 0 18:36 28.01.2020
12 Mist 0 1026 73 4000 1 0 18:18 28.01.2020
13 Mist 0 1026 73 4000 1 0 17:54 28.01.2020
14 Mist 0 1026 73 4000 1 0 17:36 28.01.2020
15 Mist 0 1026 73 4000 1 0 17:18 28.01.2020
16 Mist 0 1026 73 4000 0.74 8 16:44 28.01.2020
17 Haze 1 1026 74 4000 1 0 16:25 28.01.2020
18 Haze 1 1026 63 4000 1 0 15:57 28.01.2020
19 Haze 1 1026 68 4500 0.74 8 15:38 28.01.2020
20 Haze 1 1026 68 4500 0.74 8 15:18 28.01.2020
21 Haze 2 1026 51 4500 0.74 8 14:44 28.01.2020
22 Haze 2 1026 46 4500 0.38 19 14:20 28.01.2020
23 Haze 2 1026 46 4500 1 100 13:43 28.01.2020
24 Haze 2 1026 44 4500 1 70 13:24 28.01.2020
25 Haze 2 1026 44 4500 1 70 12:46 28.01.2020
26 Haze 3 1025 44 4500 1 0 12:25 28.01.2020
27 Haze 3 1025 50 4000 1 0 11:59 28.01.2020
28 Haze 3 1025 47 2900 1 0 11:41 28.01.2020
29 Haze 3 1025 47 2900 1 0 11:22 28.01.2020
30 Haze 4 1024 40 2900 2 160 10:55 28.01.2020
31 Haze 5 1024 38 3500 1 0 10:36 28.01.2020
32 Haze 5 1024 38 3500 1 0 10:18 28.01.2020
33 Haze 6 1024 35 3500 2 160 09:41 28.01.2020
34 Haze 6 1024 35 3500 2 160 09:20 28.01.2020
35 Haze 7 1024 33 3500 3 160 08:46 28.01.2020
36 Haze 7 1024 36 3500 2 170 08:26 28.01.2020
37 Haze 6 1024 38 4000 2 160 07:56 28.01.2020
38 Haze 7 1024 38 4000 2 150 07:34 28.01.2020
39 Haze 7 1024 38 4500 2 210 06:48 28.01.2020
40 Haze 6 1024 41 4500 2 0 06:25 28.01.2020
41 Clouds 6 1025 41 6000 1 0 05:40 28.01.2020
42 Clouds 6 1025 41 6000 1 0 05:22 28.01.2020
43 Clouds 3 1025 59 6000 1 0 03:50 28.01.2020
44 Clouds 2 1025 57 6000 1 10 02:49 28.01.2020
45 Mist 1 1025 74 5000 1 10 02:25 28.01.2020
46 Mist 0 1025 79 5000 1 0 01:56 28.01.2020
47 Mist -1 1024 85 5000 1 50 01:22 28.01.2020
48 Mist -1 1024 79 5000 1 160 00:45 28.01.2020
49 Clouds -1 1024 79 6000 1 50 00:23 28.01.2020
50 Clouds -1 1024 79 6000 1 0 23:44 27.01.2020
51 Clouds -2 1024 85 6000 2 360 23:20 27.01.2020
52 Clouds -1 1023 79 6000 1 0 22:45 27.01.2020
53 Clouds -2 1023 79 6000 1 0 22:21 27.01.2020
54 Clouds -2 1024 79 7000 2 350 21:58 27.01.2020
55 Clouds -1 1024 85 7000 0.98 47 21:39 27.01.2020
56 Clouds -2 1024 85 7000 0.98 47 21:19 27.01.2020
57 Clouds -2 1024 85 7000 0.98 47 21:19 27.01.2020
58 Clouds -1 1024 79 7000 2 350 20:59 27.01.2020
59 Clouds -1 1024 73 8000 0.98 47 20:38 27.01.2020
60 Clouds -1 1024 73 8000 0.55 5 20:20 27.01.2020
61 Clouds -1 1024 73 8000 1 50 19:57 27.01.2020
62 Clouds 0 1024 73 8000 1 0 19:39 27.01.2020
63 Clouds 0 1024 73 8000 1 0 19:21 27.01.2020
64 Clouds 0 1024 73 8000 0.55 5 18:54 27.01.2020
65 Clouds 0 1024 73 8000 1 80 18:36 27.01.2020
66 Clouds 0 1024 73 8000 1 80 18:18 27.01.2020
67 Clouds 0 1024 73 8000 1 80 17:39 27.01.2020
68 Clouds 0 1024 73 8000 1 80 17:39 27.01.2020
69 Clouds 0 1024 73 8000 1 80 17:39 27.01.2020
70 Clouds 0 1024 73 8000 1 80 17:19 27.01.2020
71 Clouds 0 1024 73 8000 1 80 16:56 27.01.2020
72 Clouds 0 1024 68 8000 1 30 16:37 27.01.2020
73 Clouds 0 1024 68 8000 1 30 16:19 27.01.2020
74 Clouds 0 1024 68 8000 1 80 15:42 27.01.2020
75 Clouds 0 1024 68 8000 1 80 15:20 27.01.2020
76 Clouds 1 1024 63 8000 0.85 76 14:59 27.01.2020
77 Clouds 1 1024 64 8000 1 100 14:40 27.01.2020
78 Clouds 1 1024 60 8000 1 100 14:21 27.01.2020
79 Clouds 2 1024 50 8000 1 90 13:46 27.01.2020
80 Clouds 2 1024 47 8000 1 100 13:24 27.01.2020
81 Clouds 2 1024 47 8000 1 0 12:58 27.01.2020
82 Clouds 2 1024 47 8000 1 90 12:39 27.01.2020
83 Clouds 3 1024 47 8000 1 90 12:21 27.01.2020
84 Clouds 4 1023 44 6000 1 0 11:43 27.01.2020
85 Clouds 4 1023 44 6000 1 0 11:43 27.01.2020
86 Clouds 4 1023 44 6000 1 0 11:22 27.01.2020
87 Clouds 4 1023 38 6000 1 80 10:57 27.01.2020
88 Clouds 4 1023 41 6000 1 0 10:39 27.01.2020
89 Clouds 5 1023 41 6000 1 0 10:20 27.01.2020
90 Clouds 5 1023 35 6000 1 0 09:40 27.01.2020
91 Clouds 5 1023 35 6000 1 0 09:19 27.01.2020
92 Clouds 6 1023 33 6000 1 0 08:56 27.01.2020
93 Clouds 6 1023 35 6000 1 0 08:38 27.01.2020
94 Clouds 6 1023 35 6000 1 0 08:18 27.01.2020
95 Clouds 6 1023 35 6000 1 0 07:46 27.01.2020
96 Clouds 6 1024 35 7000 1 0 07:26 27.01.2020
97 Clouds 7 1024 35 7000 1 0 06:38 27.01.2020
98 Clouds 6 1025 38 7000 2 130 05:45 27.01.2020
99 Clouds 3 1026 43 7000 2 290 04:37 27.01.2020
100 Clouds 3 1027 50 6000 1 0 03:35 27.01.2020
101 Clouds 0 1027 63 6000 3 330 01:55 27.01.2020
102 Clouds -1 1027 63 6000 3 330 01:27 27.01.2020
103 Clouds -1 1027 68 6000 2 350 00:41 27.01.2020
104 Clouds -1 1027 68 6000 2 350 00:21 27.01.2020
105 Clouds -1 1027 68 6000 2 350 23:43 26.01.2020
106 Clouds -1 1027 73 6000 2 340 23:22 26.01.2020
107 Clouds -1 1026 73 6000 2 330 22:59 26.01.2020
108 Mist -1 1027 79 5000 2 340 22:38 26.01.2020
109 Mist -2 1027 79 5000 2 340 22:20 26.01.2020
110 Mist -2 1027 73 4500 2 340 21:58 26.01.2020
111 Mist -2 1027 73 4500 2 340 21:58 26.01.2020
112 Mist -1 1027 79 4500 1 340 21:39 26.01.2020
113 Mist -2 1027 79 4500 1 340 21:21 26.01.2020
114 Mist -2 1027 79 4500 1 340 21:21 26.01.2020
115 Mist -2 1028 73 4500 2 340 20:58 26.01.2020
116 Mist -2 1028 79 4500 2 330 20:38 26.01.2020
117 Mist -2 1028 79 4500 2 330 20:38 26.01.2020
118 Mist -2 1028 79 4500 2 330 20:38 26.01.2020
119 Mist -2 1028 79 4500 2 330 20:19 26.01.2020
120 Mist -2 1028 73 4500 2 330 19:58 26.01.2020
121 Mist -2 1029 73 4500 2 330 19:38 26.01.2020
122 Mist -2 1029 73 4500 2 330 19:38 26.01.2020
123 Mist -2 1029 73 4500 2 330 19:19 26.01.2020
124 Mist -2 1029 73 4500 2 360 18:56 26.01.2020
125 Mist -2 1029 85 4500 2 350 18:38 26.01.2020
126 Mist -2 1029 85 4500 2 350 18:20 26.01.2020
127 Mist -2 1029 79 4500 2 10 17:55 26.01.2020
128 Mist -2 1030 79 4500 1 0 17:36 26.01.2020
129 Mist -2 1030 79 4500 1 60 17:18 26.01.2020
130 Mist -2 1030 79 4500 1 60 16:55 26.01.2020
131 Mist -2 1030 79 4500 1 60 16:55 26.01.2020
132 Mist -2 1030 73 4500 1.17 349 16:37 26.01.2020
133 Mist -1 1030 73 4500 1.17 349 16:18 26.01.2020
134 Clouds 0 1024 63 0 1.17 349 15:43 26.01.2020
135 Clouds 0 1024 64 0 1.17 349 15:21 26.01.2020
136 Clouds 0 1025 65 0 1.17 349 14:56 26.01.2020
137 Clouds 0 1025 65 0 1.17 349 14:38 26.01.2020
138 Clouds 0 1025 63 0 0.95 359 14:18 26.01.2020
139 Clouds 0 1025 61 0 0.95 359 13:39 26.01.2020
140 Clouds 1 1025 61 0 1.04 356 13:18 26.01.2020
141 Clouds 1 1025 59 0 1.04 356 12:54 26.01.2020
142 Clouds 1 1025 59 0 1.04 356 12:36 26.01.2020
143 Clouds 1 1025 58 0 1.04 356 12:18 26.01.2020
144 Clouds 1 1025 56 0 1.04 356 11:56 26.01.2020
145 Haze 1 1031 47 4500 1 0 11:36 26.01.2020
146 Haze 1 1031 47 4500 1 0 11:18 26.01.2020
147 Haze 2 1031 47 4500 1 0 10:39 26.01.2020
148 Haze 2 1031 47 4500 1 0 10:21 26.01.2020
149 Haze 3 1031 44 5000 1 0 09:59 26.01.2020
150 Haze 3 1031 44 5000 1 0 09:41 26.01.2020
151 Haze 4 1031 44 5000 1 0 09:22 26.01.2020
152 Haze 4 1031 41 5000 1 0 08:55 26.01.2020
153 Haze 4 1031 41 5000 1 0 08:37 26.01.2020
154 Haze 4 1031 41 5000 1 0 08:18 26.01.2020
155 Haze 4 1032 38 5000 1 0 07:45 26.01.2020
156 Haze 4 1032 38 5000 2 150 07:45 26.01.2020
157 Haze 4 1032 38 5000 2 150 07:22 26.01.2020
158 Haze 5 1033 40 5000 1 0 06:34 26.01.2020
159 Haze 4 1034 44 5000 1 0 05:52 26.01.2020
160 Haze 2 1034 47 5000 1 0 05:22 26.01.2020
161 Clear 1 1036 68 6000 1 0 03:22 26.01.2020
162 Mist -1 1036 79 5000 2 350 02:23 26.01.2020
163 Mist -5 1035 92 4000 1 50 01:40 26.01.2020
164 Mist -5 1035 92 4000 1 50 01:20 26.01.2020
165 Clear -5 1034 85 8000 1 70 00:40 26.01.2020
166 Clear -5 1034 85 8000 1 70 00:20 26.01.2020
167 Clear -3 1028 69 0 1.26 46 23:38 25.01.2020
168 Clear -3 1028 67 0 1.36 24 23:20 25.01.2020
169 Clear -3 1028 67 0 1.36 24 22:43 25.01.2020
170 Clear -3 1028 66 0 1.36 24 22:21 25.01.2020
171 Clear -3 1027 65 0 1.36 24 21:59 25.01.2020
172 Clear -3 1027 65 0 1.36 24 21:59 25.01.2020
173 Clear -2 1027 65 0 1.36 24 21:41 25.01.2020
174 Clear -1 1034 49 0 1.36 24 21:22 25.01.2020
175 Clear -1 1034 49 0 1.36 24 20:54 25.01.2020
176 Clear -1 1034 49 0 1.36 24 20:36 25.01.2020
177 Clear -2 1027 62 0 1.04 17 20:18 25.01.2020
178 Clear -2 1027 62 0 1.04 17 19:41 25.01.2020
179 Clear -1 1027 57 0 0.97 10 19:19 25.01.2020
180 Clear -2 1027 57 0 0.97 10 18:56 25.01.2020
181 Clear -3 1028 61 0 0.97 10 18:38 25.01.2020
182 Clear -2 1027 57 0 0.97 10 18:20 25.01.2020
183 Clear -2 1027 55 0 0.97 10 17:39 25.01.2020
184 Clear -1 1028 55 0 1.3 4 17:19 25.01.2020
185 Clear -1 1028 55 0 1.3 4 17:19 25.01.2020
186 Clear -1 1028 56 0 1.45 352 16:56 25.01.2020
187 Clear -1 1027 55 0 1.45 352 16:38 25.01.2020
188 Clear 0 1028 58 0 1.45 352 16:19 25.01.2020
189 Clear -1 1028 60 0 1.45 352 15:46 25.01.2020
190 Clear -1 1028 59 0 1.45 352 15:25 25.01.2020
191 Clear 0 1028 58 0 1.45 352 14:57 25.01.2020
192 Clear 0 1028 57 0 1.45 352 14:39 25.01.2020
193 Clear 1 1027 55 0 1.3 320 14:18 25.01.2020
194 Clear 1 1027 54 0 1.3 320 13:41 25.01.2020
195 Clear 1 1027 54 0 1.3 320 13:22 25.01.2020
196 Clear 1 1027 54 0 1.3 320 13:22 25.01.2020
197 Clear 1 1032 40 8000 2 240 12:43 25.01.2020
198 Clear 1 1032 40 8000 2 240 12:23 25.01.2020
199 Clear 2 1032 40 8000 2 240 11:45 25.01.2020
200 Clear 3 1031 37 8000 1 0 11:22 25.01.2020
201 Clear 3 1031 38 8000 2 250 10:58 25.01.2020
202 Clear 3 1031 38 8000 2 0 10:40 25.01.2020
203 Clear 4 1031 38 8000 2 0 10:20 25.01.2020
204 Clear 5 1031 32 8000 1 0 09:41 25.01.2020
205 Clear 5 1031 32 8000 1 0 09:22 25.01.2020
206 Clear 5 1031 30 8000 2 310 08:44 25.01.2020
207 Clear 5 1032 35 8000 2 0 08:26 25.01.2020
208 Clear 5 1032 35 8000 2 0 07:49 25.01.2020
209 Clear 6 1033 35 8000 2 280 06:51 25.01.2020
210 Clear 6 1033 35 8000 2 360 06:28 25.01.2020
211 Clear 5 1033 35 8000 2 350 05:47 25.01.2020
212 Clear 1 1034 40 8000 3 360 04:50 25.01.2020
213 Clear 3 1035 54 8000 5 360 03:51 25.01.2020
214 Clear 0 1035 58 7000 4 330 02:57 25.01.2020
215 Clear -2 1035 58 7000 3 330 02:20 25.01.2020
216 Clear -4 1035 67 6000 4 330 01:43 25.01.2020
217 Clear -5 1034 72 6000 3 350 00:44 25.01.2020
218 Clear -5 1034 67 6000 2 330 00:26 25.01.2020
219 Clear -5 1034 78 6000 2 340 23:57 24.01.2020
220 Clear -5 1034 85 6000 1 340 23:39 24.01.2020
221 Clear -5 1034 85 6000 1 340 23:39 24.01.2020
222 Clear -5 1034 85 6000 1 340 23:21 24.01.2020
223 Clear -5 1034 78 6000 2 340 22:44 24.01.2020
224 Clear -5 1034 92 6000 2 360 22:25 24.01.2020
225 Clear -5 1035 85 6000 1 20 21:43 24.01.2020
226 Clear -6 1035 85 6000 1 20 21:21 24.01.2020
227 Clear -5 1035 92 6000 1 360 20:59 24.01.2020
228 Clear -5 1035 85 6000 1 0 20:40 24.01.2020
229 Clear -4 1035 85 6000 1 0 20:20 24.01.2020
230 Clear -6 1036 85 6000 0.09 257 19:57 24.01.2020
231 Clear -5 1036 85 6000 0.09 257 19:57 24.01.2020
232 Clear -5 1036 78 6000 1 30 19:38 24.01.2020
233 Clear -5 1036 78 6000 1 30 19:38 24.01.2020
234 Clear -5 1036 78 6000 1 30 19:20 24.01.2020
235 Clear -5 1036 85 7000 1 20 18:43 24.01.2020
236 Clear -3 1036 79 8000 0.09 257 18:24 24.01.2020
237 Clear -4 1036 79 10000 2 90 17:54 24.01.2020
238 Clear -3 1036 85 10000 1 100 17:36 24.01.2020
239 Clear -4 1036 85 10000 1 100 17:18 24.01.2020
240 Clear -2 1036 68 10000 1 60 16:39 24.01.2020
241 Clear -2 1036 68 10000 1 60 16:20 24.01.2020
242 Clear -2 1036 68 10000 1 0 15:43 24.01.2020
243 Clear -1 1037 63 10000 2 140 15:22 24.01.2020
244 Clear -1 1037 58 10000 2 130 14:58 24.01.2020
245 Clear 0 1037 50 10000 3 130 14:40 24.01.2020
246 Clouds -1 1037 50 10000 3 130 14:21 24.01.2020
247 Clouds -1 1036 49 10000 1 0 13:43 24.01.2020
248 Clouds -1 1036 45 10000 1 90 13:23 24.01.2020
249 Clouds -1 1036 49 10000 1 90 12:44 24.01.2020
250 Clouds 0 1036 38 10000 1 0 12:22 24.01.2020
251 Clouds 0 1036 33 10000 2 110 11:57 24.01.2020
252 Clouds 1 1036 40 10000 2 110 11:38 24.01.2020
253 Clouds 1 1036 37 10000 2 110 11:18 24.01.2020
254 Clouds 2 1036 22 10000 2 120 10:41 24.01.2020
255 Clouds 3 1036 22 10000 2 120 10:19 24.01.2020
256 Clouds 3 1036 21 10000 3 140 09:42 24.01.2020
257 Clouds 3 1036 21 10000 3 140 09:42 24.01.2020
258 Clouds 3 1036 21 10000 3 140 09:24 24.01.2020
259 Clouds 3 1036 21 10000 3 140 09:00 24.01.2020
260 Clouds 4 1036 19 10000 4 160 08:38 24.01.2020
261 Clouds 4 1036 19 10000 4 160 08:18 24.01.2020
262 Clouds 4 1036 19 10000 3 170 07:43 24.01.2020
263 Clouds 4 1037 19 10000 4 180 07:22 24.01.2020
264 Clouds 4 1037 19 10000 4 180 07:22 24.01.2020
265 Clouds 4 1037 19 10000 4 170 06:43 24.01.2020
266 Clouds 5 1038 18 10000 5 180 06:23 24.01.2020
267 Clouds 5 1039 19 10000 4 190 05:22 24.01.2020
268 Clouds 3 1040 26 10000 1 0 03:36 24.01.2020
269 Clouds 1 1040 68 10000 1 40 02:40 24.01.2020
270 Clouds -1 1040 68 10000 1 40 02:21 24.01.2020
271 Clouds -3 1039 72 10000 1 0 01:39 24.01.2020
272 Clouds -4 1039 67 10000 1.64 150 00:49 24.01.2020
273 Clouds -3 1039 53 10000 2 150 00:19 24.01.2020
274 Clouds -2 1038 46 10000 4 140 23:42 23.01.2020
275 Clouds -1 1038 46 10000 4 140 23:22 23.01.2020
276 Clouds -1 1038 42 10000 4 140 22:58 23.01.2020
277 Clouds -2 1038 63 10000 4 120 22:37 23.01.2020
278 Clouds -2 1038 63 10000 4 120 22:18 23.01.2020
279 Clouds -4 1038 85 7000 2 90 21:55 23.01.2020
280 Clouds -3 1038 85 7000 1 70 21:37 23.01.2020
281 Clouds -3 1038 85 7000 1 70 21:19 23.01.2020
282 Clouds -3 1038 92 8000 1 0 20:54 23.01.2020
283 Clouds -3 1038 85 8000 1 30 20:36 23.01.2020
284 Clear -3 1038 85 8000 1 30 20:18 23.01.2020
285 Clear -3 1038 92 8000 1 0 19:42 23.01.2020
286 Clear -2 1038 92 8000 1 0 19:23 23.01.2020
287 Clear -3 1038 85 6000 1 0 18:57 23.01.2020
288 Clear -3 1037 85 6000 1 20 18:38 23.01.2020
289 Clear -2 1037 85 6000 1 20 18:19 23.01.2020
290 Clear -2 1037 85 6000 1.33 188 17:45 23.01.2020
291 Clear -2 1037 85 6000 2 360 17:21 23.01.2020
292 Clear -1 1036 79 6000 1.18 131 16:59 23.01.2020
293 Clear -1 1036 79 6000 1 0 16:39 23.01.2020
294 Clear -1 1036 79 6000 1 0 16:20 23.01.2020
295 Clear 0 1035 63 6000 1 30 15:58 23.01.2020
296 Clear 1 1034 50 7000 2 120 15:39 23.01.2020
297 Clear 1 1034 50 7000 2 120 15:19 23.01.2020
298 Clear 1 1034 55 10000 2 110 14:58 23.01.2020
299 Clear 2 1033 55 10000 6 140 14:40 23.01.2020
300 Clear 2 1033 55 10000 6 140 14:22 23.01.2020
301 Clear 0 1033 54 10000 3 110 13:55 23.01.2020
302 Clear 1 1032 58 10000 1 0 13:36 23.01.2020
303 Clear 1 1032 58 10000 1 0 13:18 23.01.2020
304 Clear 2 1031 50 10000 1 0 12:42 23.01.2020
305 Clear 2 1031 50 10000 1 0 12:24 23.01.2020
306 Clear 1 1031 50 10000 1 360 11:56 23.01.2020
307 Clear 3 1030 34 10000 1 40 11:37 23.01.2020
308 Clear 4 1030 34 10000 1 40 11:18 23.01.2020
309 Clear 6 1030 22 10000 1 40 10:41 23.01.2020
310 Clear 7 1030 22 10000 1 40 10:19 23.01.2020
311 Clear 8 1029 19 10000 2 40 09:42 23.01.2020
312 Clear 9 1029 19 10000 2 40 09:23 23.01.2020
313 Clear 9 1028 19 10000 3 30 08:57 23.01.2020
314 Clear 9 1028 21 10000 3 50 08:38 23.01.2020
315 Clear 9 1028 21 10000 3 50 08:20 23.01.2020
316 Clear 9 1028 23 10000 3 50 07:42 23.01.2020
317 Clear 9 1028 24 10000 4 20 07:24 23.01.2020
318 Clear 10 1028 24 10000 2 0 06:46 23.01.2020
319 Clear 10 1028 24 10000 2 0 06:19 23.01.2020
320 Clear 7 1029 28 10000 4 20 04:58 23.01.2020
321 Clear 6 1029 33 10000 4 360 04:21 23.01.2020
322 Clear 2 1028 63 10000 2 10 02:31 23.01.2020
323 Clear -2 1027 67 10000 2 20 00:56 23.01.2020
324 Clear -2 1026 68 10000 3 330 00:26 23.01.2020
325 Clear -3 1026 73 10000 2 330 23:47 22.01.2020
326 Clear -3 1025 73 10000 3 330 23:29 22.01.2020
327 Clear -3 1025 79 10000 2 350 22:56 22.01.2020
328 Clear -3 1025 67 10000 3 340 22:38 22.01.2020
329 Clear -3 1025 67 10000 3 340 22:20 22.01.2020
330 Clear -4 1025 79 10000 1 0 21:39 22.01.2020
331 Clear -3 1025 79 10000 1 0 21:21 22.01.2020
332 Clear -4 1025 73 10000 2 330 20:56 22.01.2020
333 Clear -3 1025 78 10000 3 350 20:36 22.01.2020
334 Clear -3 1025 78 10000 3 350 20:18 22.01.2020
335 Clear -4 1025 78 10000 2 360 19:55 22.01.2020
336 Clear -3 1025 79 10000 2 340 19:37 22.01.2020
337 Clear -2 1025 79 10000 2 340 19:18 22.01.2020
338 Clear -3 1025 85 10000 1 0 18:55 22.01.2020
339 Clear -4 1025 85 10000 1 0 18:37 22.01.2020
340 Clear -4 1025 85 10000 1 0 18:18 22.01.2020
341 Clear -2 1024 79 10000 1.4 4 17:40 22.01.2020
342 Clear -2 1024 79 10000 1 40 17:21 22.01.2020
343 Clear -3 1024 79 10000 1 40 16:58 22.01.2020
344 Clear -2 1024 73 10000 1.06 344 16:39 22.01.2020
345 Clear -2 1024 73 10000 1.06 344 16:21 22.01.2020
346 Clear -2 1024 67 10000 1 0 15:55 22.01.2020
347 Clear -2 1024 73 10000 1 30 15:37 22.01.2020
348 Clear -1 1024 73 10000 1 30 15:18 22.01.2020
349 Clear -2 1024 73 10000 1 0 14:39 22.01.2020
350 Clear -1 1024 73 10000 1 0 14:20 22.01.2020
351 Clear -1 1024 62 10000 1 0 13:58 22.01.2020
352 Clear 0 1024 68 10000 1 0 13:38 22.01.2020
353 Clear -1 1024 68 10000 1 0 13:19 22.01.2020
354 Clear 1 1023 58 10000 0.93 328 12:57 22.01.2020
355 Clear 0 1023 58 10000 1 0 12:39 22.01.2020
356 Clear 1 1023 58 10000 1 0 12:19 22.01.2020
357 Clear 0 1023 54 10000 1 160 11:58 22.01.2020
358 Clear 1 1023 50 10000 0.93 328 11:39 22.01.2020
359 Clear 1 1023 50 10000 0.61 236 11:19 22.01.2020
360 Clear 1 1023 50 10000 0.61 236 11:19 22.01.2020
361 Clear 3 1022 40 10000 0.61 236 10:54 22.01.2020
362 Clear 3 1022 34 10000 1 30 10:36 22.01.2020
363 Clear 4 1022 34 10000 1 30 10:18 22.01.2020
364 Clear 6 1022 28 10000 1 0 09:41 22.01.2020
365 Clear 6 1022 28 10000 1 0 09:23 22.01.2020
366 Clear 6 1022 28 10000 1 0 08:56 22.01.2020
367 Clear 5 1022 30 10000 3 180 08:37 22.01.2020
368 Clear 6 1022 30 10000 3 180 08:19 22.01.2020
369 Clear 6 1022 30 10000 3 180 08:19 22.01.2020
370 Clear 6 1023 30 10000 3 180 07:45 22.01.2020
371 Clear 5 1023 27 10000 1 0 07:27 22.01.2020
372 Clear 7 1023 29 10000 1 0 06:38 22.01.2020
373 Clear 7 1023 29 10000 1 0 06:19 22.01.2020
374 Clear 3 1025 40 10000 4 320 04:27 22.01.2020
375 Clear 2 1025 35 10000 4 320 03:29 22.01.2020
376 Clear 0 1024 50 10000 4 330 02:49 22.01.2020
377 Clear -3 1024 67 10000 5 350 01:30 22.01.2020
378 Clear -3 1023 62 10000 3 330 00:40 22.01.2020
379 Clear -4 1023 62 10000 3 330 00:19 22.01.2020
380 Clear -4 1023 67 10000 4 330 23:37 21.01.2020
381 Clear -4 1023 67 10000 4 330 23:37 21.01.2020
382 Clear -4 1023 78 10000 3 330 23:19 21.01.2020
383 Clear -4 1023 73 10000 2 330 22:42 21.01.2020
384 Clear -4 1023 73 10000 2 330 22:24 21.01.2020
385 Clear -4 1023 78 10000 2 330 21:59 21.01.2020
386 Clear -4 1023 72 10000 3 330 21:39 21.01.2020
387 Clear -5 1023 72 10000 3 330 21:21 21.01.2020
388 Clear -4 1024 67 10000 2 310 20:58 21.01.2020
389 Clear -4 1024 73 10000 2 320 20:39 21.01.2020
390 Clear -3 1024 73 10000 2 320 20:20 21.01.2020
391 Clear -3 1024 73 10000 2 330 19:58 21.01.2020
392 Clear -3 1024 67 10000 3 350 19:39 21.01.2020
393 Clear -3 1024 67 10000 3 350 19:21 21.01.2020
394 Clear -4 1024 73 10000 2 340 18:57 21.01.2020
395 Clear -4 1024 79 10000 1 40 18:39 21.01.2020
396 Clear -4 1024 79 10000 1 40 18:20 21.01.2020
397 Clear -4 1024 79 10000 1 10 17:57 21.01.2020
398 Clear -3 1024 79 10000 1 50 17:38 21.01.2020
399 Clouds -3 1024 79 10000 1 50 17:18 21.01.2020
400 Clouds -3 1025 73 10000 1 10 16:38 21.01.2020
401 Clouds -3 1025 73 10000 1 10 16:19 21.01.2020
402 Clouds -3 1025 68 10000 1 0 15:59 21.01.2020
403 Clouds -2 1025 63 10000 1.57 356 15:38 21.01.2020
404 Clouds -2 1025 63 10000 1.57 356 15:19 21.01.2020
405 Clouds -1 1024 63 10000 1 0 14:40 21.01.2020
406 Clouds -1 1024 63 10000 1 0 14:21 21.01.2020
407 Clouds -1 1024 58 10000 1.52 3 13:44 21.01.2020
408 Clouds 0 1024 54 10000 1 160 13:21 21.01.2020
409 Clouds 0 1024 38 10000 1 140 12:59 21.01.2020
410 Clouds 1 1024 38 10000 2 150 12:41 21.01.2020
411 Clouds 1 1024 38 10000 2 150 12:23 21.01.2020
412 Clouds 1 1024 43 10000 2 150 11:56 21.01.2020
413 Clouds 1 1023 40 10000 2 150 11:37 21.01.2020
414 Clouds 2 1023 40 10000 2 150 11:18 21.01.2020
415 Clouds 3 1023 34 10000 3 140 10:42 21.01.2020
416 Clouds 3 1023 34 10000 3 140 10:22 21.01.2020
417 Clouds 3 1023 34 10000 3 140 10:22 21.01.2020
418 Clouds 3 1023 32 10000 3 150 09:55 21.01.2020
419 Clouds 4 1023 29 10000 3 170 09:37 21.01.2020
420 Clouds 4 1023 29 10000 3 170 09:18 21.01.2020
421 Clouds 4 1023 27 10000 3 0 08:41 21.01.2020
422 Clouds 5 1023 27 10000 3 0 08:21 21.01.2020
423 Clouds 5 1024 27 10000 2 0 07:43 21.01.2020
424 Clouds 5 1024 27 10000 2 0 07:43 21.01.2020
425 Clouds 4 1024 32 10000 2 0 07:23 21.01.2020
426 Clouds 4 1024 32 10000 1 0 06:57 21.01.2020
427 Clouds 5 1025 34 10000 2 0 06:38 21.01.2020
428 Clouds 5 1026 34 10000 1 0 05:53 21.01.2020
429 Clouds 4 1026 37 10000 1 0 05:32 21.01.2020
430 Clouds 1 1027 37 10000 1 0 04:37 21.01.2020
431 Clouds -1 1027 62 10000 1 0 02:27 21.01.2020
432 Clouds -5 1027 72 10000 0.8 37 01:36 21.01.2020
433 Clouds -5 1027 67 10000 1 30 00:45 21.01.2020
434 Clouds -7 1026 72 10000 1 60 00:25 21.01.2020
435 Clouds -6 1026 66 10000 1 90 23:56 20.01.2020
436 Clouds -6 1026 67 10000 1 0 23:36 20.01.2020
437 Clear -6 1026 67 10000 1 0 23:18 20.01.2020
438 Clear -5 1026 67 10000 1 0 22:40 20.01.2020
439 Clear -5 1026 67 10000 1 0 22:21 20.01.2020
440 Clear -5 1027 61 10000 1 0 21:58 20.01.2020
441 Clear -5 1027 61 10000 1 0 21:58 20.01.2020
442 Clear -5 1027 61 10000 1 0 21:38 20.01.2020
443 Clear -5 1027 61 10000 1 0 21:20 20.01.2020
444 Clear -5 1027 67 10000 1 40 20:58 20.01.2020
445 Clear -4 1027 66 10000 1 50 20:39 20.01.2020
446 Clear -4 1027 66 10000 1 50 20:20 20.01.2020
447 Clear -5 1027 61 10000 1 0 19:58 20.01.2020
448 Clear -4 1027 62 10000 1 0 19:40 20.01.2020
449 Clear -4 1027 62 10000 1 0 19:19 20.01.2020
450 Clear -4 1027 61 10000 2 120 18:54 20.01.2020
451 Clear -3 1027 49 10000 2 150 18:36 20.01.2020
452 Clear -3 1027 49 10000 2 150 18:18 20.01.2020
453 Clear -1 1028 45 10000 2 140 17:38 20.01.2020
454 Clear -1 1028 45 10000 2 140 17:19 20.01.2020
455 Clear -2 1028 49 10000 2 150 16:45 20.01.2020
456 Clear -2 1028 49 10000 2 160 16:25 20.01.2020
457 Clear -2 1028 45 10000 1 0 15:58 20.01.2020
458 Clear -2 1027 49 10000 2 120 15:40 20.01.2020
459 Clear -2 1027 49 10000 2 120 15:21 20.01.2020
460 Clear -2 1027 45 10000 1 0 14:56 20.01.2020
461 Clear -1 1027 42 10000 1 120 14:37 20.01.2020
462 Clear 0 1027 42 10000 1 120 14:19 20.01.2020
463 Clear -2 1027 38 10000 1 150 13:42 20.01.2020
464 Clear -2 1027 38 10000 1 150 13:23 20.01.2020
465 Clear -2 1027 35 10000 1 140 12:56 20.01.2020
466 Clear 0 1027 33 10000 2 160 12:38 20.01.2020
467 Clear 0 1027 33 10000 2 160 12:19 20.01.2020
468 Clear 2 1026 22 10000 2 130 11:43 20.01.2020
469 Clear 2 1026 22 10000 2 130 11:24 20.01.2020
470 Clear 3 1026 21 10000 2 120 10:57 20.01.2020
471 Clear 3 1026 19 10000 2 100 10:39 20.01.2020
472 Clear 4 1026 19 10000 2 100 10:20 20.01.2020
473 Clear 5 1026 15 10000 3 90 09:41 20.01.2020
474 Clear 5 1026 15 10000 3 90 09:22 20.01.2020
475 Clear 5 1026 17 10000 2 110 08:51 20.01.2020
476 Clear 5 1026 17 10000 3 60 08:31 20.01.2020
477 Clear 6 1026 14 10000 1 0 07:55 20.01.2020
478 Clear 6 1027 14 10000 2 320 07:31 20.01.2020
479 Clear 6 1027 15 10000 2 10 06:59 20.01.2020
480 Clear 6 1027 15 10000 2 10 06:59 20.01.2020
481 Clear 6 1027 13 10000 4 320 06:34 20.01.2020
482 Clear 5 1028 14 10000 4 310 05:49 20.01.2020
483 Clear 6 1028 15 10000 6 320 05:30 20.01.2020
484 Clear 6 1028 15 10000 6 320 05:30 20.01.2020
485 Clear 3 1029 16 10000 8 320 04:58 20.01.2020
486 Clear 4 1029 24 10000 4 320 03:30 20.01.2020
487 Clear -1 1028 39 10000 4 350 01:58 20.01.2020
488 Clear -2 1027 45 10000 3 30 01:38 20.01.2020
489 Clear -2 1027 36 10000 1 0 00:46 20.01.2020
490 Clear -1 1027 33 10000 5 310 00:26 20.01.2020
491 Clear -1 1026 36 10000 5 330 23:54 19.01.2020
492 Clear -2 1026 38 10000 3 350 23:36 19.01.2020
493 Clear -2 1026 38 10000 3 350 23:18 19.01.2020
494 Clear -2 1026 38 10000 3 350 23:18 19.01.2020
495 Clear -1 1025 33 10000 6 310 22:54 19.01.2020
496 Clear -1 1025 33 10000 5 300 22:36 19.01.2020
497 Clear 0 1025 33 10000 5 300 22:18 19.01.2020
498 Clear 0 1025 30 10000 6 300 21:54 19.01.2020
499 Clear 0 1025 36 10000 5 310 21:36 19.01.2020
500 Clear 0 1025 36 10000 5 310 21:36 19.01.2020
501 Clear 0 1025 36 10000 5 310 21:18 19.01.2020
502 Clear 0 1025 36 10000 4 300 20:54 19.01.2020
503 Clear 0 1025 36 10000 4 300 20:36 19.01.2020
504 Clear 0 1025 36 10000 4 300 20:18 19.01.2020
505 Clear 0 1025 32 10000 4 290 19:54 19.01.2020
506 Clear 0 1025 32 10000 5 300 19:36 19.01.2020
507 Clear 0 1025 32 10000 5 300 19:18 19.01.2020
508 Clear 0 1025 32 10000 5 290 18:54 19.01.2020
509 Clear 1 1025 29 10000 5 300 18:36 19.01.2020
510 Clear 1 1025 29 10000 5 300 18:36 19.01.2020
511 Clear 1 1025 29 10000 5 300 18:18 19.01.2020
512 Clear 1 1025 29 10000 5 300 17:56 19.01.2020
513 Clear 2 1024 29 10000 5 290 17:37 19.01.2020
514 Clear 2 1024 29 10000 5 290 17:18 19.01.2020
515 Clear 2 1024 27 10000 5 290 16:54 19.01.2020
516 Clear 2 1024 27 10000 5 290 16:54 19.01.2020
517 Clear 2 1024 27 10000 5 290 16:36 19.01.2020
518 Clear 2 1024 27 10000 5 290 16:18 19.01.2020
519 Clear 3 1023 25 10000 7 300 15:41 19.01.2020
520 Clear 3 1023 25 10000 7 300 15:22 19.01.2020
521 Clear 3 1022 25 10000 5 290 14:59 19.01.2020
522 Clear 1 1022 35 10000 2 290 14:40 19.01.2020
523 Clear 2 1022 35 10000 2 290 14:19 19.01.2020
524 Clear 1 1022 35 10000 1 0 13:58 19.01.2020
525 Clear 0 1021 39 10000 1 0 13:39 19.01.2020
526 Clear 0 1021 39 10000 1 0 13:21 19.01.2020
527 Clear 3 1021 25 10000 3 270 12:58 19.01.2020
528 Clear 3 1021 25 10000 3 270 12:58 19.01.2020
529 Clear 2 1020 27 10000 3 230 12:40 19.01.2020
530 Clear 2 1020 27 10000 3 230 12:21 19.01.2020
531 Clear 2 1020 27 10000 4 180 11:57 19.01.2020
532 Clear 3 1020 25 10000 4 190 11:37 19.01.2020
533 Clear 4 1020 25 10000 4 190 11:18 19.01.2020
534 Clear 4 1019 25 10000 5 200 10:39 19.01.2020
535 Clear 4 1019 25 10000 5 200 10:20 19.01.2020
536 Clear 5 1019 21 10000 4 200 09:57 19.01.2020
537 Clear 5 1019 21 10000 4 200 09:57 19.01.2020
538 Clear 5 1019 21 10000 5 200 09:38 19.01.2020
539 Clear 5 1019 21 10000 5 200 09:19 19.01.2020
540 Clear 5 1019 21 10000 5 190 08:55 19.01.2020
541 Clear 6 1019 18 10000 5 200 08:32 19.01.2020
542 Clear 6 1019 18 10000 4 220 07:54 19.01.2020
543 Clear 6 1019 18 10000 4 0 07:28 19.01.2020
544 Clear 6 1020 20 10000 4 210 06:55 19.01.2020
545 Clear 7 1020 18 10000 5 220 06:22 19.01.2020
546 Clear 5 1023 21 10000 9 320 03:55 19.01.2020
547 Clear 2 1023 24 10000 4 300 02:33 19.01.2020
548 Clear -4 1023 66 10000 1 0 01:39 19.01.2020
549 Clear -3 1023 66 10000 1 0 01:20 19.01.2020
550 Clear -3 1023 57 10000 2 270 00:44 19.01.2020
551 Clear -3 1023 67 10000 1 0 00:21 19.01.2020
552 Clear -4 1023 67 10000 1 0 23:47 18.01.2020
553 Clear -3 1022 66 10000 1 160 23:25 18.01.2020
554 Clear -3 1022 61 10000 1 0 22:59 18.01.2020
555 Clear -3 1022 61 10000 2 20 22:41 18.01.2020
556 Clear -2 1022 61 10000 2 20 22:21 18.01.2020
557 Clear -1 1022 53 10000 1 80 21:58 18.01.2020
558 Clear -1 1022 49 10000 3 310 21:38 18.01.2020
559 Clear -1 1022 49 10000 3 310 21:20 18.01.2020
560 Clear 0 1022 42 10000 4 300 20:56 18.01.2020
561 Clear -1 1023 57 10000 2 340 20:38 18.01.2020
562 Clouds -1 1023 57 10000 2 340 20:18 18.01.2020
563 Clouds -1 1023 57 10000 1 0 19:43 18.01.2020
564 Clouds -1 1023 57 10000 1 0 19:24 18.01.2020
565 Clouds -2 1023 72 10000 1 130 18:43 18.01.2020
566 Clouds -1 1023 79 10000 1 0 18:25 18.01.2020
567 Clouds -1 1023 79 10000 1 0 18:25 18.01.2020
568 Clouds -1 1023 67 10000 1 0 17:59 18.01.2020
569 Clouds 0 1023 67 10000 1 0 17:40 18.01.2020
570 Clouds -1 1023 67 10000 1 0 17:20 18.01.2020
571 Mist -1 1023 67 5000 2 320 16:57 18.01.2020
572 Mist -1 1023 85 3500 2 20 16:38 18.01.2020
573 Mist -1 1023 85 3500 2 20 16:38 18.01.2020
574 Mist -1 1023 85 3500 2 20 16:19 18.01.2020
575 Mist 0 1022 85 2500 1 0 15:44 18.01.2020
576 Mist 0 1022 79 2500 2 210 15:26 18.01.2020
577 Mist -1 1022 79 2500 1 0 14:59 18.01.2020
578 Mist -2 1022 74 2500 2 0 14:40 18.01.2020
579 Mist -1 1022 74 2500 2 0 14:19 18.01.2020
580 Mist -1 1022 79 2300 2 300 13:56 18.01.2020
581 Mist -3 1021 85 2300 1 90 13:36 18.01.2020
582 Mist -3 1021 85 2300 1 90 13:18 18.01.2020
583 Mist -3 1021 85 2300 1 90 13:18 18.01.2020
584 Mist -1 1021 79 2300 2 160 12:41 18.01.2020
585 Mist -3 1021 79 2300 2 160 12:21 18.01.2020
586 Mist -1 1021 73 2300 3 170 11:56 18.01.2020
587 Mist -1 1021 74 2300 3 180 11:37 18.01.2020
588 Mist -1 1021 74 2300 3 180 11:19 18.01.2020
589 Haze -1 1020 74 2300 3 170 10:41 18.01.2020
590 Haze -2 1020 74 2300 3 170 10:20 18.01.2020
591 Haze -2 1020 74 2300 3 170 10:20 18.01.2020
592 Haze -2 1020 74 2300 3 170 10:20 18.01.2020
593 Haze -1 1020 74 2300 3 170 09:50 18.01.2020
594 Haze 0 1020 48 2800 4 170 09:32 18.01.2020
595 Haze 0 1020 55 2800 3 190 08:59 18.01.2020
596 Haze 0 1020 55 2800 4 190 08:41 18.01.2020
597 Haze 1 1020 55 2800 4 190 08:20 18.01.2020
598 Haze 1 1021 55 2800 3 180 07:52 18.01.2020
599 Haze 1 1021 50 2800 3 170 07:32 18.01.2020
600 Haze 2 1022 47 2800 2 140 06:48 18.01.2020
601 Haze 2 1022 47 3200 2 180 06:19 18.01.2020
602 Clouds 1 1024 40 10000 2 200 05:30 18.01.2020
603 Clouds 0 1025 54 10000 0.87 327 03:39 18.01.2020
604 Clouds -2 1025 63 10000 1 0 02:20 18.01.2020
605 Clouds -5 1025 72 10000 1 0 01:36 18.01.2020
606 Clouds -5 1025 62 10000 1 0 00:38 18.01.2020
607 Clouds -5 1025 62 10000 1 0 00:19 18.01.2020
608 Clouds -6 1024 78 10000 2 350 23:44 17.01.2020
609 Clear -6 1025 78 10000 1.51 2 23:20 17.01.2020
610 Clear -6 1024 85 10000 1.51 2 22:59 17.01.2020
611 Clear -5 1024 78 10000 1 0 22:40 17.01.2020
612 Clear -6 1024 78 10000 1 0 22:19 17.01.2020
613 Clear -5 1025 78 10000 1 330 21:42 17.01.2020
614 Clear -5 1025 78 10000 1 330 21:24 17.01.2020
615 Clear -5 1025 72 10000 2 340 20:59 17.01.2020
616 Clear -5 1026 67 10000 3 350 20:40 17.01.2020
617 Clear -5 1026 67 10000 3 350 20:20 17.01.2020
618 Clear -5 1026 72 10000 2 350 19:57 17.01.2020
619 Clear -4 1026 73 10000 3 350 19:38 17.01.2020
620 Clear -4 1026 73 10000 3 350 19:19 17.01.2020
621 Clear -4 1026 73 10000 2 340 18:57 17.01.2020
622 Clear -4 1026 78 10000 2 360 18:37 17.01.2020
623 Clear -4 1026 79 10000 2 350 18:19 17.01.2020
624 Clear -3 1026 79 10000 1.32 352 17:40 17.01.2020
625 Clear -3 1026 79 10000 1.32 352 17:40 17.01.2020
626 Clear -3 1026 79 10000 1.1 348 17:21 17.01.2020
627 Clear -3 1026 67 10000 1 0 16:55 17.01.2020
628 Clear -3 1026 67 10000 1 0 16:36 17.01.2020
629 Clear -3 1026 67 10000 1 0 16:18 17.01.2020
630 Clear -2 1026 62 10000 1 0 15:43 17.01.2020
631 Clear -2 1026 73 10000 1 10 15:25 17.01.2020
632 Clear -1 1026 58 10000 1 0 14:44 17.01.2020
633 Clear -1 1026 58 10000 1 0 14:25 17.01.2020
634 Clear -1 1026 50 10000 1 0 13:56 17.01.2020
635 Clear 1 1026 37 10000 2 230 13:37 17.01.2020
636 Clear 1 1026 37 10000 2 230 13:18 17.01.2020
637 Clear 0 1026 34 10000 3 190 12:42 17.01.2020
638 Clear 0 1026 34 10000 3 190 12:21 17.01.2020
639 Clear 0 1025 46 10000 1 0 11:38 17.01.2020
640 Clear 1 1025 46 10000 1 0 11:18 17.01.2020
641 Clear 2 1025 31 10000 1 0 10:43 17.01.2020
642 Clear 2 1025 31 10000 1 0 10:23 17.01.2020
643 Clear 3 1025 27 10000 1 0 09:58 17.01.2020
644 Clear 4 1025 27 10000 1 0 09:39 17.01.2020
645 Clear 3 1025 27 10000 1 0 09:19 17.01.2020
646 Clear 4 1025 25 10000 1 0 08:43 17.01.2020
647 Clear 4 1025 27 10000 1 0 08:24 17.01.2020
648 Clouds 4 1025 25 10000 1 0 07:54 17.01.2020
649 Clouds 4 1026 29 10000 1 0 07:31 17.01.2020
650 Clouds 4 1026 29 10000 1 0 06:58 17.01.2020
651 Clouds 4 1026 29 10000 1 0 06:58 17.01.2020
652 Clouds 5 1026 31 10000 1 0 06:40 17.01.2020
653 Clouds 4 1027 31 10000 1 0 05:53 17.01.2020
654 Clouds 1 1023 46 0 0.79 338 03:39 17.01.2020
655 Clouds 0 1023 50 0 0.79 338 02:52 17.01.2020
656 Clouds -5 1023 52 0 1.05 360 01:47 17.01.2020
657 Clouds -6 1023 53 0 1.05 360 01:29 17.01.2020
658 Clouds -6 1023 56 0 1.06 360 00:50 17.01.2020
659 Clouds -7 1028 78 10000 2 360 00:26 17.01.2020
660 Clouds -7 1028 78 10000 2 360 23:44 16.01.2020
661 Clouds -6 1028 78 10000 2 360 23:26 16.01.2020
662 Clouds -5 1028 78 10000 2 340 22:57 16.01.2020
663 Clouds -7 1028 85 10000 1 350 22:39 16.01.2020
664 Clouds -7 1028 85 10000 1 350 22:20 16.01.2020
665 Clouds -6 1028 85 10000 1 10 21:55 16.01.2020
666 Clouds -6 1029 72 10000 2 360 21:36 16.01.2020
667 Clouds -6 1029 72 10000 2 360 21:18 16.01.2020
668 Clouds -5 1029 72 10000 1 10 20:41 16.01.2020
669 Clouds -5 1029 72 10000 1 10 20:21 16.01.2020
670 Clouds -5 1030 73 10000 2 360 19:59 16.01.2020
671 Clouds -5 1030 79 10000 0.84 23 19:41 16.01.2020
672 Clouds -5 1030 79 10000 0.84 23 19:22 16.01.2020
673 Clouds -5 1030 79 10000 0.84 23 19:22 16.01.2020
674 Clouds -5 1030 79 10000 0.84 23 19:22 16.01.2020
675 Clouds -5 1030 79 10000 1 40 18:57 16.01.2020
676 Clouds -4 1030 73 10000 2 70 18:38 16.01.2020
677 Clouds -4 1030 73 10000 2 70 18:20 16.01.2020
678 Clouds -4 1030 67 10000 1 30 17:59 16.01.2020
679 Clouds -4 1030 72 10000 1 40 17:40 16.01.2020
680 Clouds -5 1030 72 10000 1 40 17:20 16.01.2020
681 Clouds -5 1030 73 10000 1 60 16:42 16.01.2020
682 Clouds -5 1030 73 10000 1 60 16:24 16.01.2020
683 Clouds -4 1030 67 10000 1 0 15:59 16.01.2020
684 Clouds -3 1030 62 10000 0.39 2 15:39 16.01.2020
685 Clouds -4 1030 62 10000 0.39 2 15:20 16.01.2020
686 Clouds -4 1030 67 10000 0.39 2 14:45 16.01.2020
687 Clouds -4 1030 62 10000 0.39 2 14:24 16.01.2020
688 Clouds -3 1031 62 10000 1 0 13:56 16.01.2020
689 Clouds -4 1031 62 10000 1 0 13:37 16.01.2020
690 Clouds -3 1031 62 10000 1 0 13:19 16.01.2020
691 Clouds -3 1031 62 10000 1 0 13:19 16.01.2020
692 Clouds -3 1031 49 10000 0.17 29 12:42 16.01.2020
693 Clouds -2 1031 49 10000 0.17 29 12:22 16.01.2020
694 Clouds -2 1031 45 10000 0.17 29 11:43 16.01.2020
695 Clouds -2 1030 42 10000 0.17 29 11:25 16.01.2020
696 Clouds -1 1030 39 10000 1 90 10:59 16.01.2020
697 Clouds -1 1030 27 10000 1 0 10:38 16.01.2020
698 Clouds 0 1030 27 10000 1 0 10:20 16.01.2020
699 Clouds 0 1030 27 10000 1 70 09:56 16.01.2020
700 Clouds 1 1030 29 10000 2 60 09:37 16.01.2020
701 Clouds 1 1030 29 10000 2 60 09:19 16.01.2020
702 Clouds 1 1030 29 10000 1 0 08:49 16.01.2020
703 Clouds 1 1030 26 10000 1 0 08:29 16.01.2020
704 Clouds 1 1030 26 10000 1 0 07:57 16.01.2020
705 Clouds 1 1031 24 10000 1 0 07:37 16.01.2020
706 Clouds 1 1031 24 10000 1 0 07:18 16.01.2020
707 Clouds 3 1031 24 10000 1 0 06:42 16.01.2020
708 Clouds 1 1032 26 10000 2 30 05:58 16.01.2020
709 Clouds 2 1032 26 10000 2 20 05:40 16.01.2020
710 Clouds -1 1033 32 10000 2 10 04:37 16.01.2020
711 Clouds -1 1033 32 10000 2 10 04:37 16.01.2020
712 Clouds 1 1033 30 10000 4 30 03:28 16.01.2020
713 Clouds -1 1033 33 10000 5 10 02:42 16.01.2020
714 Clouds -5 1032 38 10000 4 10 00:53 16.01.2020
715 Clouds -5 1032 38 10000 4 360 00:24 16.01.2020
716 Clouds -4 1031 35 10000 5 10 23:48 15.01.2020
717 Clouds -4 1031 38 10000 5 20 23:23 15.01.2020
718 Clouds -4 1031 38 10000 5 20 23:23 15.01.2020
719 Clear -5 1031 38 10000 5 20 22:57 15.01.2020
720 Clear -3 1030 38 10000 5 20 22:39 15.01.2020
721 Clear -4 1031 36 10000 4 20 22:19 15.01.2020
722 Clear -4 1031 36 10000 4 20 21:57 15.01.2020
723 Clear -4 1031 36 10000 4 20 21:57 15.01.2020
724 Clear -4 1031 42 10000 4 20 21:38 15.01.2020
725 Clear -4 1031 62 10000 3 350 21:20 15.01.2020
726 Clear -5 1031 62 10000 3 350 20:58 15.01.2020
727 Clear -5 1031 62 10000 3 350 20:58 15.01.2020
728 Clear -4 1031 67 10000 3 340 20:40 15.01.2020
729 Clouds -4 1031 67 10000 3 340 20:20 15.01.2020
730 Clouds -5 1031 66 10000 4 340 19:55 15.01.2020
731 Clouds -5 1031 67 10000 4 340 19:37 15.01.2020
732 Clouds -5 1031 67 10000 4 340 19:19 15.01.2020
733 Clouds -4 1031 62 10000 4 340 18:57 15.01.2020
734 Clouds -4 1031 67 10000 4 350 18:38 15.01.2020
735 Clouds -4 1031 67 10000 4 350 18:20 15.01.2020
736 Clouds -4 1031 67 10000 2 350 17:58 15.01.2020
737 Clouds -4 1031 67 10000 2 360 17:38 15.01.2020
738 Clouds -4 1031 67 10000 2 360 17:20 15.01.2020
739 Clouds -4 1031 67 10000 1 60 16:42 15.01.2020
740 Clouds -3 1031 67 10000 1 60 16:23 15.01.2020
741 Clouds -3 1031 62 10000 1 0 15:59 15.01.2020
742 Clouds -3 1031 57 10000 1.68 330 15:41 15.01.2020
743 Clouds -3 1031 57 10000 1.68 330 15:20 15.01.2020
744 Clouds -3 1031 57 10000 1 0 14:44 15.01.2020
745 Clouds -3 1030 57 10000 1 0 14:21 15.01.2020
746 Clouds -2 1030 29 10000 2 270 13:56 15.01.2020
747 Clouds -3 1030 58 10000 1.09 281 13:38 15.01.2020
748 Clouds -2 1030 49 10000 1 0 13:19 15.01.2020
749 Clouds 0 1030 34 10000 3 200 12:41 15.01.2020
750 Clouds 0 1030 34 10000 3 200 12:20 15.01.2020
751 Clouds -1 1030 30 10000 3 190 11:59 15.01.2020
752 Clouds -1 1029 45 10000 2 160 11:38 15.01.2020
753 Clear -1 1029 45 10000 2 160 11:19 15.01.2020
754 Clear 0 1029 42 10000 1 0 10:46 15.01.2020
755 Clear 0 1029 39 10000 1 0 10:28 15.01.2020
756 Clear 1 1029 29 10000 1 0 09:55 15.01.2020
757 Clear 2 1029 27 10000 1 0 09:37 15.01.2020
758 Clear 2 1029 27 10000 1 0 09:19 15.01.2020
759 Clear 2 1029 24 10000 1 0 08:41 15.01.2020
760 Clouds 2 1029 24 10000 1 0 08:23 15.01.2020
761 Clouds 3 1029 27 10000 2 330 07:54 15.01.2020
762 Clouds 3 1029 24 10000 2 300 07:32 15.01.2020
763 Clouds 4 1029 24 10000 2 300 06:48 15.01.2020
764 Clouds 3 1030 27 10000 1 0 06:23 15.01.2020
765 Clear -1 1031 42 10000 2 300 04:45 15.01.2020
766 Clear -3 1031 62 10000 3 350 02:39 15.01.2020
767 Clear -6 1031 62 10000 3 330 01:43 15.01.2020
768 Clear -7 1031 66 10000 3 340 01:20 15.01.2020
769 Clear -8 1031 72 10000 3 340 00:36 15.01.2020
770 Clear -8 1031 72 10000 3 340 00:18 15.01.2020
771 Clear -8 1031 72 10000 3 350 23:45 14.01.2020
772 Clear -8 1031 78 10000 2 350 23:24 14.01.2020
773 Clear -9 1030 78 10000 2 350 22:54 14.01.2020
774 Clear -8 1031 72 10000 3 340 22:36 14.01.2020
775 Clear -8 1031 72 10000 3 340 22:18 14.01.2020
776 Clear -8 1031 78 10000 2 340 21:55 14.01.2020
777 Clear -8 1030 78 10000 2 360 21:36 14.01.2020
778 Clear -8 1030 78 10000 2 360 21:18 14.01.2020
779 Clear -8 1030 78 10000 2 360 21:18 14.01.2020
780 Clear -9 1031 85 10000 1 20 20:41 14.01.2020
781 Clouds -8 1031 85 10000 1 20 20:21 14.01.2020
782 Clouds -8 1031 72 10000 0.98 46 19:56 14.01.2020
783 Clouds -8 1031 72 10000 0.98 46 19:56 14.01.2020
784 Clouds -8 1031 72 10000 0.98 46 19:38 14.01.2020
785 Clouds -8 1031 72 10000 0.98 46 19:19 14.01.2020
786 Clouds -8 1031 72 10000 1 0 18:56 14.01.2020
787 Clouds -7 1031 78 10000 1 0 18:38 14.01.2020
788 Clouds -7 1031 78 10000 1 0 18:19 14.01.2020
789 Clouds -7 1031 72 10000 1 60 17:39 14.01.2020
790 Clouds -6 1031 72 10000 1 60 17:19 14.01.2020
791 Clouds -6 1031 66 10000 1 0 16:57 14.01.2020
792 Clouds -6 1030 66 10000 1 60 16:38 14.01.2020
793 Clouds -6 1030 66 10000 1 60 16:20 14.01.2020
794 Clouds -5 1031 57 10000 1 0 15:54 14.01.2020
795 Clouds -6 1030 62 10000 1 0 15:36 14.01.2020
796 Clouds -5 1030 62 10000 1 0 15:18 14.01.2020
797 Clouds -5 1030 61 10000 1 0 14:41 14.01.2020
798 Clouds -4 1030 61 10000 1 0 14:20 14.01.2020
799 Clouds -5 1030 48 10000 2 180 13:42 14.01.2020
800 Clouds -3 1030 45 10000 1 140 13:20 14.01.2020
801 Clouds -3 1030 45 10000 1 0 12:57 14.01.2020
802 Clouds -2 1030 38 10000 1 0 12:39 14.01.2020
803 Clouds -2 1030 38 10000 1 0 12:20 14.01.2020
804 Clouds -2 1030 38 10000 1 0 12:20 14.01.2020
805 Clouds -2 1029 38 10000 1 100 11:42 14.01.2020
806 Clouds -2 1029 38 10000 1 100 11:23 14.01.2020
807 Clouds -1 1029 33 10000 1 90 10:57 14.01.2020
808 Clouds 0 1029 33 10000 2 110 10:38 14.01.2020
809 Clouds 0 1029 33 10000 2 110 10:19 14.01.2020
810 Clouds 0 1029 33 10000 1 80 09:56 14.01.2020
811 Clouds 1 1029 28 10000 1 0 09:38 14.01.2020
812 Clouds 1 1029 28 10000 1 0 09:19 14.01.2020
813 Clouds 1 1029 20 10000 2 0 08:41 14.01.2020
814 Clouds 1 1029 20 10000 2 0 08:23 14.01.2020
815 Clear 1 1029 25 10000 2 0 07:53 14.01.2020
816 Clear 1 1029 25 10000 1 0 07:26 14.01.2020
817 Clear 2 1029 25 10000 2 180 06:50 14.01.2020
818 Clear 2 1030 25 10000 2 320 06:23 14.01.2020
819 Clear -1 1032 33 10000 2 20 04:58 14.01.2020
820 Clear 0 1032 32 10000 4 20 03:48 14.01.2020
821 Clear -3 1032 38 10000 4 20 02:41 14.01.2020
822 Clear -6 1031 44 10000 4 20 01:35 14.01.2020
823 Clear -6 1031 44 10000 5 20 00:49 14.01.2020
824 Clear -6 1031 41 10000 5 30 00:27 14.01.2020
825 Clear -6 1030 41 10000 5 30 23:48 13.01.2020
826 Clear -6 1030 41 10000 5 30 23:19 13.01.2020
827 Clear -6 1030 41 10000 5 30 22:59 13.01.2020
828 Clear -6 1030 44 10000 4 20 22:40 13.01.2020
829 Clear -6 1030 44 10000 4 20 22:20 13.01.2020
830 Clear -6 1030 44 10000 3 20 21:56 13.01.2020
831 Clear -6 1030 48 10000 3 10 21:37 13.01.2020
832 Clear -6 1030 48 10000 3 10 21:18 13.01.2020
833 Clear -6 1030 48 10000 3 10 20:57 13.01.2020
834 Clear -6 1030 48 10000 3 10 20:57 13.01.2020
835 Clear -5 1030 48 10000 3 10 20:38 13.01.2020
836 Clear -5 1030 48 10000 3 10 20:20 13.01.2020
837 Clear -5 1030 52 10000 3 10 19:56 13.01.2020
838 Clear -5 1030 47 10000 3 10 19:37 13.01.2020
839 Clear -5 1030 47 10000 3 10 19:18 13.01.2020
840 Clear -5 1030 48 10000 3 360 18:55 13.01.2020
841 Clear -4 1030 44 10000 3 10 18:36 13.01.2020
842 Clear -4 1030 44 10000 3 10 18:18 13.01.2020
843 Clear -5 1030 48 10000 3 360 17:40 13.01.2020
844 Clear -5 1030 48 10000 3 360 17:22 13.01.2020
845 Clear -4 1030 48 10000 3 360 16:56 13.01.2020
846 Clear -3 1024 41 0 3.79 345 16:37 13.01.2020
847 Clear -3 1024 39 0 3.79 345 16:19 13.01.2020
848 Clear -3 1024 40 0 3.79 345 15:43 13.01.2020
849 Clear -2 1023 39 0 0.45 0 15:23 13.01.2020
850 Clear -2 1023 39 0 3.79 345 14:58 13.01.2020
851 Clear -2 1023 37 0 0.45 315 14:38 13.01.2020
852 Clear -2 1023 37 0 0.45 315 14:19 13.01.2020
853 Clear -2 1023 37 0 4.46 334 13:42 13.01.2020
854 Clear -1 1022 37 0 4.8 333 13:24 13.01.2020
855 Clear -1 1027 30 10000 6 300 12:59 13.01.2020
856 Clear -1 1027 30 10000 6 300 12:41 13.01.2020
857 Clear -1 1027 30 10000 6 300 12:22 13.01.2020
858 Clear -1 1027 30 10000 6 300 11:57 13.01.2020
859 Clear -1 1027 30 10000 6 300 11:37 13.01.2020
860 Clear -1 1027 30 10000 6 300 11:19 13.01.2020
861 Clear -1 1026 28 10000 5 300 10:55 13.01.2020
862 Clear -1 1026 26 10000 6 300 10:37 13.01.2020
863 Clear 0 1026 22 10000 6 300 10:19 13.01.2020
864 Clear 0 1026 20 10000 7 310 09:43 13.01.2020
865 Clear 1 1026 20 10000 7 310 09:23 13.01.2020
866 Clear 1 1026 20 10000 6 300 08:56 13.01.2020
867 Clear 1 1025 20 10000 6 290 08:36 13.01.2020
868 Clear 0 1025 20 10000 6 290 08:18 13.01.2020
869 Clear 0 1025 19 10000 7 330 07:42 13.01.2020
870 Clear 0 1025 19 10000 7 330 07:21 13.01.2020
871 Clear 1 1026 20 10000 5 340 06:37 13.01.2020
872 Clear 1 1026 20 10000 5 340 06:37 13.01.2020
873 Clear 0 1027 28 10000 6 290 05:37 13.01.2020
874 Clear -1 1027 30 10000 5 300 04:56 13.01.2020
875 Clear -3 1028 38 10000 5 340 03:38 13.01.2020
876 Clear -3 1028 38 10000 5 360 02:49 13.01.2020
877 Clear -3 1028 45 10000 5 350 02:30 13.01.2020
878 Clear -3 1028 45 10000 5 350 02:30 13.01.2020
879 Clear -3 1028 45 10000 5 350 02:30 13.01.2020
880 Clear -5 1027 57 10000 5 350 01:33 13.01.2020
881 Clear -6 1027 56 10000 5 350 00:44 13.01.2020
882 Clear -6 1027 56 10000 5 350 00:26 13.01.2020
883 Clear -6 1026 61 10000 5 350 23:57 12.01.2020
884 Clear -6 1026 57 10000 5 350 23:39 12.01.2020
885 Clear -6 1026 57 10000 5 350 23:21 12.01.2020
886 Clear -6 1026 61 10000 3 360 22:56 12.01.2020
887 Clear -6 1026 52 10000 3 360 22:37 12.01.2020
888 Clear -5 1026 52 10000 3 360 22:18 12.01.2020
889 Clear -6 1026 61 10000 4 350 21:42 12.01.2020
890 Clear -6 1026 61 10000 4 350 21:20 12.01.2020
891 Clear -5 1026 56 10000 4 340 20:59 12.01.2020
892 Clear -5 1026 52 10000 4 360 20:39 12.01.2020
893 Clear -5 1026 52 10000 4 360 20:21 12.01.2020
894 Clear -4 1026 44 10000 4 340 19:56 12.01.2020
895 Clear -4 1025 44 10000 3 360 19:38 12.01.2020
896 Clear -4 1025 44 10000 3 360 19:38 12.01.2020
897 Clear -4 1025 44 10000 3 360 19:19 12.01.2020
898 Clear -4 1025 48 10000 4 360 18:58 12.01.2020
899 Clear -4 1025 52 10000 4 350 18:40 12.01.2020
900 Clear -4 1025 52 10000 4 350 18:21 12.01.2020
901 Clear -3 1025 48 10000 5 340 17:58 12.01.2020
902 Clear -3 1025 53 10000 4 340 17:40 12.01.2020
903 Clear -3 1025 53 10000 4 340 17:19 12.01.2020
904 Clear -3 1026 45 10000 4 340 16:56 12.01.2020
905 Clear -2 1026 42 10000 5 330 16:37 12.01.2020
906 Clear -2 1026 42 10000 5 330 16:19 12.01.2020
907 Clear -3 1025 45 10000 4 330 15:43 12.01.2020
908 Clear -2 1025 45 10000 4 330 15:24 12.01.2020
909 Clear -1 1025 30 10000 7 330 14:57 12.01.2020
910 Clear -1 1025 36 10000 5 330 14:38 12.01.2020
911 Clear -1 1025 36 10000 5 330 14:20 12.01.2020
912 Clear -2 1025 57 10000 4 340 13:54 12.01.2020
913 Clear -2 1024 58 10000 1 0 13:36 12.01.2020
914 Clear -2 1024 58 10000 1 0 13:18 12.01.2020
915 Clear -2 1024 58 10000 1 0 13:18 12.01.2020
916 Clear -2 1024 58 10000 1 0 13:18 12.01.2020
917 Clear -2 1024 49 10000 1 0 12:43 12.01.2020
918 Clear -1 1024 49 10000 1 0 12:21 12.01.2020
919 Clear -1 1024 53 10000 1 0 11:59 12.01.2020
920 Clear -1 1024 49 10000 1 70 11:39 12.01.2020
921 Clear -1 1024 49 10000 1 70 11:21 12.01.2020
922 Clear 0 1024 42 10000 1 80 10:42 12.01.2020
923 Clear 1 1024 42 10000 1 80 10:22 12.01.2020
924 Clear 2 1023 31 10000 1 0 09:59 12.01.2020
925 Clear 2 1023 29 10000 1 0 09:41 12.01.2020
926 Clear 2 1023 29 10000 1 0 09:20 12.01.2020
927 Clear 2 1023 29 10000 1 0 08:45 12.01.2020
928 Clear 3 1023 29 10000 2 20 08:21 12.01.2020
929 Clouds 2 1023 29 10000 1 0 07:44 12.01.2020
930 Clouds 3 1023 27 10000 1 0 07:25 12.01.2020
931 Clouds 3 1024 27 10000 2 360 06:50 12.01.2020
932 Clouds 3 1024 29 10000 2 0 06:32 12.01.2020
933 Clouds 3 1025 35 10000 3 40 05:47 12.01.2020
934 Clouds 0 1026 43 10000 3 20 04:52 12.01.2020
935 Clouds 1 1027 36 10000 2 20 03:29 12.01.2020
936 Clouds -2 1026 45 10000 3 10 02:34 12.01.2020
937 Clouds -2 1026 45 10000 3 10 02:34 12.01.2020
938 Clouds -4 1026 62 10000 1 360 01:58 12.01.2020
939 Clouds -5 1026 62 10000 1 360 01:30 12.01.2020
940 Clouds -5 1025 57 10000 1 20 00:44 12.01.2020
941 Clouds -5 1025 53 10000 1 20 00:21 12.01.2020
942 Clouds -5 1025 57 10000 1 0 23:56 11.01.2020
943 Clouds -5 1025 67 10000 1 0 23:37 11.01.2020
944 Clouds -5 1025 67 10000 1 0 23:18 11.01.2020
945 Clouds -5 1025 62 10000 3 340 22:56 11.01.2020
946 Clouds -5 1025 62 10000 2 340 22:37 11.01.2020
947 Clouds -5 1025 62 10000 2 340 22:18 11.01.2020
948 Clouds -4 1025 62 10000 2 340 21:42 11.01.2020
949 Clouds -4 1025 62 10000 2 340 21:18 11.01.2020
950 Clouds -4 1025 67 10000 2 340 20:55 11.01.2020
951 Clouds -5 1025 67 10000 1 10 20:37 11.01.2020
952 Clouds -4 1025 67 10000 1 10 20:18 11.01.2020
953 Clouds -4 1026 57 10000 2 350 19:54 11.01.2020
954 Clouds -4 1025 49 10000 3 360 19:36 11.01.2020
955 Clouds -3 1025 49 10000 3 360 19:18 11.01.2020
956 Clouds -3 1025 53 10000 1 350 18:54 11.01.2020
957 Clouds -3 1025 53 10000 2 350 18:36 11.01.2020
958 Clouds -3 1025 53 10000 2 350 18:18 11.01.2020
959 Clouds -3 1026 49 10000 2 360 17:54 11.01.2020
960 Clouds -2 1026 46 10000 2 360 17:36 11.01.2020
961 Clouds -2 1026 46 10000 2 360 17:18 11.01.2020
962 Clouds -2 1026 46 10000 2 350 16:41 11.01.2020
963 Clouds -2 1026 46 10000 2 350 16:22 11.01.2020
964 Clouds -1 1027 46 10000 2 330 15:42 11.01.2020
965 Clouds -1 1027 46 10000 2 330 15:23 11.01.2020
966 Clouds -1 1026 46 10000 2 340 14:58 11.01.2020
967 Clouds -1 1027 39 10000 3 310 14:40 11.01.2020
968 Clouds -1 1027 39 10000 3 310 14:21 11.01.2020
969 Clouds -1 1027 36 10000 3 310 13:55 11.01.2020
970 Clouds -1 1027 36 10000 3 310 13:55 11.01.2020
971 Clouds -1 1026 39 10000 2 320 13:36 11.01.2020
972 Clouds -1 1026 39 10000 2 320 13:18 11.01.2020
973 Clouds -1 1026 42 10000 2 340 12:42 11.01.2020
974 Clouds -1 1026 42 10000 2 340 12:24 11.01.2020
975 Clouds -1 1026 42 10000 2 350 11:54 11.01.2020
976 Clouds -1 1026 42 10000 1 360 11:36 11.01.2020
977 Clouds -1 1026 42 10000 1 360 11:18 11.01.2020
978 Clouds -1 1026 39 10000 2 20 10:42 11.01.2020
979 Clouds -1 1026 39 10000 2 20 10:23 11.01.2020
980 Clouds 0 1026 39 10000 2 40 09:39 11.01.2020
981 Clouds 0 1026 39 10000 2 40 09:21 11.01.2020
982 Clouds 0 1026 36 10000 3 30 08:43 11.01.2020
983 Clouds 0 1026 36 10000 3 30 08:22 11.01.2020
984 Clouds 0 1026 36 10000 3 30 07:44 11.01.2020
985 Clouds 0 1026 36 10000 3 40 07:26 11.01.2020
986 Clouds 1 1027 36 10000 3 20 06:55 11.01.2020
987 Clouds 1 1027 36 10000 3 10 06:19 11.01.2020
988 Clouds -1 1029 36 10000 3 10 04:48 11.01.2020
989 Clouds -1 1029 33 10000 4 10 04:29 11.01.2020
990 Clouds -1 1029 39 10000 3 10 03:49 11.01.2020
991 Clouds -2 1029 42 10000 4 20 02:41 11.01.2020
992 Clouds -3 1029 38 10000 5 20 01:44 11.01.2020
993 Clouds -3 1028 41 10000 5 20 01:20 11.01.2020
994 Clouds -3 1028 41 10000 5 10 00:44 11.01.2020
995 Clouds -4 1028 45 10000 5 10 00:20 11.01.2020
996 Clouds -4 1028 45 10000 4 20 23:41 10.01.2020
997 Clouds -4 1028 45 10000 4 20 23:22 10.01.2020
998 Clouds -4 1028 45 10000 4 30 22:59 10.01.2020
999 Clouds -3 1028 45 10000 5 20 22:40 10.01.2020
1000 Clouds -3 1028 45 10000 5 20 22:21 10.01.2020
1001 Clouds -3 1028 49 10000 5 10 21:58 10.01.2020
1002 Clouds -3 1028 45 10000 4 10 21:39 10.01.2020
1003 Clouds -3 1028 45 10000 4 10 21:19 10.01.2020
1004 Clouds -3 1028 49 10000 3 360 20:55 10.01.2020
1005 Clouds -3 1029 53 10000 3 350 20:37 10.01.2020
1006 Clouds -3 1029 53 10000 3 350 20:18 10.01.2020
1007 Clouds -2 1028 49 10000 5 350 19:39 10.01.2020
1008 Clouds -2 1028 49 10000 5 350 19:20 10.01.2020
1009 Clouds -2 1028 45 10000 4 350 18:44 10.01.2020
1010 Clouds -1 1028 39 10000 6 320 18:20 10.01.2020
1011 Clouds 0 1028 39 10000 5 310 17:58 10.01.2020
1012 Clouds 0 1028 39 10000 5 310 17:40 10.01.2020
1013 Clouds 0 1028 39 10000 5 310 17:21 10.01.2020
1014 Clouds 0 1028 44 10000 6 300 16:59 10.01.2020
1015 Clouds 0 1028 44 10000 5 310 16:41 10.01.2020
1016 Clouds 0 1028 44 10000 5 310 16:21 10.01.2020
1017 Clouds 1 1028 29 10000 6 310 15:56 10.01.2020
1018 Clouds 1 1027 29 10000 7 310 15:37 10.01.2020
1019 Clouds 1 1027 29 10000 7 310 15:19 10.01.2020
1020 Clouds 1 1027 29 10000 8 310 14:56 10.01.2020
1021 Clouds 2 1026 24 10000 8 310 14:38 10.01.2020
1022 Clouds 2 1026 24 10000 8 310 14:19 10.01.2020
1023 Clouds 2 1026 23 10000 8 310 13:45 10.01.2020
1024 Clear 3 1026 23 10000 8 310 13:27 10.01.2020
1025 Clear 3 1026 27 10000 7 300 12:59 10.01.2020
1026 Clear 3 1025 27 10000 6 290 12:40 10.01.2020
1027 Clear 3 1025 27 10000 6 290 12:21 10.01.2020
1028 Clear 4 1025 25 10000 6 290 11:58 10.01.2020
1029 Clear 2 1025 31 10000 4 330 11:40 10.01.2020
1030 Clear 3 1025 31 10000 4 330 11:21 10.01.2020
1031 Clear 3 1024 25 10000 6 280 10:59 10.01.2020
1032 Clear 4 1024 23 10000 6 280 10:38 10.01.2020
1033 Clear 4 1024 23 10000 6 280 10:19 10.01.2020
1034 Clear 5 1024 23 10000 7 280 09:46 10.01.2020
1035 Clear 5 1024 23 10000 6 270 09:26 10.01.2020
1036 Clear 5 1024 23 10000 7 280 08:58 10.01.2020
1037 Clear 6 1024 22 10000 7 270 08:38 10.01.2020
1038 Clear 6 1024 22 10000 7 270 08:20 10.01.2020
1039 Clear 6 1024 22 10000 7 300 07:41 10.01.2020
1040 Clear 6 1024 22 10000 7 300 07:22 10.01.2020
1041 Clear 7 1025 24 10000 5 320 06:42 10.01.2020
1042 Clear 7 1025 24 10000 5 320 06:24 10.01.2020
1043 Clear 5 1026 27 10000 6 330 05:33 10.01.2020
1044 Clear 2 1027 43 10000 6 350 03:32 10.01.2020
1045 Clear 3 1027 43 10000 4 350 02:54 10.01.2020
1046 Clear 1 1027 58 10000 3 350 02:33 10.01.2020
1047 Clouds -2 1027 62 10000 5 340 01:33 10.01.2020
1048 Clouds -3 1027 73 10000 5 350 00:56 10.01.2020
1049 Clouds -3 1026 73 10000 2 0 00:38 10.01.2020
1050 Clouds -3 1026 67 10000 1 10 23:57 09.01.2020
1051 Clouds -4 1026 73 10000 1 0 23:37 09.01.2020
1052 Clouds -4 1026 73 10000 1 0 23:19 09.01.2020
1053 Clouds -4 1026 73 10000 3 350 22:56 09.01.2020
1054 Clouds -3 1026 67 10000 5 340 22:37 09.01.2020
1055 Clouds -3 1026 67 10000 5 340 22:18 09.01.2020
1056 Clouds -4 1026 73 10000 3 350 21:55 09.01.2020
1057 Clouds -3 1026 73 10000 2 350 21:37 09.01.2020
1058 Clouds -3 1026 73 10000 2 350 21:18 09.01.2020
1059 Clouds -4 1027 73 10000 4 350 20:55 09.01.2020
1060 Clouds -2 1027 73 10000 4 350 20:37 09.01.2020
1061 Clouds -2 1027 79 10000 3 340 20:18 09.01.2020
1062 Clouds -3 1027 79 10000 2 350 19:39 09.01.2020
1063 Clouds -3 1027 79 10000 2 350 19:21 09.01.2020
1064 Clouds -3 1027 85 10000 2 340 18:59 09.01.2020
1065 Clouds -3 1027 85 10000 1 10 18:40 09.01.2020
1066 Clouds -3 1027 85 10000 1 10 18:21 09.01.2020
1067 Clouds -2 1027 79 10000 1.38 3 17:57 09.01.2020
1068 Clouds -3 1027 85 10000 1 50 17:39 09.01.2020
1069 Clouds -2 1027 85 10000 1 50 17:18 09.01.2020
1070 Clouds -2 1027 79 10000 1 30 16:42 09.01.2020
1071 Clouds -1 1027 68 10000 1 0 16:21 09.01.2020
1072 Clouds -1 1027 73 10000 1 0 15:43 09.01.2020
1073 Clouds -2 1027 73 10000 1 80 15:23 09.01.2020
1074 Clouds -2 1027 79 10000 2 10 14:59 09.01.2020
1075 Clouds -1 1027 62 10000 1.32 9 14:41 09.01.2020
1076 Clouds -1 1027 62 10000 1.25 0 14:19 09.01.2020
1077 Clouds -1 1027 62 10000 1 110 13:56 09.01.2020
1078 Clouds -1 1027 73 10000 1 80 13:38 09.01.2020
1079 Clouds -1 1027 73 10000 1 80 13:19 09.01.2020
1080 Clouds -1 1026 68 10000 1 70 12:56 09.01.2020
1081 Clouds -1 1026 68 10000 2 70 12:38 09.01.2020
1082 Clouds 0 1026 68 10000 2 70 12:18 09.01.2020
1083 Clouds 1 1026 63 10000 1 80 11:42 09.01.2020
1084 Clouds 1 1026 58 10000 1 50 11:24 09.01.2020
1085 Clouds 0 1026 58 10000 1 50 11:24 09.01.2020
1086 Clouds 1 1026 58 10000 1 50 11:24 09.01.2020
1087 Clouds 2 1026 50 10000 1 70 10:58 09.01.2020
1088 Clouds 2 1026 50 10000 1 80 10:40 09.01.2020
1089 Clouds 2 1026 50 10000 1 80 10:21 09.01.2020
1090 Clouds 4 1026 34 10000 1 0 09:47 09.01.2020
1091 Clouds 4 1026 32 10000 1 0 09:25 09.01.2020
1092 Clouds 4 1026 32 10000 1 0 08:59 09.01.2020
1093 Clouds 4 1026 29 10000 1 0 08:40 09.01.2020
1094 Clear 4 1026 29 10000 1 0 08:21 09.01.2020
1095 Clear 4 1026 29 10000 1 0 07:53 09.01.2020
1096 Clear 4 1026 29 10000 1 0 07:33 09.01.2020
1097 Clear 5 1027 29 10000 1 0 06:52 09.01.2020
1098 Clear 5 1027 32 10000 1 0 06:32 09.01.2020
1099 Clear 5 1027 34 10000 1 0 05:52 09.01.2020
1100 Clear 3 1028 34 10000 2 320 05:26 09.01.2020
1101 Clear 2 1029 37 10000 3 320 04:40 09.01.2020
1102 Clear 2 1029 32 10000 3 350 03:28 09.01.2020
1103 Clear 0 1029 54 10000 3 350 02:47 09.01.2020
1104 Clear -3 1029 62 10000 4 340 01:42 09.01.2020
1105 Clear -3 1029 62 10000 4 340 01:18 09.01.2020
1106 Clear -3 1029 62 10000 4 340 01:18 09.01.2020
1107 Clear -4 1028 62 10000 4 340 00:38 09.01.2020
1108 Clear -4 1028 62 10000 4 340 00:19 09.01.2020
1109 Clear -5 1028 62 10000 4 340 00:19 09.01.2020
1110 Clear -5 1028 67 10000 3 340 23:40 08.01.2020
1111 Clear -4 1028 67 10000 3 340 23:22 08.01.2020
1112 Clear -4 1028 62 10000 3 340 22:56 08.01.2020
1113 Clear -4 1028 62 10000 2 340 22:38 08.01.2020
1114 Clear -4 1028 62 10000 2 340 22:19 08.01.2020
1115 Clear -4 1028 62 10000 3 330 21:55 08.01.2020
1116 Clear -3 1029 57 10000 3 340 21:37 08.01.2020
1117 Clear -3 1029 57 10000 3 340 21:18 08.01.2020
1118 Clear -3 1029 62 10000 2 330 20:55 08.01.2020
1119 Clear -4 1029 67 10000 3 330 20:37 08.01.2020
1120 Clear -4 1029 67 10000 3 330 20:18 08.01.2020
1121 Clear -3 1029 62 10000 2 360 19:39 08.01.2020
1122 Clear -3 1029 62 10000 2 360 19:20 08.01.2020
1123 Clear -3 1029 62 10000 4 340 18:58 08.01.2020
1124 Clear -2 1029 67 10000 3 350 18:39 08.01.2020
1125 Clear -2 1029 67 10000 3 350 18:39 08.01.2020
1126 Clear -3 1029 67 10000 3 350 18:19 08.01.2020
1127 Clear -3 1029 67 10000 2 350 17:57 08.01.2020
1128 Clear -3 1029 67 10000 2 340 17:39 08.01.2020
1129 Clear -3 1029 67 10000 2 340 17:20 08.01.2020
1130 Clear -2 1029 62 10000 2 330 16:57 08.01.2020
1131 Clear -2 1029 62 10000 2 330 16:57 08.01.2020
1132 Clear -3 1029 67 10000 1 0 16:38 08.01.2020
1133 Clear -3 1029 67 10000 1 0 16:19 08.01.2020
1134 Clear -3 1029 67 10000 1 0 15:45 08.01.2020
1135 Clear -3 1029 67 10000 2.44 337 15:22 08.01.2020
1136 Clear -2 1029 73 10000 1 360 14:59 08.01.2020
1137 Clear -3 1029 73 10000 1 0 14:40 08.01.2020
1138 Clear -3 1029 73 10000 1 0 14:21 08.01.2020
1139 Clear -2 1029 67 10000 2.4 333 13:42 08.01.2020
1140 Clear -2 1029 73 10000 1 30 13:22 08.01.2020
1141 Clear -2 1029 73 10000 1 0 12:55 08.01.2020
1142 Clear -2 1029 73 10000 1 0 12:55 08.01.2020
1143 Clear -2 1029 63 10000 1 0 12:37 08.01.2020
1144 Clear -1 1029 63 10000 1 0 12:18 08.01.2020
1145 Clear -1 1029 63 10000 1 0 12:18 08.01.2020
1146 Clear -2 1029 67 10000 1 20 11:48 08.01.2020
1147 Clear 1 1029 50 10000 1 0 11:19 08.01.2020
1148 Clear 1 1028 46 10000 1 0 10:59 08.01.2020
1149 Clear 2 1028 40 10000 1 0 10:41 08.01.2020
1150 Clear 3 1028 40 10000 1 0 10:21 08.01.2020
1151 Clear 3 1028 32 10000 1 0 09:57 08.01.2020
1152 Clear 5 1028 29 10000 2 90 09:36 08.01.2020
1153 Clear 5 1028 29 10000 2 90 09:18 08.01.2020
1154 Clear 5 1028 32 10000 2 50 08:41 08.01.2020
1155 Clear 5 1028 32 10000 2 50 08:22 08.01.2020
1156 Clear 5 1028 27 10000 1 0 07:59 08.01.2020
1157 Clear 5 1028 27 10000 2 360 07:40 08.01.2020
1158 Clear 5 1028 27 10000 2 360 07:19 08.01.2020
1159 Clear 4 1028 29 10000 2 360 06:42 08.01.2020
1160 Clear 5 1029 32 10000 3 360 05:56 08.01.2020
1161 Clear 4 1029 29 10000 2 360 05:27 08.01.2020
1162 Clear 2 1030 34 10000 3 360 04:37 08.01.2020
1163 Clear 2 1031 31 10000 4 320 02:47 08.01.2020
1164 Clear 1 1031 29 10000 4 340 02:28 08.01.2020
1165 Clouds -1 1030 42 10000 5 320 01:58 08.01.2020
1166 Clouds -1 1030 46 10000 4 330 01:32 08.01.2020
1167 Clouds -2 1030 53 10000 4 350 00:51 08.01.2020
1168 Clouds -2 1030 49 10000 3 20 00:23 08.01.2020
1169 Clouds -3 1030 57 10000 4 350 23:46 07.01.2020
1170 Clouds -2 1029 49 10000 5 320 23:21 07.01.2020
1171 Clouds -2 1029 46 10000 5 310 22:56 07.01.2020
1172 Clouds -2 1029 46 10000 6 310 22:37 07.01.2020
1173 Clouds -2 1029 46 10000 6 310 22:19 07.01.2020
1174 Clouds -1 1029 46 10000 7 300 21:42 07.01.2020
1175 Clouds -1 1029 46 10000 7 300 21:22 07.01.2020
1176 Clouds -1 1028 42 10000 8 320 20:58 07.01.2020
1177 Clouds -1 1028 42 10000 8 330 20:40 07.01.2020
1178 Clouds -1 1028 42 10000 8 330 20:22 07.01.2020
1179 Clouds -1 1029 42 10000 8 320 19:57 07.01.2020
1180 Clouds -1 1029 42 10000 7 330 19:38 07.01.2020
1181 Clouds -1 1029 42 10000 7 330 19:19 07.01.2020
1182 Clouds -1 1028 42 10000 9 320 18:56 07.01.2020
1183 Clouds -1 1028 42 10000 8 320 18:38 07.01.2020
1184 Clouds -1 1028 42 10000 8 320 18:18 07.01.2020
1185 Clouds -1 1028 42 10000 8 320 18:18 07.01.2020
1186 Clouds 0 1028 35 10000 8 320 17:55 07.01.2020
1187 Clouds 0 1028 35 10000 7 330 17:37 07.01.2020
1188 Clouds 0 1028 35 10000 7 310 17:18 07.01.2020
1189 Clouds 0 1028 35 10000 7 310 16:55 07.01.2020
1190 Clouds 0 1028 35 10000 7 310 16:37 07.01.2020
1191 Clouds 0 1028 35 10000 7 310 16:18 07.01.2020
1192 Clouds 0 1027 35 10000 7 310 15:43 07.01.2020
1193 Clouds 1 1027 35 10000 7 320 15:24 07.01.2020
1194 Clouds 1 1026 34 10000 8 310 14:58 07.01.2020
1195 Clouds 1 1026 34 10000 6 310 14:40 07.01.2020
1196 Clouds 1 1026 34 10000 6 310 14:20 07.01.2020
1197 Clouds 1 1026 34 10000 7 320 13:46 07.01.2020
1198 Clouds 1 1026 40 10000 5 330 13:21 07.01.2020
1199 Clouds 1 1026 37 10000 5 330 12:56 07.01.2020
1200 Clouds 1 1025 40 10000 5 330 12:37 07.01.2020
1201 Clouds 1 1025 40 10000 5 330 12:19 07.01.2020
1202 Clouds 2 1025 37 10000 4 330 11:41 07.01.2020
1203 Clouds 2 1025 37 10000 4 330 11:41 07.01.2020
1204 Clouds 1 1025 37 10000 4 330 11:23 07.01.2020
1205 Clouds 2 1025 37 10000 5 320 10:57 07.01.2020
1206 Clouds 2 1025 37 10000 5 320 10:57 07.01.2020
1207 Clouds 2 1024 37 10000 5 310 10:39 07.01.2020
1208 Clouds 2 1024 37 10000 5 310 10:20 07.01.2020
1209 Clouds 2 1024 40 10000 4 330 09:39 07.01.2020
1210 Clouds 2 1024 40 10000 4 330 09:21 07.01.2020
1211 Clouds 2 1024 40 10000 4 330 09:21 07.01.2020
1212 Clouds 2 1024 40 10000 4 330 09:21 07.01.2020
1213 Clouds 2 1025 37 10000 5 320 08:57 07.01.2020
1214 Clouds 2 1024 43 10000 2 340 08:38 07.01.2020
1215 Clouds 2 1024 43 10000 2 340 08:18 07.01.2020
1216 Clouds 2 1025 43 10000 3 350 07:47 07.01.2020
1217 Clouds 2 1025 43 10000 3 330 07:20 07.01.2020
1218 Clouds 2 1025 40 10000 3 330 06:49 07.01.2020
1219 Clouds 2 1026 43 10000 4 360 06:29 07.01.2020
1220 Clouds 1 1026 33 10000 4 20 05:41 07.01.2020
1221 Clouds 1 1028 36 10000 5 360 03:47 07.01.2020
1222 Clouds 1 1028 36 10000 5 10 03:25 07.01.2020
1223 Clouds 0 1027 43 10000 4 10 02:19 07.01.2020
1224 Clouds 0 1027 50 10000 4 10 01:40 07.01.2020
1225 Clouds 0 1027 50 10000 4 20 00:58 07.01.2020
1226 Clouds 0 1026 50 10000 3 10 00:21 07.01.2020
1227 Clouds 0 1026 50 10000 3 10 00:21 07.01.2020
1228 Clouds 0 1026 50 10000 3 10 00:21 07.01.2020
1229 Clouds 0 1026 43 10000 4 20 23:57 06.01.2020
1230 Clouds 0 1026 43 10000 4 20 23:57 06.01.2020
1231 Clouds 0 1026 50 10000 4 360 23:38 06.01.2020
1232 Clouds 0 1026 50 10000 4 360 23:20 06.01.2020
1233 Clouds 0 1025 45 10000 5 10 22:44 06.01.2020
1234 Clouds 0 1026 45 10000 5 10 22:25 06.01.2020
1235 Clouds 0 1026 45 10000 5 10 21:59 06.01.2020
1236 Clouds 0 1027 50 10000 4 350 21:40 06.01.2020
1237 Clouds 0 1027 50 10000 4 350 21:21 06.01.2020
1238 Clouds 1 1027 45 10000 4 360 20:58 06.01.2020
1239 Clouds 1 1027 43 10000 4 10 20:40 06.01.2020
1240 Clouds 1 1027 43 10000 4 10 20:20 06.01.2020
1241 Clouds 1 1026 48 10000 4 350 19:57 06.01.2020
1242 Clouds 1 1026 48 10000 5 350 19:39 06.01.2020
1243 Clouds 1 1026 48 10000 5 350 19:20 06.01.2020
1244 Clouds 1 1026 58 10000 5 340 18:48 06.01.2020
1245 Clouds 1 1026 48 10000 5 330 18:25 06.01.2020
1246 Clouds 2 1026 50 10000 6 330 17:59 06.01.2020
1247 Clouds 1 1026 63 10000 5 350 17:39 06.01.2020
1248 Clouds 1 1026 63 10000 5 350 17:39 06.01.2020
1249 Clouds 1 1026 63 10000 5 350 17:19 06.01.2020
1250 Clouds 1 1026 50 10000 4 360 16:55 06.01.2020
1251 Clouds 1 1026 55 10000 5 360 16:36 06.01.2020
1252 Clouds 1 1026 55 10000 5 360 16:18 06.01.2020
1253 Clouds 1 1025 50 10000 3 340 15:42 06.01.2020
1254 Clouds 1 1025 50 10000 3 340 15:20 06.01.2020
1255 Clouds 1 1025 80 10000 4 360 14:59 06.01.2020
1256 Clouds 1 1025 86 10000 4 350 14:40 06.01.2020
1257 Clouds 1 1025 86 10000 4 350 14:21 06.01.2020
1258 Clouds 1 1025 73 10000 5 330 13:57 06.01.2020
1259 Clouds 1 1025 86 10000 3 330 13:38 06.01.2020
1260 Clouds 1 1025 86 10000 3 330 13:19 06.01.2020
1261 Clouds 0 1025 86 10000 2 340 12:43 06.01.2020
1262 Clouds 1 1025 69 10000 2 320 12:21 06.01.2020
1263 Clouds 1 1024 74 10000 2 280 11:58 06.01.2020
1264 Clouds 1 1024 80 7000 2 310 11:39 06.01.2020
1265 Clouds 1 1024 80 7000 2 310 11:21 06.01.2020
1266 Clouds 1 1023 73 6000 1 0 10:57 06.01.2020
1267 Clouds 1 1024 80 6000 3 340 10:39 06.01.2020
1268 Clouds 1 1024 80 6000 3 340 10:20 06.01.2020
1269 Clouds 2 1024 74 8000 2 330 09:38 06.01.2020
1270 Clouds 2 1024 74 8000 2 330 09:19 06.01.2020
1271 Clouds 2 1024 74 10000 2 340 08:46 06.01.2020
1272 Clouds 3 1024 74 10000 3 350 08:26 06.01.2020
1273 Rain 3 1024 74 10000 2 340 07:53 06.01.2020
1274 Rain 3 1025 69 9000 2 330 07:32 06.01.2020
1275 Rain 3 1025 80 7000 2 320 06:45 06.01.2020
1276 Rain 3 1025 80 5000 2 360 06:23 06.01.2020
1277 Rain 3 1026 86 4500 2 360 05:45 06.01.2020
1278 Mist 2 1028 86 3300 1 0 04:38 06.01.2020
1279 Mist 2 1028 86 3300 1 0 04:19 06.01.2020
1280 Mist 1 1027 79 3300 1 0 02:46 06.01.2020
1281 Mist 0 1027 94 3000 1 0 02:24 06.01.2020
1282 Mist 0 1027 100 3000 1 0 01:44 06.01.2020
1283 Mist -1 1027 100 2800 1 50 01:26 06.01.2020
1284 Mist 0 1026 92 2300 1 0 00:42 06.01.2020
1285 Mist -1 1026 92 2300 1 0 00:21 06.01.2020
1286 Mist -1 1026 92 2300 2 360 23:42 05.01.2020
1287 Snow -1 1026 92 2300 2 360 23:42 05.01.2020
1288 Snow -1 1026 92 2300 2 360 23:22 05.01.2020
1289 Snow -1 1026 92 2300 2 360 22:56 05.01.2020
1290 Snow -1 1026 100 2300 2 10 22:38 05.01.2020
1291 Snow -1 1026 100 2300 2 10 22:19 05.01.2020
1292 Snow -1 1027 100 2300 2 360 21:54 05.01.2020
1293 Snow -1 1027 92 2500 1 10 21:36 05.01.2020
1294 Snow -1 1027 92 2500 1 10 21:18 05.01.2020
1295 Snow -1 1028 92 3000 1 20 20:55 05.01.2020
1296 Snow -1 1028 92 3000 1 20 20:36 05.01.2020
1297 Snow -1 1028 92 3000 1 20 20:18 05.01.2020
1298 Snow 0 1028 92 3000 1.02 2 19:56 05.01.2020
1299 Snow -1 1028 100 2800 1 0 19:37 05.01.2020
1300 Snow -1 1028 100 2800 1 0 19:18 05.01.2020
1301 Snow -1 1028 100 2500 1 0 18:54 05.01.2020
1302 Snow -1 1029 100 2000 1 0 18:36 05.01.2020
1303 Snow 0 1022 96 0 1.02 2 18:18 05.01.2020
1304 Snow 0 1029 96 2000 1 0 17:55 05.01.2020
1305 Snow 0 1029 96 2000 1 0 17:55 05.01.2020
1306 Snow 0 1029 100 2000 2 360 17:37 05.01.2020
1307 Snow 0 1029 100 2000 2 360 17:18 05.01.2020
1308 Snow 0 1029 94 1700 2 360 16:54 05.01.2020
1309 Snow 0 1030 94 1500 2 10 16:36 05.01.2020
1310 Snow 0 1030 94 1500 2 10 16:18 05.01.2020
1311 Snow 0 1030 94 2000 1 30 15:36 05.01.2020
1312 Snow 0 1030 94 2000 1 30 15:18 05.01.2020
1313 Snow 0 1030 92 2000 1 50 14:54 05.01.2020
1314 Snow 0 1030 94 3000 1 0 14:36 05.01.2020
1315 Snow 0 1030 57 3000 1 0 14:18 05.01.2020
1316 Snow 1 1030 74 5000 2 240 13:39 05.01.2020
1317 Snow 1 1030 74 5000 2 240 13:21 05.01.2020
1318 Snow 1 1030 59 10000 1 0 12:57 05.01.2020
1319 Snow 1 1030 59 10000 1 0 12:57 05.01.2020
1320 Snow 1 1030 59 10000 1 0 12:57 05.01.2020
1321 Snow 2 1030 59 10000 1.2 335 12:39 05.01.2020
1322 Snow 2 1030 59 10000 1.2 335 12:39 05.01.2020
1323 Snow 2 1030 59 10000 1.2 335 12:39 05.01.2020
1324 Snow 2 1030 59 10000 1.2 335 12:21 05.01.2020
1325 Snow 2 1030 59 10000 1.2 335 12:21 05.01.2020
1326 Snow 2 1030 59 10000 2 360 11:55 05.01.2020
1327 Snow 2 1030 59 10000 1 0 11:37 05.01.2020
1328 Clouds 2 1030 59 10000 1 0 11:19 05.01.2020
1329 Clouds 2 1030 59 10000 0.4 295 10:55 05.01.2020
1330 Clouds 2 1030 55 10000 0.4 295 10:36 05.01.2020
1331 Clouds 2 1030 55 10000 0.4 295 10:36 05.01.2020
1332 Clouds 2 1030 55 10000 0.4 295 10:18 05.01.2020
1333 Clouds 2 1030 55 10000 1 0 09:41 05.01.2020
1334 Clouds 2 1030 55 10000 1 0 09:21 05.01.2020
1335 Clouds 3 1030 55 10000 1 0 08:45 05.01.2020
1336 Clouds 3 1030 55 10000 1 0 08:26 05.01.2020
1337 Clouds 3 1030 51 10000 2 20 07:55 05.01.2020
1338 Clouds 3 1031 47 10000 1 0 07:32 05.01.2020
1339 Clouds 3 1031 47 10000 1 0 06:58 05.01.2020
1340 Clouds 2 1032 51 10000 2 30 05:55 05.01.2020
1341 Clouds 3 1032 51 10000 1 0 05:30 05.01.2020
1342 Clouds 1 1033 48 10000 2 320 04:34 05.01.2020
1343 Clouds 1 1033 48 10000 2 340 03:47 05.01.2020
1344 Clouds 0 1033 74 10000 2 350 02:45 05.01.2020
1345 Clouds -2 1033 85 10000 2 350 02:20 05.01.2020
1346 Clouds -2 1032 79 10000 2 350 01:40 05.01.2020
1347 Clouds -2 1032 79 10000 2 350 01:18 05.01.2020
1348 Clouds -3 1032 79 10000 2 350 00:41 05.01.2020
1349 Clouds -3 1032 79 10000 2 340 00:22 05.01.2020
1350 Clouds -3 1032 79 10000 2 340 23:59 04.01.2020
1351 Clouds -3 1032 85 10000 2 360 23:39 04.01.2020
1352 Clear -3 1032 85 10000 2 360 23:19 04.01.2020
1353 Clear -3 1032 85 10000 2 340 22:39 04.01.2020
1354 Clear -3 1032 85 10000 2 340 22:21 04.01.2020
1355 Clear -3 1031 85 10000 0.74 17 21:57 04.01.2020
1356 Clear -3 1031 92 10000 1 40 21:38 04.01.2020
1357 Clear -3 1031 92 10000 1 40 21:19 04.01.2020
1358 Clear -3 1032 85 10000 0.74 17 20:57 04.01.2020
1359 Clear -3 1032 79 10000 0.74 17 20:38 04.01.2020
1360 Clouds -3 1032 79 10000 0.99 43 20:19 04.01.2020
1361 Clouds -3 1032 85 10000 1.13 33 19:42 04.01.2020
1362 Clouds -2 1032 79 10000 1 350 19:24 04.01.2020
1363 Clouds -2 1032 79 10000 1 360 18:58 04.01.2020
1364 Clouds -2 1032 85 10000 1 0 18:39 04.01.2020
1365 Clouds -2 1032 85 10000 1 0 18:21 04.01.2020
1366 Clouds -1 1032 73 10000 1 360 17:58 04.01.2020
1367 Clouds -1 1032 68 10000 1 50 17:40 04.01.2020
1368 -273 0 0 0 0 0 17:22 04.01.2020
1369 Clouds -1 1032 68 10000 2 80 16:42 04.01.2020
1370 Clouds -1 1032 63 10000 1 70 16:24 04.01.2020
1371 Clouds -1 1032 59 10000 2 110 15:59 04.01.2020
1372 Clouds -1 1032 59 10000 2 110 15:59 04.01.2020
1373 Clouds -1 1032 52 10000 2 130 15:41 04.01.2020
1374 Clouds -1 1032 52 10000 2 130 15:19 04.01.2020
1375 Clouds -1 1031 54 10000 1 120 14:58 04.01.2020
1376 Clouds -1 1031 54 10000 1 120 14:58 04.01.2020
1377 Clouds -1 1031 50 10000 2 130 14:40 04.01.2020
1378 Clear 0 1031 50 10000 2 130 14:19 04.01.2020
1379 Clear -1 1031 62 10000 1 0 13:56 04.01.2020
1380 Clear 0 1030 58 10000 1 0 13:37 04.01.2020
1381 Clear 0 1030 58 10000 1 0 13:18 04.01.2020
1382 Clear 0 1030 50 10000 1 0 12:42 04.01.2020
1383 Clear 1 1030 54 10000 2 180 12:20 04.01.2020
1384 Clear 1 1029 46 10000 1 0 12:20 04.01.2020
1385 Clear -1 1029 46 10000 1 0 11:59 04.01.2020
1386 Clear 0 1029 37 10000 1 0 11:40 04.01.2020
1387 Clear 3 1029 37 10000 1 0 11:19 04.01.2020
1388 Clear 4 1028 29 10000 2 120 10:55 04.01.2020
1389 Clear 4 1028 29 10000 2 120 10:55 04.01.2020
1390 Clear 5 1028 23 10000 1.48 19 10:37 04.01.2020
1391 Clear 5 1028 23 10000 1.48 19 10:19 04.01.2020
1392 Clear 9 1028 18 10000 1 0 09:42 04.01.2020
1393 Clear 8 1028 16 10000 1 0 09:23 04.01.2020
1394 Clear 9 1028 16 10000 1 0 08:42 04.01.2020
1395 Clear 9 1028 16 10000 2 40 08:21 04.01.2020
1396 Clear 9 1028 16 10000 3 30 07:44 04.01.2020
1397 Clear 9 1028 19 10000 3 50 07:26 04.01.2020
1398 Clear 10 1028 19 10000 3 30 06:36 04.01.2020
1399 Clear 10 1029 20 10000 4 30 05:46 04.01.2020
1400 Clear 6 1029 24 10000 4 20 04:47 04.01.2020
1401 Clear 5 1029 26 10000 5 10 04:27 04.01.2020
1402 Clear 6 1029 30 10000 4 330 03:19 04.01.2020
1403 Clear 3 1029 43 10000 5 350 02:36 04.01.2020
1404 Clear 0 1028 54 10000 4 350 01:58 04.01.2020
1405 Clear -1 1028 58 10000 4 360 01:32 04.01.2020
1406 Clear -2 1028 67 10000 4 340 00:56 04.01.2020
1407 Clear -3 1027 67 10000 4 340 00:28 04.01.2020
1408 Clear -3 1027 68 10000 4 330 23:52 03.01.2020
1409 Clear -3 1027 73 10000 2 330 23:27 03.01.2020
1410 Clear -4 1027 67 10000 4 330 22:55 03.01.2020
1411 Clear -3 1027 68 10000 1 300 22:37 03.01.2020
1412 Clear -3 1027 67 10000 1 0 22:18 03.01.2020
1413 Clear -3 1027 67 10000 1 0 21:56 03.01.2020
1414 Clear -4 1027 67 10000 2 330 21:37 03.01.2020
1415 Clear -3 1027 67 10000 2 330 21:18 03.01.2020
1416 Clear -3 1027 73 10000 2 310 20:43 03.01.2020
1417 Clouds -3 1027 68 10000 2 330 20:19 03.01.2020
1418 Clouds -3 1027 62 10000 2 320 19:59 03.01.2020
1419 Clouds -3 1027 68 10000 2 330 19:41 03.01.2020
1420 Clouds -3 1027 68 10000 2 330 19:22 03.01.2020
1421 Clouds -3 1027 62 10000 1 0 18:46 03.01.2020
1422 Clouds -3 1027 73 10000 3 330 18:26 03.01.2020
1423 Clouds -3 1027 68 10000 1 0 17:58 03.01.2020
1424 Clouds -3 1027 68 10000 1 0 17:58 03.01.2020
1425 Clouds -2 1027 68 10000 3 360 17:39 03.01.2020
1426 Clouds -2 1027 68 10000 3 360 17:21 03.01.2020
1427 Clouds -2 1027 67 10000 1 0 16:43 03.01.2020
1428 Clouds -2 1027 67 10000 1 0 16:24 03.01.2020
1429 Clouds -2 1027 73 10000 2 360 15:59 03.01.2020
1430 Clouds -2 1027 67 10000 1 0 15:41 03.01.2020
1431 Clouds -2 1027 67 10000 1 0 15:19 03.01.2020
1432 Clouds -1 1027 62 10000 0.52 331 14:39 03.01.2020
1433 Clear -1 1027 62 10000 0.95 297 14:20 03.01.2020
1434 Clear -1 1027 62 10000 0.95 297 13:57 03.01.2020
1435 Clear -1 1027 58 10000 0.95 297 13:38 03.01.2020
1436 Clear 0 1027 58 10000 0.86 291 13:20 03.01.2020
1437 Clear 0 1027 54 10000 1 0 12:41 03.01.2020
1438 Clear 0 1027 54 10000 1 0 12:22 03.01.2020
1439 Clear 0 1027 54 10000 0.86 291 11:49 03.01.2020
1440 Clear 2 1027 53 10000 0.86 291 11:31 03.01.2020
1441 Clear 3 1027 37 10000 1 0 10:57 03.01.2020
1442 Clear 4 1027 37 10000 1 30 10:38 03.01.2020
1443 Clear 4 1027 37 10000 1 30 10:20 03.01.2020
1444 Clear 6 1027 25 10000 0.54 329 09:54 03.01.2020
1445 Clear 6 1027 22 10000 0.54 329 09:36 03.01.2020
1446 Clear 6 1027 22 10000 0.54 329 09:18 03.01.2020
1447 Clear 6 1027 24 10000 1 0 08:44 03.01.2020
1448 Clear 7 1027 22 10000 2 340 08:21 03.01.2020
1449 Clear 7 1027 22 10000 1 0 07:42 03.01.2020
1450 Clear 6 1027 24 10000 1 0 07:19 03.01.2020
1451 Clear 6 1027 24 10000 1 0 07:19 03.01.2020
1452 Clear 6 1027 26 10000 2 310 06:57 03.01.2020
1453 Clear 9 1028 26 10000 2 320 06:39 03.01.2020
1454 Clear 9 1028 26 10000 2 320 06:20 03.01.2020
1455 Clear 3 1030 25 10000 3 360 04:43 03.01.2020
1456 Clear 4 1031 40 10000 3 340 03:38 03.01.2020
1457 Clear 1 1031 58 10000 1 0 02:53 03.01.2020
1458 Clear -4 1030 67 10000 2 350 01:50 03.01.2020
1459 Clear -4 1030 67 10000 2 350 01:18 03.01.2020
1460 Clear -5 1030 67 10000 3 330 00:34 03.01.2020
1461 Clear -6 1030 73 10000 2 330 23:59 02.01.2020
1462 Clear -5 1030 73 10000 2 330 23:39 02.01.2020
1463 Clear -5 1029 72 10000 2 330 23:20 02.01.2020
1464 Clear -5 1029 72 10000 2 330 22:58 02.01.2020
1465 Clear -5 1029 72 10000 2 330 22:40 02.01.2020
1466 Clear -6 1029 72 10000 2 330 22:19 02.01.2020
1467 Clear -5 1029 62 10000 2 340 21:55 02.01.2020
1468 Clear -5 1029 67 10000 2 340 21:37 02.01.2020
1469 Clear -5 1029 67 10000 2 340 21:18 02.01.2020
1470 Clear -5 1030 73 10000 1 330 20:56 02.01.2020
1471 Clear -5 1030 62 10000 2 340 20:37 02.01.2020
1472 Clouds -5 1030 62 10000 2 340 20:18 02.01.2020
1473 Clouds -5 1030 67 10000 2 350 19:54 02.01.2020
1474 Clouds -4 1030 67 10000 3 350 19:36 02.01.2020
1475 Clouds -4 1030 67 10000 3 350 19:18 02.01.2020
1476 Clouds -4 1030 72 10000 1 0 18:42 02.01.2020
1477 Clouds -4 1030 72 10000 1 0 18:23 02.01.2020
1478 Clouds -4 1031 67 10000 1 0 17:58 02.01.2020
1479 Clouds -4 1031 67 10000 1 0 17:38 02.01.2020
1480 Clouds -4 1031 67 10000 1 0 17:19 02.01.2020
1481 Clouds -4 1031 67 10000 1 0 16:58 02.01.2020
1482 Clouds -3 1031 57 10000 1 0 16:40 02.01.2020
1483 Clouds -3 1031 57 10000 1 0 16:20 02.01.2020
1484 Clouds -3 1031 62 10000 1.17 31 15:57 02.01.2020
1485 Clouds -2 1031 58 10000 1.17 31 15:39 02.01.2020
1486 Clouds -2 1031 49 10000 1 0 15:19 02.01.2020
1487 Clouds -2 1031 49 10000 1 0 14:55 02.01.2020
1488 Clouds -2 1031 49 10000 1 0 14:55 02.01.2020
1489 Clouds -1 1031 46 10000 1 0 14:36 02.01.2020
1490 Clouds -1 1031 49 10000 3 350 14:18 02.01.2020
1491 Clouds 0 1031 49 10000 3 350 13:47 02.01.2020
1492 Clouds 0 1031 34 10000 2 310 13:29 02.01.2020
1493 Clouds 1 1031 29 10000 1 0 12:45 02.01.2020
1494 Clouds 1 1030 27 10000 2 0 12:25 02.01.2020
1495 Clouds 1 1030 27 10000 2 0 12:25 02.01.2020
1496 Clouds 1 1030 27 10000 2 0 11:57 02.01.2020
1497 Clouds 2 1030 25 10000 2 290 11:37 02.01.2020
1498 Clouds 2 1030 25 10000 2 290 11:19 02.01.2020
1499 Clouds 2 1030 27 10000 3 270 10:43 02.01.2020
1500 Clouds 2 1030 27 10000 3 270 10:25 02.01.2020
1501 Clouds 3 1030 27 10000 4 250 09:46 02.01.2020
1502 Clouds 3 1030 27 10000 2 270 09:28 02.01.2020
1503 Clouds 3 1030 27 10000 3 300 08:45 02.01.2020
1504 Clouds 3 1030 27 10000 3 300 08:27 02.01.2020
1505 Clouds 3 1030 27 10000 2 300 07:51 02.01.2020
1506 Clouds 3 1030 23 10000 3 280 07:30 02.01.2020
1507 Clouds 5 1030 23 10000 3 330 06:45 02.01.2020
1508 Clouds 5 1031 25 10000 3 330 06:27 02.01.2020
1509 Clouds 0 1032 27 10000 4 320 05:21 02.01.2020
1510 Clouds -2 1033 36 10000 3 290 04:31 02.01.2020
1511 Clouds 0 1032 45 10000 2 300 02:48 02.01.2020
1512 Clouds -6 1032 62 10000 3 350 01:59 02.01.2020
1513 Clouds -6 1032 66 10000 3 340 01:37 02.01.2020
1514 Clouds -7 1032 61 10000 3 330 00:58 02.01.2020
1515 Clouds -7 1032 66 10000 3 340 00:33 02.01.2020
1516 Clouds -7 1032 66 10000 3 340 23:52 01.01.2020
1517 Clouds -8 1031 66 10000 3 340 23:28 01.01.2020
1518 Clouds -8 1031 61 10000 2 310 22:59 01.01.2020
1519 Clouds -7 1031 61 10000 2 320 22:38 01.01.2020
1520 Clouds -8 1031 66 10000 2 330 22:19 01.01.2020
1521 Clouds -8 1031 66 10000 2 330 21:56 01.01.2020
1522 Clouds -7 1031 66 10000 2 330 21:37 01.01.2020
1523 Clouds -7 1031 66 10000 2 330 21:19 01.01.2020
1524 Clouds -7 1031 72 10000 2 330 20:55 01.01.2020
1525 Clouds -7 1032 66 10000 2 330 20:37 01.01.2020
1526 Clear -7 1032 66 10000 2 330 20:18 01.01.2020
1527 Clouds -6 1032 57 10000 2 330 19:54 01.01.2020
1528 Clouds -7 1032 66 10000 2 340 19:36 01.01.2020
1529 Clouds -7 1032 66 10000 2 340 19:18 01.01.2020
1530 Clouds -6 1032 61 10000 2 340 18:55 01.01.2020
1531 Clouds -7 1032 66 10000 2 340 18:36 01.01.2020
1532 Clouds -7 1032 66 10000 2 340 18:18 01.01.2020
1533 Clouds -6 1032 61 10000 2 360 17:55 01.01.2020
1534 Clouds -6 1032 66 10000 1 360 17:36 01.01.2020
1535 Clear -6 1032 66 10000 1 360 17:18 01.01.2020
1536 Clear -6 1032 61 10000 1 360 16:39 01.01.2020
1537 Clear -6 1032 61 10000 1 360 16:39 01.01.2020
1538 Clear -6 1032 61 10000 1 360 16:20 01.01.2020
1539 Clear -6 1032 61 10000 1 20 15:57 01.01.2020
1540 Clear -6 1032 61 10000 1 10 15:39 01.01.2020
1541 Clear -6 1032 61 10000 1 10 15:20 01.01.2020
1542 Clear -6 1032 61 10000 1 0 14:58 01.01.2020
1543 Clear -6 1032 61 10000 1 0 14:58 01.01.2020
1544 Clear -6 1032 48 10000 1 60 14:39 01.01.2020
1545 Clear -5 1032 48 10000 1 60 14:21 01.01.2020
1546 Clear -5 1032 52 10000 2 80 13:56 01.01.2020
1547 Clear -5 1032 52 10000 2 80 13:37 01.01.2020
1548 Clear -5 1032 52 10000 2 80 13:18 01.01.2020
1549 Clear -5 1032 57 10000 2 80 12:55 01.01.2020
1550 Clear -5 1032 48 10000 2 60 12:37 01.01.2020
1551 Clear -5 1032 48 10000 2 60 12:18 01.01.2020
1552 Clear -4 1031 41 10000 1 50 11:43 01.01.2020
1553 Clear -3 1031 35 10000 1 0 11:22 01.01.2020
1554 Clear -3 1031 32 10000 1 0 10:58 01.01.2020
1555 Clear -2 1030 30 10000 1 0 10:40 01.01.2020
1556 Clear -2 1030 30 10000 1 0 10:20 01.01.2020
1557 Clear -1 1030 26 10000 1 0 09:55 01.01.2020
1558 Clear 0 1030 22 10000 1 0 09:36 01.01.2020
1559 Clear 0 1030 22 10000 1 0 09:18 01.01.2020
1560 Clear 0 1030 22 10000 1 0 08:54 01.01.2020
1561 Clear 0 1030 22 10000 2 130 08:36 01.01.2020
1562 Clear 0 1030 21 10000 2 130 08:18 01.01.2020
1563 Clear 0 1030 20 10000 1 0 07:45 01.01.2020
1564 Clear 0 1030 23 10000 2 260 07:26 01.01.2020
1565 Clear 0 1031 22 10000 1 0 06:44 01.01.2020
1566 Clear 0 1031 25 10000 2 300 06:19 01.01.2020
1567 Clear -3 1033 30 10000 2 320 04:44 01.01.2020
1568 Clear -4 1034 38 10000 3 330 03:43 01.01.2020
1569 Clear -4 1034 48 10000 2 320 03:22 01.01.2020
1570 Clear -6 1033 48 10000 3 330 02:55 01.01.2020
1571 Clear -6 1033 56 10000 3 360 02:32 01.01.2020
1572 Clear -8 1033 61 10000 3 350 01:45 01.01.2020
1573 Clear -9 1033 56 10000 3 330 01:24 01.01.2020
1574 Clear -10 1033 60 10000 3 340 00:57 01.01.2020
1575 Clear -10 1032 61 10000 4 340 00:37 01.01.2020
1576 Clear -10 1032 61 10000 4 340 00:19 01.01.2020
1577 Clear -10 1032 65 10000 4 350 23:40 31.12.2019
1578 Clear -10 1032 65 10000 4 350 23:21 31.12.2019
1579 Clear -9 1032 61 10000 4 330 22:57 31.12.2019
1580 Clear -9 1032 61 10000 4 340 22:38 31.12.2019
1581 Clear -9 1032 61 10000 4 340 22:18 31.12.2019
1582 Clear -9 1032 66 10000 2 330 21:54 31.12.2019
1583 Clear -10 1032 66 10000 3 340 21:36 31.12.2019
1584 Clear -10 1032 66 10000 3 340 21:18 31.12.2019
1585 Clear -10 1033 66 10000 3 340 20:40 31.12.2019
1586 Clear -10 1033 66 10000 3 340 20:21 31.12.2019
1587 Clear -10 1033 66 10000 3 340 19:59 31.12.2019
1588 Clear -10 1033 66 10000 3 340 19:40 31.12.2019
1589 Clear -10 1033 66 10000 3 340 19:22 31.12.2019
1590 Clear -10 1033 66 10000 3 340 19:22 31.12.2019
1591 Clear -10 1033 61 10000 2 330 18:58 31.12.2019
1592 Clear -9 1033 66 10000 3 350 18:40 31.12.2019
1593 Clear -9 1033 66 10000 3 350 18:20 31.12.2019
1594 Clear -10 1033 60 10000 1 0 17:56 31.12.2019
1595 Clear -9 1033 56 10000 1.94 14 17:38 31.12.2019
1596 Clear -9 1033 56 10000 2.07 27 17:19 31.12.2019
1597 Clear -9 1033 56 10000 1 40 16:57 31.12.2019
1598 Clear -9 1033 56 10000 2 30 16:38 31.12.2019
1599 Clear -9 1033 56 10000 2 30 16:19 31.12.2019
1600 Clear -9 1033 51 10000 2 30 15:56 31.12.2019
1601 Clear -9 1033 51 10000 1 20 15:38 31.12.2019
1602 Clear -9 1033 51 10000 1 20 15:38 31.12.2019
1603 Clear -9 1033 51 10000 1 20 15:20 31.12.2019
1604 Clear -8 1033 47 10000 1 40 14:57 31.12.2019
1605 Clear -9 1033 60 10000 1 30 14:38 31.12.2019
1606 Clear -9 1033 60 10000 1 30 14:19 31.12.2019
1607 Clear -8 1033 56 10000 1 20 13:57 31.12.2019
1608 Clear -8 1033 47 10000 1 0 13:39 31.12.2019
1609 Clear -8 1033 47 10000 1 0 13:20 31.12.2019
1610 Clear -7 1034 43 10000 1 0 12:56 31.12.2019
1611 Clear -7 1034 40 10000 1.91 26 12:38 31.12.2019
1612 Clear -6 1034 40 10000 1.91 26 12:19 31.12.2019
1613 Clear -6 1034 40 10000 1.91 26 12:19 31.12.2019
1614 Clear -6 1034 31 10000 1 0 11:56 31.12.2019
1615 Clear -6 1034 31 10000 1 0 11:56 31.12.2019
1616 Clear -6 1034 34 10000 1 0 11:38 31.12.2019
1617 Clear -5 1034 34 10000 1 0 11:19 31.12.2019
1618 Clear -4 1034 23 10000 2 190 10:57 31.12.2019
1619 Clear -4 1034 23 10000 2 190 10:57 31.12.2019
1620 Clear -4 1034 23 10000 3 210 10:38 31.12.2019
1621 Clear -4 1034 23 10000 3 210 10:20 31.12.2019
1622 Clear -4 1034 23 10000 3 190 09:58 31.12.2019
1623 Clear -3 1034 21 10000 2 0 09:39 31.12.2019
1624 Clear -3 1034 21 10000 2 0 09:20 31.12.2019
1625 Clear -2 1035 21 10000 3 210 08:57 31.12.2019
1626 Clear -3 1035 21 10000 3 230 08:37 31.12.2019
1627 Clear -3 1035 21 10000 3 230 08:18 31.12.2019
1628 Clear -3 1029 24 0 0.42 249 07:41 31.12.2019
1629 Clear -3 1036 21 10000 3 210 07:19 31.12.2019
1630 Clear -2 1036 23 10000 3 220 06:49 31.12.2019
1631 Clear -3 1038 27 10000 2 0 05:55 31.12.2019
1632 Clear -6 1041 37 10000 1 0 04:27 31.12.2019
1633 Clear -6 1042 40 10000 1 0 03:27 31.12.2019
1634 Clear -7 1042 40 10000 1 0 02:49 31.12.2019
1635 Clear -11 1042 65 10000 1 10 01:55 31.12.2019
1636 Clear -11 1042 65 10000 1 0 01:34 31.12.2019
1637 Clear -11 1042 55 10000 2 340 00:59 31.12.2019
1638 Clear -11 1042 55 10000 2 340 00:41 31.12.2019
1639 Clear -12 1042 55 10000 2 340 00:21 31.12.2019
1640 Clear -12 1042 55 10000 2 10 23:56 30.12.2019
1641 Clear -13 1042 54 10000 1 0 23:37 30.12.2019
1642 Clear -12 1042 54 10000 1 0 23:19 30.12.2019
1643 Clear -12 1043 50 10000 1 360 22:56 30.12.2019
1644 Clear -11 1043 43 10000 2.49 356 22:37 30.12.2019
1645 Clear -11 1043 43 10000 2.49 356 22:37 30.12.2019
1646 Clear -11 1043 43 10000 2.49 356 22:18 30.12.2019
1647 Clear -12 1043 43 10000 2 30 21:56 30.12.2019
1648 Clear -11 1043 43 10000 2 20 21:38 30.12.2019
1649 Clear -11 1043 43 10000 2 20 21:18 30.12.2019
1650 Clear -11 1044 43 10000 3 30 20:56 30.12.2019
1651 Clear -11 1044 43 10000 3 30 20:56 30.12.2019
1652 Clear -11 1044 43 10000 3 10 20:38 30.12.2019
1653 Clear -11 1044 43 10000 3 10 20:19 30.12.2019
1654 Clear -10 1045 39 10000 2 60 19:56 30.12.2019
1655 Clear -11 1045 39 10000 3 10 19:37 30.12.2019
1656 Clear -10 1045 39 10000 3 10 19:18 30.12.2019
1657 Clear -10 1045 39 10000 2 40 18:56 30.12.2019
1658 Clear -10 1045 33 10000 2 10 18:37 30.12.2019
1659 Clear -10 1045 33 10000 2 10 18:19 30.12.2019
1660 Clear -10 1045 35 10000 3 10 17:54 30.12.2019
1661 Clear -10 1045 33 10000 2 10 17:36 30.12.2019
1662 Clear -10 1045 33 10000 2 10 17:18 30.12.2019
1663 Clear -10 1045 39 10000 5 350 16:54 30.12.2019
1664 Clear -9 1045 33 10000 4 360 16:36 30.12.2019
1665 Clear -9 1045 33 10000 4 360 16:18 30.12.2019
1666 Clear -9 1045 28 10000 7 320 15:54 30.12.2019
1667 Clear -9 1045 28 10000 6 320 15:36 30.12.2019
1668 Clear -9 1045 28 10000 6 320 15:18 30.12.2019
1669 Clear -8 1045 28 10000 7 310 14:42 30.12.2019
1670 Clear -8 1045 26 10000 7 320 14:19 30.12.2019
1671 Clear -8 1045 23 10000 8 320 13:54 30.12.2019
1672 Clear -8 1045 23 10000 9 310 13:36 30.12.2019
1673 Clear -8 1045 23 10000 9 310 13:18 30.12.2019
1674 Clear -7 1045 26 10000 8 320 12:42 30.12.2019
1675 Clear -7 1045 26 10000 8 320 12:20 30.12.2019
1676 Clear -7 1044 23 10000 8 320 11:58 30.12.2019
1677 Clear -7 1043 22 10000 9 310 11:39 30.12.2019
1678 Clear -7 1043 22 10000 9 310 11:19 30.12.2019
1679 Clear -7 1043 22 10000 10 310 10:43 30.12.2019
1680 Clear -6 1042 22 10000 9 310 10:21 30.12.2019
1681 Clear -6 1042 20 10000 11 310 09:57 30.12.2019
1682 Clear -6 1041 20 10000 11 310 09:37 30.12.2019
1683 Clear -6 1041 20 10000 11 310 09:19 30.12.2019
1684 Clear -6 1041 20 10000 12 320 08:49 30.12.2019
1685 Clear -5 1040 19 10000 12 320 08:23 30.12.2019
1686 Clear -5 1040 19 10000 14 320 07:55 30.12.2019
1687 Clear -5 1040 19 10000 13 330 07:34 30.12.2019
1688 Clear -5 1040 20 10000 10 330 06:52 30.12.2019
1689 Clear -6 1041 20 10000 8 310 04:57 30.12.2019
1690 Clear -6 1042 22 10000 8 300 03:55 30.12.2019
1691 Clear -7 1041 23 10000 8 310 02:56 30.12.2019
1692 Clear -7 1041 23 10000 10 320 02:37 30.12.2019
1693 Clear -8 1040 23 10000 10 320 01:50 30.12.2019
1694 Clear -8 1040 25 10000 10 320 01:21 30.12.2019
1695 Clear -8 1039 25 10000 9 320 00:44 30.12.2019
1696 Clear -8 1039 23 10000 8 320 00:19 30.12.2019
1697 Clear -8 1037 23 10000 9 320 23:39 29.12.2019
1698 Clear -8 1037 23 10000 9 320 23:21 29.12.2019
1699 Clear -8 1037 23 10000 7 320 22:54 29.12.2019
1700 Clear -7 1036 23 10000 8 320 22:36 29.12.2019
1701 Clear -7 1036 23 10000 8 320 22:18 29.12.2019
1702 Clear -6 1036 22 10000 9 320 21:42 29.12.2019
1703 Clear -6 1036 24 10000 9 320 21:21 29.12.2019
1704 Clear -6 1035 24 10000 9 310 20:57 29.12.2019
1705 Clear -5 1035 24 10000 9 310 20:39 29.12.2019
1706 Clouds -5 1035 24 10000 9 310 20:21 29.12.2019
1707 Clouds -5 1035 24 10000 8 310 19:59 29.12.2019
1708 Clouds -5 1034 23 10000 10 320 19:40 29.12.2019
1709 Clouds -4 1034 23 10000 10 320 19:21 29.12.2019
1710 Clouds -4 1033 25 10000 10 320 18:58 29.12.2019
1711 Clouds -3 1033 23 10000 8 320 18:38 29.12.2019
1712 Clouds -3 1033 23 10000 7 320 18:20 29.12.2019
1713 Clouds -3 1033 23 10000 7 320 17:58 29.12.2019
1714 Clouds -2 1032 23 10000 8 340 17:39 29.12.2019
1715 Clouds -2 1032 23 10000 8 340 17:20 29.12.2019
1716 Clouds -2 1032 23 10000 6 330 16:56 29.12.2019
1717 Clouds -1 1031 23 10000 6 360 16:38 29.12.2019
1718 Clouds -1 1031 23 10000 6 360 16:20 29.12.2019
1719 Clouds -1 1030 26 10000 8 340 15:58 29.12.2019
1720 Clouds 0 1030 25 10000 9 340 15:39 29.12.2019
1721 Clouds 0 1030 25 10000 9 340 15:20 29.12.2019
1722 Clouds 1 1029 22 10000 12 330 14:58 29.12.2019
1723 Clouds 1 1028 24 10000 12 340 14:38 29.12.2019
1724 Clouds 1 1028 24 10000 12 340 14:18 29.12.2019
1725 Clouds 2 1028 24 10000 10 350 13:57 29.12.2019
1726 Clouds 2 1028 24 10000 9 350 13:38 29.12.2019
1727 Clouds 2 1028 24 10000 9 350 13:20 29.12.2019
1728 Clouds 3 1026 27 10000 6 350 12:45 29.12.2019
1729 Clouds 3 1026 27 10000 6 340 12:27 29.12.2019
1730 Clouds 3 1026 27 10000 6 340 12:27 29.12.2019
1731 Clouds 3 1025 27 10000 7 340 11:58 29.12.2019
1732 Clouds 4 1024 38 10000 5 360 11:40 29.12.2019
1733 Clouds 4 1024 38 10000 5 360 11:20 29.12.2019
1734 Clouds 4 1024 38 10000 5 360 11:20 29.12.2019
1735 Clouds 4 1023 41 10000 3 10 10:55 29.12.2019
1736 Clouds 4 1022 51 6000 4 360 10:37 29.12.2019
1737 Clouds 4 1022 51 6000 4 360 10:18 29.12.2019
1738 Clouds 4 1022 51 6000 4 360 10:18 29.12.2019
1739 Haze 5 1021 48 5000 4 10 09:41 29.12.2019
1740 Haze 5 1021 44 4800 2 10 09:22 29.12.2019
1741 Haze 5 1020 44 4800 3 10 08:48 29.12.2019
1742 Haze 5 1020 44 4500 4 20 08:28 29.12.2019
1743 Haze 6 1019 48 4500 4 30 07:58 29.12.2019
1744 Haze 6 1019 48 4500 4 10 07:31 29.12.2019
1745 Haze 6 1019 48 4500 4 10 07:31 29.12.2019
1746 Haze 7 1019 48 4500 4 360 06:57 29.12.2019
1747 Haze 6 1019 52 5000 4 350 06:27 29.12.2019
1748 Haze 6 1019 51 5000 4 340 05:54 29.12.2019
1749 Clear 3 1020 59 6000 4 330 04:42 29.12.2019
1750 Clear 2 1020 59 6000 2 350 04:21 29.12.2019
1751 Mist 1 1020 59 5000 3 330 03:21 29.12.2019
1752 Clear -1 1019 80 6000 2 340 02:22 29.12.2019
1753 Clear -1 1019 80 6000 2 340 02:22 29.12.2019
1754 Clear -1 1019 79 6000 3 350 01:42 29.12.2019
1755 Clear -1 1019 79 6000 2 340 01:23 29.12.2019
1756 Clear -2 1018 86 6000 1 10 00:44 29.12.2019
1757 Clear -2 1018 85 6000 3 350 00:24 29.12.2019
1758 Clear -3 1018 85 6000 2 360 23:45 28.12.2019
1759 Clear -3 1018 85 6000 2 360 23:18 28.12.2019
1760 Clear -3 1017 85 7000 1 340 22:54 28.12.2019
1761 Clear -3 1017 85 7000 1 330 22:36 28.12.2019
1762 Clear -3 1017 85 7000 1 330 22:18 28.12.2019
1763 Clear -3 1017 85 7000 2 310 21:55 28.12.2019
1764 Clear -3 1017 85 7000 1 340 21:36 28.12.2019
1765 Clear -3 1017 85 7000 1 340 21:18 28.12.2019
1766 Clear -4 1018 92 7000 2 360 20:38 28.12.2019
1767 Clear -4 1018 92 7000 2 360 20:20 28.12.2019
1768 Clear -4 1018 92 7000 1.39 17 19:58 28.12.2019
1769 Clear -4 1018 92 7000 2 350 19:39 28.12.2019
1770 Clear -4 1018 85 7000 1.39 17 19:21 28.12.2019
1771 Clear -4 1018 85 7000 1.39 17 18:58 28.12.2019
1772 Clear -3 1018 92 7000 1 150 18:40 28.12.2019
1773 Clear -4 1018 92 7000 1 150 18:19 28.12.2019
1774 Clear -3 1018 92 7000 1 350 17:55 28.12.2019
1775 Clear -3 1018 92 7000 1 350 17:55 28.12.2019
1776 Clear -3 1019 85 7000 2 350 17:37 28.12.2019
1777 Clear -3 1019 85 7000 2 350 17:18 28.12.2019
1778 Clear -2 1019 92 8000 1 0 16:46 28.12.2019
1779 Clear -2 1019 85 8000 1.49 11 16:26 28.12.2019
1780 Clear -2 1019 85 8000 1.49 11 16:26 28.12.2019
1781 Clear -2 1019 85 8000 1.49 11 16:26 28.12.2019
1782 Clear -2 1019 79 8000 1.49 11 15:49 28.12.2019
1783 Clear -2 1019 85 8000 1.49 11 15:25 28.12.2019
1784 Clear -2 1020 85 8000 1 50 14:59 28.12.2019
1785 Clear -2 1019 79 8000 1 0 14:40 28.12.2019
1786 Clouds -2 1019 79 8000 1 0 14:21 28.12.2019
1787 Clouds -2 1019 79 8000 1.19 17 13:56 28.12.2019
1788 Clouds -2 1020 85 8000 1 40 13:37 28.12.2019
1789 Clouds -2 1020 85 8000 1 40 13:18 28.12.2019
1790 Clouds -1 1019 79 8000 1 0 12:43 28.12.2019
1791 Clouds -1 1019 79 8000 1 0 12:43 28.12.2019
1792 Clouds -1 1019 79 8000 1 0 12:24 28.12.2019
1793 Clouds -1 1019 73 8000 1.1 17 11:56 28.12.2019
1794 Clouds -1 1019 73 8000 1.1 17 11:56 28.12.2019
1795 Clouds -1 1019 73 8000 1.1 17 11:38 28.12.2019
1796 Clouds 0 1019 73 8000 0.18 3 11:19 28.12.2019
1797 Clouds 0 1018 74 10000 0.18 3 10:44 28.12.2019
1798 Clouds 1 1018 58 10000 0.18 3 10:22 28.12.2019
1799 Clouds 2 1018 51 10000 1 0 09:57 28.12.2019
1800 Clouds 3 1018 51 10000 1 0 09:39 28.12.2019
1801 Clouds 3 1018 51 10000 1 0 09:19 28.12.2019
1802 Clouds 3 1018 51 10000 2 110 08:44 28.12.2019
1803 Clear 4 1018 44 10000 1 0 08:26 28.12.2019
1804 Clear 4 1019 48 10000 2 120 07:53 28.12.2019
1805 Clear 4 1019 48 10000 2 140 07:30 28.12.2019
1806 Clear 5 1020 44 10000 2 300 06:27 28.12.2019
1807 Clear 1 1021 47 10000 2 320 04:51 28.12.2019
1808 Clear 1 1022 63 10000 2 310 03:47 28.12.2019
1809 Clear 0 1022 73 10000 2 350 02:48 28.12.2019
1810 Clear -3 1022 79 10000 3 350 01:59 28.12.2019
1811 Clear -4 1022 85 10000 2 360 01:30 28.12.2019
1812 Clear -5 1021 85 10000 1 0 00:58 28.12.2019
1813 Clear -5 1021 92 10000 1 0 00:38 28.12.2019
1814 Clear -5 1021 92 10000 1 0 00:19 28.12.2019
1815 Clear -4 1021 85 10000 1 10 23:43 27.12.2019
1816 Clear -4 1021 79 10000 1 0 23:20 27.12.2019
1817 Clear -4 1021 79 10000 2 330 22:58 27.12.2019
1818 Clear -4 1021 79 10000 3 330 22:38 27.12.2019
1819 Clear -4 1021 79 10000 3 330 22:20 27.12.2019
1820 Clear -5 1021 79 10000 3 340 21:55 27.12.2019
1821 Clear -5 1021 78 10000 3 350 21:37 27.12.2019
1822 Clear -5 1021 78 10000 3 350 21:18 27.12.2019
1823 Clear -4 1022 85 10000 1 0 20:41 27.12.2019
1824 Clear -4 1022 85 10000 1 0 20:22 27.12.2019
1825 Clear -4 1022 79 10000 1.49 15 19:43 27.12.2019
1826 Clear -6 1022 79 10000 1.49 15 19:21 27.12.2019
1827 Clear -6 1022 79 10000 1.49 15 19:21 27.12.2019
1828 Clear -5 1022 79 10000 1 350 18:59 27.12.2019
1829 Clear -5 1022 79 10000 1 10 18:39 27.12.2019
1830 Clear -5 1022 79 10000 1 10 18:39 27.12.2019
1831 Clear -4 1022 79 10000 1 10 18:21 27.12.2019
1832 Clear -4 1022 79 10000 1 0 17:58 27.12.2019
1833 Clear -4 1022 79 10000 1 360 17:39 27.12.2019
1834 Clear -5 1022 79 10000 1 360 17:19 27.12.2019
1835 Clear -3 1022 79 10000 1 50 16:58 27.12.2019
1836 Clear -3 1022 79 10000 1 0 16:38 27.12.2019
1837 Clear -3 1022 79 10000 1 0 16:19 27.12.2019
1838 Clear -3 1022 79 10000 1 80 15:45 27.12.2019
1839 Clear -3 1022 73 10000 1 10 15:22 27.12.2019
1840 Clear -3 1022 73 10000 1 0 14:58 27.12.2019
1841 Clear -3 1022 73 10000 2 80 14:39 27.12.2019
1842 Clear -2 1022 73 10000 2 80 14:20 27.12.2019
1843 Clear -2 1022 73 10000 1 50 13:57 27.12.2019
1844 Clear -4 1021 73 10000 2 50 13:38 27.12.2019
1845 Clear -3 1021 73 10000 2 50 13:38 27.12.2019
1846 Clear -2 1021 73 10000 2 50 13:20 27.12.2019
1847 Clear -3 1021 62 10000 1 90 12:42 27.12.2019
1848 Clear -3 1021 62 10000 1 90 12:23 27.12.2019
1849 Clear -2 1021 62 10000 2 80 11:46 27.12.2019
1850 Clear -2 1021 58 10000 1 0 11:27 27.12.2019
1851 Clear -1 1020 50 10000 1 110 10:59 27.12.2019
1852 Clear 1 1020 41 10000 1 80 10:41 27.12.2019
1853 Clear 1 1020 41 10000 1 80 10:22 27.12.2019
1854 Clear 3 1020 29 10000 1 0 09:46 27.12.2019
1855 Clear 4 1020 29 10000 2 180 09:22 27.12.2019
1856 Clear 4 1019 29 10000 2 180 08:59 27.12.2019
1857 Clear 4 1019 29 10000 2 180 08:59 27.12.2019
1858 Clear 4 1019 29 10000 2 190 08:38 27.12.2019
1859 Clear 4 1019 29 10000 1 0 07:57 27.12.2019
1860 Clear 4 1020 29 10000 1 0 07:38 27.12.2019
1861 Clear 6 1021 34 10000 1 0 06:39 27.12.2019
1862 Clear 6 1021 34 10000 1 0 06:18 27.12.2019
1863 Clear 1 1023 44 10000 1 0 04:20 27.12.2019
1864 Clear -3 1023 73 10000 2 10 02:26 27.12.2019
1865 Clear -4 1024 85 10000 1 0 01:42 27.12.2019
1866 Clear -6 1023 85 10000 1 30 01:20 27.12.2019
1867 Clear -7 1023 85 10000 1 30 00:46 27.12.2019
1868 Clear -7 1023 78 10000 1 0 00:25 27.12.2019
1869 Clear -7 1023 78 10000 1 0 00:25 27.12.2019
1870 Clear -6 1023 78 10000 2 10 23:44 26.12.2019
1871 Clear -6 1023 78 10000 2 360 23:24 26.12.2019
1872 Clear -6 1023 78 10000 1 360 22:58 26.12.2019
1873 Clear -6 1023 72 10000 1.11 19 22:38 26.12.2019
1874 Clear -6 1023 72 10000 1.11 19 22:18 26.12.2019
1875 Clear -6 1024 78 10000 1 0 21:39 26.12.2019
1876 Clear -6 1024 78 10000 1 0 21:21 26.12.2019
1877 Clear -6 1024 72 10000 1 0 20:54 26.12.2019
1878 Clear -5 1024 78 10000 1 0 20:36 26.12.2019
1879 Clear -5 1024 78 10000 1 0 20:18 26.12.2019
1880 Clear -5 1024 78 10000 1 0 20:18 26.12.2019
1881 Clear -5 1024 67 10000 1 0 19:54 26.12.2019
1882 Clear -5 1024 72 10000 1 0 19:36 26.12.2019
1883 Clear -5 1024 72 10000 1 0 19:18 26.12.2019
1884 Clear -5 1024 72 10000 1 0 19:18 26.12.2019
1885 Clear -5 1024 67 10000 1 30 18:55 26.12.2019
1886 Clear -5 1024 67 10000 1 30 18:55 26.12.2019
1887 Clear -4 1025 73 10000 1 0 18:36 26.12.2019
1888 Clear -4 1025 73 10000 1 0 18:18 26.12.2019
1889 Clear -4 1025 62 10000 1 50 17:40 26.12.2019
1890 Clear -3 1025 62 10000 1 50 17:20 26.12.2019
1891 Clear -3 1025 53 10000 2 170 16:48 26.12.2019
1892 Clear -2 1025 53 10000 1 0 16:26 26.12.2019
1893 Clear -2 1025 42 10000 2 190 15:57 26.12.2019
1894 Clear -1 1025 42 10000 2 190 15:38 26.12.2019
1895 Clear -1 1025 42 10000 2 190 15:19 26.12.2019
1896 Clear -1 1025 36 10000 1 0 14:41 26.12.2019
1897 Clear -1 1025 29 10000 3 230 14:23 26.12.2019
1898 Clear -1 1025 29 10000 3 230 14:23 26.12.2019
1899 Clear -1 1025 29 10000 3 230 14:23 26.12.2019
1900 Clear 0 1025 24 10000 2 280 13:55 26.12.2019
1901 Clear 0 1025 26 10000 3 260 13:36 26.12.2019
1902 Clear 0 1025 26 10000 3 260 13:18 26.12.2019
1903 Clear 0 1025 24 10000 4 280 12:44 26.12.2019
1904 Clear 1 1025 24 10000 4 250 12:24 26.12.2019
1905 Clear 1 1025 24 10000 5 280 11:59 26.12.2019
1906 Clear 1 1025 24 10000 4 290 11:40 26.12.2019
1907 Clear 1 1025 24 10000 4 290 11:21 26.12.2019
1908 Clear 2 1025 24 10000 3 280 10:50 26.12.2019
1909 Clear 2 1025 24 10000 5 280 10:26 26.12.2019
1910 Clear 2 1025 22 10000 7 280 09:55 26.12.2019
1911 Clear 3 1025 21 10000 7 280 09:36 26.12.2019
1912 Clear 3 1025 21 10000 7 280 09:18 26.12.2019
1913 Clear 3 1025 21 10000 8 280 08:39 26.12.2019
1914 Clear 3 1025 21 10000 8 280 08:20 26.12.2019
1915 Clear 3 1025 21 10000 8 290 07:41 26.12.2019
1916 Clear 3 1025 23 10000 5 290 07:19 26.12.2019
1917 Clear 5 1025 21 10000 5 320 06:38 26.12.2019
1918 Clear 5 1025 21 10000 5 320 06:20 26.12.2019
1919 Clear 4 1027 23 10000 6 300 05:42 26.12.2019
1920 Clear 2 1028 27 10000 6 300 04:33 26.12.2019
1921 Clear 3 1028 31 10000 2 290 03:31 26.12.2019
1922 Clear 2 1028 54 10000 1 0 02:46 26.12.2019
1923 Clear -1 1028 54 10000 1 0 02:27 26.12.2019
1924 Clouds -1 1027 73 10000 2 350 01:44 26.12.2019
1925 Clouds -2 1027 73 10000 2 350 01:25 26.12.2019
1926 Clouds -4 1027 78 10000 2 30 00:44 26.12.2019
1927 Clouds -3 1027 73 10000 1 0 00:23 26.12.2019
1928 Clouds -3 1027 73 10000 1 0 00:23 26.12.2019
1929 Clouds -4 1027 78 10000 3 360 23:57 25.12.2019
1930 Clouds -4 1027 73 10000 1 320 23:37 25.12.2019
1931 Clouds -3 1027 73 10000 1 320 23:19 25.12.2019
1932 Clouds -4 1026 67 10000 1.51 5 22:56 25.12.2019
1933 Clouds -4 1027 62 10000 2 320 22:37 25.12.2019
1934 Clouds -4 1027 62 10000 2 320 22:18 25.12.2019
1935 Clouds -4 1027 62 10000 2 320 22:18 25.12.2019
1936 Clouds -3 1027 57 10000 3 340 21:55 25.12.2019
1937 Clouds -3 1027 57 10000 3 340 21:55 25.12.2019
1938 Clouds -3 1027 62 10000 2 330 21:37 25.12.2019
1939 Clouds -2 1027 62 10000 2 330 21:18 25.12.2019
1940 Clouds -2 1028 50 10000 2 350 20:40 25.12.2019
1941 Clouds -1 1028 50 10000 2 350 20:21 25.12.2019
1942 Clouds -1 1028 42 10000 1 290 19:59 25.12.2019
1943 Clouds 0 1028 42 10000 1.51 45 19:41 25.12.2019
1944 Clouds 0 1028 42 10000 1.51 45 19:21 25.12.2019
1945 Clouds 0 1029 55 10000 3 20 18:40 25.12.2019
1946 Clouds 0 1029 55 10000 3 20 18:21 25.12.2019
1947 Clouds 0 1029 55 10000 3 20 17:58 25.12.2019
1948 Clouds 0 1029 55 10000 4 10 17:39 25.12.2019
1949 Snow 0 1029 49 10000 4 10 17:18 25.12.2019
1950 Snow 0 1029 49 10000 3 20 16:54 25.12.2019
1951 Snow 1 1029 49 10000 5 20 16:36 25.12.2019
1952 Snow 1 1029 49 10000 5 20 16:18 25.12.2019
1953 Snow 1 1029 49 10000 4 20 15:55 25.12.2019
1954 Snow 1 1029 49 10000 4 30 15:36 25.12.2019
1955 Snow 1 1029 49 10000 4 30 15:18 25.12.2019
1956 Snow 1 1028 34 10000 4 20 14:42 25.12.2019
1957 Clouds 1 1028 34 10000 4 20 14:23 25.12.2019
1958 Clouds 2 1028 37 10000 4 10 13:58 25.12.2019
1959 Clouds 2 1028 37 10000 4 10 13:40 25.12.2019
1960 Clouds 2 1028 37 10000 4 10 13:20 25.12.2019
1961 Clouds 2 1028 40 10000 3 10 12:43 25.12.2019
1962 Clouds 2 1028 40 10000 3 10 12:22 25.12.2019
1963 Clouds 2 1028 43 10000 3 10 11:58 25.12.2019
1964 Clouds 2 1028 40 10000 4 10 11:40 25.12.2019
1965 Clouds 2 1028 40 10000 4 10 11:20 25.12.2019
1966 Clouds 3 1027 40 10000 3 360 10:39 25.12.2019
1967 Clouds 3 1027 40 10000 3 360 10:21 25.12.2019
1968 Clouds 3 1026 37 10000 4 20 09:58 25.12.2019
1969 Clouds 4 1026 35 10000 3 30 09:40 25.12.2019
1970 Clouds 4 1026 35 10000 3 30 09:21 25.12.2019
1971 Clouds 4 1025 35 10000 3 30 08:42 25.12.2019
1972 Clouds 5 1025 30 10000 4 10 08:23 25.12.2019
1973 Clouds 5 1025 30 10000 6 330 07:42 25.12.2019
1974 Clouds 5 1025 33 10000 4 20 07:22 25.12.2019
1975 Clouds 6 1025 33 10000 5 350 06:24 25.12.2019
1976 Clouds 5 1026 35 10000 6 330 05:49 25.12.2019
1977 Clouds 3 1027 44 10000 3 350 04:44 25.12.2019
1978 Clouds 2 1027 55 7000 3 350 04:24 25.12.2019
1979 Clouds 2 1027 64 6000 4 360 03:43 25.12.2019
1980 Mist 1 1027 74 5000 5 340 02:59 25.12.2019
1981 Mist 1 1026 79 4000 4 340 02:29 25.12.2019
1982 Mist -1 1026 79 3500 3 360 01:44 25.12.2019
1983 Mist -2 1026 86 2800 2.28 12 01:19 25.12.2019
1984 Mist -2 1026 85 2800 2 10 00:42 25.12.2019
1985 Mist -3 1025 92 2800 4 350 00:23 25.12.2019
1986 Mist -4 1025 92 3500 3 350 23:40 24.12.2019
1987 Mist -3 1025 92 3500 3 350 23:20 24.12.2019
1988 Mist -3 1024 92 3500 2 340 22:55 24.12.2019
1989 Mist -3 1024 92 3500 3 340 22:37 24.12.2019
1990 Mist -3 1024 92 3500 3 340 22:19 24.12.2019
1991 Mist -3 1024 92 4000 1 0 21:41 24.12.2019
1992 Mist -3 1024 92 4000 1 0 21:20 24.12.2019
1993 Mist -3 1024 92 4000 2.13 0 20:43 24.12.2019
1994 Mist -2 1025 92 5000 2 360 20:23 24.12.2019
1995 Mist -2 1025 92 5000 1 360 19:56 24.12.2019
1996 Mist -2 1025 92 5000 1.41 8 19:37 24.12.2019
1997 Mist -2 1025 92 5000 1.41 8 19:18 24.12.2019
1998 Clouds -2 1025 92 6000 1 110 18:42 24.12.2019
1999 Clouds -1 1025 86 6000 1 0 18:19 24.12.2019
2000 Clouds -1 1024 86 6000 1 0 17:45 24.12.2019
2001 Clouds -1 1025 80 6000 1 20 17:23 24.12.2019
2002 Clouds -1 1025 80 6000 1.07 24 16:58 24.12.2019
2003 Clouds -1 1025 80 6000 1.07 24 16:58 24.12.2019
2004 Clouds -1 1024 80 6000 1.07 24 16:40 24.12.2019
2005 Clouds -1 1024 80 6000 1.07 24 16:40 24.12.2019
2006 Clouds -1 1024 80 6000 1.07 24 16:22 24.12.2019
2007 Clouds -1 1024 80 6000 1.07 24 15:58 24.12.2019
2008 Clouds -1 1024 80 6000 1 10 15:38 24.12.2019
2009 Clouds -1 1024 80 6000 1 10 15:19 24.12.2019
2010 Clouds 0 1024 80 6000 1 0 14:58 24.12.2019
2011 Clouds -1 1024 80 6000 2 30 14:40 24.12.2019
2012 Clouds -1 1024 80 6000 2 30 14:22 24.12.2019
2013 Mist -1 1024 80 5000 2 60 13:56 24.12.2019
2014 Mist 0 1024 80 5000 1 0 13:38 24.12.2019
2015 Mist 0 1024 80 5000 1 0 13:20 24.12.2019
2016 Mist 0 1024 80 5000 1 0 12:57 24.12.2019
2017 Mist 0 1024 80 5000 1 0 12:38 24.12.2019
2018 Mist 0 1024 80 5000 1 0 12:19 24.12.2019
2019 Mist 0 1024 86 5000 2 90 11:57 24.12.2019
2020 Mist 0 1024 86 5000 2 50 11:38 24.12.2019
2021 Mist 0 1024 86 5000 2 50 11:20 24.12.2019
2022 Mist 0 1024 86 5000 2 80 10:57 24.12.2019
2023 Mist 0 1024 86 5000 2 80 10:57 24.12.2019
2024 Mist 0 1024 86 4500 2 100 10:38 24.12.2019
2025 Mist 0 1024 86 4500 2 100 10:20 24.12.2019
2026 Mist 0 1025 86 4500 1 0 09:58 24.12.2019
2027 Mist 0 1025 86 4500 1 0 09:58 24.12.2019
2028 Snow 0 1025 86 4500 2 100 09:39 24.12.2019
2029 Snow 0 1025 86 4500 2 100 09:39 24.12.2019
2030 Snow 0 1025 86 4500 2 100 09:21 24.12.2019
2031 Snow 0 1025 86 4500 2 100 08:47 24.12.2019
2032 Snow 0 1025 86 4500 2 70 08:25 24.12.2019
2033 Snow 0 1025 86 5000 2 120 07:59 24.12.2019
2034 Snow 0 1025 86 6000 2 130 07:39 24.12.2019
2035 Snow 0 1025 86 6000 2 130 07:21 24.12.2019
2036 Snow 0 1025 86 6000 2 130 07:21 24.12.2019
2037 Snow 0 1026 80 6000 2 120 06:40 24.12.2019
2038 Snow 0 1026 80 6000 2 120 06:19 24.12.2019
2039 Snow 0 1026 80 6000 4 130 05:53 24.12.2019
2040 Snow 0 1027 80 6000 3 120 05:19 24.12.2019
2041 Snow 0 1028 80 6000 3 130 04:21 24.12.2019
2042 Snow -1 1028 80 6000 3 130 03:48 24.12.2019
2043 Snow -1 1029 79 6000 3 120 02:29 24.12.2019
2044 Snow -1 1029 79 7000 3 130 01:55 24.12.2019
2045 Snow -2 1029 79 7000 2 130 01:26 24.12.2019
2046 Snow -2 1029 79 7000 2 110 00:58 24.12.2019
2047 Snow -2 1029 79 7000 2 110 00:39 24.12.2019
2048 Snow -2 1029 79 7000 2 110 00:20 24.12.2019
2049 Snow -2 1029 79 7000 3 100 23:43 23.12.2019
2050 Snow -1 1029 79 8000 3 110 23:24 23.12.2019
2051 Snow -1 1029 79 8000 3 110 23:24 23.12.2019
2052 Snow -2 1029 74 8000 2 110 22:57 23.12.2019
2053 Snow -2 1029 74 8000 2 100 22:38 23.12.2019
2054 Snow -2 1029 74 8000 2 100 22:38 23.12.2019
2055 Snow -1 1029 74 8000 2 100 22:20 23.12.2019
2056 Snow -2 1030 79 7000 2 120 21:56 23.12.2019
2057 Snow -2 1030 79 6000 3 100 21:37 23.12.2019
2058 Snow -2 1030 79 6000 3 100 21:19 23.12.2019
2059 Snow -2 1030 79 6000 2 110 20:58 23.12.2019
2060 Snow -2 1030 79 6000 2 100 20:40 23.12.2019
2061 Snow -1 1030 79 6000 2 100 20:19 23.12.2019
2062 Snow -1 1030 79 6000 2 100 20:19 23.12.2019
2063 Snow -1 1031 74 6000 2 120 19:58 23.12.2019
2064 Snow -1 1031 74 6000 2 130 19:39 23.12.2019
2065 Snow -1 1031 74 6000 2 130 19:20 23.12.2019
2066 Snow -1 1031 74 6000 3 130 18:58 23.12.2019
2067 Snow -1 1031 74 6000 3 130 18:58 23.12.2019
2068 Snow -1 1031 74 6000 3 130 18:39 23.12.2019
2069 Snow -1 1031 74 6000 3 130 18:20 23.12.2019
2070 Snow 0 1031 74 6000 3 140 17:58 23.12.2019
2071 Snow 0 1031 74 6000 2 110 17:40 23.12.2019
2072 Snow 0 1031 74 6000 2 110 17:19 23.12.2019
2073 Snow 0 1031 74 6000 3 130 16:57 23.12.2019
2074 Snow 0 1031 68 6000 1 0 16:39 23.12.2019
2075 Snow 0 1031 68 6000 1 0 16:18 23.12.2019
2076 Snow 0 1031 68 6000 2 130 15:57 23.12.2019
2077 Snow 0 1031 68 6000 1 0 15:37 23.12.2019
2078 Snow 0 1031 68 6000 1 0 15:19 23.12.2019
2079 Snow -1 1031 74 6000 1 40 14:56 23.12.2019
2080 Snow -1 1031 74 6000 1 40 14:56 23.12.2019
2081 Snow -1 1031 74 6000 1 60 14:38 23.12.2019
2082 Clouds -1 1031 74 6000 1 60 14:18 23.12.2019
2083 Clouds -1 1031 74 6000 1 50 13:56 23.12.2019
2084 Clouds 0 1031 68 6000 1 50 13:37 23.12.2019
2085 Clouds 0 1031 68 6000 1 50 13:19 23.12.2019
2086 Clouds 0 1031 68 6000 1 40 12:54 23.12.2019
2087 Clouds 0 1030 68 6000 1 110 12:36 23.12.2019
2088 Clouds 0 1030 68 6000 1 110 12:18 23.12.2019
2089 Haze 0 1030 63 5000 1 100 11:42 23.12.2019
2090 Haze 0 1030 63 5000 1 100 11:22 23.12.2019
2091 Haze 0 1030 63 5000 2 100 10:56 23.12.2019
2092 Haze 0 1029 63 5000 2 100 10:37 23.12.2019
2093 Haze 0 1029 63 5000 2 100 10:18 23.12.2019
2094 Haze 0 1029 66 5000 2 100 09:56 23.12.2019
2095 Haze 0 1029 66 5000 2 110 09:37 23.12.2019
2096 Haze 0 1029 66 5000 2 110 09:19 23.12.2019
2097 Haze 1 1029 64 4500 3 130 08:41 23.12.2019
2098 Haze 1 1029 64 4500 3 130 08:22 23.12.2019
2099 Clouds 1 1029 55 10000 3 120 07:57 23.12.2019
2100 Clouds 1 1029 43 10000 2 120 07:38 23.12.2019
2101 Clouds 1 1029 43 10000 2 120 07:19 23.12.2019
2102 Clouds 1 1029 34 10000 2 0 06:39 23.12.2019
2103 Clouds 1 1029 34 10000 2 0 06:21 23.12.2019
2104 Clouds 2 1030 31 10000 1 0 05:45 23.12.2019
2105 Clouds 0 1031 31 10000 2 10 04:55 23.12.2019
2106 Clouds 0 1031 50 10000 3 50 03:59 23.12.2019
2107 Clouds -1 1031 46 10000 3 20 02:48 23.12.2019
2108 Clouds -2 1030 54 10000 1 0 02:20 23.12.2019
2109 Clouds -2 1030 53 10000 2 40 01:51 23.12.2019
2110 Clouds -4 1030 57 10000 1 60 01:32 23.12.2019
2111 Clouds -4 1030 57 10000 1 60 01:32 23.12.2019
2112 Clouds -4 1030 57 10000 1 60 01:32 23.12.2019
2113 Clouds -3 1029 53 10000 2 30 00:49 23.12.2019
2114 Clouds -3 1029 49 10000 3 40 00:30 23.12.2019
2115 Clouds -3 1029 49 10000 4 10 23:57 22.12.2019
2116 Clouds -3 1028 53 10000 4 20 23:38 22.12.2019
2117 Clouds -3 1028 53 10000 4 20 23:20 22.12.2019
2118 Clouds -2 1028 53 10000 4 20 22:57 22.12.2019
2119 Clouds -2 1027 50 10000 4 20 22:38 22.12.2019
2120 Clouds -2 1027 50 10000 4 20 22:19 22.12.2019
2121 Clouds -2 1027 53 10000 3 10 21:56 22.12.2019
2122 Clouds -3 1027 62 10000 4 360 21:38 22.12.2019
2123 Clouds -3 1027 62 10000 4 360 21:20 22.12.2019
2124 Clouds -2 1027 62 10000 4 340 20:41 22.12.2019
2125 Clouds -2 1027 62 10000 4 340 20:19 22.12.2019
2126 Clouds -1 1026 54 10000 4 10 19:58 22.12.2019
2127 Clouds -2 1026 58 10000 3 20 19:40 22.12.2019
2128 Clouds -1 1026 58 10000 3 20 19:20 22.12.2019
2129 Clouds -2 1026 67 10000 4 350 18:58 22.12.2019
2130 Clouds -2 1026 68 10000 3 350 18:38 22.12.2019
2131 Clouds -1 1026 68 10000 3 350 18:19 22.12.2019
2132 Clouds -1 1026 68 10000 3 350 17:55 22.12.2019
2133 Clouds -1 1026 68 10000 3 360 17:36 22.12.2019
2134 Clouds -1 1026 68 10000 3 360 17:18 22.12.2019
2135 Clouds -1 1026 62 10000 2 320 16:42 22.12.2019
2136 Clouds 0 1025 58 10000 2 330 16:23 22.12.2019
2137 Clouds -1 1025 62 10000 3 340 15:57 22.12.2019
2138 Clouds -1 1025 67 10000 1 0 15:39 22.12.2019
2139 Clouds -1 1025 67 10000 1 0 15:21 22.12.2019
2140 Clouds 1 1024 55 10000 2 300 14:57 22.12.2019
2141 Clouds -1 1023 67 10000 2 360 14:38 22.12.2019
2142 Clear -1 1023 67 10000 2 360 14:19 22.12.2019
2143 Clear -1 1023 63 10000 1 0 13:56 22.12.2019
2144 Clear -1 1023 54 10000 2 330 13:38 22.12.2019
2145 Clear 0 1023 54 10000 2 330 13:19 22.12.2019
2146 Clear -2 1022 73 10000 2 40 12:57 22.12.2019
2147 Clear -2 1022 62 10000 2 350 12:38 22.12.2019
2148 Clear -1 1022 62 10000 2 350 12:19 22.12.2019
2149 Clear -1 1022 68 10000 3 10 11:57 22.12.2019
2150 Clear -1 1021 68 10000 2 20 11:38 22.12.2019
2151 Clear 0 1021 68 10000 2 20 11:19 22.12.2019
2152 Clear 1 1021 58 10000 1 0 10:57 22.12.2019
2153 Clear 1 1020 54 10000 1 0 10:38 22.12.2019
2154 Clear 2 1020 54 10000 1 0 10:19 22.12.2019
2155 Clear 2 1020 37 10000 2 220 09:57 22.12.2019
2156 Clear 2 1020 37 10000 2 220 09:57 22.12.2019
2157 Clear 3 1019 35 10000 2 0 09:39 22.12.2019
2158 Clear 3 1019 35 10000 2 0 09:20 22.12.2019
2159 Clear 4 1019 35 10000 1 0 08:45 22.12.2019
2160 Clear 4 1019 35 10000 1 0 08:22 22.12.2019
2161 Clear 4 1019 35 10000 1 0 07:44 22.12.2019
2162 Clear 4 1019 35 10000 1 0 07:21 22.12.2019
2163 Clear 4 1019 35 10000 1 0 07:21 22.12.2019
2164 Clear 4 1019 35 10000 1 0 07:21 22.12.2019
2165 Clear 5 1019 34 10000 1 0 06:55 22.12.2019
2166 Clear 5 1019 32 10000 2 330 06:26 22.12.2019
2167 Clear 4 1020 47 10000 2 280 05:33 22.12.2019
2168 Clear 2 1021 43 10000 2 330 04:55 22.12.2019
2169 Clear 1 1021 50 10000 3 320 04:26 22.12.2019
2170 Clear -1 1022 63 10000 4 330 02:46 22.12.2019
2171 Clear -3 1021 73 10000 2 350 02:23 22.12.2019
2172 Clear -4 1021 73 10000 2 340 01:32 22.12.2019
2173 Clear -5 1021 79 10000 2 350 00:56 22.12.2019
2174 Clear -5 1021 79 10000 2 350 00:56 22.12.2019
2175 Clear -5 1021 78 10000 3 360 00:36 22.12.2019
2176 Clear -5 1021 78 10000 3 360 00:18 22.12.2019
2177 Clear -5 1021 85 10000 2 360 23:41 21.12.2019
2178 Clear -5 1021 85 10000 2 360 23:21 21.12.2019
2179 Clear -5 1021 85 10000 2 350 22:57 21.12.2019
2180 Clear -5 1021 85 10000 2 360 22:39 21.12.2019
2181 Clear -6 1021 85 10000 2 360 22:18 21.12.2019
2182 Clear -6 1021 85 10000 2 360 22:18 21.12.2019
2183 Clear -5 1021 85 10000 1 350 21:55 21.12.2019
2184 Clear -5 1021 78 10000 1 30 21:36 21.12.2019
2185 Clear -5 1021 78 10000 1 30 21:18 21.12.2019
2186 Clear -5 1021 85 10000 1 360 20:57 21.12.2019
2187 Clear -5 1021 73 10000 1 350 20:37 21.12.2019
2188 Clouds -5 1021 73 10000 1 350 20:19 21.12.2019
2189 Clouds -5 1021 78 10000 2 20 19:55 21.12.2019
2190 Clouds -3 1021 62 10000 2 100 19:36 21.12.2019
2191 Clouds -3 1021 62 10000 2 100 19:18 21.12.2019
2192 Clouds -3 1022 68 10000 2 60 18:41 21.12.2019
2193 Clouds -3 1022 68 10000 2 60 18:23 21.12.2019
2194 Clouds -2 1022 63 10000 1 0 17:56 21.12.2019
2195 Clouds -2 1022 62 10000 1 70 17:38 21.12.2019
2196 Clouds -2 1022 62 10000 1 70 17:20 21.12.2019
2197 Clouds -2 1023 63 10000 2 60 16:57 21.12.2019
2198 Clouds -1 1023 58 10000 2 60 16:38 21.12.2019
2199 Clouds -1 1023 58 10000 2 60 16:18 21.12.2019
2200 Clouds -2 1023 63 10000 2 60 15:55 21.12.2019
2201 Clouds -2 1023 58 10000 1 0 15:37 21.12.2019
2202 Clouds 0 1023 58 10000 1 0 15:18 21.12.2019
2203 Clouds 0 1023 58 10000 1 110 14:41 21.12.2019
2204 Clouds 0 1023 58 10000 1 0 14:23 21.12.2019
2205 Clouds -1 1023 68 10000 2 110 13:58 21.12.2019
2206 Clouds 0 1023 58 10000 1 0 13:39 21.12.2019
2207 Clouds 0 1023 58 10000 1 0 13:19 21.12.2019
2208 Clouds 0 1023 54 10000 1 0 12:56 21.12.2019
2209 Clouds 0 1024 54 10000 2 100 12:38 21.12.2019
2210 Clouds 0 1024 54 10000 2 100 12:20 21.12.2019
2211 Clouds 0 1024 59 10000 2 100 11:48 21.12.2019
2212 Clouds 0 1024 50 10000 2 80 11:27 21.12.2019
2213 Clouds -1 1024 54 10000 2 90 10:59 21.12.2019
2214 Clouds 0 1023 52 10000 1 110 10:40 21.12.2019
2215 Clouds 0 1023 52 10000 1 110 10:21 21.12.2019
2216 Clouds 2 1023 34 10000 2 70 09:58 21.12.2019
2217 Clouds 3 1023 32 10000 1 0 09:39 21.12.2019
2218 Clouds 3 1023 32 10000 1 0 09:19 21.12.2019
2219 Clouds 3 1023 29 10000 1 0 08:47 21.12.2019
2220 Clouds 4 1024 32 10000 1 0 08:27 21.12.2019
2221 Clear 3 1024 34 10000 3 200 07:47 21.12.2019
2222 Clear 3 1024 37 10000 2 170 07:23 21.12.2019
2223 Clear 3 1024 40 10000 3 190 06:58 21.12.2019
2224 Clear 4 1024 37 10000 2 0 06:40 21.12.2019
2225 Clear 4 1024 37 10000 2 0 06:21 21.12.2019
2226 Clear 3 1025 37 10000 1 0 05:25 21.12.2019
2227 Clear 0 1027 50 10000 2 290 04:34 21.12.2019
2228 Clear 1 1027 54 10000 2 320 03:56 21.12.2019
2229 Clear -2 1026 58 10000 2 320 02:25 21.12.2019
2230 Clear -3 1026 58 10000 2 320 02:25 21.12.2019
2231 Clear -5 1026 67 10000 2 310 01:43 21.12.2019
2232 Clear -7 1026 72 10000 3 340 01:24 21.12.2019
2233 Clear -6 1026 67 10000 2 310 00:40 21.12.2019
2234 Clear -7 1026 67 10000 2 310 00:21 21.12.2019
2235 Clear -7 1025 72 10000 2 340 23:39 20.12.2019
2236 Clear -7 1025 72 10000 2 340 23:21 20.12.2019
2237 Clear -7 1025 67 10000 2 300 22:59 20.12.2019
2238 Clear -7 1025 67 10000 2 300 22:59 20.12.2019
2239 Clear -7 1025 78 10000 2 340 22:39 20.12.2019
2240 Clear -7 1025 78 10000 2 340 22:18 20.12.2019
2241 Clear -7 1026 78 10000 4 340 21:41 20.12.2019
2242 Clear -7 1026 78 10000 4 340 21:21 20.12.2019
2243 Clear -7 1026 85 10000 2 350 20:59 20.12.2019
2244 Clear -7 1026 78 10000 1 350 20:38 20.12.2019
2245 Clear -7 1026 78 10000 1 350 20:19 20.12.2019
2246 Clear -6 1026 72 10000 1 330 19:56 20.12.2019
2247 Clear -7 1026 78 10000 2 350 19:38 20.12.2019
2248 Clear -7 1026 78 10000 2 350 19:18 20.12.2019
2249 Clear -6 1027 72 10000 1 360 18:41 20.12.2019
2250 Clear -6 1027 72 10000 1 360 18:22 20.12.2019
2251 Clear -6 1027 72 10000 2 360 17:58 20.12.2019
2252 Clear -6 1027 72 10000 2 360 17:39 20.12.2019
2253 Clear -6 1027 72 10000 2 360 17:20 20.12.2019
2254 Clear -6 1027 72 10000 2 360 16:57 20.12.2019
2255 Clear -5 1027 67 10000 2 350 16:38 20.12.2019
2256 Clear -5 1027 67 10000 2 350 16:19 20.12.2019
2257 Clear -5 1027 72 10000 1.45 19 15:55 20.12.2019
2258 Clear -5 1027 72 10000 1 0 15:37 20.12.2019
2259 Clear -5 1027 72 10000 1 0 15:18 20.12.2019
2260 Clear -5 1027 67 10000 1 30 14:42 20.12.2019
2261 Clear -5 1027 67 10000 1 30 14:24 20.12.2019
2262 Clear -5 1027 57 10000 1 40 13:57 20.12.2019
2263 Clear -4 1027 53 10000 2 10 13:37 20.12.2019
2264 Clear -4 1027 53 10000 2 10 13:19 20.12.2019
2265 Clear -3 1027 49 10000 1 60 12:56 20.12.2019
2266 Clear -3 1027 45 10000 2 60 12:36 20.12.2019
2267 Clear -3 1027 45 10000 2 60 12:18 20.12.2019
2268 Clear -2 1026 45 10000 2 50 11:57 20.12.2019
2269 Clear -2 1026 42 10000 2 50 11:38 20.12.2019
2270 Clear -2 1026 42 10000 2 50 11:38 20.12.2019
2271 Clear -2 1026 42 10000 2 50 11:18 20.12.2019
2272 Clear -2 1026 49 10000 1 0 10:56 20.12.2019
2273 Clear -1 1026 42 10000 2 50 10:37 20.12.2019
2274 Clear -1 1026 42 10000 2 50 10:19 20.12.2019
2275 Clear 0 1026 39 10000 2 60 09:43 20.12.2019
2276 Clear 0 1026 39 10000 2 60 09:21 20.12.2019
2277 Clear 1 1026 39 10000 2 70 08:55 20.12.2019
2278 Clear 0 1026 39 10000 1 0 08:37 20.12.2019
2279 Clouds 0 1026 39 10000 1 0 08:19 20.12.2019
2280 Clouds 1 1026 36 10000 1 0 07:57 20.12.2019
2281 Clouds 0 1027 36 10000 2 50 07:37 20.12.2019
2282 Clouds 0 1027 36 10000 2 50 07:18 20.12.2019
2283 Clouds 1 1028 36 10000 2 0 06:44 20.12.2019
2284 Clouds 1 1028 36 10000 1 0 06:26 20.12.2019
2285 Clouds 1 1029 36 10000 1 0 05:47 20.12.2019
2286 Clear 0 1030 38 10000 2 60 04:59 20.12.2019
2287 Clear -3 1031 49 10000 2 60 03:49 20.12.2019
2288 Clear -4 1032 53 10000 1 0 02:55 20.12.2019
2289 Clear -7 1032 67 10000 2 350 01:59 20.12.2019
2290 Clear -7 1031 66 10000 2 340 01:35 20.12.2019
2291 Clear -8 1031 72 10000 2 350 00:55 20.12.2019
2292 Clear -8 1031 66 10000 2 360 00:35 20.12.2019
2293 Clear -9 1031 78 10000 2 360 23:58 19.12.2019
2294 Clear -8 1031 72 10000 1 0 23:40 19.12.2019
2295 Clear -9 1031 72 10000 1 0 23:19 19.12.2019
2296 Clear -8 1031 72 10000 1 0 22:40 19.12.2019
2297 Clear -8 1031 72 10000 1 0 22:22 19.12.2019
2298 Clear -8 1031 61 10000 2 340 21:57 19.12.2019
2299 Clear -8 1031 56 10000 2 350 21:39 19.12.2019
2300 Clear -7 1031 56 10000 2 350 21:19 19.12.2019
2301 Clear -8 1032 61 10000 2 330 20:57 19.12.2019
2302 Clear -8 1032 61 10000 2 350 20:38 19.12.2019
2303 Clear -8 1032 61 10000 2 350 20:20 19.12.2019
2304 Clear -7 1032 61 10000 2 350 19:58 19.12.2019
2305 Clear -8 1032 72 10000 2 10 19:39 19.12.2019
2306 Clear -7 1032 72 10000 2 10 19:19 19.12.2019
2307 Clear -7 1032 72 10000 2 10 19:19 19.12.2019
2308 Clear -7 1032 72 10000 2 10 19:19 19.12.2019
2309 Clear -6 1033 48 10000 1 0 18:57 19.12.2019
2310 Clear -6 1033 48 10000 1 0 18:57 19.12.2019
2311 Clear -6 1033 41 10000 1 0 18:39 19.12.2019
2312 Clear -5 1033 41 10000 1 0 18:19 19.12.2019
2313 Clear -5 1033 44 10000 2 50 17:56 19.12.2019
2314 Clear -5 1033 41 10000 3 20 17:37 19.12.2019
2315 Clear -5 1033 41 10000 3 20 17:18 19.12.2019
2316 Clear -5 1034 41 10000 2 20 16:56 19.12.2019
2317 Clear -4 1034 38 10000 2 30 16:37 19.12.2019
2318 Clear -4 1034 38 10000 2 30 16:19 19.12.2019
2319 Clear -4 1034 44 10000 3 360 15:57 19.12.2019
2320 Clear -4 1034 37 10000 3 360 15:37 19.12.2019
2321 Clear -4 1034 37 10000 3 360 15:19 19.12.2019
2322 Clear -3 1034 32 10000 2 20 14:44 19.12.2019
2323 Clear -2 1034 30 10000 5 330 14:20 19.12.2019
2324 Clear -2 1034 30 10000 5 330 13:59 19.12.2019
2325 Clear -2 1033 30 10000 5 300 13:38 19.12.2019
2326 Clear -2 1033 30 10000 5 300 13:19 19.12.2019
2327 Clear -2 1033 33 10000 6 290 12:57 19.12.2019
2328 Clear -1 1033 30 10000 7 300 12:39 19.12.2019
2329 Clear -1 1033 30 10000 7 300 12:19 19.12.2019
2330 Clear -1 1033 30 10000 6 290 11:58 19.12.2019
2331 Clear -1 1032 30 10000 5 300 11:40 19.12.2019
2332 Clear -1 1032 30 10000 5 300 11:18 19.12.2019
2333 Clear -1 1032 30 10000 5 300 11:18 19.12.2019
2334 Clear -1 1032 30 10000 4 290 10:58 19.12.2019
2335 Clear -1 1032 28 10000 5 290 10:38 19.12.2019
2336 Clear -1 1032 28 10000 5 290 10:20 19.12.2019
2337 Clear -1 1032 37 10000 6 290 09:56 19.12.2019
2338 Clear 0 1031 37 10000 2 40 09:37 19.12.2019
2339 Clear 0 1031 37 10000 2 360 09:18 19.12.2019
2340 Clear 0 1031 37 10000 2 360 08:55 19.12.2019
2341 Clear 0 1031 20 10000 2 360 08:36 19.12.2019
2342 Clear 0 1031 20 10000 2 360 08:18 19.12.2019
2343 Clear 0 1031 22 10000 6 350 07:40 19.12.2019
2344 Clear 0 1031 22 10000 6 350 07:22 19.12.2019
2345 Clear 1 1031 22 10000 6 340 06:54 19.12.2019
2346 Clear 1 1032 22 10000 6 330 06:36 19.12.2019
2347 Clear 1 1032 30 10000 6 330 06:18 19.12.2019
2348 Clear 0 1032 30 10000 7 330 05:41 19.12.2019
2349 Clear 0 1032 34 10000 7 330 05:18 19.12.2019
2350 Clear -1 1033 30 10000 8 320 03:51 19.12.2019
2351 Clear -2 1032 33 10000 9 300 02:25 19.12.2019
2352 Clear -2 1031 36 10000 7 290 01:24 19.12.2019
2353 Clear -2 1031 39 10000 5 290 00:55 19.12.2019
2354 Clear -2 1030 42 10000 7 300 00:36 19.12.2019
2355 Clear -2 1030 42 10000 7 300 00:18 19.12.2019
2356 Clear -2 1029 58 10000 6 330 23:43 18.12.2019
2357 Clear -2 1029 58 10000 6 330 23:19 18.12.2019
2358 Clear -1 1029 58 10000 8 320 22:56 18.12.2019
2359 Clear -2 1029 58 10000 3 250 22:38 18.12.2019
2360 Clear -2 1029 58 10000 3 250 22:20 18.12.2019
2361 Clear -3 1029 79 10000 3 350 21:58 18.12.2019
2362 Clear -3 1029 79 10000 3 350 21:58 18.12.2019
2363 Clear -3 1029 85 10000 2 330 21:39 18.12.2019
2364 Clear -4 1029 85 10000 2 330 21:20 18.12.2019
2365 Clear -4 1029 85 10000 3 340 20:56 18.12.2019
2366 Clear -4 1029 78 10000 2 350 20:38 18.12.2019
2367 Clear -5 1029 78 10000 2 350 20:19 18.12.2019
2368 Clear -5 1029 78 10000 1 340 19:56 18.12.2019
2369 Clear -4 1029 85 10000 1 0 19:37 18.12.2019
2370 Clear -4 1029 85 10000 1 0 19:18 18.12.2019
2371 Clear -5 1029 79 10000 2 10 18:45 18.12.2019
2372 Clear -5 1029 79 10000 2 10 18:25 18.12.2019
2373 Clear -4 1029 79 10000 1 110 17:58 18.12.2019
2374 Clear -4 1029 79 10000 2 360 17:40 18.12.2019
2375 Clear -4 1029 79 10000 2 360 17:20 18.12.2019
2376 Clear -4 1030 79 10000 1 0 16:58 18.12.2019
2377 Clear -4 1030 79 10000 1 0 16:40 18.12.2019
2378 Clear -4 1030 85 10000 1 60 16:22 18.12.2019
2379 Clear -4 1030 85 10000 2 30 15:57 18.12.2019
2380 Clear -4 1030 85 10000 1 60 15:38 18.12.2019
2381 Clear -4 1030 85 10000 1 60 15:20 18.12.2019
2382 Clear -3 1030 79 10000 2 50 14:43 18.12.2019
2383 Clouds -3 1030 73 10000 1 70 14:22 18.12.2019
2384 Clouds -3 1030 68 10000 1 0 13:58 18.12.2019
2385 Clouds -1 1030 73 10000 3 190 13:39 18.12.2019
2386 Clouds -1 1030 72 10000 3 190 13:21 18.12.2019
2387 Clouds -1 1030 54 10000 3 190 12:59 18.12.2019
2388 Clouds -1 1030 54 10000 4 180 12:40 18.12.2019
2389 Clouds -1 1030 54 10000 4 180 12:21 18.12.2019
2390 Clouds 0 1029 72 10000 4 180 11:57 18.12.2019
2391 Clouds 0 1029 72 10000 4 180 11:39 18.12.2019
2392 Clouds 0 1029 68 10000 4 180 11:20 18.12.2019
2393 Clouds 0 1029 54 10000 2 160 10:58 18.12.2019
2394 Clouds 0 1029 68 10000 4 180 10:39 18.12.2019
2395 Clouds 0 1029 68 10000 4 180 10:20 18.12.2019
2396 Clouds 0 1029 68 10000 4 180 10:20 18.12.2019
2397 Clouds 1 1029 68 10000 3 170 09:57 18.12.2019
2398 Clouds 1 1029 43 10000 4 180 09:20 18.12.2019
2399 Clouds 2 1029 37 10000 2 150 08:43 18.12.2019
2400 Clouds 2 1029 37 10000 2 150 08:24 18.12.2019
2401 Clouds 2 1030 40 10000 2 130 07:57 18.12.2019
2402 Clouds 2 1030 34 10000 1 0 07:39 18.12.2019
2403 Clouds 2 1030 34 10000 1 0 07:20 18.12.2019
2404 Clouds 3 1030 40 10000 3 180 06:52 18.12.2019
2405 Clouds 3 1031 37 10000 2 0 06:24 18.12.2019
2406 Clouds 3 1033 43 10000 1 0 05:35 18.12.2019
2407 Clouds 3 1033 43 10000 1 0 05:35 18.12.2019
2408 Clouds 1 1034 46 10000 2 320 03:49 18.12.2019
2409 Clouds -1 1035 62 10000 3 360 02:46 18.12.2019
2410 Clouds -1 1034 53 10000 3 320 02:27 18.12.2019
2411 Clear -3 1034 58 10000 3 310 01:44 18.12.2019
2412 Clouds -4 1034 62 10000 2 330 01:25 18.12.2019
2413 Clouds -5 1034 72 10000 3 350 00:55 18.12.2019
2414 Clouds -5 1034 67 10000 2 350 00:36 18.12.2019
2415 Clouds -4 1034 67 10000 2 350 00:18 18.12.2019
2416 Clouds -4 1034 67 10000 2 350 23:43 17.12.2019
2417 Clear -4 1034 67 10000 2 350 23:23 17.12.2019
2418 Clear -5 1034 61 10000 3 350 22:57 17.12.2019
2419 Clear -5 1034 61 10000 3 350 22:57 17.12.2019
2420 Clear -4 1034 57 10000 2 360 22:39 17.12.2019
2421 Clear -4 1034 57 10000 2 360 22:20 17.12.2019
2422 Clear -4 1034 53 10000 1 360 21:57 17.12.2019
2423 Clear -4 1034 49 10000 2 20 21:39 17.12.2019
2424 Clear -4 1034 49 10000 2 20 21:20 17.12.2019
2425 Clear -4 1034 53 10000 2 10 20:59 17.12.2019
2426 Clear -4 1034 62 10000 2 20 20:40 17.12.2019
2427 Clear -4 1034 62 10000 2 20 20:19 17.12.2019
2428 Clear -4 1035 57 10000 2 360 19:57 17.12.2019
2429 Clear -4 1034 57 10000 2 20 19:39 17.12.2019
2430 Clear -3 1034 57 10000 2 20 19:20 17.12.2019
2431 Clear -3 1034 62 10000 2 20 18:57 17.12.2019
2432 Clear -3 1034 53 10000 2 30 18:38 17.12.2019
2433 Clear -3 1034 53 10000 2 30 18:20 17.12.2019
2434 Clear -3 1034 49 10000 2 20 17:55 17.12.2019
2435 Clear -3 1035 57 10000 1 0 17:37 17.12.2019
2436 Clear -2 1035 45 10000 2.51 15 17:18 17.12.2019
2437 Clear -2 1035 45 10000 2.51 15 16:55 17.12.2019
2438 Clear -2 1035 42 10000 3 40 16:36 17.12.2019
2439 Clear -2 1035 42 10000 3 40 16:18 17.12.2019
2440 Clear -1 1035 42 10000 4 20 15:38 17.12.2019
2441 Clear -1 1035 42 10000 4 20 15:20 17.12.2019
2442 Clear -1 1034 46 10000 4 10 14:57 17.12.2019
2443 Clear -1 1034 46 10000 4 360 14:38 17.12.2019
2444 Clear -1 1034 46 10000 4 360 14:19 17.12.2019
2445 Clear 0 1034 46 10000 3 340 13:59 17.12.2019
2446 Clear -1 1034 53 10000 2 10 13:41 17.12.2019
2447 Clear -1 1034 53 10000 2 10 13:19 17.12.2019
2448 Clear 0 1033 45 10000 3 320 12:59 17.12.2019
2449 Clear 0 1033 50 10000 4 330 12:38 17.12.2019
2450 Clear 0 1033 58 10000 3 350 12:18 17.12.2019
2451 Clear 0 1033 58 10000 3 350 11:57 17.12.2019
2452 Clear 0 1033 54 10000 3 340 11:37 17.12.2019
2453 Clear 1 1032 46 10000 1 0 11:18 17.12.2019
2454 Clear 1 1032 46 10000 1 0 10:57 17.12.2019
2455 Clear 1 1032 42 10000 2 10 10:39 17.12.2019
2456 Clear 1 1032 42 10000 2 10 10:39 17.12.2019
2457 Clear 1 1032 42 10000 2 10 10:19 17.12.2019
2458 Clear 2 1032 37 10000 3 30 09:56 17.12.2019
2459 Clear 2 1031 37 10000 4 20 09:38 17.12.2019
2460 Clear 3 1031 37 10000 4 20 09:19 17.12.2019
2461 Clear 3 1031 37 10000 4 20 08:55 17.12.2019
2462 Clear 3 1031 37 10000 4 30 08:36 17.12.2019
2463 Clouds 3 1031 37 10000 4 30 08:18 17.12.2019
2464 Clouds 3 1030 37 10000 4 20 07:42 17.12.2019
2465 Clouds 3 1030 37 10000 4 20 07:23 17.12.2019
2466 Clouds 4 1030 40 10000 6 360 06:53 17.12.2019
2467 Clouds 4 1030 37 10000 7 350 06:32 17.12.2019
2468 Clouds 4 1031 37 10000 7 360 05:52 17.12.2019
2469 Clouds 3 1031 40 10000 8 350 05:32 17.12.2019
2470 Clouds 2 1032 37 10000 10 340 04:19 17.12.2019
2471 Clouds 2 1030 47 10000 6 340 02:27 17.12.2019
2472 Clouds 1 1030 40 10000 6 330 01:50 17.12.2019
2473 Clear 0 1029 63 10000 4 340 00:56 17.12.2019
2474 Clear 0 1028 63 10000 3 360 00:36 17.12.2019
2475 Clear 0 1027 58 10000 5 340 00:18 17.12.2019
2476 Clear 1 1027 47 10000 6 330 23:40 16.12.2019
2477 Clear 1 1027 47 10000 6 330 23:19 16.12.2019
2478 Clear 1 1026 58 10000 4 350 22:55 16.12.2019
2479 Clear 1 1025 53 10000 5 360 22:37 16.12.2019
2480 Clear 1 1025 53 10000 5 360 22:19 16.12.2019
2481 Rain 2 1025 53 10000 3 10 21:54 16.12.2019
2482 Rain 2 1024 50 10000 5 340 21:36 16.12.2019
2483 Rain 2 1024 50 10000 5 340 21:18 16.12.2019
2484 Clear 2 1024 50 10000 5 330 20:56 16.12.2019
2485 Clear 3 1024 51 10000 7 310 20:37 16.12.2019
2486 Clouds 2 1024 51 10000 7 310 20:18 16.12.2019
2487 Clouds 2 1023 54 10000 4 340 19:55 16.12.2019
2488 Clouds 1 1023 54 10000 5 340 19:36 16.12.2019
2489 Clouds 1 1023 54 10000 5 340 19:18 16.12.2019
2490 Clouds 2 1022 54 10000 5 340 18:55 16.12.2019
2491 Clouds 3 1022 59 10000 5 340 18:37 16.12.2019
2492 Clouds 2 1022 59 10000 5 340 18:18 16.12.2019
2493 Clouds 2 1022 54 10000 5 340 17:56 16.12.2019
2494 Clouds 2 1021 86 10000 5 350 17:37 16.12.2019
2495 Clouds 1 1021 86 10000 4 340 17:19 16.12.2019
2496 Clouds 2 1021 86 10000 4 340 16:54 16.12.2019
2497 Clouds 2 1020 92 8000 1 0 16:36 16.12.2019
2498 Clouds -1 1020 92 8000 1 0 16:18 16.12.2019
2499 Clouds 1 1020 92 8000 4 350 15:55 16.12.2019
2500 Clouds 0 1019 92 6000 3 340 15:37 16.12.2019
2501 Clouds 0 1019 92 6000 3 340 15:37 16.12.2019
2502 Clouds 0 1019 92 6000 3 340 15:19 16.12.2019
2503 Clouds 0 1019 92 6000 5 350 14:54 16.12.2019
2504 Clouds 0 1019 92 6000 5 360 14:36 16.12.2019
2505 Clouds 0 1019 92 6000 5 360 14:18 16.12.2019
2506 Clouds 0 1019 92 6000 5 360 14:18 16.12.2019
2507 Mist 1 1018 86 4000 4 280 13:38 16.12.2019
2508 Mist 1 1018 86 4000 4 280 13:20 16.12.2019
2509 Mist 1 1018 86 3700 3 290 12:59 16.12.2019
2510 Mist 0 1018 95 3700 2 330 12:41 16.12.2019
2511 Mist 0 1018 95 3700 2 330 12:20 16.12.2019
2512 Mist 1 1017 95 3000 2 300 11:59 16.12.2019
2513 Mist 0 1017 92 2800 2 20 11:41 16.12.2019
2514 Mist 0 1017 92 2800 2 20 11:22 16.12.2019
2515 Mist 0 1017 97 2800 2 340 11:00 16.12.2019
2516 Mist 0 1017 97 3000 1 0 10:40 16.12.2019
2517 Mist 0 1017 97 3000 1 0 10:21 16.12.2019
2518 Rain 1 1017 97 3000 1 0 09:55 16.12.2019
2519 Rain 1 1017 97 3000 1 0 09:37 16.12.2019
2520 Rain 1 1017 97 3000 1 0 09:19 16.12.2019
2521 Rain 2 1017 97 2500 1 0 08:39 16.12.2019
2522 Rain 2 1017 98 2500 1 0 08:19 16.12.2019
2523 Rain 2 1017 98 2500 1 0 08:19 16.12.2019
2524 Rain 2 1017 98 2500 2 360 07:51 16.12.2019
2525 Rain 2 1017 98 2200 2 10 07:31 16.12.2019
2526 Rain 2 1018 98 1400 1 360 06:49 16.12.2019
2527 Rain 2 1018 98 1400 1 360 06:27 16.12.2019
2528 Snow 1 1018 98 1200 2 10 05:58 16.12.2019
2529 Snow 1 1019 98 1000 2 350 05:39 16.12.2019
2530 Snow 1 1019 98 1000 2 350 05:21 16.12.2019
2531 Snow 1 1021 98 1400 1 0 02:59 16.12.2019
2532 Snow 0 1021 97 1600 1 0 01:45 16.12.2019
2533 Snow 0 1021 95 2200 1 0 00:56 16.12.2019
2534 Snow 0 1022 95 2200 1 0 00:38 16.12.2019
2535 Snow 0 1022 95 2200 1 0 00:18 16.12.2019
2536 Snow 0 1022 95 2500 1 0 23:41 15.12.2019
2537 Snow 0 1022 96 2500 1 0 23:22 15.12.2019
2538 Snow 0 1022 96 2500 1 0 22:57 15.12.2019
2539 Snow 0 1023 96 3200 1 0 22:38 15.12.2019
2540 Snow 0 1023 96 3200 1 0 22:19 15.12.2019
2541 Snow 0 1023 96 3500 1 0 21:58 15.12.2019
2542 Snow 0 1024 96 4000 1 110 21:38 15.12.2019
2543 Snow 0 1024 96 4000 1 110 21:20 15.12.2019
2544 Mist 1 1024 96 4500 1.12 25 20:58 15.12.2019
2545 Mist 1 1024 96 5000 1 60 20:39 15.12.2019
2546 Mist 1 1024 93 5000 1 60 20:21 15.12.2019
2547 Snow 1 1025 95 5000 1.46 21 19:58 15.12.2019
2548 Snow 1 1025 95 5000 1.46 21 19:40 15.12.2019
2549 Snow 1 1025 95 5000 1.46 21 19:20 15.12.2019
2550 Snow 1 1025 95 5000 1 70 18:57 15.12.2019
2551 Snow 1 1025 95 5000 1 60 18:39 15.12.2019
2552 Snow 1 1025 95 5000 1 120 18:19 15.12.2019
2553 Snow 1 1025 95 5000 1 120 18:19 15.12.2019
2554 Snow 1 1025 95 5000 1 120 17:56 15.12.2019
2555 Snow 1 1025 95 5000 1 120 17:56 15.12.2019
2556 Snow 1 1026 80 6000 2 160 17:38 15.12.2019
2557 Snow 2 1026 74 10000 1 160 17:19 15.12.2019
2558 Snow 2 1026 74 10000 1 160 16:57 15.12.2019
2559 Snow 2 1026 64 10000 1 150 16:39 15.12.2019
2560 Snow 2 1026 64 10000 1 150 16:20 15.12.2019
2561 Clouds 2 1026 69 10000 1 140 15:55 15.12.2019
2562 Clouds 2 1026 59 10000 1 0 15:37 15.12.2019
2563 Clouds 2 1026 59 10000 1 0 15:18 15.12.2019
2564 Snow 2 1026 59 10000 2 190 14:55 15.12.2019
2565 Snow 2 1026 47 10000 3 180 14:37 15.12.2019
2566 Snow 2 1026 47 10000 3 180 14:37 15.12.2019
2567 Snow 2 1026 47 10000 3 180 14:18 15.12.2019
2568 Clouds 2 1026 47 10000 3 190 13:58 15.12.2019
2569 Clouds 3 1026 59 10000 2 160 13:37 15.12.2019
2570 Clouds 3 1026 59 10000 2 160 13:37 15.12.2019
2571 Clouds 3 1026 59 10000 2 160 13:19 15.12.2019
2572 Clouds 3 1026 59 10000 2 160 13:19 15.12.2019
2573 Clouds 3 1026 64 10000 1 150 12:56 15.12.2019
2574 Clouds 3 1026 55 10000 1 0 12:38 15.12.2019
2575 Clouds 3 1026 55 10000 1 0 12:20 15.12.2019
2576 Clouds 3 1026 51 10000 2 180 11:55 15.12.2019
2577 Clouds 3 1026 51 10000 2 180 11:36 15.12.2019
2578 Clouds 2 1026 59 10000 1 110 11:18 15.12.2019
2579 Clouds 2 1026 59 10000 1 110 10:55 15.12.2019
2580 Clouds 3 1026 55 10000 1 130 10:36 15.12.2019
2581 Clouds 3 1026 55 10000 1 130 10:18 15.12.2019
2582 Clouds 3 1026 47 10000 1 90 09:40 15.12.2019
2583 Clouds 3 1026 47 10000 1 90 09:20 15.12.2019
2584 Clouds 3 1026 51 10000 1 0 08:58 15.12.2019
2585 Clouds 3 1026 51 10000 1 0 08:39 15.12.2019
2586 Clouds 4 1026 51 10000 1 0 08:20 15.12.2019
2587 Clouds 4 1026 51 10000 1 0 07:56 15.12.2019
2588 Clouds 4 1026 51 10000 1 0 07:34 15.12.2019
2589 Clouds 5 1027 51 10000 1 0 06:44 15.12.2019
2590 Clouds 5 1028 51 10000 2 60 06:19 15.12.2019
2591 Clouds 3 1029 47 10000 1 0 05:25 15.12.2019
2592 Clouds 3 1029 47 10000 1 0 04:47 15.12.2019
2593 Clouds 2 1029 55 10000 1 0 03:22 15.12.2019
2594 Clouds 0 1028 68 10000 2 20 02:33 15.12.2019
2595 Clouds 0 1028 79 10000 1 0 01:46 15.12.2019
2596 Clouds -1 1028 79 10000 1 30 01:28 15.12.2019
2597 Clouds 0 1028 73 10000 1 150 00:57 15.12.2019
2598 Clouds -1 1028 68 10000 1.17 17 00:38 15.12.2019
2599 Clouds -1 1028 68 10000 1.17 17 00:20 15.12.2019
2600 Clouds -1 1028 73 10000 1 0 23:39 14.12.2019
2601 Clouds -1 1028 68 10000 1 150 23:19 14.12.2019
2602 Clouds -1 1028 68 10000 1 150 22:58 14.12.2019
2603 Clouds -1 1028 73 10000 1 0 22:40 14.12.2019
2604 Clouds -1 1028 73 10000 1 0 22:20 14.12.2019
2605 Clouds -1 1028 79 10000 1 0 21:56 14.12.2019
2606 Clouds -1 1028 73 10000 0.86 36 21:37 14.12.2019
2607 Clouds -2 1028 73 10000 0.86 36 21:18 14.12.2019
2608 Clouds -2 1028 67 10000 0.86 36 20:56 14.12.2019
2609 Clouds -3 1029 73 10000 0.86 36 20:37 14.12.2019
2610 Clear -2 1029 73 10000 0.88 71 20:19 14.12.2019
2611 Clear -2 1029 73 10000 0.85 66 20:19 14.12.2019
2612 Clear -2 1029 73 10000 1 0 19:54 14.12.2019
2613 Clear -1 1029 68 10000 1 0 19:36 14.12.2019
2614 Clear -1 1029 68 10000 1 0 19:18 14.12.2019
2615 Clear -1 1029 73 10000 1 50 18:55 14.12.2019
2616 Clear -1 1029 67 10000 2 70 18:36 14.12.2019
2617 Clear -1 1029 73 10000 1 70 18:18 14.12.2019
2618 Clear -2 1029 73 10000 2 90 17:42 14.12.2019
2619 Clear -1 1029 73 10000 2 90 17:22 14.12.2019
2620 Clear 0 1030 58 10000 1 0 16:42 14.12.2019
2621 Clear 0 1030 58 10000 1 0 16:20 14.12.2019
2622 Clear -1 1030 68 10000 2 50 15:58 14.12.2019
2623 Clear -1 1030 62 10000 1 0 15:39 14.12.2019
2624 Clear -1 1030 62 10000 1 0 15:20 14.12.2019
2625 Clear -1 1030 58 10000 1 0 14:57 14.12.2019
2626 Clear -1 1030 62 10000 1.18 92 14:38 14.12.2019
2627 Clear -1 1030 62 10000 1.18 92 14:38 14.12.2019
2628 Clouds -1 1030 62 10000 0.53 64 14:19 14.12.2019
2629 Clouds 0 1030 58 10000 1 0 13:45 14.12.2019
2630 Clouds -1 1030 62 10000 2 80 13:20 14.12.2019
2631 Clouds 0 1031 50 10000 1 60 12:58 14.12.2019
2632 Clouds 0 1030 50 10000 1 80 12:40 14.12.2019
2633 Clouds 0 1030 50 10000 1 80 12:21 14.12.2019
2634 Clouds 0 1030 50 10000 2 90 11:58 14.12.2019
2635 Clouds 1 1030 46 10000 1 0 11:39 14.12.2019
2636 Clouds 2 1031 31 10000 1 150 11:19 14.12.2019
2637 Clouds 2 1031 31 10000 1 150 10:57 14.12.2019
2638 Clouds 2 1031 31 10000 2 150 10:39 14.12.2019
2639 Clouds 3 1031 31 10000 2 150 10:21 14.12.2019
2640 Clouds 3 1031 27 10000 3 160 09:57 14.12.2019
2641 Clouds 4 1031 25 10000 4 160 09:38 14.12.2019
2642 Clouds 4 1031 25 10000 4 160 09:18 14.12.2019
2643 Clouds 5 1031 22 10000 4 160 08:43 14.12.2019
2644 Clouds 5 1031 22 10000 4 160 08:20 14.12.2019
2645 Clouds 6 1032 22 10000 6 180 07:44 14.12.2019
2646 Clouds 6 1032 22 10000 6 180 07:23 14.12.2019
2647 Clouds 6 1032 26 10000 4 170 06:57 14.12.2019
2648 Clouds 6 1033 26 10000 4 170 06:37 14.12.2019
2649 Clouds 7 1033 25 10000 5 180 06:18 14.12.2019
2650 Clouds 4 1034 32 10000 3 200 04:48 14.12.2019
2651 Clouds 2 1035 58 10000 3 360 02:41 14.12.2019
2652 Clouds 0 1035 58 10000 3 360 02:19 14.12.2019
2653 Clouds 0 1035 58 10000 3 330 01:37 14.12.2019
2654 Clouds -2 1034 58 10000 3 330 00:49 14.12.2019
2655 Clouds -2 1034 62 10000 2 340 00:28 14.12.2019
2656 Clouds -2 1034 62 10000 1 10 23:57 13.12.2019
2657 Clouds -2 1034 73 10000 3 350 23:37 13.12.2019
2658 Clear -2 1034 62 10000 2 350 23:18 13.12.2019
2659 Clear -2 1034 68 10000 4 340 22:41 13.12.2019
2660 Clear -2 1034 68 10000 4 340 22:19 13.12.2019
2661 Clear -1 1034 62 10000 1 0 21:56 13.12.2019
2662 Clear -1 1034 57 10000 2 20 21:38 13.12.2019
2663 Clear -1 1034 57 10000 2 20 21:20 13.12.2019
2664 Clear -1 1034 62 10000 2 30 20:42 13.12.2019
2665 Clear -1 1034 62 10000 2 30 20:23 13.12.2019
2666 Clear -1 1034 62 10000 2 30 19:59 13.12.2019
2667 Clear 1 1034 38 10000 2 310 19:41 13.12.2019
2668 Clear 1 1034 38 10000 2 310 19:22 13.12.2019
2669 Clear 0 1033 46 10000 2 20 18:59 13.12.2019
2670 Clear 1 1033 50 10000 3 20 18:40 13.12.2019
2671 Clear 1 1033 50 10000 3 20 18:19 13.12.2019
2672 Clear 1 1033 50 10000 3 30 17:55 13.12.2019
2673 Clear 0 1033 53 10000 3 350 17:37 13.12.2019
2674 Clear 1 1033 53 10000 3 350 17:18 13.12.2019
2675 Clear 1 1033 53 10000 3 350 17:18 13.12.2019
2676 Clear 2 1033 50 10000 1 0 16:54 13.12.2019
2677 Clear 2 1033 35 10000 3 360 16:36 13.12.2019
2678 Clear 2 1033 35 10000 3 360 16:18 13.12.2019
2679 Clear 4 1032 27 10000 5 330 15:38 13.12.2019
2680 Clear 4 1032 27 10000 5 330 15:20 13.12.2019
2681 Clear 5 1031 25 10000 8 320 14:41 13.12.2019
2682 Clear 4 1031 25 10000 8 320 14:21 13.12.2019
2683 Clear 5 1031 25 10000 8 320 13:58 13.12.2019
2684 Clear 5 1031 25 10000 8 320 13:58 13.12.2019
2685 Clear 5 1031 25 10000 7 320 13:39 13.12.2019
2686 Clear 5 1031 25 10000 7 320 13:21 13.12.2019
2687 Clear 6 1030 22 10000 7 310 12:44 13.12.2019
2688 Clear 6 1030 22 10000 7 310 12:20 13.12.2019
2689 Clear 6 1029 22 10000 8 320 11:58 13.12.2019
2690 Clear 7 1029 20 10000 7 310 11:40 13.12.2019
2691 Clear 6 1029 20 10000 7 310 11:22 13.12.2019
2692 Clear 7 1028 20 10000 8 320 10:55 13.12.2019
2693 Clear 7 1028 19 10000 7 310 10:37 13.12.2019
2694 Clear 7 1028 19 10000 7 310 10:19 13.12.2019
2695 Clear 9 1027 15 10000 10 310 09:39 13.12.2019
2696 Clear 9 1027 15 10000 10 310 09:20 13.12.2019
2697 Clear 10 1026 14 10000 11 310 08:42 13.12.2019
2698 Clear 9 1026 14 10000 11 310 08:24 13.12.2019
2699 Clear 10 1025 14 10000 11 310 07:46 13.12.2019
2700 Clear 10 1025 14 10000 10 320 07:24 13.12.2019
2701 -273 0 0 0 0 0 06:55 13.12.2019
2702 Clear 12 1024 19 10000 7 310 06:29 13.12.2019
2703 Clear 9 1025 28 10000 3 350 05:47 13.12.2019
2704 Clear 9 1025 28 10000 3 350 05:28 13.12.2019
2705 Clear 3 1025 30 10000 4 350 04:46 13.12.2019
2706 Clear 4 1025 37 10000 3 320 03:47 13.12.2019
2707 Clear 1 1024 54 10000 3 330 02:34 13.12.2019
2708 Clear -1 1024 63 10000 3 330 01:48 13.12.2019
2709 Clear -3 1023 67 10000 3 330 00:57 13.12.2019
2710 Clear -3 1023 73 10000 3 340 00:37 13.12.2019
2711 Clear -4 1023 67 10000 3 330 23:59 12.12.2019
2712 Clear -4 1022 67 10000 2 340 23:40 12.12.2019
2713 Clear -4 1022 67 10000 2 340 23:22 12.12.2019
2714 Clear -4 1022 67 10000 2 340 22:56 12.12.2019
2715 Clear -4 1022 73 10000 3 330 22:37 12.12.2019
2716 Clear -4 1022 73 10000 3 330 22:19 12.12.2019
2717 Clear -4 1023 67 10000 2 340 21:55 12.12.2019
2718 Clear -4 1023 67 10000 2 340 21:37 12.12.2019
2719 Clear -3 1023 67 10000 2 340 21:18 12.12.2019
2720 Clear -4 1023 67 10000 2 330 20:56 12.12.2019
2721 Clear -4 1023 67 10000 3 330 20:38 12.12.2019
2722 Clear -3 1023 67 10000 3 330 20:20 12.12.2019
2723 Clear -4 1023 67 10000 2 350 19:43 12.12.2019
2724 Clear -3 1023 67 10000 2 350 19:23 12.12.2019
2725 Clear -4 1023 67 10000 3 350 18:58 12.12.2019
2726 Clear -3 1023 62 10000 2 360 18:40 12.12.2019
2727 Clear -3 1023 62 10000 2 360 18:21 12.12.2019
2728 Clear -4 1024 67 10000 3 350 17:59 12.12.2019
2729 Clear -4 1024 62 10000 2 350 17:40 12.12.2019
2730 Clear -3 1024 62 10000 2 350 17:21 12.12.2019
2731 Clear -3 1024 62 10000 1 350 16:59 12.12.2019
2732 Clear -3 1024 67 10000 1 0 16:41 12.12.2019
2733 Clear -3 1024 67 10000 1 0 16:21 12.12.2019
2734 Clear -3 1024 57 10000 1.43 10 15:58 12.12.2019
2735 Clear -3 1024 53 10000 1 20 15:40 12.12.2019
2736 Clear -3 1024 53 10000 1 20 15:18 12.12.2019
2737 Clear -2 1025 49 10000 1.43 10 14:56 12.12.2019
2738 Clear -3 1025 62 10000 1 0 14:36 12.12.2019
2739 Clear -2 1025 53 10000 1 70 14:18 12.12.2019
2740 Clear -2 1025 53 10000 1 70 13:54 12.12.2019
2741 Clear -2 1025 49 10000 1 70 13:36 12.12.2019
2742 Clear -2 1025 49 10000 1 70 13:18 12.12.2019
2743 Clear -1 1025 38 10000 1 0 12:40 12.12.2019
2744 Clear -1 1025 38 10000 1 0 12:22 12.12.2019
2745 Clear 0 1025 39 10000 2 20 11:57 12.12.2019
2746 Clear 1 1025 29 10000 1 0 11:38 12.12.2019
2747 Clear 0 1025 29 10000 1 0 11:38 12.12.2019
2748 Clear 0 1025 29 10000 1 0 11:20 12.12.2019
2749 Clear 0 1025 39 10000 1 30 10:57 12.12.2019
2750 Clear 1 1025 33 10000 2 60 10:39 12.12.2019
2751 Clear 1 1025 33 10000 2 60 10:21 12.12.2019
2752 Clear 2 1025 24 10000 1 50 09:55 12.12.2019
2753 Clear 2 1025 24 10000 1 50 09:55 12.12.2019
2754 Clear 3 1025 21 10000 2 50 09:37 12.12.2019
2755 Clear 3 1025 21 10000 2 50 09:19 12.12.2019
2756 Clear 4 1025 19 10000 1 0 08:46 12.12.2019
2757 Clear 5 1025 19 10000 1 0 08:27 12.12.2019
2758 Clear 4 1026 21 10000 1 0 07:50 12.12.2019
2759 Clear 3 1026 20 10000 1 0 07:27 12.12.2019
2760 Clear 4 1027 21 10000 1 0 06:56 12.12.2019
2761 Clear 3 1027 21 10000 1 0 06:35 12.12.2019
2762 Clear 2 1029 24 10000 2 250 05:42 12.12.2019
2763 Clear 0 1029 26 10000 2 0 04:55 12.12.2019
2764 Clear 1 1030 21 10000 2 70 04:23 12.12.2019
2765 Clear 0 1030 49 10000 1 0 02:40 12.12.2019
2766 Clear -4 1030 49 10000 1 0 02:22 12.12.2019
2767 Clear -3 1030 57 10000 3 350 01:54 12.12.2019
2768 Clear -3 1030 57 10000 3 360 01:32 12.12.2019
2769 Clear -6 1030 61 10000 3 350 00:47 12.12.2019
2770 Clear -5 1030 48 10000 2 350 00:21 12.12.2019
2771 Clear -5 1029 52 10000 2 350 23:45 11.12.2019
2772 Clear -5 1029 48 10000 2 350 23:21 11.12.2019
2773 Clear -5 1029 48 10000 2 350 22:59 11.12.2019
2774 Clear -5 1029 44 10000 2 330 22:39 11.12.2019
2775 Clear -6 1029 44 10000 2 330 22:21 11.12.2019
2776 Clear -6 1030 52 10000 2 310 21:59 11.12.2019
2777 Clear -5 1030 41 10000 2 260 21:39 11.12.2019
2778 Clear -4 1030 41 10000 2 260 21:20 11.12.2019
2779 Clear -5 1030 48 10000 2 340 20:58 11.12.2019
2780 Clear -5 1030 48 10000 2 340 20:39 11.12.2019
2781 Clear -5 1030 48 10000 2 340 20:19 11.12.2019
2782 Clear -5 1030 52 10000 3 340 19:59 11.12.2019
2783 Clear -4 1030 41 10000 2 320 19:40 11.12.2019
2784 Clear -4 1030 41 10000 2 320 19:40 11.12.2019
2785 Clear -4 1030 41 10000 2 320 19:21 11.12.2019
2786 Clear -4 1030 35 10000 1 320 18:57 11.12.2019
2787 Clear -4 1030 35 10000 2 360 18:38 11.12.2019
2788 Clear -4 1030 35 10000 2 360 18:18 11.12.2019
2789 Clear -2 1030 30 10000 2 10 17:55 11.12.2019
2790 Clear -3 1030 32 10000 5 20 17:37 11.12.2019
2791 Clear -3 1030 32 10000 5 20 17:18 11.12.2019
2792 Clear -3 1030 44 10000 3 360 16:55 11.12.2019
2793 Clear -3 1030 35 10000 1 0 16:36 11.12.2019
2794 Clear -3 1030 35 10000 1 0 16:18 11.12.2019
2795 Clear -3 1030 38 10000 1 0 15:54 11.12.2019
2796 Clear -2 1030 35 10000 3 40 15:36 11.12.2019
2797 Clear -2 1030 35 10000 3 40 15:18 11.12.2019
2798 Clear -3 1030 32 10000 1 60 14:54 11.12.2019
2799 Clear -2 1030 28 10000 2 30 14:36 11.12.2019
2800 Clear -2 1030 28 10000 2 30 14:36 11.12.2019
2801 Clear -2 1030 28 10000 2 30 14:18 11.12.2019
2802 Clear -2 1030 32 10000 3 360 13:41 11.12.2019
2803 Clear -2 1030 32 10000 3 360 13:21 11.12.2019
2804 Clear -1 1030 22 10000 2 360 12:57 11.12.2019
2805 Clear -1 1029 25 10000 3 360 12:38 11.12.2019
2806 Clear 0 1029 25 10000 3 360 12:20 11.12.2019
2807 Clear 0 1029 23 10000 4 360 11:58 11.12.2019
2808 Clear 0 1029 23 10000 5 360 11:39 11.12.2019
2809 Clear 0 1029 21 10000 2 10 11:19 11.12.2019
2810 Clear 0 1029 21 10000 2 10 11:19 11.12.2019
2811 Clear 0 1029 21 10000 2 10 10:57 11.12.2019
2812 Clear 1 1028 15 10000 6 330 10:38 11.12.2019
2813 Clear 1 1028 15 10000 6 330 10:19 11.12.2019
2814 Clear 3 1028 12 10000 8 330 09:44 11.12.2019
2815 Clear 3 1028 12 10000 8 330 09:21 11.12.2019
2816 Clear 3 1028 12 10000 8 330 09:21 11.12.2019
2817 Clear 3 1028 13 10000 8 320 08:58 11.12.2019
2818 Clear 3 1028 13 10000 8 320 08:40 11.12.2019
2819 Clear 3 1028 13 10000 8 320 08:20 11.12.2019
2820 Clear 3 1028 14 10000 9 320 07:59 11.12.2019
2821 Clear 3 1027 12 10000 10 320 07:41 11.12.2019
2822 Clear 3 1027 12 10000 10 320 07:22 11.12.2019
2823 Clear 4 1028 12 10000 11 320 06:44 11.12.2019
2824 Clear 4 1028 13 10000 13 320 06:23 11.12.2019
2825 Clear 4 1028 16 10000 10 320 05:46 11.12.2019
2826 Clear 4 1028 16 10000 11 330 05:27 11.12.2019
2827 Clear 4 1028 17 10000 11 320 04:47 11.12.2019
2828 Clear 4 1027 19 10000 11 330 02:50 11.12.2019
2829 Clear 1 1024 29 10000 6 330 01:30 11.12.2019
2830 Clear 1 1024 37 10000 6 300 00:56 11.12.2019
2831 Clear 3 1023 34 10000 4 290 00:36 11.12.2019
2832 Clear 3 1023 34 10000 4 290 00:18 11.12.2019
2833 Clear 2 1022 54 10000 3 300 23:41 10.12.2019
2834 Clear 0 1022 54 10000 3 300 23:22 10.12.2019
2835 Clear 0 1021 67 10000 2 330 22:42 10.12.2019
2836 Clear 0 1021 67 10000 2 330 22:24 10.12.2019
2837 Clear 0 1021 67 10000 2 330 22:24 10.12.2019
2838 Clear -1 1021 67 10000 1 0 21:58 10.12.2019
2839 Clear -1 1021 62 10000 1 0 21:39 10.12.2019
2840 Clear -1 1021 62 10000 1 0 21:21 10.12.2019
2841 Clear -1 1021 79 10000 2 0 20:58 10.12.2019
2842 Clear -1 1021 67 10000 2 170 20:38 10.12.2019
2843 Clear -1 1021 67 10000 2 170 20:19 10.12.2019
2844 Clear -1 1021 67 10000 2 170 20:19 10.12.2019
2845 Clear -1 1021 67 10000 2 170 20:19 10.12.2019
2846 Clear -1 1021 67 10000 2 170 20:19 10.12.2019
2847 Clear -1 1021 67 10000 2 170 20:19 10.12.2019
2848 Clear -1 1022 67 10000 1 0 19:56 10.12.2019
2849 Clear -1 1022 62 10000 1 350 19:38 10.12.2019
2850 Clear -1 1022 62 10000 1 350 19:20 10.12.2019
2851 Clear -1 1021 62 10000 1 0 18:55 10.12.2019
2852 Clear -1 1021 62 10000 1 0 18:55 10.12.2019
2853 Clear -1 1022 58 10000 3.88 301 18:36 10.12.2019
2854 Clear -1 1022 58 10000 3.88 301 18:36 10.12.2019
2855 Clear 0 1022 58 10000 3.88 301 18:18 10.12.2019
2856 Clear 0 1022 58 10000 2 40 17:42 10.12.2019
2857 Clear 1 1022 58 10000 2 40 17:23 10.12.2019
2858 Clear 2 1022 36 10000 1 60 16:58 10.12.2019
2859 Clear 2 1022 31 10000 2 20 16:39 10.12.2019
2860 Clear 2 1022 31 10000 2 20 16:19 10.12.2019
2861 Clear 2 1022 37 10000 3 350 15:39 10.12.2019
2862 Clear 2 1022 37 10000 3 350 15:19 10.12.2019
2863 Clear 3 1022 31 10000 1 0 14:57 10.12.2019
2864 Clear 3 1021 31 10000 4 360 14:38 10.12.2019
2865 Clouds 3 1021 31 10000 4 360 14:20 10.12.2019
2866 Clouds 3 1021 34 10000 5 360 13:58 10.12.2019
2867 Clouds 3 1021 29 10000 5 360 13:40 10.12.2019
2868 Clouds 4 1021 29 10000 5 360 13:20 10.12.2019
2869 Clouds 4 1021 29 10000 5 360 13:20 10.12.2019
2870 Clouds 5 1021 27 10000 7 350 12:49 10.12.2019
2871 Clouds 6 1020 25 10000 6 340 12:28 10.12.2019
2872 Clouds 6 1020 25 10000 6 340 11:58 10.12.2019
2873 Clouds 6 1019 24 10000 8 330 11:40 10.12.2019
2874 Clear 6 1019 24 10000 8 330 11:21 10.12.2019
2875 Clear 7 1018 24 10000 6 310 10:43 10.12.2019
2876 Clear 7 1018 24 10000 6 310 10:24 10.12.2019
2877 Clear 7 1018 20 10000 8 320 09:57 10.12.2019
2878 Clear 8 1017 19 10000 8 320 09:39 10.12.2019
2879 Clear 8 1017 19 10000 8 320 09:20 10.12.2019
2880 Clear 9 1017 19 10000 9 290 08:58 10.12.2019
2881 Clear 9 1016 21 10000 8 290 08:39 10.12.2019
2882 Clear 9 1016 21 10000 8 290 08:21 10.12.2019
2883 Clear 9 1016 21 10000 9 280 07:45 10.12.2019
2884 Clear 9 1016 23 10000 9 280 07:27 10.12.2019
2885 Clear 10 1016 23 10000 8 270 06:56 10.12.2019
2886 Clear 10 1016 34 10000 6 280 06:38 10.12.2019
2887 Clear 10 1016 34 10000 6 280 06:19 10.12.2019
2888 Haze 9 1017 45 4000 5 290 05:51 10.12.2019
2889 Mist 5 1018 74 3200 1 0 04:23 10.12.2019
2890 Mist 4 1018 80 2800 1 0 03:27 10.12.2019
2891 Mist 1 1018 92 2300 1 80 02:36 10.12.2019
2892 Mist -1 1017 92 1700 1 0 01:40 10.12.2019
2893 Mist -3 1017 92 1700 1 0 01:19 10.12.2019
2894 Mist -3 1017 92 2800 2 350 00:31 10.12.2019
2895 Mist -3 1017 92 2800 1 0 23:59 09.12.2019
2896 Mist -3 1017 85 2800 2 350 23:39 09.12.2019
2897 Mist -3 1017 85 2800 2 350 23:21 09.12.2019
2898 Mist -3 1016 92 2800 1 0 22:57 09.12.2019
2899 Mist -3 1017 92 2800 1 350 22:39 09.12.2019
2900 Mist -3 1017 92 2800 1 350 22:18 09.12.2019
2901 Mist -3 1017 92 2800 1 0 21:56 09.12.2019
2902 Mist -2 1017 92 3000 1 90 21:38 09.12.2019
2903 Mist -2 1017 92 3000 1 90 21:18 09.12.2019
2904 Mist -3 1017 92 3200 1 50 20:55 09.12.2019
2905 Mist -2 1018 92 3200 1 80 20:37 09.12.2019
2906 Mist -2 1018 92 3200 1 80 20:19 09.12.2019
2907 Mist -2 1018 92 3500 2 50 19:55 09.12.2019
2908 Mist -2 1018 92 3500 2 50 19:55 09.12.2019
2909 Mist -2 1018 92 3500 1 0 19:37 09.12.2019
2910 Mist -2 1018 92 3500 1 0 19:18 09.12.2019
2911 Mist -2 1018 92 4000 2 110 18:54 09.12.2019
2912 Mist -2 1019 86 4000 2 90 18:36 09.12.2019
2913 Mist -1 1019 86 4000 2 90 18:18 09.12.2019
2914 Mist -1 1019 86 4000 2 90 18:18 09.12.2019
2915 Mist -1 1019 86 4000 2 90 18:18 09.12.2019
2916 Mist -1 1018 80 4000 1 0 17:55 09.12.2019
2917 Mist -1 1018 86 4000 2 50 17:37 09.12.2019
2918 Mist -1 1018 86 4000 2 50 17:18 09.12.2019
2919 Mist -1 1018 86 4000 2 50 17:18 09.12.2019
2920 Mist 0 1019 92 4000 1 0 16:54 09.12.2019
2921 Mist 0 1019 86 4000 2 150 16:36 09.12.2019
2922 Mist 0 1019 86 4000 2 150 16:18 09.12.2019
2923 Mist 0 1019 86 5000 2 120 15:54 09.12.2019
2924 Mist 0 1019 86 5000 1 0 15:36 09.12.2019
2925 Mist 0 1019 86 5000 1 0 15:18 09.12.2019
2926 Mist 0 1019 86 5000 1 0 14:41 09.12.2019
2927 Mist -1 1019 86 5000 1 0 14:18 09.12.2019
2928 Mist 0 1019 86 5000 1 130 13:56 09.12.2019
2929 Mist -1 1019 85 5000 2 50 13:38 09.12.2019
2930 Mist -1 1019 85 5000 2 50 13:19 09.12.2019
2931 Mist 0 1019 86 5000 1 70 12:56 09.12.2019
2932 Mist 0 1019 79 5000 1 0 12:37 09.12.2019
2933 Mist 1 1019 79 5000 1 0 12:18 09.12.2019
2934 Haze 1 1018 74 5000 2 150 11:55 09.12.2019
2935 Haze 1 1018 64 4000 1 0 11:36 09.12.2019
2936 Haze 1 1018 64 4000 1 0 11:18 09.12.2019
2937 Haze 2 1018 59 3500 2 140 10:40 09.12.2019
2938 Haze 2 1018 59 3500 2 140 10:20 09.12.2019
2939 Haze 3 1018 55 3500 2 170 09:56 09.12.2019
2940 Haze 4 1018 52 3500 3 180 09:38 09.12.2019
2941 Haze 3 1018 52 3500 3 180 09:20 09.12.2019
2942 Haze 5 1017 52 3500 2 180 08:42 09.12.2019
2943 Haze 6 1017 52 3500 2 180 08:24 09.12.2019
2944 Haze 5 1017 52 3200 3 190 07:53 09.12.2019
2945 Haze 5 1017 48 3000 1 0 07:34 09.12.2019
2946 Haze 8 1018 56 3000 1 0 06:59 09.12.2019
2947 Haze 8 1018 60 3000 2 200 06:39 09.12.2019
2948 Haze 7 1018 60 3000 2 200 06:21 09.12.2019
2949 Haze 4 1019 64 2700 1 0 05:25 09.12.2019
2950 Mist 2 1020 69 2700 1 0 04:29 09.12.2019
2951 Mist 3 1020 80 2100 2 350 03:19 09.12.2019
2952 Mist -1 1020 92 1400 2 20 02:18 09.12.2019
2953 Mist -3 1020 92 1600 2 360 01:40 09.12.2019
2954 Mist -3 1019 92 1700 2 360 00:45 09.12.2019
2955 Mist -3 1019 92 2000 1 0 00:24 09.12.2019
2956 Mist -3 1019 92 2000 2 350 23:39 08.12.2019
2957 Mist -3 1019 92 2000 2 350 23:21 08.12.2019
2958 Mist -3 1019 92 2000 2 360 22:56 08.12.2019
2959 Mist -3 1019 92 2000 2 360 22:38 08.12.2019
2960 Mist -3 1019 92 2000 2 360 22:18 08.12.2019
2961 Mist -3 1019 92 2200 2 360 21:57 08.12.2019
2962 Mist -3 1020 92 2200 2 320 21:39 08.12.2019
2963 Mist -3 1020 92 2200 2 320 21:39 08.12.2019
2964 Mist -2 1020 92 2200 2 320 21:19 08.12.2019
2965 Mist -3 1020 92 2200 2 10 20:57 08.12.2019
2966 Mist -3 1020 92 2400 2 20 20:38 08.12.2019
2967 Mist -3 1020 92 2400 2 20 20:38 08.12.2019
2968 Mist -3 1020 92 2400 2 20 20:20 08.12.2019
2969 Mist -3 1021 92 2400 2 10 19:57 08.12.2019
2970 Mist -2 1021 92 2400 1 0 19:39 08.12.2019
2971 Mist -3 1021 92 2400 1 0 19:21 08.12.2019
2972 Mist -3 1021 92 2200 1 0 18:55 08.12.2019
2973 Mist -3 1021 92 2200 1 0 18:37 08.12.2019
2974 Mist -3 1021 92 2200 1 0 18:37 08.12.2019
2975 Mist -2 1021 92 2200 1 0 18:18 08.12.2019
2976 Mist -2 1021 92 2200 1 0 17:56 08.12.2019
2977 Mist -2 1021 92 2200 1 0 17:56 08.12.2019
2978 Mist -2 1021 92 2200 1 90 17:38 08.12.2019
2979 Mist -2 1021 92 2200 1 90 17:19 08.12.2019
2980 Mist -3 1022 92 2200 1 120 16:56 08.12.2019
2981 Mist -3 1022 92 2200 2 80 16:38 08.12.2019
2982 Mist -2 1022 92 2200 2 80 16:20 08.12.2019
2983 Mist -2 1022 92 2200 1 0 15:54 08.12.2019
2984 Mist -2 1022 92 2200 1 90 15:36 08.12.2019
2985 Mist -2 1022 92 2200 1 90 15:18 08.12.2019
2986 Snow -1 1022 86 2200 1 0 14:40 08.12.2019
2987 Snow -1 1022 86 2200 1 0 14:22 08.12.2019
2988 Snow -2 1022 92 2200 1 0 13:57 08.12.2019
2989 Snow -2 1022 92 2200 1 90 13:38 08.12.2019
2990 Snow -1 1022 92 2200 1 90 13:20 08.12.2019
2991 Snow -1 1022 86 2200 1 0 12:54 08.12.2019
2992 Snow -1 1022 86 2200 1 0 12:36 08.12.2019
2993 Snow -1 1022 86 2200 1 0 12:18 08.12.2019
2994 Snow -1 1022 86 2200 1 0 11:39 08.12.2019
2995 Snow -1 1022 86 2200 1 0 11:39 08.12.2019
2996 Snow -2 1022 86 2200 1 0 11:20 08.12.2019
2997 Snow -2 1022 86 2200 2 100 10:59 08.12.2019
2998 Snow -1 1022 86 2200 2 110 10:38 08.12.2019
2999 Snow -1 1022 86 2200 2 110 10:20 08.12.2019
3000 Mist -2 1022 86 2000 2 110 09:57 08.12.2019
3001 Mist -1 1022 79 2000 3 120 09:39 08.12.2019
3002 Mist -1 1022 79 2000 3 120 09:20 08.12.2019
3003 Mist 0 1022 79 2000 2 120 08:58 08.12.2019
3004 Mist 0 1022 86 2000 3 120 08:38 08.12.2019
3005 Mist -1 1022 86 2000 3 120 08:19 08.12.2019
3006 Mist 0 1022 80 2000 3 110 07:44 08.12.2019
3007 Mist 1 1022 80 2000 2 100 07:20 08.12.2019
3008 Mist 2 1022 80 1800 2 100 06:51 08.12.2019
3009 Mist 1 1023 79 1700 2 100 06:22 08.12.2019
3010 Mist 1 1023 79 1700 2 80 05:49 08.12.2019
3011 Mist -1 1024 86 1400 1 0 05:18 08.12.2019
3012 Mist 0 1026 92 1000 1 0 03:50 08.12.2019
3013 Snow 0 1026 92 900 2 150 03:23 08.12.2019
3014 Snow -1 1026 92 800 1 0 02:39 08.12.2019
3015 Fog -2 1026 100 800 2 150 01:56 08.12.2019
3016 Fog -3 1026 100 700 2 130 01:27 08.12.2019
3017 Mist -4 1026 92 4000 2 140 00:40 08.12.2019
3018 Mist -4 1026 92 4000 2 140 00:21 08.12.2019
3019 Clouds -4 1026 85 8000 1 90 23:42 07.12.2019
3020 Clouds -4 1026 85 8000 1 90 23:21 07.12.2019
3021 Clouds -5 1026 92 8000 1 50 22:58 07.12.2019
3022 Clouds -4 1026 85 10000 1 90 22:40 07.12.2019
3023 Clouds -4 1026 85 10000 1 90 22:40 07.12.2019
3024 Clouds -4 1026 85 10000 1 90 22:40 07.12.2019
3025 Clouds -4 1026 85 10000 1 90 22:40 07.12.2019
3026 Clouds -4 1026 85 10000 1 90 22:40 07.12.2019
3027 Clouds -4 1026 85 10000 1 90 22:22 07.12.2019
3028 Clouds -4 1027 85 10000 1 30 21:56 07.12.2019
3029 Clouds -4 1027 85 10000 1 0 21:38 07.12.2019
3030 Clouds -4 1027 85 10000 1 0 21:20 07.12.2019
3031 Clouds -4 1027 85 10000 1 0 20:59 07.12.2019
3032 Clouds -4 1028 85 10000 1 0 20:37 07.12.2019
3033 Clouds -4 1028 85 10000 1 0 20:18 07.12.2019
3034 Clouds -3 1028 79 10000 0.91 41 19:56 07.12.2019
3035 Clouds -3 1028 79 10000 1 60 19:38 07.12.2019
3036 Clouds -3 1028 79 10000 1 60 19:20 07.12.2019
3037 Clouds -3 1029 79 8000 1 0 18:44 07.12.2019
3038 Clouds -3 1029 79 8000 2 70 18:20 07.12.2019
3039 Clouds -2 1029 79 8000 1 80 17:58 07.12.2019
3040 Clouds -3 1029 85 8000 1 80 17:40 07.12.2019
3041 Clouds -3 1029 85 8000 1 80 17:22 07.12.2019
3042 Clouds -3 1030 85 8000 2 80 16:57 07.12.2019
3043 Clouds -3 1030 85 8000 2 70 16:38 07.12.2019
3044 Clouds -3 1030 85 8000 2 70 16:20 07.12.2019
3045 Clouds -2 1030 85 10000 1 60 15:57 07.12.2019
3046 Clouds -1 1030 79 10000 1 340 15:38 07.12.2019
3047 Clouds -1 1030 79 10000 1 340 15:38 07.12.2019
3048 Clouds -1 1030 79 10000 1 340 15:20 07.12.2019
3049 Clouds -1 1031 73 10000 1 50 14:42 07.12.2019
3050 Clear 0 1031 73 10000 1 50 14:19 07.12.2019
3051 Clear 0 1031 79 10000 1 0 13:56 07.12.2019
3052 Clear 0 1031 79 10000 1 0 13:56 07.12.2019
3053 Clear 0 1031 73 10000 1 0 13:37 07.12.2019
3054 Clear 0 1031 73 10000 1 0 13:19 07.12.2019
3055 Clear 0 1031 73 10000 1 150 12:41 07.12.2019
3056 Clear 0 1031 73 10000 1 150 12:23 07.12.2019
3057 Clear 0 1031 68 10000 1 0 11:58 07.12.2019
3058 Clear 1 1031 58 10000 1 170 11:40 07.12.2019
3059 Clear 1 1031 58 10000 1 170 11:22 07.12.2019
3060 Clear 2 1031 50 10000 1 160 10:39 07.12.2019
3061 Clear 2 1031 50 10000 1 160 10:20 07.12.2019
3062 Clear 3 1031 44 10000 2 180 09:58 07.12.2019
3063 Clear 4 1031 38 10000 2 170 09:38 07.12.2019
3064 Clear 4 1031 38 10000 2 170 09:19 07.12.2019
3065 Clear 5 1031 35 10000 3 180 08:43 07.12.2019
3066 Clear 5 1031 35 10000 3 180 08:21 07.12.2019
3067 Clear 5 1031 35 10000 3 190 07:47 07.12.2019
3068 Clear 5 1031 41 10000 3 190 07:27 07.12.2019
3069 Clear 6 1031 38 10000 3 180 06:52 07.12.2019
3070 Clear 6 1032 35 10000 2 130 06:25 07.12.2019
3071 Clear 7 1032 32 10000 3 120 05:44 07.12.2019
3072 Clear 3 1034 34 10000 2 70 04:19 07.12.2019
3073 Clear 4 1034 34 10000 2 70 03:47 07.12.2019
3074 Clear -1 1033 43 10000 3 10 02:22 07.12.2019
3075 Clear -1 1033 50 10000 3 10 01:37 07.12.2019
3076 Clear -2 1033 50 10000 3 10 01:18 07.12.2019
3077 Clear -2 1032 54 10000 3 10 00:21 07.12.2019
3078 Clear -3 1032 58 10000 3 360 23:57 06.12.2019
3079 Clear -3 1032 67 10000 4 340 23:38 06.12.2019
3080 Clear -3 1032 67 10000 4 340 23:19 06.12.2019
3081 Clear -3 1032 73 10000 5 350 22:39 06.12.2019
3082 Clear -4 1032 73 10000 5 350 22:21 06.12.2019
3083 Clear -3 1032 68 10000 6 330 21:58 06.12.2019
3084 Clear -2 1032 68 10000 3 300 21:40 06.12.2019
3085 Clear -2 1032 68 10000 3 300 21:20 06.12.2019
3086 Clear -3 1032 79 10000 2 360 20:46 06.12.2019
3087 Clear -3 1032 79 10000 3 350 20:26 06.12.2019
3088 Clear -4 1032 79 10000 2 340 19:59 06.12.2019
3089 Clear -3 1032 79 10000 3 350 19:40 06.12.2019
3090 Clear -4 1032 79 10000 3 350 19:22 06.12.2019
3091 Clear -4 1032 79 10000 3 350 19:22 06.12.2019
3092 Clear -4 1031 73 10000 3 360 18:58 06.12.2019
3093 Clear -4 1031 73 10000 3 360 18:40 06.12.2019
3094 Clear -4 1031 73 10000 3 360 18:21 06.12.2019
3095 Clear -4 1031 79 10000 2 350 17:57 06.12.2019
3096 Clear -4 1031 79 10000 2 350 17:57 06.12.2019
3097 Clear -4 1031 85 10000 1 0 17:39 06.12.2019
3098 Clear -4 1031 85 10000 1 0 17:21 06.12.2019
3099 Clear -3 1031 79 10000 2 360 16:56 06.12.2019
3100 Clear -3 1031 79 10000 1 10 16:37 06.12.2019
3101 Clear -3 1031 79 10000 1 10 16:18 06.12.2019
3102 Clear -1 1031 79 10000 1.28 6 15:41 06.12.2019
3103 Clear -1 1031 79 10000 1.28 6 15:41 06.12.2019
3104 Clear -2 1032 79 10000 1 0 15:21 06.12.2019
3105 Clear -2 1032 79 10000 1 0 14:57 06.12.2019
3106 Clear -1 1032 79 10000 2 60 14:39 06.12.2019
3107 Clear 0 1032 79 10000 2 60 14:19 06.12.2019
3108 Clear 0 1032 85 10000 2 60 13:45 06.12.2019
3109 Clear -1 1032 85 10000 2 70 13:26 06.12.2019
3110 Clear -1 1031 85 10000 2 80 12:56 06.12.2019
3111 Clear 0 1031 79 10000 2 20 12:38 06.12.2019
3112 Clear 0 1031 79 10000 2 20 12:19 06.12.2019
3113 Clear 0 1031 73 10000 1 0 11:42 06.12.2019
3114 Clear 1 1031 73 10000 1 0 11:23 06.12.2019
3115 Clear 2 1031 68 10000 1 0 10:55 06.12.2019
3116 Clear 2 1032 55 10000 3 200 10:37 06.12.2019
3117 Clear 2 1032 55 10000 3 200 10:18 06.12.2019
3118 Clear 2 1031 51 10000 5 220 09:54 06.12.2019
3119 Clear 3 1032 51 10000 4 190 09:36 06.12.2019
3120 Clear 3 1032 51 10000 4 190 09:18 06.12.2019
3121 Clear 3 1032 40 10000 2 0 08:40 06.12.2019
3122 Clear 3 1032 40 10000 2 0 08:21 06.12.2019
3123 Clear 3 1033 31 10000 2 0 07:38 06.12.2019
3124 Clear 2 1033 31 10000 2 0 07:20 06.12.2019
3125 Clear 5 1033 31 10000 1 0 06:48 06.12.2019
3126 Clear 4 1034 31 10000 2 230 06:24 06.12.2019
3127 Clear 6 1035 31 10000 2 0 05:46 06.12.2019
3128 Clear -4 1038 58 10000 2 350 02:44 06.12.2019
3129 Clear -4 1039 72 10000 1 20 01:43 06.12.2019
3130 Clear -5 1039 72 10000 1 10 00:50 06.12.2019
3131 Clear -5 1039 72 10000 2 350 00:23 06.12.2019
3132 Clear -5 1039 72 10000 1 360 23:51 05.12.2019
3133 Clear -5 1039 72 10000 2 360 23:20 05.12.2019
3134 Clear -5 1040 78 10000 1 360 22:58 05.12.2019
3135 Clear -5 1040 78 10000 1 360 22:58 05.12.2019
3136 Clear -5 1040 78 10000 1 360 22:39 05.12.2019
3137 Clear -5 1040 78 10000 1 350 22:19 05.12.2019
3138 Clear -5 1040 78 10000 1 350 21:56 05.12.2019
3139 Clear -5 1040 78 10000 1 50 21:37 05.12.2019
3140 Clear -5 1040 78 10000 1 50 21:19 05.12.2019
3141 Clear -4 1041 72 10000 1 20 20:56 05.12.2019
3142 Clear -4 1041 72 10000 1 20 20:56 05.12.2019
3143 Clear -4 1041 72 10000 1 20 20:56 05.12.2019
3144 Clear -4 1041 72 10000 1 20 20:37 05.12.2019
3145 Clear -4 1041 72 10000 1 0 20:18 05.12.2019
3146 Clear -4 1041 72 10000 1 0 20:18 05.12.2019
3147 Clear -4 1041 72 10000 1 0 20:18 05.12.2019
3148 Clear -4 1042 78 10000 1 50 19:41 05.12.2019
3149 Clear -4 1042 78 10000 1 50 19:22 05.12.2019
3150 Clear -4 1042 78 10000 1 60 18:59 05.12.2019
3151 Clear -3 1042 67 10000 2 60 18:39 05.12.2019
3152 Clear -3 1042 67 10000 2 60 18:20 05.12.2019
3153 Clear -3 1042 67 10000 1 30 17:56 05.12.2019
3154 Clear -3 1043 61 10000 1 0 17:37 05.12.2019
3155 Clear -3 1043 61 10000 1 0 17:18 05.12.2019
3156 Clear -3 1043 66 10000 2 70 16:40 05.12.2019
3157 Clear -3 1043 66 10000 2 70 16:22 05.12.2019
3158 Clear -3 1043 61 10000 1 20 15:59 05.12.2019
3159 Clear -2 1043 41 10000 1 0 15:40 05.12.2019
3160 Clear -2 1043 41 10000 1 0 15:21 05.12.2019
3161 Clear -2 1043 44 10000 0.81 72 14:57 05.12.2019
3162 Clear -2 1043 41 10000 1 30 14:38 05.12.2019
3163 Clear -1 1043 41 10000 1 30 14:20 05.12.2019
3164 Clear -1 1043 62 10000 1 0 13:58 05.12.2019
3165 Clear -1 1044 44 10000 1 40 13:40 05.12.2019
3166 Clear -1 1044 44 10000 1 40 13:21 05.12.2019
3167 Clear 0 1044 41 10000 1 0 12:59 05.12.2019
3168 Clear 0 1043 41 10000 1.48 19 12:40 05.12.2019
3169 Clear 0 1043 41 10000 1.48 19 12:21 05.12.2019
3170 Clear 0 1043 38 10000 1 0 11:55 05.12.2019
3171 Clear -1 1043 38 10000 1 0 11:36 05.12.2019
3172 Clear 1 1043 38 10000 1 0 11:18 05.12.2019
3173 Clear 1 1043 35 10000 1 80 10:54 05.12.2019
3174 Clear 1 1043 23 10000 1 30 10:36 05.12.2019
3175 Clear 2 1043 23 10000 1 30 10:18 05.12.2019
3176 Clear 3 1043 15 10000 2 70 09:42 05.12.2019
3177 Clear 2 1043 15 10000 2 70 09:20 05.12.2019
3178 Clear 2 1042 16 10000 2 60 08:57 05.12.2019
3179 Clear 3 1042 16 10000 3 50 08:37 05.12.2019
3180 Clear 2 1042 16 10000 3 50 08:19 05.12.2019
3181 Clear 2 1042 16 10000 3 50 08:19 05.12.2019
3182 Clear 3 1042 17 10000 3 10 07:41 05.12.2019
3183 Clear 3 1042 17 10000 3 10 07:23 05.12.2019
3184 Clear 6 1043 17 10000 2 40 06:48 05.12.2019
3185 Clear 6 1043 19 10000 3 10 06:24 05.12.2019
3186 Clear 5 1043 20 10000 3 0 05:56 05.12.2019
3187 Clear 4 1043 20 10000 3 30 05:24 05.12.2019
3188 Clear 3 1044 31 10000 4 20 04:59 05.12.2019
3189 Clear 3 1045 30 10000 4 20 03:41 05.12.2019
3190 Clear 2 1044 42 10000 5 30 02:42 05.12.2019
3191 Clear 0 1044 42 10000 5 30 02:22 05.12.2019
3192 Clear -1 1044 46 10000 3 10 01:51 05.12.2019
3193 Clear -1 1043 68 10000 3 10 01:23 05.12.2019
3194 Clear -2 1043 92 10000 3 10 00:44 05.12.2019
3195 Clear -3 1042 85 10000 3 360 00:21 05.12.2019
3196 Clear -1 1042 85 10000 2 360 23:55 04.12.2019
3197 Clear -3 1041 85 10000 1 0 23:37 04.12.2019
3198 Clear -2 1041 85 10000 1 0 23:18 04.12.2019
3199 Clear -3 1041 85 10000 1 340 22:39 04.12.2019
3200 Clear -2 1041 85 10000 1 340 22:20 04.12.2019
3201 Clear -2 1040 92 10000 1 0 21:58 04.12.2019
3202 Clear -3 1040 92 10000 1 0 21:39 04.12.2019
3203 Clear -3 1040 92 10000 1 0 21:19 04.12.2019
3204 Clear -3 1040 85 10000 1 360 20:57 04.12.2019
3205 Clear -3 1040 85 10000 1 360 20:39 04.12.2019
3206 Clear -1 1040 85 10000 1 360 20:21 04.12.2019
3207 Clear -1 1039 85 10000 3.42 89 19:57 04.12.2019
3208 Clear -1 1039 73 10000 1 0 19:38 04.12.2019
3209 Clear -1 1039 73 10000 1 0 19:20 04.12.2019
3210 Clear -1 1038 79 10000 2 100 18:42 04.12.2019
3211 Clear -1 1038 74 10000 3 100 18:24 04.12.2019
3212 Clear -1 1037 80 10000 3 110 17:59 04.12.2019
3213 -273 0 0 0 0 0 17:39 04.12.2019
3214 Clear 0 1037 80 10000 3 100 17:39 04.12.2019
3215 Clear 0 1037 80 10000 3 100 17:21 04.12.2019
3216 Clear 1 1037 80 10000 3 110 16:56 04.12.2019
3217 Clear 0 1036 80 10000 3 90 16:38 04.12.2019
3218 Clear 0 1036 80 10000 3 90 16:19 04.12.2019
3219 Clear 0 1035 42 10000 3 110 15:55 04.12.2019
3220 Clear -1 1034 58 10000 3 20 15:37 04.12.2019
3221 Clear 0 1034 58 10000 3 20 15:19 04.12.2019
3222 Clear 0 1033 50 10000 2 10 14:44 04.12.2019
3223 Clear 2 1033 50 10000 2 10 14:23 04.12.2019
3224 Clear 0 1033 50 10000 2 10 14:23 04.12.2019
3225 Clear 3 1033 40 10000 1 0 13:58 04.12.2019
3226 Clear 4 1032 32 10000 3 310 13:38 04.12.2019
3227 Clear 5 1032 32 10000 3 310 13:19 04.12.2019
3228 Clear 5 1032 24 10000 3 300 12:44 04.12.2019
3229 Clear 5 1032 22 10000 4 270 12:24 04.12.2019
3230 Clear 8 1031 22 10000 3 280 11:56 04.12.2019
3231 Clear 8 1031 20 10000 3 280 11:37 04.12.2019
3232 Clear 7 1031 20 10000 3 280 11:19 04.12.2019
3233 Clear 7 1030 22 10000 4 280 10:43 04.12.2019
3234 Clear 7 1030 22 10000 4 280 10:23 04.12.2019
3235 Clear 7 1030 22 10000 4 280 10:23 04.12.2019
3236 Clear 8 1030 19 10000 6 300 09:56 04.12.2019
3237 Clear 9 1030 19 10000 8 290 09:37 04.12.2019
3238 Clear 9 1030 19 10000 8 290 09:19 04.12.2019
3239 Clear 9 1029 18 10000 9 280 08:40 04.12.2019
3240 Clear 9 1029 18 10000 9 280 08:21 04.12.2019
3241 Clear 9 1030 18 10000 8 290 07:48 04.12.2019
3242 Clear 10 1030 16 10000 8 300 07:30 04.12.2019
3243 Clear 10 1030 18 10000 7 280 06:36 04.12.2019
3244 Clear 10 1030 19 10000 6 310 05:48 04.12.2019
3245 Clear 9 1031 20 10000 7 300 05:29 04.12.2019
3246 Clear 8 1031 22 10000 7 310 04:25 04.12.2019
3247 Clear 7 1031 26 10000 5 310 02:55 04.12.2019
3248 Clear 2 1030 32 10000 6 310 00:52 04.12.2019
3249 Clear 0 1029 32 10000 6 310 00:28 04.12.2019
3250 Clear 0 1029 43 10000 4 320 23:59 03.12.2019
3251 Clear -1 1028 73 10000 2 330 23:40 03.12.2019
3252 Clear -3 1028 73 10000 2 330 23:19 03.12.2019
3253 Clear -3 1028 73 10000 2 320 22:41 03.12.2019
3254 Clear -3 1028 73 10000 2 320 22:19 03.12.2019
3255 Clear -2 1028 68 10000 2.35 341 21:59 03.12.2019
3256 Clear -3 1028 79 10000 1 0 21:39 03.12.2019
3257 Clear -3 1028 79 10000 1 0 21:19 03.12.2019
3258 Clear -2 1028 68 10000 1 0 20:58 03.12.2019
3259 Clear -3 1028 79 10000 1 0 20:40 03.12.2019
3260 Clear -3 1028 79 10000 1 0 20:19 03.12.2019
3261 Clear -2 1028 73 10000 1 0 19:55 03.12.2019
3262 Clear -2 1028 63 10000 1 0 19:37 03.12.2019
3263 Clear -2 1028 63 10000 1 0 19:19 03.12.2019
3264 Clear -2 1028 73 10000 2 350 18:56 03.12.2019
3265 Clear -2 1028 63 10000 1 70 18:38 03.12.2019
3266 Clear -2 1028 63 10000 1 70 18:20 03.12.2019
3267 Clear 0 1027 44 10000 1 0 17:56 03.12.2019
3268 Clear -1 1028 54 10000 2 100 17:36 03.12.2019
3269 Clear 1 1028 54 10000 2 100 17:18 03.12.2019
3270 Clear 2 1027 37 10000 2 30 16:56 03.12.2019
3271 Clear 3 1027 28 10000 3 250 16:38 03.12.2019
3272 Clear 4 1027 28 10000 3 250 16:19 03.12.2019
3273 Clear 5 1027 28 10000 3 270 15:54 03.12.2019
3274 Clear 4 1027 30 10000 3 280 15:36 03.12.2019
3275 Clear 5 1027 30 10000 3 280 15:18 03.12.2019
3276 Clear 6 1027 26 10000 3 270 14:42 03.12.2019
3277 Clear 5 1027 26 10000 3 300 14:20 03.12.2019
3278 Clear 5 1027 26 10000 3 300 14:20 03.12.2019
3279 Clear 5 1026 26 10000 3 300 13:56 03.12.2019
3280 Clear 5 1026 24 10000 3 300 13:36 03.12.2019
3281 Clear 5 1026 24 10000 3 300 13:18 03.12.2019
3282 Clear 5 1026 22 10000 5 290 12:40 03.12.2019
3283 Clear 5 1026 22 10000 5 290 12:18 03.12.2019
3284 Clear 5 1026 24 10000 4 290 11:58 03.12.2019
3285 Clear 5 1025 24 10000 4 290 11:39 03.12.2019
3286 Clear 5 1025 24 10000 4 290 11:20 03.12.2019
3287 Clear 6 1025 22 10000 5 280 10:58 03.12.2019
3288 Clear 7 1025 20 10000 6 280 10:40 03.12.2019
3289 Clear 7 1025 20 10000 6 280 10:19 03.12.2019
3290 Clear 8 1025 20 10000 7 280 09:46 03.12.2019
3291 Clear 9 1024 19 10000 8 280 09:25 03.12.2019
3292 Clear 9 1024 18 10000 8 280 08:59 03.12.2019
3293 Clear 9 1024 19 10000 9 280 08:40 03.12.2019
3294 Clear 9 1024 19 10000 9 280 08:21 03.12.2019
3295 Clear 9 1024 19 10000 8 280 07:53 03.12.2019
3296 Clear 9 1024 19 10000 8 280 07:53 03.12.2019
3297 Clear 8 1024 19 10000 8 290 07:30 03.12.2019
3298 Clear 9 1024 18 10000 9 290 06:59 03.12.2019
3299 Clear 9 1025 18 10000 8 290 06:21 03.12.2019
3300 Clear 9 1025 19 10000 9 290 05:56 03.12.2019
3301 Clear 9 1026 20 10000 7 290 03:45 03.12.2019
3302 Clear 8 1026 22 10000 7 300 03:23 03.12.2019
3303 Clear 7 1026 23 10000 6 300 02:57 03.12.2019
3304 Clear 7 1026 25 10000 4 290 02:39 03.12.2019
3305 Clear 4 1026 25 10000 4 290 02:21 03.12.2019
3306 Clear 1 1025 31 10000 3 320 01:40 03.12.2019
3307 Clear 1 1025 31 10000 3 320 01:20 03.12.2019
3308 Clear -1 1025 29 10000 4 320 00:43 03.12.2019
3309 Clear -1 1024 27 10000 5 310 00:25 03.12.2019
3310 Clear 0 1024 27 10000 6 300 23:44 02.12.2019
3311 Clear 0 1024 25 10000 5 300 23:22 02.12.2019
3312 Clear 0 1024 27 10000 5 290 22:59 02.12.2019
3313 Clear 1 1024 23 10000 6 280 22:39 02.12.2019
3314 Clear 0 1024 23 10000 6 280 22:21 02.12.2019
3315 Clear 2 1024 25 10000 5 280 21:57 02.12.2019
3316 Clear 0 1024 23 10000 4 290 21:36 02.12.2019
3317 Clear 0 1024 23 10000 4 290 21:18 02.12.2019
3318 Clear 0 1024 27 10000 4 280 20:55 02.12.2019
3319 Clear 0 1024 29 10000 5 270 20:37 02.12.2019
3320 Clear 1 1024 29 10000 5 270 20:37 02.12.2019
3321 Clear 2 1024 29 10000 5 270 20:18 02.12.2019
3322 Clear 2 1024 34 10000 3 270 19:42 02.12.2019
3323 Clear 2 1024 34 10000 3 270 19:21 02.12.2019
3324 Clear -1 1024 58 10000 2.11 312 18:56 02.12.2019
3325 Clear -1 1024 46 10000 2 170 18:37 02.12.2019
3326 Clear 0 1024 46 10000 2 170 18:18 02.12.2019
3327 Clear 0 1025 42 10000 2 160 17:42 02.12.2019
3328 Clear 0 1025 42 10000 2 160 17:21 02.12.2019
3329 Clear 1 1025 31 10000 2 170 16:59 02.12.2019
3330 Clear 1 1025 29 10000 3 200 16:39 02.12.2019
3331 Clear 1 1025 29 10000 3 200 16:19 02.12.2019
3332 Clear 1 1025 27 10000 4 190 15:57 02.12.2019
3333 Clear 2 1025 27 10000 5 190 15:39 02.12.2019
3334 Clear 2 1025 27 10000 5 190 15:21 02.12.2019
3335 Clear 2 1025 29 10000 5 190 14:56 02.12.2019
3336 Clear 2 1025 25 10000 5 210 14:37 02.12.2019
3337 Clear 2 1025 25 10000 5 210 14:19 02.12.2019
3338 Clear 3 1025 21 10000 4 220 13:55 02.12.2019
3339 Clear 3 1025 21 10000 5 230 13:37 02.12.2019
3340 Clear 3 1025 21 10000 5 230 13:18 02.12.2019
3341 Clear 2 1025 25 10000 4 220 12:42 02.12.2019
3342 Clear 3 1025 25 10000 4 220 12:21 02.12.2019
3343 Clear 3 1025 25 10000 4 220 11:57 02.12.2019
3344 Clear 3 1025 23 10000 4 200 11:38 02.12.2019
3345 Clear 3 1025 23 10000 4 200 11:19 02.12.2019
3346 Clear 3 1025 23 10000 3 200 10:57 02.12.2019
3347 Clear 3 1025 21 10000 4 200 10:39 02.12.2019
3348 Clear 4 1025 21 10000 4 200 10:21 02.12.2019
3349 Clear 4 1025 21 10000 5 220 09:55 02.12.2019
3350 Clear 4 1025 20 10000 5 250 09:37 02.12.2019
3351 Clear 5 1025 20 10000 5 250 09:18 02.12.2019
3352 Clear 5 1025 18 10000 7 260 08:41 02.12.2019
3353 Clear 4 1025 18 10000 7 260 08:23 02.12.2019
3354 Clear 5 1025 20 10000 5 0 07:59 02.12.2019
3355 Clear 4 1025 20 10000 5 210 07:38 02.12.2019
3356 Clear 5 1025 20 10000 5 210 07:19 02.12.2019
3357 Clear 5 1026 19 10000 5 210 06:40 02.12.2019
3358 Clear 4 1027 23 10000 6 190 05:45 02.12.2019
3359 Clear 3 1027 23 10000 6 190 05:18 02.12.2019
3360 Clear 2 1029 22 10000 5 270 03:19 02.12.2019
3361 Clear 2 1029 22 10000 5 270 02:47 02.12.2019
3362 Clear 1 1029 30 10000 4 270 01:46 02.12.2019
3363 Clear 0 1030 30 10000 5 290 01:19 02.12.2019
3364 Clear -2 1029 30 10000 5 300 00:34 02.12.2019
3365 Clear -2 1029 36 10000 5 290 23:59 01.12.2019
3366 Clear -3 1029 45 10000 2 310 23:41 01.12.2019
3367 Clear -3 1029 45 10000 2 310 23:21 01.12.2019
3368 Clear -4 1029 48 10000 1 0 22:56 01.12.2019
3369 Clear -2 1030 45 10000 2 320 22:38 01.12.2019
3370 Clear -1 1030 45 10000 2 320 22:19 01.12.2019
3371 Clear -1 1030 35 10000 2 270 21:56 01.12.2019
3372 Clear -1 1030 35 10000 2 270 21:56 01.12.2019
3373 Clear -1 1030 38 10000 4 270 21:38 01.12.2019
3374 Clear -1 1030 38 10000 4 270 21:19 01.12.2019
3375 Clear -1 1031 38 10000 5 280 20:58 01.12.2019
3376 Clear -1 1031 38 10000 5 290 20:39 01.12.2019
3377 Clear -1 1031 38 10000 5 290 20:21 01.12.2019
3378 Clear -1 1031 33 10000 6 290 19:57 01.12.2019
3379 Clear -1 1032 32 10000 4 310 19:38 01.12.2019
3380 Clear -1 1032 32 10000 4 310 19:20 01.12.2019
3381 Clear -1 1032 32 10000 5 320 18:55 01.12.2019
3382 Clear -1 1032 30 10000 7 320 18:37 01.12.2019
3383 Clear -1 1032 30 10000 7 320 18:37 01.12.2019
3384 Clear -1 1032 30 10000 7 320 18:37 01.12.2019
3385 Clear -1 1032 30 10000 7 320 18:18 01.12.2019
3386 Clear -1 1032 28 10000 6 320 17:56 01.12.2019
3387 Clear -1 1032 26 10000 10 320 17:38 01.12.2019
3388 Clear -1 1032 26 10000 10 320 17:19 01.12.2019
3389 Clear 0 1032 26 10000 11 310 16:44 01.12.2019
3390 Clear 0 1032 28 10000 11 310 16:25 01.12.2019
3391 Clear 0 1032 31 10000 10 320 15:58 01.12.2019
3392 Clear 0 1032 31 10000 10 320 15:58 01.12.2019
3393 Clear 1 1032 31 10000 13 330 15:40 01.12.2019
3394 Clear 1 1032 31 10000 13 330 15:40 01.12.2019
3395 Clear 1 1032 31 10000 13 330 15:20 01.12.2019
3396 Clear 1 1030 29 10000 10 340 14:38 01.12.2019
3397 Clear 1 1030 29 10000 10 340 14:19 01.12.2019
3398 Clear 2 1029 29 10000 6 330 13:40 01.12.2019
3399 Clear 3 1029 29 10000 6 330 13:22 01.12.2019
3400 Clear 2 1028 32 10000 5 310 12:58 01.12.2019
3401 Clear 2 1028 32 10000 5 310 12:40 01.12.2019
3402 Clear 2 1028 32 10000 5 310 12:40 01.12.2019
3403 Clear 2 1028 32 10000 5 310 12:40 01.12.2019
3404 Clear 2 1028 32 10000 5 310 12:40 01.12.2019
3405 Clear 2 1028 32 10000 5 310 12:40 01.12.2019
3406 Clear 3 1028 32 10000 6 290 11:44 01.12.2019
3407 Clear 3 1027 29 10000 7 280 11:24 01.12.2019
3408 Clear 3 1026 27 10000 8 280 10:55 01.12.2019
3409 Clear 3 1026 27 10000 8 280 10:55 01.12.2019
3410 Clear 3 1026 25 10000 8 280 10:37 01.12.2019
3411 Clear 3 1026 25 10000 8 280 10:19 01.12.2019
3412 Clear 4 1026 23 10000 12 280 09:41 01.12.2019
3413 Clear 4 1026 23 10000 12 280 09:22 01.12.2019
3414 Clear 5 1025 23 10000 11 280 08:49 01.12.2019
3415 Clear 5 1025 25 10000 3 330 08:24 01.12.2019
3416 Clear 5 1025 25 10000 1 0 07:54 01.12.2019
3417 Clear 5 1025 27 10000 2 270 07:36 01.12.2019
3418 Clear 5 1025 27 10000 2 270 07:18 01.12.2019
3419 Clear 4 1026 27 10000 2 320 06:49 01.12.2019
3420 Clear 4 1027 27 10000 3 350 05:57 01.12.2019
3421 Clear 3 1028 34 10000 3 340 04:54 01.12.2019
3422 Clear 2 1029 34 10000 3 360 04:22 01.12.2019
3423 Clear 1 1030 46 10000 4 10 02:43 01.12.2019
3424 Clouds -1 1030 46 10000 4 10 02:24 01.12.2019
3425 Clouds 0 1030 46 10000 3 20 01:53 01.12.2019
3426 Clouds -1 1030 49 10000 4 20 01:29 01.12.2019
3427 Clouds -2 1030 49 10000 4 10 00:45 01.12.2019
3428 Clouds -2 1030 53 10000 3 360 00:26 01.12.2019
3429 Clouds -2 1030 53 10000 4 350 23:47 30.11.2019
3430 Clouds -1 1030 49 10000 4 360 23:25 30.11.2019
3431 Clouds -1 1030 53 10000 5 350 22:59 30.11.2019
3432 Clouds -1 1030 53 10000 5 350 22:39 30.11.2019
3433 Clouds -1 1030 53 10000 5 350 22:20 30.11.2019
3434 Clouds 0 1031 50 10000 5 340 21:47 30.11.2019
3435 Clouds -1 1031 58 10000 4 340 21:28 30.11.2019
3436 Clouds 0 1031 49 10000 3 340 20:58 30.11.2019
3437 Clouds -1 1031 49 10000 4 350 20:40 30.11.2019
3438 Clouds -1 1031 49 10000 4 350 20:19 30.11.2019
3439 Clouds -1 1031 49 10000 4 350 20:19 30.11.2019
3440 Clouds 0 1032 46 10000 4 340 19:56 30.11.2019
3441 Clouds 0 1031 46 10000 4 330 19:38 30.11.2019
3442 Clouds 0 1031 46 10000 4 330 19:20 30.11.2019
3443 Clouds 0 1031 42 10000 4 340 18:59 30.11.2019
3444 Clouds 0 1031 42 10000 5 330 18:38 30.11.2019
3445 Clouds 1 1031 42 10000 5 330 18:20 30.11.2019
3446 Clouds 1 1032 42 10000 6 340 17:58 30.11.2019
3447 Clouds 0 1031 49 10000 4 340 17:39 30.11.2019
3448 Clouds 0 1031 49 10000 4 340 17:20 30.11.2019
3449 Clouds 1 1032 39 10000 5 330 16:57 30.11.2019
3450 Clouds 1 1032 39 10000 5 330 16:57 30.11.2019
3451 Clouds 0 1032 46 10000 4 340 16:39 30.11.2019
3452 Clouds 1 1032 46 10000 4 340 16:20 30.11.2019
3453 Clouds 1 1032 39 10000 4 330 15:42 30.11.2019
3454 Clouds 2 1032 39 10000 4 330 15:19 30.11.2019
3455 Clouds 2 1031 31 10000 6 300 14:58 30.11.2019
3456 Clouds 2 1031 34 10000 6 310 14:38 30.11.2019
3457 Clouds 1 1031 34 10000 6 310 14:19 30.11.2019
3458 Clouds 2 1031 31 10000 6 300 13:58 30.11.2019
3459 Rain 1 1031 31 10000 8 310 13:38 30.11.2019
3460 Rain 2 1031 31 10000 8 310 13:20 30.11.2019
3461 Rain 3 1030 31 10000 8 300 12:47 30.11.2019
3462 Clouds 3 1030 29 10000 8 290 12:29 30.11.2019
3463 Clouds 3 1030 29 10000 7 290 11:58 30.11.2019
3464 Clouds 3 1030 29 10000 7 290 11:58 30.11.2019
3465 Clouds 3 1029 32 10000 7 290 11:40 30.11.2019
3466 Clouds 3 1029 32 10000 7 290 11:18 30.11.2019
3467 Clouds 3 1029 32 10000 8 280 10:45 30.11.2019
3468 Clouds 3 1028 29 10000 7 280 10:21 30.11.2019
3469 Clouds 3 1028 32 10000 6 280 09:59 30.11.2019
3470 Clouds 4 1027 32 10000 7 280 09:40 30.11.2019
3471 Clouds 4 1027 32 10000 7 280 09:20 30.11.2019
3472 Clouds 4 1027 48 10000 5 290 08:41 30.11.2019
3473 Clouds 5 1027 48 10000 5 290 08:19 30.11.2019
3474 Rain 4 1027 74 5000 2 0 07:43 30.11.2019
3475 Rain 4 1027 69 4500 3 320 07:24 30.11.2019
3476 Rain 5 1027 74 4000 4 330 06:46 30.11.2019
3477 Rain 5 1028 80 4000 2 360 06:28 30.11.2019
3478 Rain 3 1028 74 3200 2 360 05:29 30.11.2019
3479 Mist 3 1030 80 3200 4 280 03:40 30.11.2019
3480 Mist 1 1029 93 2500 2 0 02:26 30.11.2019
3481 Mist 0 1029 100 2500 1 0 01:56 30.11.2019
3482 Mist 0 1029 93 2000 1 0 01:24 30.11.2019
3483 Mist 0 1029 100 2200 1 0 00:46 30.11.2019
3484 Mist 0 1029 100 2500 2 150 00:27 30.11.2019
3485 Mist 0 1029 100 2500 2 120 23:46 29.11.2019
3486 Mist 0 1029 100 3000 2 150 23:25 29.11.2019
3487 Mist 0 1029 100 3000 2 120 22:58 29.11.2019
3488 Mist 0 1029 92 3000 2 130 22:39 29.11.2019
3489 Mist 0 1029 92 3000 2 130 22:21 29.11.2019
3490 Snow 0 1029 92 2500 2 120 21:41 29.11.2019
3491 Snow -1 1029 100 2500 2 130 21:22 29.11.2019
3492 Snow -1 1030 100 2200 1 140 20:56 29.11.2019
3493 Snow -1 1030 100 1700 2 150 20:37 29.11.2019
3494 Snow -1 1030 100 1700 2 150 20:18 29.11.2019
3495 Snow -1 1030 100 1400 2 140 19:56 29.11.2019
3496 Snow -1 1031 100 1400 2 130 19:37 29.11.2019
3497 Snow -1 1031 100 1400 2 130 19:19 29.11.2019
3498 Snow -1 1031 100 1400 2 120 18:42 29.11.2019
3499 Snow -1 1031 100 1400 2 120 18:24 29.11.2019
3500 Snow -1 1032 100 1400 1 0 18:00 29.11.2019
3501 Snow -1 1032 100 1400 1 100 17:41 29.11.2019
3502 Snow -1 1032 100 1400 1 100 17:22 29.11.2019
3503 Snow 0 1032 100 1700 1 0 16:44 29.11.2019
3504 Snow -1 1032 100 2000 1 0 16:21 29.11.2019
3505 Snow 0 1032 74 2400 1 0 15:59 29.11.2019
3506 Snow 0 1032 74 2400 1 0 15:59 29.11.2019
3507 Snow 0 1033 74 3200 1 0 15:39 29.11.2019
3508 Snow 0 1033 74 3200 1 0 15:21 29.11.2019
3509 Snow 0 1033 74 3200 1 0 15:21 29.11.2019
3510 Snow 0 1033 74 4000 2 160 14:41 29.11.2019
3511 Snow 0 1033 43 4000 3 200 14:22 29.11.2019
3512 Snow 1 1034 69 6000 3 200 13:58 29.11.2019
3513 Snow 1 1034 59 7000 3 0 13:38 29.11.2019
3514 Snow 1 1034 59 7000 3 0 13:20 29.11.2019
3515 Snow 2 1034 55 7000 3 190 12:44 29.11.2019
3516 Snow 2 1034 55 8000 2 170 12:25 29.11.2019
3517 Snow 2 1034 55 8000 2 180 11:59 29.11.2019
3518 Snow 2 1034 55 8000 2 160 11:40 29.11.2019
3519 Snow 1 1034 55 8000 2 160 11:19 29.11.2019
3520 Clouds 2 1034 51 8000 1 150 10:58 29.11.2019
3521 Clouds 2 1034 51 8000 2 130 10:39 29.11.2019
3522 Clouds 2 1034 51 8000 2 130 10:21 29.11.2019
3523 Clouds 2 1034 51 8000 2 140 09:59 29.11.2019
3524 Clouds 2 1034 51 7000 2 130 09:39 29.11.2019
3525 Clouds 2 1034 51 7000 2 130 09:21 29.11.2019
3526 Clouds 3 1034 51 7000 2 130 08:55 29.11.2019
3527 Clouds 3 1034 51 8000 3 130 08:37 29.11.2019
3528 Clouds 2 1034 51 8000 3 130 08:19 29.11.2019
3529 Clouds 2 1035 47 10000 2 160 07:42 29.11.2019
3530 Clouds 2 1035 47 10000 2 160 07:42 29.11.2019
3531 Clouds 2 1035 47 10000 2 160 07:23 29.11.2019
3532 Clouds 4 1035 47 10000 2 110 06:54 29.11.2019
3533 Clouds 4 1035 51 10000 2 90 06:35 29.11.2019
3534 Clouds 3 1035 50 10000 2 90 05:46 29.11.2019
3535 Clouds 2 1036 50 10000 2 120 05:23 29.11.2019
3536 Clouds 2 1036 50 10000 2 120 05:23 29.11.2019
3537 Clouds 1 1037 58 10000 1 0 03:43 29.11.2019
3538 Clouds 0 1037 58 10000 1 0 03:19 29.11.2019
3539 Clouds -2 1037 73 10000 1 50 02:25 29.11.2019
3540 Clear -2 1037 73 10000 1.09 39 01:49 29.11.2019
3541 Clear -3 1037 79 10000 1 130 01:23 29.11.2019
3542 Clear -3 1037 79 10000 1 130 01:23 29.11.2019
3543 Clear -4 1037 85 10000 1 20 00:40 29.11.2019
3544 Clear -4 1037 85 10000 1 20 00:20 29.11.2019
3545 Clear -4 1036 73 10000 3 350 23:42 28.11.2019
3546 Clear -4 1036 73 10000 3 350 23:21 28.11.2019
3547 Clear -4 1036 73 10000 1 350 22:57 28.11.2019
3548 Clear -3 1036 73 10000 2 340 22:37 28.11.2019
3549 Clear -3 1036 73 10000 2 340 22:37 28.11.2019
3550 Clear -3 1036 73 10000 2 340 22:19 28.11.2019
3551 Clear -3 1036 73 10000 2 350 21:55 28.11.2019
3552 Clear -4 1036 67 10000 2 340 21:36 28.11.2019
3553 Clear -4 1036 67 10000 2 340 21:36 28.11.2019
3554 Clear -4 1036 67 10000 2 340 21:18 28.11.2019
3555 Clear -4 1036 73 10000 2 350 20:42 28.11.2019
3556 Clear -4 1036 67 10000 2 340 20:22 28.11.2019
3557 Clear -4 1036 73 10000 1 340 19:58 28.11.2019
3558 Clear -4 1036 62 10000 1 360 19:40 28.11.2019
3559 Clear -3 1036 62 10000 1 360 19:21 28.11.2019
3560 Clear -3 1036 62 10000 2 350 18:58 28.11.2019
3561 Clear -3 1036 62 10000 2 340 18:39 28.11.2019
3562 Clear -3 1036 62 10000 2 340 18:18 28.11.2019
3563 Clear -3 1036 62 10000 2 350 17:59 28.11.2019
3564 Clear -3 1036 73 10000 1 0 17:40 28.11.2019
3565 Clear -3 1036 73 10000 1 0 17:21 28.11.2019
3566 Clear -3 1037 62 10000 1 0 16:55 28.11.2019
3567 Clear -3 1037 67 10000 1.15 40 16:37 28.11.2019
3568 Clear -3 1037 67 10000 1.15 40 16:18 28.11.2019
3569 Clear -3 1036 67 10000 1 0 15:41 28.11.2019
3570 Clear -3 1036 67 10000 1 0 15:20 28.11.2019
3571 Clear -3 1037 73 10000 2 60 14:59 28.11.2019
3572 Clear -3 1037 73 10000 2 60 14:40 28.11.2019
3573 Clear -2 1037 67 10000 1 70 14:21 28.11.2019
3574 Clear -2 1037 67 10000 1 70 13:56 28.11.2019
3575 Clear -2 1036 73 10000 1 30 13:38 28.11.2019
3576 Clear -2 1036 73 10000 1 30 13:20 28.11.2019
3577 Clear -2 1036 58 10000 1 50 12:43 28.11.2019
3578 Clear -2 1036 58 10000 1 50 12:23 28.11.2019
3579 Clear -1 1036 58 10000 1 70 11:58 28.11.2019
3580 Clear -1 1036 53 10000 1 60 11:39 28.11.2019
3581 Clear -1 1036 53 10000 1 60 11:20 28.11.2019
3582 Clear 0 1035 53 10000 1 80 10:43 28.11.2019
3583 Clear 1 1035 42 10000 1 70 10:23 28.11.2019
3584 Clear 1 1035 17 10000 1 80 09:59 28.11.2019
3585 Clear 2 1035 31 10000 0.76 17 09:40 28.11.2019
3586 Clear 3 1035 31 10000 0.76 17 09:21 28.11.2019
3587 Clear 3 1035 31 10000 1 0 08:55 28.11.2019
3588 Clear 3 1036 29 10000 2 0 08:36 28.11.2019
3589 Clear 3 1036 29 10000 2 0 08:18 28.11.2019
3590 Clear 3 1036 29 10000 2 160 07:41 28.11.2019
3591 Clear 3 1036 29 10000 2 160 07:23 28.11.2019
3592 Clear 4 1037 29 10000 1 0 06:44 28.11.2019
3593 Clear 4 1037 29 10000 1 0 06:44 28.11.2019
3594 Clear 3 1037 29 10000 1 0 06:22 28.11.2019
3595 Clear 3 1038 31 10000 2 0 05:44 28.11.2019
3596 Clear 1 1040 29 10000 1 0 04:57 28.11.2019
3597 Clear 0 1041 46 10000 1 0 02:37 28.11.2019
3598 Clear -4 1041 72 10000 1 50 01:35 28.11.2019
3599 Clear -4 1041 67 10000 1 40 00:43 28.11.2019
3600 Clear -5 1041 78 10000 1 40 00:20 28.11.2019
3601 Clear -5 1041 72 10000 1 20 23:41 27.11.2019
3602 Clear -6 1041 72 10000 1 20 23:22 27.11.2019
3603 Clear -6 1041 78 10000 1 30 22:59 27.11.2019
3604 Clear -5 1041 57 10000 1.45 89 22:38 27.11.2019
3605 Clear -5 1041 57 10000 1.45 89 22:20 27.11.2019
3606 Clear -5 1041 72 10000 1.45 89 21:56 27.11.2019
3607 Clear -5 1041 61 10000 1 30 21:37 27.11.2019
3608 Clear -6 1041 61 10000 1 30 21:19 27.11.2019
3609 Clear -5 1041 57 10000 1 40 20:58 27.11.2019
3610 Clear -5 1042 57 10000 1 30 20:38 27.11.2019
3611 Clear -5 1042 57 10000 1 30 20:20 27.11.2019
3612 Clear -5 1042 57 10000 1 50 19:57 27.11.2019
3613 Clear -5 1042 57 10000 1 30 19:39 27.11.2019
3614 Clear -5 1042 57 10000 1 30 19:19 27.11.2019
3615 Clear -4 1042 45 10000 1 0 18:58 27.11.2019
3616 Clear -3 1041 41 10000 1 0 18:37 27.11.2019
3617 Clear -3 1041 41 10000 1 0 18:19 27.11.2019
3618 Clear -2 1041 42 10000 2 80 17:56 27.11.2019
3619 Clear -3 1042 45 10000 2 80 17:37 27.11.2019
3620 Clear -3 1042 45 10000 2 80 17:37 27.11.2019
3621 Clear -3 1042 57 10000 2 80 17:18 27.11.2019
3622 Clear -4 1042 57 10000 2 80 16:56 27.11.2019
3623 Clear -4 1042 57 10000 2 80 16:55 27.11.2019
3624 Clear -4 1042 57 10000 2 80 16:55 27.11.2019
3625 Clear -3 1042 53 10000 1 50 16:36 27.11.2019
3626 Clear -3 1042 53 10000 1 50 16:18 27.11.2019
3627 Clear -3 1042 48 10000 1 0 15:56 27.11.2019
3628 Clear -3 1041 41 10000 2.4 81 15:37 27.11.2019
3629 Clear -3 1041 41 10000 2.4 81 15:19 27.11.2019
3630 Clear -3 1041 44 10000 1 50 14:56 27.11.2019
3631 Clear -1 1041 53 10000 1 0 14:38 27.11.2019
3632 Clear -1 1040 45 10000 1 40 14:19 27.11.2019
3633 Clear -1 1041 53 10000 1 0 14:19 27.11.2019
3634 Clear 0 1040 45 10000 1 40 13:55 27.11.2019
3635 Clear -1 1040 53 10000 2 20 13:37 27.11.2019
3636 Clear 0 1040 45 10000 1.18 19 13:18 27.11.2019
3637 Clear -2 1040 35 10000 1.18 19 12:41 27.11.2019
3638 Clear -1 1040 30 10000 1.18 19 12:22 27.11.2019
3639 Clear 0 1040 23 10000 1 130 11:56 27.11.2019
3640 Clear 1 1040 23 10000 1 130 11:36 27.11.2019
3641 Clear 1 1039 12 10000 1 0 11:18 27.11.2019
3642 Clear 2 1039 15 10000 1 10 10:46 27.11.2019
3643 Clear 2 1039 15 10000 1 10 10:24 27.11.2019
3644 Clear 3 1039 12 10000 2 40 09:57 27.11.2019
3645 Clear 3 1039 11 10000 2 40 09:39 27.11.2019
3646 Clear 4 1039 11 10000 2 40 09:18 27.11.2019
3647 Clear 4 1039 12 10000 4 30 08:42 27.11.2019
3648 Clear 4 1039 12 10000 4 30 08:23 27.11.2019
3649 Clear 5 1039 12 10000 4 10 07:48 27.11.2019
3650 Clear 4 1039 14 10000 4 40 07:29 27.11.2019
3651 Clear 5 1040 14 10000 4 50 06:54 27.11.2019
3652 Clear 4 1040 14 10000 4 50 06:36 27.11.2019
3653 Clear 4 1041 16 10000 5 40 05:47 27.11.2019
3654 Clear 4 1042 16 10000 5 40 05:22 27.11.2019
3655 Clear 4 1042 16 10000 5 40 04:49 27.11.2019
3656 Clear 4 1042 16 10000 5 50 04:30 27.11.2019
3657 Clear 4 1043 17 10000 5 20 03:41 27.11.2019
3658 Clear 3 1043 17 10000 6 30 03:20 27.11.2019
3659 Clear 3 1042 19 10000 5 20 02:28 27.11.2019
3660 Clear 2 1041 20 10000 5 20 00:50 27.11.2019
3661 Clear 1 1040 22 10000 4 20 00:30 27.11.2019
3662 Clear 1 1040 22 10000 4 10 23:56 26.11.2019
3663 Clear 1 1040 24 10000 5 10 23:38 26.11.2019
3664 Clouds 1 1039 22 10000 4 10 23:18 26.11.2019
3665 Clouds 1 1039 24 10000 5 10 22:39 26.11.2019
3666 Clouds 1 1039 24 10000 5 10 22:20 26.11.2019
3667 Clouds 2 1039 22 10000 4 10 21:59 26.11.2019
3668 Clouds 2 1039 22 10000 4 20 21:38 26.11.2019
3669 Clouds 2 1039 22 10000 4 20 21:20 26.11.2019
3670 Clouds 2 1038 22 10000 4 20 20:57 26.11.2019
3671 Clouds 2 1039 19 10000 5 10 20:37 26.11.2019
3672 Clouds 3 1039 19 10000 5 10 20:19 26.11.2019
3673 Clouds 3 1038 21 10000 5 20 19:55 26.11.2019
3674 Clouds 3 1038 21 10000 5 20 19:55 26.11.2019
3675 Clouds 3 1038 21 10000 6 10 19:37 26.11.2019
3676 Clouds 3 1037 19 10000 7 360 19:19 26.11.2019
3677 Clouds 3 1037 19 10000 7 360 18:57 26.11.2019
3678 Clouds 3 1037 24 10000 6 350 18:39 26.11.2019
3679 Clouds 3 1038 24 10000 6 350 18:20 26.11.2019
3680 Clouds 3 1037 27 10000 3 10 17:57 26.11.2019
3681 Clouds 3 1037 27 10000 3 10 17:39 26.11.2019
3682 Clouds 3 1037 27 10000 4 10 17:20 26.11.2019
3683 Clouds 3 1037 27 10000 4 10 16:56 26.11.2019
3684 Clouds 2 1036 54 10000 4 340 16:37 26.11.2019
3685 Clouds 1 1036 54 10000 4 340 16:18 26.11.2019
3686 Clouds 0 1036 58 10000 3 340 15:58 26.11.2019
3687 Clouds 0 1035 46 10000 3 330 15:37 26.11.2019
3688 Clouds 1 1035 46 10000 3 330 15:19 26.11.2019
3689 Clouds 1 1035 54 10000 4 350 14:46 26.11.2019
3690 Clouds 1 1034 46 10000 2 360 14:25 26.11.2019
3691 Clouds 0 1034 58 10000 3 350 13:56 26.11.2019
3692 Clouds 1 1033 50 10000 1 0 13:37 26.11.2019
3693 Clouds 1 1033 46 10000 1 0 13:18 26.11.2019
3694 Clouds 0 1032 68 10000 1 30 12:38 26.11.2019
3695 Clouds 1 1032 16 10000 1.83 348 12:19 26.11.2019
3696 Clouds 1 1032 16 10000 1.83 348 11:56 26.11.2019
3697 Clouds 0 1031 50 10000 1 50 11:38 26.11.2019
3698 Clouds 2 1031 42 10000 2 60 11:19 26.11.2019
3699 Clouds 2 1031 42 10000 2 60 10:57 26.11.2019
3700 Clouds 2 1030 31 10000 1 80 10:39 26.11.2019
3701 Clouds 3 1030 31 10000 1 80 10:20 26.11.2019
3702 Clouds 4 1030 25 10000 1 110 09:44 26.11.2019
3703 Clouds 4 1030 25 10000 1 110 09:25 26.11.2019
3704 Clouds 5 1030 23 10000 1 0 08:59 26.11.2019
3705 Clouds 5 1030 21 10000 1 0 08:38 26.11.2019
3706 Clouds 5 1030 21 10000 1 0 08:20 26.11.2019
3707 Clouds 5 1030 21 10000 1 0 07:43 26.11.2019
3708 Clouds 5 1030 21 10000 1 0 07:24 26.11.2019
3709 Clouds 5 1030 23 10000 1 0 06:54 26.11.2019
3710 Clouds 4 1031 21 10000 1 0 06:22 26.11.2019
3711 Clouds 6 1031 21 10000 1 0 05:38 26.11.2019
3712 Clear 3 1032 29 10000 1 0 03:43 26.11.2019
3713 Clouds -1 1032 68 10000 1 0 01:55 26.11.2019
3714 Clouds -2 1032 73 10000 1 0 01:29 26.11.2019
3715 Clouds -4 1031 78 10000 1 0 00:48 26.11.2019
3716 Clouds -5 1031 78 10000 1.04 30 00:23 26.11.2019
3717 Clouds -3 1031 78 10000 2 350 23:39 25.11.2019
3718 Clouds -3 1031 78 10000 2 350 23:39 25.11.2019
3719 Clouds -3 1031 78 10000 2 350 23:39 25.11.2019
3720 Clouds -4 1031 67 10000 0.57 9 23:20 25.11.2019
3721 Clouds -3 1031 67 10000 0.57 9 22:56 25.11.2019
3722 Clouds -2 1031 67 10000 1 20 22:37 25.11.2019
3723 Clouds -3 1031 67 10000 1 20 22:18 25.11.2019
3724 Clouds -5 1031 67 10000 1 0 21:56 25.11.2019
3725 Clouds -4 1031 57 10000 1 0 21:38 25.11.2019
3726 Clouds -4 1031 57 10000 1 0 21:19 25.11.2019
3727 Clouds -4 1032 53 10000 1 80 20:55 25.11.2019
3728 Clouds -4 1032 67 10000 2 70 20:36 25.11.2019
3729 Clouds -4 1032 67 10000 2 70 20:18 25.11.2019
3730 Clouds -4 1032 57 10000 1 20 19:54 25.11.2019
3731 Clouds -2 1033 62 10000 1 50 19:36 25.11.2019
3732 Clouds -2 1033 67 10000 2 80 19:18 25.11.2019
3733 Clouds -2 1033 67 10000 2 80 18:56 25.11.2019
3734 Clouds -2 1033 67 10000 1 80 18:37 25.11.2019
3735 Clouds -2 1033 62 10000 1 0 18:18 25.11.2019
3736 Clouds -3 1033 62 10000 1 0 17:55 25.11.2019
3737 Clouds -2 1033 53 10000 0.18 239 17:36 25.11.2019
3738 Clouds -2 1033 53 10000 0.18 239 17:36 25.11.2019
3739 Clouds -2 1033 45 10000 1 0 17:18 25.11.2019
3740 Clouds -2 1033 45 10000 1 0 16:43 25.11.2019
3741 Clouds -2 1033 45 10000 1 0 16:25 25.11.2019
3742 Clouds 0 1033 53 10000 1 0 15:58 25.11.2019
3743 Clouds 0 1034 49 10000 1 110 15:39 25.11.2019
3744 Clouds 0 1034 49 10000 1 110 15:20 25.11.2019
3745 Clouds 0 1034 36 10000 1 0 14:56 25.11.2019
3746 Clouds 0 1034 39 10000 1 140 14:38 25.11.2019
3747 Clear 1 1034 39 10000 1 140 14:20 25.11.2019
3748 Clear 1 1034 13 10000 3 170 13:40 25.11.2019
3749 Clear 2 1034 13 10000 3 170 13:21 25.11.2019
3750 Clear 1 1035 12 10000 4 170 12:59 25.11.2019
3751 Clear 1 1035 30 10000 4 170 12:40 25.11.2019
3752 Clear 1 1035 20 10000 4 180 12:20 25.11.2019
3753 Clear 1 1035 20 10000 4 180 11:56 25.11.2019
3754 Clear 1 1035 12 10000 4 180 11:38 25.11.2019
3755 Clear 0 1035 28 10000 3 170 11:19 25.11.2019
3756 Clear 1 1035 12 10000 3 170 10:42 25.11.2019
3757 Clear 2 1035 12 10000 3 170 10:23 25.11.2019
3758 Clear 2 1035 19 10000 4 180 09:56 25.11.2019
3759 Clear 3 1035 19 10000 4 180 09:38 25.11.2019
3760 Clear 3 1035 19 10000 4 180 09:20 25.11.2019
3761 Clear 3 1035 16 10000 3 190 08:40 25.11.2019
3762 Clear 3 1035 16 10000 3 190 08:21 25.11.2019
3763 Clear 3 1036 15 10000 4 200 07:42 25.11.2019
3764 Clear 3 1036 15 10000 4 200 07:24 25.11.2019
3765 Clear 3 1037 17 10000 2 0 06:48 25.11.2019
3766 Clear 4 1038 17 10000 3 210 06:21 25.11.2019
3767 Clear 4 1038 17 10000 3 210 06:21 25.11.2019
3768 Clear 3 1039 17 10000 2 0 05:39 25.11.2019
3769 Clear 3 1039 19 10000 1 180 04:52 25.11.2019
3770 Clear 3 1041 12 10000 1 0 03:18 25.11.2019
3771 Clear -1 1041 36 10000 2 360 02:26 25.11.2019
3772 Clear -1 1041 45 10000 1 0 01:40 25.11.2019
3773 Clear -2 1041 45 10000 1 0 01:21 25.11.2019
3774 Clear -3 1041 56 10000 2 10 00:23 25.11.2019
3775 Clear -3 1042 52 10000 1 0 23:58 24.11.2019
3776 Clear -3 1042 52 10000 1 0 23:39 24.11.2019
3777 Clear -3 1041 57 10000 2 20 23:19 24.11.2019
3778 Clear -3 1041 57 10000 2 20 22:56 24.11.2019
3779 Clear -3 1042 44 10000 1 0 22:37 24.11.2019
3780 Clear -3 1042 44 10000 1 0 22:18 24.11.2019
3781 Clear -3 1042 48 10000 2 60 21:42 24.11.2019
3782 Clear -3 1042 48 10000 2 60 21:22 24.11.2019
3783 Clear -2 1042 41 10000 2 10 20:59 24.11.2019
3784 Clear -2 1042 29 10000 2 340 20:40 24.11.2019
3785 Clear -1 1042 29 10000 2 340 20:20 24.11.2019
3786 Clear -1 1043 32 10000 3 10 19:58 24.11.2019
3787 Clear -1 1043 32 10000 3 360 19:40 24.11.2019
3788 Clear -1 1043 32 10000 3 360 19:21 24.11.2019
3789 Clear -2 1043 32 10000 3 350 19:00 24.11.2019
3790 Clear -1 1043 35 10000 4 350 18:38 24.11.2019
3791 Clear -1 1043 32 10000 3 360 18:20 24.11.2019
3792 Clear -1 1043 32 10000 3 360 17:59 24.11.2019
3793 Clear -1 1043 32 10000 3 360 17:59 24.11.2019
3794 Clear 0 1043 23 10000 5 340 17:41 24.11.2019
3795 Clear -1 1043 25 10000 5 340 17:22 24.11.2019
3796 Clear -1 1043 25 10000 5 340 16:59 24.11.2019
3797 Clear -1 1043 23 10000 7 350 16:40 24.11.2019
3798 Clear -1 1043 23 10000 7 350 16:40 24.11.2019
3799 Clear 0 1043 23 10000 7 350 16:22 24.11.2019
3800 Clear 0 1043 20 10000 8 340 15:56 24.11.2019
3801 Clear 1 1043 20 10000 8 330 15:38 24.11.2019
3802 Clear 1 1043 20 10000 8 330 15:38 24.11.2019
3803 Clear 1 1043 20 10000 8 330 15:38 24.11.2019
3804 Clear 1 1043 20 10000 8 330 15:38 24.11.2019
3805 Clear 1 1043 20 10000 8 330 15:19 24.11.2019
3806 Clear 1 1043 14 10000 8 330 14:40 24.11.2019
3807 Clear 0 1043 13 10000 8 330 14:20 24.11.2019
3808 Clear 1 1042 13 10000 9 320 13:59 24.11.2019
3809 Clear 1 1042 14 10000 9 320 13:38 24.11.2019
3810 Clear 1 1042 14 10000 9 320 13:20 24.11.2019
3811 Clear 2 1042 14 10000 9 320 12:56 24.11.2019
3812 Clear 2 1042 14 10000 9 320 12:56 24.11.2019
3813 Clear 2 1041 14 10000 10 310 12:38 24.11.2019
3814 Clear 3 1040 13 10000 10 310 12:18 24.11.2019
3815 Clear 2 1040 13 10000 10 310 12:18 24.11.2019
3816 Clear 3 1040 13 10000 10 310 11:54 24.11.2019
3817 Clear 3 1040 13 10000 10 310 11:36 24.11.2019
3818 Clear 3 1039 13 10000 11 310 11:18 24.11.2019
3819 Clear 3 1038 12 10000 11 310 10:42 24.11.2019
3820 Clear 3 1038 12 10000 11 310 10:24 24.11.2019
3821 Clear 4 1038 10 10000 9 320 09:40 24.11.2019
3822 Clear 4 1038 10 10000 9 320 09:20 24.11.2019
3823 Clear 4 1037 11 10000 9 320 08:59 24.11.2019
3824 Clear 5 1037 11 10000 10 330 08:40 24.11.2019
3825 Clear 5 1037 11 10000 10 330 08:21 24.11.2019
3826 Clear 5 1037 10 10000 9 330 07:52 24.11.2019
3827 Clear 5 1037 10 10000 9 330 07:52 24.11.2019
3828 Clear 4 1037 11 10000 11 320 07:25 24.11.2019
3829 Clear 5 1037 11 10000 12 320 06:55 24.11.2019
3830 Clear 5 1038 11 10000 9 320 05:47 24.11.2019
3831 Clear 3 1038 11 10000 13 320 04:45 24.11.2019
3832 Clear 3 1037 12 10000 13 310 02:49 24.11.2019
3833 Clear 3 1037 12 10000 13 310 02:49 24.11.2019
3834 Rain 4 1036 12 10000 12 310 01:56 24.11.2019
3835 Rain 4 1035 12 10000 11 320 01:37 24.11.2019
3836 Rain 3 1035 12 10000 11 320 01:18 24.11.2019
3837 Clouds 4 1032 13 10000 13 320 00:42 24.11.2019
3838 Clouds 6 1031 12 10000 10 320 00:20 24.11.2019
3839 Clouds 6 1031 13 10000 10 330 23:44 23.11.2019
3840 Snow 6 1030 14 10000 9 340 23:21 23.11.2019
3841 Snow 6 1030 14 10000 9 340 22:57 23.11.2019
3842 Snow 7 1030 12 10000 8 330 22:38 23.11.2019
3843 Snow 8 1030 12 10000 8 330 22:20 23.11.2019
3844 Snow 8 1029 13 10000 11 330 21:57 23.11.2019
3845 Snow 8 1028 13 10000 10 330 21:39 23.11.2019
3846 Snow 8 1028 13 10000 10 330 21:20 23.11.2019
3847 Snow 9 1027 21 10000 7 320 20:39 23.11.2019
3848 Clouds 9 1027 21 10000 7 320 20:20 23.11.2019
3849 Clouds 10 1026 27 10000 6 310 19:58 23.11.2019
3850 Clouds 11 1026 29 10000 6 320 19:39 23.11.2019
3851 Clouds 11 1025 32 10000 5 330 19:19 23.11.2019
3852 Clouds 11 1025 32 10000 5 330 19:19 23.11.2019
3853 Clouds 11 1025 32 10000 5 330 18:58 23.11.2019
3854 Clouds 10 1025 34 10000 4 330 18:39 23.11.2019
3855 Clouds 10 1025 39 10000 4 340 18:19 23.11.2019
3856 Clouds 10 1025 43 10000 3 340 17:45 23.11.2019
3857 Clouds 11 1025 49 8000 3 360 17:23 23.11.2019
3858 Clouds 11 1025 49 8000 3 360 16:57 23.11.2019
3859 Clouds 11 1025 53 6000 3 330 16:39 23.11.2019
3860 Clouds 11 1025 53 6000 3 330 16:21 23.11.2019
3861 Clouds 11 1024 53 6000 3 340 15:59 23.11.2019
3862 Clouds 11 1024 57 6000 3 330 15:39 23.11.2019
3863 Clouds 11 1024 53 6000 4 340 15:19 23.11.2019
3864 Clouds 11 1024 53 6000 4 340 14:57 23.11.2019
3865 Clouds 11 1023 61 6000 3 350 14:39 23.11.2019
3866 Clouds 11 1023 61 6000 3 350 14:21 23.11.2019
3867 Clouds 11 1022 57 6000 1 0 13:54 23.11.2019
3868 Clouds 11 1022 57 6000 3 340 13:36 23.11.2019
3869 Clouds 11 1022 57 6000 4 350 13:18 23.11.2019
3870 Clouds 11 1022 53 6000 3 340 12:41 23.11.2019
3871 Clouds 11 1022 53 6000 3 340 12:22 23.11.2019
3872 Haze 11 1020 57 5000 3 350 11:44 23.11.2019
3873 Haze 11 1020 57 5000 3 350 11:23 23.11.2019
3874 Haze 11 1020 53 4000 1 10 10:45 23.11.2019
3875 Haze 11 1020 53 4000 1 10 10:23 23.11.2019
3876 Haze 11 1020 57 4000 3 350 09:58 23.11.2019
3877 Haze 12 1020 50 4000 3 10 09:39 23.11.2019
3878 Haze 12 1020 50 4000 3 10 09:18 23.11.2019
3879 Haze 12 1020 50 4000 4 360 08:41 23.11.2019
3880 Haze 12 1019 50 4000 4 10 08:18 23.11.2019
3881 Haze 13 1019 50 4000 4 350 07:41 23.11.2019
3882 Haze 13 1019 50 4000 4 350 06:52 23.11.2019
3883 Haze 13 1019 50 4000 4 350 06:26 23.11.2019
3884 Haze 12 1020 50 4000 3 320 05:57 23.11.2019
3885 Haze 12 1019 54 3200 4 320 05:32 23.11.2019
3886 Haze 11 1020 57 3200 4 330 04:57 23.11.2019
3887 Haze 11 1020 58 3200 5 330 04:32 23.11.2019
3888 Haze 11 1021 71 2800 4 340 03:26 23.11.2019
3889 Mist 10 1021 70 2800 4 330 02:37 23.11.2019
3890 Mist 8 1021 70 3200 4 330 01:40 23.11.2019
3891 Mist 8 1020 75 4000 3 320 00:47 23.11.2019
3892 Mist 8 1020 75 4000 2 340 00:19 23.11.2019
3893 Mist 7 1020 81 4000 2 330 23:55 22.11.2019
3894 Mist 7 1020 81 4000 2 330 23:36 22.11.2019
3895 Mist 7 1020 75 4000 2 340 23:18 22.11.2019
3896 Mist 7 1020 75 4000 2 340 22:55 22.11.2019
3897 Mist 7 1019 75 4000 1 320 22:36 22.11.2019
3898 Mist 7 1019 75 4000 1 320 22:18 22.11.2019
3899 Mist 7 1019 75 4000 1 320 22:18 22.11.2019
3900 Mist 8 1020 75 4000 3 290 21:40 22.11.2019
3901 Mist 8 1020 75 4000 3 290 21:21 22.11.2019
3902 Mist 7 1019 81 4000 2 300 20:55 22.11.2019
3903 Mist 7 1019 81 4000 1 350 20:37 22.11.2019
3904 Mist 7 1019 81 4000 1 350 20:19 22.11.2019
3905 Mist 8 1020 75 3500 1 60 19:39 22.11.2019
3906 Mist 8 1020 75 3500 1 60 19:20 22.11.2019
3907 Mist 8 1020 75 3500 1 0 18:59 22.11.2019
3908 Mist 8 1020 70 3500 2 330 18:37 22.11.2019
3909 Mist 8 1020 70 3500 2 330 18:19 22.11.2019
3910 Mist 8 1020 75 3500 2 330 17:42 22.11.2019
3911 Mist 9 1020 75 3500 2 330 17:22 22.11.2019
3912 Mist 9 1020 70 4000 1 0 16:55 22.11.2019
3913 Mist 9 1020 75 4000 0.98 359 16:37 22.11.2019
3914 Mist 8 1020 75 4000 0.98 359 16:18 22.11.2019
3915 Mist 8 1020 81 4000 1 0 15:38 22.11.2019
3916 Mist 8 1020 81 4000 1 0 15:20 22.11.2019
3917 Mist 9 1021 75 4000 1 0 14:54 22.11.2019
3918 Mist 9 1020 75 4000 1 130 14:36 22.11.2019
3919 Mist 8 1020 75 4000 1 130 14:18 22.11.2019
3920 Mist 8 1021 70 4000 1 360 13:39 22.11.2019
3921 Mist 8 1021 70 4000 1 360 13:20 22.11.2019
3922 Mist 8 1021 75 4000 3 360 12:58 22.11.2019
3923 Mist 8 1021 81 4000 1 350 12:40 22.11.2019
3924 Mist 8 1021 81 4000 1 350 12:20 22.11.2019
3925 Mist 8 1020 87 4000 1 0 11:58 22.11.2019
3926 Mist 8 1020 75 4000 2.53 339 11:37 22.11.2019
3927 Mist 8 1020 75 4000 0.63 350 11:19 22.11.2019
3928 Mist 8 1019 75 3500 1 0 10:55 22.11.2019
3929 Haze 8 1019 75 3500 1 140 10:37 22.11.2019
3930 Haze 8 1019 75 3500 1 140 10:18 22.11.2019
3931 Haze 9 1019 66 3200 1 0 09:41 22.11.2019
3932 Haze 9 1019 66 3200 1 0 09:22 22.11.2019
3933 Haze 9 1019 66 3200 1 0 08:59 22.11.2019
3934 Haze 9 1019 61 2800 1 0 08:40 22.11.2019
3935 Haze 9 1019 61 2800 1 0 08:22 22.11.2019
3936 Haze 9 1020 61 2800 1 0 07:43 22.11.2019
3937 Haze 9 1020 61 2800 1 0 07:21 22.11.2019
3938 Haze 10 1020 61 2800 2 120 06:48 22.11.2019
3939 Haze 10 1020 61 3200 1 0 06:28 22.11.2019
3940 Haze 9 1021 65 3500 1 0 05:37 22.11.2019
3941 Haze 7 1023 36 3500 2 330 03:34 22.11.2019
3942 Mist 6 1023 36 3500 2 10 02:47 22.11.2019
3943 Mist 5 1023 36 3500 2 20 02:28 22.11.2019
3944 Mist 5 1023 44 3500 1 0 01:44 22.11.2019
3945 Mist 5 1023 45 3500 2 340 01:19 22.11.2019
3946 Mist 4 1023 45 4000 2 320 00:49 22.11.2019
3947 Mist 4 1023 45 5000 1 0 00:23 22.11.2019
3948 Mist 3 1023 69 5000 3 280 23:44 21.11.2019
3949 Mist 3 1023 69 5000 3 280 23:26 21.11.2019
3950 Mist 3 1023 69 5000 2 290 22:58 21.11.2019
3951 Mist 3 1023 69 5000 2 310 22:39 21.11.2019
3952 Mist 3 1023 69 5000 2 310 22:39 21.11.2019
3953 Mist 3 1023 69 5000 2 310 22:20 21.11.2019
3954 Mist 3 1023 74 5000 1 0 21:56 21.11.2019
3955 Mist 3 1023 69 4500 2 290 21:37 21.11.2019
3956 Mist 3 1023 69 4500 2 290 21:19 21.11.2019
3957 Mist 3 1024 74 4500 2 270 20:57 21.11.2019
3958 Mist 3 1024 80 4500 1 330 20:38 21.11.2019
3959 Mist 3 1024 80 4500 1 330 20:38 21.11.2019
3960 Mist 3 1024 80 4500 1 330 20:19 21.11.2019
3961 Mist 3 1024 80 4500 1 330 19:58 21.11.2019
3962 Mist 3 1024 80 4500 1 330 19:58 21.11.2019
3963 Mist 3 1024 74 4500 2 330 19:39 21.11.2019
3964 Mist 3 1024 74 4500 2 330 19:21 21.11.2019
3965 Mist 3 1024 80 4500 3 330 18:56 21.11.2019
3966 Mist 3 1024 74 4500 3 320 18:37 21.11.2019
3967 Mist 3 1024 74 4500 3 320 18:18 21.11.2019
3968 Mist 3 1025 86 4000 2 340 17:41 21.11.2019
3969 Mist 2 1025 86 4000 2 340 17:22 21.11.2019
3970 Mist 2 1025 36 4000 1 0 16:59 21.11.2019
3971 Mist 2 1026 92 4000 2 350 16:41 21.11.2019
3972 Mist 2 1026 92 4000 2 350 16:21 21.11.2019
3973 Mist 2 1026 36 4000 1 0 15:56 21.11.2019
3974 Mist 2 1026 92 4000 1.46 352 15:38 21.11.2019
3975 Mist 1 1026 92 4000 1.46 352 15:19 21.11.2019
3976 Mist 2 1026 36 4000 1 0 14:42 21.11.2019
3977 Mist 2 1025 92 4000 1 0 14:23 21.11.2019
3978 Mist 2 1025 32 4000 1.5 2 13:59 21.11.2019
3979 Mist 3 1025 86 4000 1.5 2 13:38 21.11.2019
3980 Mist 3 1025 86 4000 1.5 359 13:19 21.11.2019
3981 Mist 2 1025 92 4000 1 0 12:56 21.11.2019
3982 Mist 2 1025 32 4000 1.5 359 12:37 21.11.2019
3983 Mist 3 1025 32 4000 1.5 359 12:19 21.11.2019
3984 Mist 3 1025 32 4500 1 20 11:41 21.11.2019
3985 Mist 4 1025 28 4500 1 20 11:21 21.11.2019
3986 Haze 4 1025 74 4500 1.85 340 10:59 21.11.2019
3987 Haze 4 1024 74 4000 1 0 10:41 21.11.2019
3988 Haze 4 1024 74 4000 1 0 10:20 21.11.2019
3989 Haze 6 1024 69 4000 1 80 09:44 21.11.2019
3990 Haze 6 1024 65 4000 2 100 09:25 21.11.2019
3991 Haze 5 1024 65 4000 1 0 08:59 21.11.2019
3992 Haze 6 1024 65 4500 2 90 08:40 21.11.2019
3993 Haze 6 1024 65 4500 2 90 08:20 21.11.2019
3994 Haze 6 1025 56 5000 1 0 07:40 21.11.2019
3995 Haze 6 1025 56 5000 1 0 07:18 21.11.2019
3996 Clouds 6 1025 52 6000 2 80 06:57 21.11.2019
3997 Clouds 6 1025 51 6000 2 60 06:33 21.11.2019
3998 Clouds 5 1026 55 6000 1 0 05:36 21.11.2019
3999 Clouds 4 1027 55 7000 1 0 03:32 21.11.2019
4000 Clouds 4 1027 59 7000 1 0 02:41 21.11.2019
4001 Clouds 3 1027 59 10000 1 10 01:54 21.11.2019
4002 Clouds 3 1027 59 10000 1 10 01:54 21.11.2019
4003 Clouds 3 1027 59 10000 3 330 01:36 21.11.2019
4004 Clouds 2 1027 55 10000 2 320 00:54 21.11.2019
4005 Clouds 3 1026 55 10000 2 320 00:21 21.11.2019
4006 Clouds 2 1026 59 10000 3 330 23:57 20.11.2019
4007 Clouds 2 1026 29 10000 2 340 23:39 20.11.2019
4008 Clouds 2 1026 29 10000 2 340 23:20 20.11.2019
4009 Clouds 2 1026 29 10000 2 360 22:55 20.11.2019
4010 Clouds 2 1026 29 10000 2 340 22:37 20.11.2019
4011 Clouds 2 1026 29 10000 2 340 22:37 20.11.2019
4012 Clouds 2 1026 29 10000 2 340 22:18 20.11.2019
4013 Clouds 2 1027 74 10000 2 350 21:55 20.11.2019
4014 Clouds 2 1027 74 10000 2 340 21:36 20.11.2019
4015 Clouds 2 1027 79 10000 3 350 21:18 20.11.2019
4016 Clouds 2 1027 79 10000 3 350 20:54 20.11.2019
4017 Clouds 1 1027 79 10000 2 350 20:36 20.11.2019
4018 Clouds 1 1027 79 10000 2 350 20:18 20.11.2019
4019 Clouds 1 1027 79 10000 2 350 20:18 20.11.2019
4020 Clouds 1 1028 86 10000 1 0 19:54 20.11.2019
4021 Clouds 1 1028 74 10000 1 0 19:36 20.11.2019
4022 Clouds 1 1028 74 10000 1 0 19:18 20.11.2019
4023 Clouds 1 1028 79 10000 1 110 18:41 20.11.2019
4024 Clouds 1 1028 79 10000 1 110 18:23 20.11.2019
4025 Clouds 1 1028 79 10000 1 0 17:59 20.11.2019
4026 Clouds 1 1028 86 10000 1 50 17:40 20.11.2019
4027 Clouds 1 1028 86 10000 1 50 17:21 20.11.2019
4028 Clouds 2 1028 74 10000 1 0 16:59 20.11.2019
4029 Clouds 2 1028 74 10000 1 0 16:59 20.11.2019
4030 Clouds 2 1028 74 10000 1 0 16:41 20.11.2019
4031 Clouds 2 1028 74 10000 1 0 16:20 20.11.2019
4032 Clouds 2 1028 79 10000 1 20 15:57 20.11.2019
4033 Clouds 2 1028 79 10000 1 0 15:39 20.11.2019
4034 Clouds 1 1028 79 10000 1 0 15:19 20.11.2019
4035 Clouds 2 1028 23 10000 1 0 14:56 20.11.2019
4036 Clouds 2 1028 68 10000 1.44 21 14:37 20.11.2019
4037 Clouds 3 1028 68 10000 0.73 92 14:18 20.11.2019
4038 Clouds 3 1028 68 10000 1 30 13:55 20.11.2019
4039 Clouds 3 1028 68 10000 1 0 13:36 20.11.2019
4040 Clouds 3 1028 68 10000 1 0 13:18 20.11.2019
4041 Clouds 3 1028 16 10000 1 0 12:40 20.11.2019
4042 Clouds 4 1028 16 10000 1 0 12:21 20.11.2019
4043 Clouds 4 1027 16 10000 0.81 56 11:46 20.11.2019
4044 Clouds 4 1027 50 10000 0.31 328 11:23 20.11.2019
4045 Clouds 4 1027 50 10000 0.31 328 10:59 20.11.2019
4046 Clouds 5 1027 44 10000 1 20 10:39 20.11.2019
4047 Clouds 5 1027 44 10000 1 20 10:20 20.11.2019
4048 Clouds 6 1026 38 10000 1 0 09:59 20.11.2019
4049 Clouds 6 1027 30 10000 2 170 09:41 20.11.2019
4050 Clouds 7 1027 30 10000 2 170 09:20 20.11.2019
4051 Clouds 8 1026 30 10000 2 190 08:46 20.11.2019
4052 Clouds 8 1026 28 10000 2 0 08:28 20.11.2019
4053 Clear 8 1026 28 10000 1 0 07:56 20.11.2019
4054 Clear 8 1026 28 10000 2 130 07:36 20.11.2019
4055 Clear 8 1026 28 10000 2 130 07:18 20.11.2019
4056 Clear 8 1027 28 10000 1 0 06:43 20.11.2019
4057 Clear 8 1027 26 10000 1 0 06:18 20.11.2019
4058 Clear 6 1029 32 10000 1 0 04:43 20.11.2019
4059 Clear 3 1030 47 10000 1 0 02:29 20.11.2019
4060 Clear -1 1030 73 10000 2 350 01:38 20.11.2019
4061 Clear -2 1030 85 10000 1 360 00:58 20.11.2019
4062 Clear -3 1030 79 10000 1 0 00:22 20.11.2019
4063 Clear -3 1029 73 10000 1 60 23:41 19.11.2019
4064 Clouds -3 1029 73 10000 1 60 23:22 19.11.2019
4065 Clouds -3 1029 73 10000 1 50 22:56 19.11.2019
4066 Clouds -4 1029 73 10000 1 10 22:37 19.11.2019
4067 Clouds -3 1029 73 10000 1 10 22:18 19.11.2019
4068 Clouds -3 1029 73 10000 1 10 22:18 19.11.2019
4069 Clouds -3 1029 79 10000 1 360 21:55 19.11.2019
4070 Clouds -3 1029 62 10000 1 0 21:36 19.11.2019
4071 Clouds -3 1029 62 10000 1 0 21:18 19.11.2019
4072 Clouds -2 1029 67 10000 2 40 20:54 19.11.2019
4073 Clouds -1 1029 58 10000 1 0 20:36 19.11.2019
4074 Clouds -1 1029 58 10000 1 0 20:18 19.11.2019
4075 Clouds -1 1030 58 10000 2 70 19:42 19.11.2019
4076 Clouds -1 1030 58 10000 2 70 19:20 19.11.2019
4077 Clouds -1 1029 53 10000 1 80 18:58 19.11.2019
4078 Clouds -1 1029 62 10000 2 80 18:40 19.11.2019
4079 Clouds -1 1029 62 10000 2 80 18:21 19.11.2019
4080 Clouds 0 1029 58 10000 2 80 17:58 19.11.2019
4081 Clouds 0 1030 53 10000 2 70 17:40 19.11.2019
4082 Clouds 0 1030 53 10000 2 70 17:20 19.11.2019
4083 Clouds 1 1029 49 10000 1 0 16:59 19.11.2019
4084 Clouds 1 1030 49 10000 1 70 16:40 19.11.2019
4085 Clouds 1 1030 49 10000 1 70 16:20 19.11.2019
4086 Clouds 0 1030 46 10000 2 100 15:47 19.11.2019
4087 Clouds 1 1030 62 10000 2 90 15:27 19.11.2019
4088 Clouds 1 1029 50 10000 1 0 14:58 19.11.2019
4089 Clouds 1 1029 58 10000 1 90 14:39 19.11.2019
4090 Clouds 1 1029 58 10000 1 90 14:20 19.11.2019
4091 Clouds 1 1029 54 10000 1 110 13:42 19.11.2019
4092 Clouds 1 1029 54 10000 1 110 13:21 19.11.2019
4093 Clear 3 1029 29 10000 2 180 12:57 19.11.2019
4094 Clear 3 1029 24 10000 2 170 12:39 19.11.2019
4095 Clear 3 1029 24 10000 2 170 12:20 19.11.2019
4096 Clear 3 1029 24 10000 3 180 11:55 19.11.2019
4097 Clear 3 1028 22 10000 3 170 11:36 19.11.2019
4098 Clear 4 1028 22 10000 3 170 11:18 19.11.2019
4099 Clear 5 1028 15 10000 3 190 10:44 19.11.2019
4100 Clear 5 1028 15 10000 3 190 10:21 19.11.2019
4101 Clear 6 1028 11 10000 4 200 09:43 19.11.2019
4102 Clear 6 1028 11 10000 4 200 09:21 19.11.2019
4103 Clear 7 1028 11 10000 3 190 08:58 19.11.2019
4104 Clear 7 1028 10 10000 4 220 08:39 19.11.2019
4105 Clear 7 1028 10 10000 4 220 08:21 19.11.2019
4106 Clear 7 1028 10 10000 3 180 07:55 19.11.2019
4107 Clear 7 1028 12 10000 5 190 07:36 19.11.2019
4108 Clear 8 1028 12 10000 5 190 07:18 19.11.2019
4109 Clear 9 1028 9 10000 2 310 06:42 19.11.2019
4110 Clear 9 1028 9 10000 2 310 06:18 19.11.2019
4111 Clear 9 1028 9 10000 2 310 06:18 19.11.2019
4112 Clear 6 1029 10 10000 3 320 05:19 19.11.2019
4113 Clear 7 1030 11 10000 2 340 03:40 19.11.2019
4114 Clear 6 1030 11 10000 2 340 03:19 19.11.2019
4115 Clear 5 1030 11 10000 2 350 02:47 19.11.2019
4116 Clear 2 1030 47 10000 1 10 01:48 19.11.2019
4117 Clear -1 1030 57 10000 1 0 00:49 19.11.2019
4118 Clear -2 1029 72 10000 1 170 00:20 19.11.2019
4119 Clear -2 1029 62 10000 2 350 23:40 18.11.2019
4120 Clear -2 1029 62 10000 2 350 23:20 18.11.2019
4121 Clear -2 1029 57 10000 1 350 22:47 18.11.2019
4122 Clear -3 1029 67 10000 1 340 22:24 18.11.2019
4123 Clear -1 1029 38 10000 1 0 21:59 18.11.2019
4124 Clear -2 1029 41 10000 1 0 21:40 18.11.2019
4125 Clear -1 1029 41 10000 1 0 21:21 18.11.2019
4126 Clear 0 1028 41 10000 2 10 20:59 18.11.2019
4127 Clear -1 1028 45 10000 3 320 20:41 18.11.2019
4128 Clear 0 1028 45 10000 3 320 20:19 18.11.2019
4129 Clear 0 1029 36 10000 1 0 19:58 18.11.2019
4130 Clear 0 1028 38 10000 2 50 19:38 18.11.2019
4131 Clear 0 1028 38 10000 2 50 19:20 18.11.2019
4132 Clear 2 1028 17 10000 4 300 18:56 18.11.2019
4133 Clear 0 1028 45 10000 3 320 18:38 18.11.2019
4134 Clear 0 1028 45 10000 3 320 18:19 18.11.2019
4135 Clear 0 1028 45 10000 1 0 17:56 18.11.2019
4136 Clear 0 1028 53 10000 2 90 17:37 18.11.2019
4137 Clear 0 1028 53 10000 2 90 17:19 18.11.2019
4138 Clear 0 1028 53 10000 2 90 17:19 18.11.2019
4139 Clear -1 1028 49 10000 1 0 16:43 18.11.2019
4140 Clear 0 1028 33 10000 2 350 16:24 18.11.2019
4141 Clear 0 1028 17 10000 3 280 15:58 18.11.2019
4142 Clear 0 1028 17 10000 3 270 15:40 18.11.2019
4143 Clear 0 1028 17 10000 3 270 15:21 18.11.2019
4144 Clear 0 1028 17 10000 1 0 14:58 18.11.2019
4145 Clear 0 1028 30 10000 1 0 14:38 18.11.2019
4146 Clear 0 1028 30 10000 1 0 14:18 18.11.2019
4147 Clear 0 1027 20 10000 2 0 13:42 18.11.2019
4148 Clear 1 1027 19 10000 4 230 13:24 18.11.2019
4149 Clear 1 1027 17 10000 5 230 12:43 18.11.2019
4150 Clear 1 1027 17 10000 4 220 12:20 18.11.2019
4151 Clear 2 1026 13 10000 3 200 11:57 18.11.2019
4152 Clear 2 1026 12 10000 4 240 11:38 18.11.2019
4153 Clear 2 1026 12 10000 4 240 11:20 18.11.2019
4154 Clear 2 1026 11 10000 5 260 10:44 18.11.2019
4155 Clear 2 1026 10 10000 5 290 10:25 18.11.2019
4156 Clear 3 1026 9 10000 6 280 09:57 18.11.2019
4157 Clear 3 1026 9 10000 7 280 09:38 18.11.2019
4158 Clear 4 1026 9 10000 7 280 09:20 18.11.2019
4159 Clear 4 1026 9 10000 8 290 08:55 18.11.2019
4160 Clear 4 1026 9 10000 10 300 08:36 18.11.2019
4161 Clear 4 1026 9 10000 10 300 08:18 18.11.2019
4162 Clear 3 1027 10 10000 10 290 07:44 18.11.2019
4163 Clear 3 1027 10 10000 9 290 07:23 18.11.2019
4164 Clear 3 1027 12 10000 9 290 06:48 18.11.2019
4165 Clear 3 1028 11 10000 8 290 06:28 18.11.2019
4166 Clear 3 1029 13 10000 7 280 05:42 18.11.2019
4167 Clear 1 1031 13 10000 8 310 03:59 18.11.2019
4168 Clear -1 1031 19 10000 6 290 01:40 18.11.2019
4169 Clear -1 1031 21 10000 5 300 00:54 18.11.2019
4170 Clear -2 1031 23 10000 5 300 00:19 18.11.2019
4171 Clear -2 1030 25 10000 5 300 23:41 17.11.2019
4172 Clear -2 1030 25 10000 5 300 23:21 17.11.2019
4173 Clear -2 1031 25 10000 5 300 22:57 17.11.2019
4174 Clear -2 1031 25 10000 5 300 22:57 17.11.2019
4175 Clear -2 1031 25 10000 6 300 22:39 17.11.2019
4176 Clear -2 1031 25 10000 6 300 22:20 17.11.2019
4177 Clear -2 1031 23 10000 6 300 21:55 17.11.2019
4178 Clear -2 1031 27 10000 4 300 21:36 17.11.2019
4179 Clear -2 1031 27 10000 4 300 21:18 17.11.2019
4180 Clear -2 1031 27 10000 4 300 21:18 17.11.2019
4181 Clear -2 1031 27 10000 4 320 20:54 17.11.2019
4182 Clear -2 1031 27 10000 5 310 20:36 17.11.2019
4183 Clear -2 1031 27 10000 5 310 20:18 17.11.2019
4184 Clear -2 1031 27 10000 5 330 19:54 17.11.2019
4185 Clear -2 1031 25 10000 6 330 19:36 17.11.2019
4186 Clear -2 1031 25 10000 6 330 19:18 17.11.2019
4187 Clear -1 1030 25 10000 8 320 18:54 17.11.2019
4188 Clear -1 1030 25 10000 8 320 18:54 17.11.2019
4189 Clear -1 1031 23 10000 9 330 18:36 17.11.2019
4190 Clear -1 1031 23 10000 9 330 18:18 17.11.2019
4191 Clear -1 1030 22 10000 9 330 17:56 17.11.2019
4192 Clear -1 1030 22 10000 11 330 17:38 17.11.2019
4193 Clear -1 1030 22 10000 11 330 17:18 17.11.2019
4194 Clear 0 1030 20 10000 13 330 16:42 17.11.2019
4195 Clear 0 1030 20 10000 13 330 16:22 17.11.2019
4196 Clear 0 1030 12 10000 12 330 15:57 17.11.2019
4197 Clear 1 1030 15 10000 11 320 15:39 17.11.2019
4198 Clear 2 1030 15 10000 11 320 15:19 17.11.2019
4199 Clear 2 1030 14 10000 9 330 14:57 17.11.2019
4200 Clear 2 1029 13 10000 13 330 14:39 17.11.2019
4201 Clouds 2 1029 13 10000 13 330 14:20 17.11.2019
4202 Clouds 3 1029 12 10000 10 300 13:59 17.11.2019
4203 Clouds 3 1029 12 10000 10 300 13:59 17.11.2019
4204 Sand 3 1028 11 9000 10 290 13:40 17.11.2019
4205 Sand 3 1028 11 9000 10 290 13:19 17.11.2019
4206 Sand 4 1027 13 8000 11 330 12:45 17.11.2019
4207 Sand 5 1026 14 8000 12 330 12:24 17.11.2019
4208 Sand 6 1026 13 8000 12 330 11:59 17.11.2019
4209 Sand 7 1024 13 7000 12 330 11:40 17.11.2019
4210 Sand 7 1024 13 7000 12 330 11:21 17.11.2019
4211 Sand 8 1023 14 7000 10 300 10:56 17.11.2019
4212 Sand 8 1023 14 7000 10 300 10:56 17.11.2019
4213 Sand 8 1021 12 7000 11 280 10:36 17.11.2019
4214 Sand 9 1021 12 7000 11 280 10:18 17.11.2019
4215 Rain 10 1020 14 10000 9 300 09:41 17.11.2019
4216 Rain 10 1020 14 10000 9 300 09:23 17.11.2019
4217 Rain 10 1019 14 10000 9 310 08:44 17.11.2019
4218 Clouds 11 1018 22 10000 9 280 08:24 17.11.2019
4219 Clouds 11 1018 25 8000 8 270 07:56 17.11.2019
4220 Clouds 12 1018 34 8000 5 270 07:38 17.11.2019
4221 Clouds 12 1018 34 8000 5 270 07:19 17.11.2019
4222 Clouds 11 1018 53 6000 4 240 06:47 17.11.2019
4223 Clouds 11 1018 53 6000 3 280 06:27 17.11.2019
4224 Clouds 11 1018 66 6000 2 300 04:50 17.11.2019
4225 Clouds 10 1018 70 7000 2 340 03:58 17.11.2019
4226 Clouds 10 1018 70 7000 2 340 03:58 17.11.2019
4227 Clouds 10 1018 75 7000 3 20 03:33 17.11.2019
4228 Clouds 10 1019 75 7000 3 350 02:41 17.11.2019
4229 Clouds 8 1019 70 7000 4 350 01:49 17.11.2019
4230 Clouds 7 1019 75 8000 4 330 00:57 17.11.2019
4231 Clouds 7 1019 75 8000 1 0 00:23 17.11.2019
4232 Clouds 7 1019 70 10000 1 20 23:54 16.11.2019
4233 Clouds 6 1018 81 10000 2 360 23:36 16.11.2019
4234 Clouds 6 1018 81 10000 2 360 23:18 16.11.2019
4235 Rain 6 1018 81 10000 2 10 22:42 16.11.2019
4236 Rain 6 1018 81 10000 2 10 22:20 16.11.2019
4237 Rain 7 1018 70 10000 1 0 21:58 16.11.2019
4238 Rain 7 1018 75 10000 1 20 21:39 16.11.2019
4239 Rain 7 1018 75 10000 1 20 21:21 16.11.2019
4240 Clouds 7 1018 81 10000 1 0 20:57 16.11.2019
4241 Clouds 7 1019 81 10000 1 0 20:38 16.11.2019
4242 Clouds 7 1019 81 10000 1 0 20:18 16.11.2019
4243 Clouds 7 1019 65 10000 1.36 66 19:41 16.11.2019
4244 Clouds 7 1019 65 10000 1.36 66 19:22 16.11.2019
4245 Clouds 7 1019 65 10000 1 0 18:56 16.11.2019
4246 Clouds 7 1019 65 10000 1 0 18:38 16.11.2019
4247 Clouds 7 1019 65 10000 1 0 18:20 16.11.2019
4248 Clouds 7 1020 65 10000 2 150 17:39 16.11.2019
4249 Clouds 7 1020 65 10000 2 150 17:21 16.11.2019
4250 Clouds 7 1020 61 10000 2 190 16:59 16.11.2019
4251 Clouds 7 1020 61 10000 2 190 16:59 16.11.2019
4252 Clouds 7 1020 61 10000 2 130 16:41 16.11.2019
4253 Clouds 7 1020 61 10000 2 130 16:22 16.11.2019
4254 Clouds 7 1021 65 10000 2 170 15:42 16.11.2019
4255 Clouds 7 1021 70 10000 1 0 15:24 16.11.2019
4256 Clouds 8 1021 70 10000 1 0 14:59 16.11.2019
4257 Clouds 8 1021 65 10000 1 0 14:40 16.11.2019
4258 Clouds 8 1021 65 10000 1 0 14:21 16.11.2019
4259 Clouds 8 1020 65 10000 1 110 13:56 16.11.2019
4260 Clouds 8 1020 65 10000 1 0 13:38 16.11.2019
4261 Clouds 8 1020 65 10000 1 0 13:19 16.11.2019
4262 Clouds 8 1020 75 8000 1 0 12:56 16.11.2019
4263 Clouds 8 1020 70 8000 1 0 12:38 16.11.2019
4264 Clouds 8 1020 70 8000 1 0 12:19 16.11.2019
4265 Clouds 8 1020 65 8000 1.65 107 11:43 16.11.2019
4266 Clouds 8 1020 65 8000 1 0 11:25 16.11.2019
4267 Clouds 8 1020 65 8000 1 0 10:56 16.11.2019
4268 Clouds 8 1020 65 8000 1 0 10:37 16.11.2019
4269 Clouds 8 1020 65 8000 1 0 10:19 16.11.2019
4270 Clouds 8 1020 65 8000 1 0 09:43 16.11.2019
4271 Clouds 8 1020 65 8000 1 0 09:21 16.11.2019
4272 Clouds 8 1019 65 8000 1 0 08:58 16.11.2019
4273 Clouds 8 1019 65 8000 2 110 08:37 16.11.2019
4274 Clouds 8 1019 65 8000 2 110 08:18 16.11.2019
4275 Clouds 8 1020 65 8000 2 100 07:41 16.11.2019
4276 Clouds 9 1020 65 8000 2 100 07:20 16.11.2019
4277 Clouds 9 1020 61 8000 2 110 06:45 16.11.2019
4278 Clouds 9 1020 61 8000 2 170 06:26 16.11.2019
4279 Clouds 9 1021 57 8000 2 120 04:50 16.11.2019
4280 Clouds 9 1021 57 8000 1 0 03:27 16.11.2019
4281 Clouds 9 1021 57 8000 1 0 03:27 16.11.2019
4282 Clouds 8 1021 65 8000 1 0 02:55 16.11.2019
4283 Clouds 7 1021 81 8000 1 60 01:44 16.11.2019
4284 Clouds 7 1021 81 8000 1 60 01:44 16.11.2019
4285 Clouds 7 1021 81 8000 1 60 01:18 16.11.2019
4286 Clouds 6 1020 75 10000 1.3 53 00:41 16.11.2019
4287 Clouds 6 1020 75 10000 1.3 53 00:20 16.11.2019
4288 Clouds 6 1020 75 10000 1.3 53 23:39 15.11.2019
4289 Clouds 6 1020 75 10000 1.06 24 23:20 15.11.2019
4290 Clouds 6 1020 80 10000 1 30 22:55 15.11.2019
4291 Clouds 6 1020 80 10000 1 30 22:55 15.11.2019
4292 Clouds 6 1019 75 10000 1.06 24 22:36 15.11.2019
4293 Clouds 6 1019 75 10000 1.06 24 22:18 15.11.2019
4294 Clouds 6 1019 75 10000 1 0 21:41 15.11.2019
4295 Clouds 6 1019 75 10000 1 0 21:20 15.11.2019
4296 Clouds 6 1019 75 10000 1.06 24 20:59 15.11.2019
4297 Clouds 6 1019 75 10000 1 90 20:40 15.11.2019
4298 Clouds 6 1019 75 10000 1 90 20:21 15.11.2019
4299 Clouds 6 1019 70 10000 1.02 85 19:58 15.11.2019
4300 Clouds 6 1019 70 10000 1 0 19:40 15.11.2019
4301 Clouds 6 1019 70 10000 1 0 19:20 15.11.2019
4302 Clouds 6 1019 70 10000 1 0 18:58 15.11.2019
4303 Clouds 6 1019 70 10000 2 90 18:40 15.11.2019
4304 Clouds 6 1019 70 10000 2 90 18:21 15.11.2019
4305 Clouds 6 1019 70 10000 2 100 17:43 15.11.2019
4306 Clouds 6 1019 70 10000 2 100 17:25 15.11.2019
4307 Clouds 6 1019 70 10000 2 100 17:25 15.11.2019
4308 Clouds 6 1019 70 10000 1 0 16:57 15.11.2019
4309 Clouds 7 1019 50 10000 2 70 16:38 15.11.2019
4310 Clouds 7 1019 50 10000 2 70 16:20 15.11.2019
4311 Clouds 7 1019 50 10000 1 0 15:39 15.11.2019
4312 Clouds 7 1019 50 10000 1 0 15:39 15.11.2019
4313 Clouds 7 1019 50 10000 1 0 15:20 15.11.2019
4314 -273 0 0 0 0 0 14:58 15.11.2019
4315 Clouds 7 1019 70 10000 1 80 14:39 15.11.2019
4316 Clouds 7 1019 70 10000 1 80 14:21 15.11.2019
4317 Clouds 7 1019 70 10000 1 0 13:59 15.11.2019
4318 Clouds 7 1019 70 10000 1 0 13:59 15.11.2019
4319 Clouds 7 1019 45 10000 1 0 13:40 15.11.2019
4320 Clouds 7 1019 46 10000 1 0 13:21 15.11.2019
4321 Clouds 7 1019 46 10000 1 0 12:59 15.11.2019
4322 Clouds 8 1018 65 10000 1 0 12:40 15.11.2019
4323 Clouds 8 1018 65 10000 1 0 12:20 15.11.2019
4324 Clouds 8 1018 61 10000 1 0 11:59 15.11.2019
4325 Clouds 8 1018 61 10000 1 0 11:39 15.11.2019
4326 Clouds 8 1018 61 10000 1 0 11:20 15.11.2019
4327 Clouds 8 1018 61 10000 2 120 10:57 15.11.2019
4328 Clouds 8 1017 51 10000 1 140 10:38 15.11.2019
4329 Clouds 8 1017 51 10000 1 140 10:18 15.11.2019
4330 Clouds 8 1017 51 10000 3 160 09:41 15.11.2019
4331 Clouds 8 1017 51 10000 3 160 09:20 15.11.2019
4332 Clouds 9 1017 49 10000 3 130 08:44 15.11.2019
4333 Clouds 9 1017 49 10000 3 130 08:23 15.11.2019
4334 Clouds 9 1017 49 10000 2 110 07:49 15.11.2019
4335 Clouds 9 1017 42 10000 2 120 07:28 15.11.2019
4336 Clouds 9 1018 45 10000 2 200 06:52 15.11.2019
4337 Clouds 9 1018 48 10000 2 190 06:32 15.11.2019
4338 Clouds 8 1019 48 10000 2 0 05:49 15.11.2019
4339 Clouds 8 1019 52 10000 2 200 05:27 15.11.2019
4340 Clear 7 1020 52 10000 2 0 03:58 15.11.2019
4341 Clear 6 1020 48 10000 2 200 03:25 15.11.2019
4342 Clear 5 1020 52 10000 2 350 02:23 15.11.2019
4343 Clouds 3 1019 86 10000 2 50 01:36 15.11.2019
4344 Clouds 3 1019 86 10000 2 50 01:36 15.11.2019
4345 Clouds 2 1019 86 10000 1.14 103 01:18 15.11.2019
4346 Clouds 0 1018 86 10000 1.14 103 00:34 15.11.2019
4347 Clouds 0 1018 86 10000 1 350 23:57 14.11.2019
4348 Clouds 1 1017 79 10000 2 330 23:38 14.11.2019
4349 Clouds 2 1017 86 10000 1 10 23:18 14.11.2019
4350 Clouds 2 1017 92 10000 1 20 22:40 14.11.2019
4351 Clouds 2 1017 92 10000 1 20 22:21 14.11.2019
4352 Clouds 2 1017 92 10000 1 20 22:21 14.11.2019
4353 Clouds 1 1017 86 10000 1 30 21:57 14.11.2019
4354 Clouds 0 1016 79 10000 1 360 21:38 14.11.2019
4355 Clouds 1 1016 79 10000 1 360 21:38 14.11.2019
4356 Clouds 1 1016 79 10000 1.1 81 21:20 14.11.2019
4357 Clouds 1 1016 79 10000 1 0 20:42 14.11.2019
4358 Clear 3 1016 79 10000 1 0 20:24 14.11.2019
4359 Clear 2 1016 31 10000 2 170 19:59 14.11.2019
4360 Clear 3 1016 31 10000 3 360 19:41 14.11.2019
4361 Clear 3 1016 68 10000 2 360 19:18 14.11.2019
4362 Clear 2 1016 68 10000 2 360 18:56 14.11.2019
4363 Clear 2 1016 59 10000 2 340 18:38 14.11.2019
4364 Clear 2 1016 59 10000 2 340 18:20 14.11.2019
4365 Clear 2 1015 59 10000 5 350 17:56 14.11.2019
4366 Clear 2 1015 59 10000 5 350 17:37 14.11.2019
4367 Clear 2 1015 25 10000 4 350 17:19 14.11.2019
4368 Clear 2 1015 25 10000 4 350 16:57 14.11.2019
4369 Clear 2 1015 25 10000 3 360 16:36 14.11.2019
4370 Clear 2 1015 25 10000 3 360 16:18 14.11.2019
4371 Clear 2 1016 25 10000 3 350 15:56 14.11.2019
4372 Clear 3 1016 55 10000 2 340 15:37 14.11.2019
4373 Clear 3 1016 55 10000 2 340 15:19 14.11.2019
4374 Clear 3 1015 74 10000 2 360 14:44 14.11.2019
4375 Clear 3 1015 74 10000 2 360 14:22 14.11.2019
4376 Clear 3 1015 74 10000 2 360 13:57 14.11.2019
4377 Clear 3 1015 80 10000 2 360 13:38 14.11.2019
4378 Clear 3 1015 80 10000 2 360 13:19 14.11.2019
4379 Clear 4 1015 20 10000 1 0 12:47 14.11.2019
4380 Clear 4 1015 20 10000 1.33 24 12:26 14.11.2019
4381 Clear 4 1014 51 10000 1 0 11:59 14.11.2019
4382 Clear 4 1014 47 10000 1.33 24 11:39 14.11.2019
4383 Clear 4 1014 47 10000 0.33 286 11:20 14.11.2019
4384 Clear 4 1014 47 10000 0.33 286 11:20 14.11.2019
4385 Clear 5 1014 51 10000 0.33 286 10:58 14.11.2019
4386 Clear 5 1014 35 10000 0.33 286 10:39 14.11.2019
4387 Clear 5 1014 35 10000 0.33 286 10:20 14.11.2019
4388 Clear 6 1014 30 10000 1 0 09:56 14.11.2019
4389 Clear 7 1014 26 10000 1 0 09:38 14.11.2019
4390 Clear 7 1014 26 10000 2 0 09:19 14.11.2019
4391 Clear 7 1014 26 10000 2 0 08:47 14.11.2019
4392 Clear 7 1014 26 10000 2 0 08:47 14.11.2019
4393 Clear 7 1014 26 10000 2 0 08:25 14.11.2019
4394 Clear 7 1014 26 10000 1 0 07:45 14.11.2019
4395 Clear 7 1014 28 10000 2 200 07:26 14.11.2019
4396 Clear 7 1015 26 10000 2 0 06:56 14.11.2019
4397 Clear 7 1016 26 10000 2 310 06:37 14.11.2019
4398 Clear 7 1016 26 10000 2 310 06:18 14.11.2019
4399 Clear 5 1020 21 0 0.99 61 04:40 14.11.2019
4400 Clear 2 1021 31 10000 3 80 03:59 14.11.2019
4401 Clear 2 1021 31 10000 3 80 02:43 14.11.2019
4402 Clear 0 1022 25 10000 3 100 01:41 14.11.2019
4403 Clear 0 1022 24 10000 3 100 01:20 14.11.2019
4404 Clear -1 1022 50 10000 2 90 00:48 14.11.2019
4405 Clear -2 1022 54 10000 2 100 00:25 14.11.2019
4406 Clear -2 1023 54 10000 2 90 23:41 13.11.2019
4407 Clear -2 1023 54 10000 2 90 23:21 13.11.2019
4408 Clear -2 1023 54 10000 3 80 22:56 13.11.2019
4409 Clear -3 1024 63 10000 2 80 22:38 13.11.2019
4410 Clear -1 1024 63 10000 2 80 22:20 13.11.2019
4411 Clear -1 1024 63 10000 1 0 21:55 13.11.2019
4412 Clear -1 1024 63 10000 1 0 21:55 13.11.2019
4413 Clear -1 1024 68 10000 1 60 21:37 13.11.2019
4414 Clear -1 1024 68 10000 1 60 21:19 13.11.2019
4415 Clear -1 1025 68 10000 2 50 20:56 13.11.2019
4416 Clear -1 1025 68 10000 2 70 20:37 13.11.2019
4417 Clear -1 1025 68 10000 2 70 20:18 13.11.2019
4418 Clear -1 1026 79 10000 1 40 19:44 13.11.2019
4419 Clear -1 1026 73 10000 1 140 19:20 13.11.2019
4420 Clear -1 1026 73 10000 1 170 18:58 13.11.2019
4421 Clear 0 1027 50 10000 1 0 18:39 13.11.2019
4422 Clear 0 1027 50 10000 1 0 18:21 13.11.2019
4423 Clear 0 1027 46 10000 2 150 17:58 13.11.2019
4424 Clear 0 1027 53 10000 1 0 17:40 13.11.2019
4425 Clear 0 1027 53 10000 1 0 17:22 13.11.2019
4426 Clear 0 1027 53 10000 1 0 17:22 13.11.2019
4427 Clear 0 1027 53 10000 1 0 16:58 13.11.2019
4428 Clear 0 1027 58 10000 1 0 16:40 13.11.2019
4429 Clear 0 1027 58 10000 1 0 16:40 13.11.2019
4430 Clear 0 1027 58 10000 1 0 16:21 13.11.2019
4431 Clear 0 1027 58 10000 1 0 16:21 13.11.2019
4432 Clear 1 1027 39 10000 2 160 15:58 13.11.2019
4433 Clear 1 1027 42 10000 1 110 15:39 13.11.2019
4434 Clear 0 1027 42 10000 1 110 15:20 13.11.2019
4435 Clear 1 1027 54 10000 1 50 14:43 13.11.2019
4436 Clear 1 1027 54 10000 1 50 14:23 13.11.2019
4437 Clear 2 1027 50 10000 2 70 13:59 13.11.2019
4438 Clear 2 1027 9 10000 2 70 13:37 13.11.2019
4439 Clear 3 1027 9 10000 2 70 13:19 13.11.2019
4440 Clear 3 1027 26 10000 2 100 12:56 13.11.2019
4441 Clear 3 1027 50 10000 2 100 12:37 13.11.2019
4442 Clear 3 1027 50 10000 2 100 12:19 13.11.2019
4443 Clear 4 1027 19 10000 2 10 11:41 13.11.2019
4444 Clear 4 1027 19 10000 2 10 11:21 13.11.2019
4445 Clear 4 1027 21 10000 5 350 10:58 13.11.2019
4446 Clear 5 1027 16 10000 6 340 10:40 13.11.2019
4447 Clear 5 1027 16 10000 6 340 10:20 13.11.2019
4448 Clear 5 1027 17 10000 7 350 09:57 13.11.2019
4449 Clear 6 1027 15 10000 5 340 09:38 13.11.2019
4450 Clear 6 1027 15 10000 5 340 09:20 13.11.2019
4451 Clear 7 1027 12 10000 10 300 08:39 13.11.2019
4452 Clear 6 1027 12 10000 10 300 08:20 13.11.2019
4453 Clear 7 1027 11 10000 12 290 07:42 13.11.2019
4454 Clear 7 1027 12 10000 10 300 07:21 13.11.2019
4455 Clear 7 1027 12 10000 11 290 06:47 13.11.2019
4456 Clear 6 1027 13 10000 12 290 06:19 13.11.2019
4457 Clear 6 1027 13 10000 12 290 06:19 13.11.2019
4458 Clear 7 1027 13 10000 9 330 05:57 13.11.2019
4459 Clear 7 1027 16 10000 10 340 05:38 13.11.2019
4460 Clear 7 1027 16 10000 11 340 04:44 13.11.2019
4461 Clear 7 1027 17 10000 13 330 02:28 13.11.2019
4462 Clouds 7 1026 20 10000 12 320 01:46 13.11.2019
4463 Clouds 7 1025 28 10000 10 330 00:57 13.11.2019
4464 Clouds 7 1025 33 10000 10 330 00:36 13.11.2019
4465 Clouds 9 1023 27 10000 11 310 23:42 12.11.2019
4466 Clouds 10 1023 27 10000 11 310 23:22 12.11.2019
4467 Clouds 10 1021 29 10000 6 300 22:58 12.11.2019
4468 Clouds 10 1021 34 10000 4 320 22:40 12.11.2019
4469 Clouds 10 1021 34 10000 4 320 22:18 12.11.2019
4470 Clouds 11 1020 42 10000 3 340 21:44 12.11.2019
4471 Clouds 11 1019 39 10000 3 350 21:25 12.11.2019
4472 Clouds 10 1020 34 10000 3 360 20:58 12.11.2019
4473 Clouds 12 1020 37 10000 4 340 20:38 12.11.2019
4474 Clouds 12 1020 37 10000 4 340 20:19 12.11.2019
4475 Clouds 13 1020 32 10000 5 340 19:58 12.11.2019
4476 Clouds 13 1020 26 10000 9 340 19:39 12.11.2019
4477 Clouds 13 1020 26 10000 9 340 19:19 12.11.2019
4478 Clouds 14 1020 28 10000 6 340 18:59 12.11.2019
4479 Clouds 14 1019 28 10000 7 330 18:40 12.11.2019
4480 Clouds 15 1019 28 10000 7 330 18:22 12.11.2019
4481 Clouds 15 1019 28 10000 7 330 18:22 12.11.2019
4482 Clouds 15 1019 43 10000 4 330 17:58 12.11.2019
4483 Clouds 15 1019 13 10000 4 300 17:39 12.11.2019
4484 Clouds 15 1019 15 10000 4 300 17:21 12.11.2019
4485 Clouds 15 1019 15 10000 4 300 17:21 12.11.2019
4486 Clouds 15 1019 15 10000 4 300 17:21 12.11.2019
4487 Clouds 15 1018 50 8000 3 330 16:57 12.11.2019
4488 Clouds 15 1018 47 8000 3 320 16:39 12.11.2019
4489 Clouds 15 1018 47 8000 3 320 16:21 12.11.2019
4490 Clouds 14 1018 58 7000 2 360 15:42 12.11.2019
4491 Clouds 14 1018 58 7000 2 360 15:21 12.11.2019
4492 Clouds 13 1017 62 7000 2 330 14:57 12.11.2019
4493 Clouds 13 1017 81 6000 2 350 14:37 12.11.2019
4494 Clouds 13 1017 81 6000 2 350 14:19 12.11.2019
4495 Clouds 13 1016 81 6000 1 0 13:56 12.11.2019
4496 Clouds 13 1016 76 6000 1 50 13:37 12.11.2019
4497 Clouds 13 1016 76 6000 1 0 13:18 12.11.2019
4498 Clouds 13 1016 76 6000 1 0 12:43 12.11.2019
4499 Clouds 13 1016 76 7000 1.19 326 12:20 12.11.2019
4500 Clouds 13 1015 71 8000 0.66 295 11:59 12.11.2019
4501 Clouds 13 1015 66 8000 1 0 11:40 12.11.2019
4502 Clouds 13 1015 66 8000 1 0 11:40 12.11.2019
4503 Clouds 13 1015 66 8000 1 0 11:22 12.11.2019
4504 Clouds 13 1015 66 8000 1 0 11:22 12.11.2019
4505 Clouds 14 1015 66 8000 1 0 10:56 12.11.2019
4506 Clouds 15 1015 54 8000 0.2 102 10:38 12.11.2019
4507 Clouds 15 1015 54 8000 0.22 161 10:19 12.11.2019
4508 Clouds 15 1014 41 10000 1 0 09:42 12.11.2019
4509 Clouds 16 1014 41 10000 1 0 09:23 12.11.2019
4510 Clouds 16 1014 41 10000 2 190 08:57 12.11.2019
4511 Clouds 16 1014 41 10000 2 200 08:39 12.11.2019
4512 Clouds 17 1014 41 10000 2 200 08:19 12.11.2019
4513 Clouds 17 1014 41 10000 2 180 07:40 12.11.2019
4514 Clouds 17 1014 41 10000 2 180 07:22 12.11.2019
4515 Clouds 19 1014 39 10000 1 0 06:45 12.11.2019
4516 Clouds 18 1014 38 10000 1 0 06:23 12.11.2019
4517 Clouds 18 1014 41 10000 2 140 05:46 12.11.2019
4518 Clear 15 1017 44 10000 1 0 04:46 12.11.2019
4519 Clear 16 1017 50 10000 1 0 03:40 12.11.2019
4520 Clouds 10 1017 61 10000 1 0 01:47 12.11.2019
4521 Clouds 9 1017 70 10000 1 0 01:22 12.11.2019
4522 Clouds 9 1016 61 10000 2 20 00:47 12.11.2019
4523 Clouds 9 1016 53 10000 2 220 00:28 12.11.2019
4524 Clouds 10 1016 50 10000 2 130 23:44 11.11.2019
4525 Clouds 11 1016 50 10000 2 130 23:23 11.11.2019
4526 Clouds 11 1016 50 10000 2 130 23:23 11.11.2019
4527 Clouds 9 1016 75 10000 2 160 22:57 11.11.2019
4528 Clouds 10 1016 70 10000 2 100 22:36 11.11.2019
4529 Clouds 10 1016 70 10000 2 100 22:18 11.11.2019
4530 Clouds 10 1016 70 10000 2 50 21:57 11.11.2019
4531 Clouds 9 1016 81 10000 2 10 21:38 11.11.2019
4532 Clouds 9 1016 81 10000 2 10 21:19 11.11.2019
4533 Clouds 10 1016 65 10000 1 0 20:42 11.11.2019
4534 Clouds 10 1016 65 10000 1 0 20:20 11.11.2019
4535 Clouds 10 1016 65 10000 2 110 19:59 11.11.2019
4536 Clouds 10 1016 65 10000 2 110 19:41 11.11.2019
4537 Clouds 10 1017 70 10000 1 0 19:18 11.11.2019
4538 Clouds 11 1017 57 10000 2 130 18:56 11.11.2019
4539 Clouds 11 1017 53 10000 2 130 18:37 11.11.2019
4540 Clouds 11 1017 53 10000 2 130 18:19 11.11.2019
4541 Clouds 11 1017 57 10000 3 150 17:42 11.11.2019
4542 Clouds 11 1017 66 10000 2 120 17:24 11.11.2019
4543 Clouds 11 1017 66 10000 2 120 16:43 11.11.2019
4544 Clouds 10 1017 81 10000 1.6 139 16:24 11.11.2019
4545 Clouds 11 1016 70 10000 1 0 15:59 11.11.2019
4546 Clouds 11 1016 70 10000 1 0 15:40 11.11.2019
4547 Clouds 11 1016 70 10000 1 0 15:19 11.11.2019
4548 Clouds 11 1016 70 10000 1 0 15:19 11.11.2019
4549 Clouds 11 1016 70 10000 1 0 15:19 11.11.2019
4550 Clouds 11 1016 70 10000 1 0 14:44 11.11.2019
4551 Clouds 11 1016 75 10000 2 140 14:25 11.11.2019
4552 Clouds 11 1016 81 10000 1 150 13:58 11.11.2019
4553 Clouds 12 1016 81 10000 1 150 13:38 11.11.2019
4554 Clouds 12 1016 75 10000 1 0 13:19 11.11.2019
4555 Clouds 12 1015 75 10000 1 0 12:57 11.11.2019
4556 Clouds 12 1015 61 10000 1 0 12:39 11.11.2019
4557 Clouds 12 1015 75 10000 1 0 12:39 11.11.2019
4558 Clouds 12 1015 61 10000 1 0 12:21 11.11.2019
4559 Clouds 12 1015 61 10000 2 160 11:42 11.11.2019
4560 Clear 14 1015 29 10000 3 170 11:22 11.11.2019
4561 Clear 14 1015 35 10000 3 180 10:58 11.11.2019
4562 Clear 14 1015 35 10000 3 180 10:39 11.11.2019
4563 Clear 15 1014 29 10000 1 0 10:18 11.11.2019
4564 Clear 16 1014 27 10000 3 180 09:55 11.11.2019
4565 Clear 17 1014 23 10000 3 190 09:36 11.11.2019
4566 Clear 17 1014 23 10000 3 190 09:18 11.11.2019
4567 Clear 18 1014 19 10000 2 170 08:39 11.11.2019
4568 Clear 18 1014 17 10000 2 0 08:20 11.11.2019
4569 Clear 18 1014 16 10000 2 310 07:55 11.11.2019
4570 Clear 18 1015 19 10000 2 0 07:36 11.11.2019
4571 Clear 18 1015 19 10000 2 0 07:18 11.11.2019
4572 Clear 19 1015 19 10000 2 330 06:41 11.11.2019
4573 Clear 20 1015 19 10000 2 330 06:21 11.11.2019
4574 Clear 20 1015 19 10000 3 320 05:49 11.11.2019
4575 Clear 15 1016 38 10000 2 340 03:59 11.11.2019
4576 Clear 17 1017 43 10000 2 360 03:22 11.11.2019
4577 Clear 12 1017 53 10000 1 0 02:20 11.11.2019
4578 Clear 11 1016 61 10000 2.29 344 01:52 11.11.2019
4579 Clear 10 1016 81 10000 2 350 01:31 11.11.2019
4580 Clear 8 1015 39 10000 1 10 00:42 11.11.2019
4581 Clear 6 1014 39 10000 1 0 23:59 10.11.2019
4582 Clear 8 1014 39 10000 2 50 23:39 10.11.2019
4583 Clear 8 1014 39 10000 2 50 23:20 10.11.2019
4584 Clear 9 1014 45 10000 3 310 22:57 10.11.2019
4585 Clear 10 1014 40 10000 4 290 22:38 10.11.2019
4586 Clear 9 1014 40 10000 4 290 22:20 10.11.2019
4587 Clear 9 1013 45 10000 3 300 21:57 10.11.2019
4588 Clear 9 1013 40 10000 4 280 21:39 10.11.2019
4589 Clear 9 1013 40 10000 4 280 21:20 10.11.2019
4590 Clear 10 1013 40 10000 4 280 20:43 10.11.2019
4591 Clear 9 1013 33 10000 1 0 20:23 10.11.2019
4592 Clear 9 1013 33 10000 2 160 19:57 10.11.2019
4593 Clear 9 1013 33 10000 2 160 19:38 10.11.2019
4594 Clear 8 1013 75 10000 2 130 19:19 10.11.2019
4595 Clear 8 1013 75 10000 2 130 19:19 10.11.2019
4596 Clear 8 1013 33 10000 1 0 18:58 10.11.2019
4597 Clear 8 1013 33 10000 1 0 18:40 10.11.2019
4598 Clear 8 1013 33 10000 1 0 18:40 10.11.2019
4599 Clear 8 1012 80 10000 1 0 18:20 10.11.2019
4600 Clear 9 1012 80 10000 1 0 17:57 10.11.2019
4601 Clear 10 1012 61 10000 1 0 17:39 10.11.2019
4602 Clear 10 1012 30 10000 2 360 17:20 10.11.2019
4603 Clear 10 1012 61 10000 1 0 17:20 10.11.2019
4604 Clear 10 1012 30 10000 2 360 16:59 10.11.2019
4605 Clear 10 1012 30 10000 2 360 16:41 10.11.2019
4606 Clear 10 1012 30 10000 2 340 16:22 10.11.2019
4607 Clear 11 1012 30 10000 2 330 15:56 10.11.2019
4608 Clear 11 1012 30 10000 2 330 15:56 10.11.2019
4609 Clear 11 1012 70 10000 3 320 15:37 10.11.2019
4610 Clear 11 1012 70 10000 3 320 15:18 10.11.2019
4611 Clear 12 1011 30 10000 1 0 14:56 10.11.2019
4612 Clear 12 1011 46 10000 1 0 14:38 10.11.2019
4613 Clear 13 1011 46 10000 1 0 14:19 10.11.2019
4614 Clear 12 1010 25 10000 3 350 13:44 10.11.2019
4615 Clear 13 1010 53 10000 2 350 13:22 10.11.2019
4616 Clear 13 1010 53 10000 2 350 13:22 10.11.2019
4617 Clear 12 1010 24 10000 2 20 12:59 10.11.2019
4618 Clear 12 1010 24 10000 2 20 12:40 10.11.2019
4619 Clear 14 1010 37 10000 3 340 12:19 10.11.2019
4620 Clear 14 1009 33 10000 5 290 11:55 10.11.2019
4621 Clear 14 1009 33 10000 7 290 11:37 10.11.2019
4622 Clear 15 1009 33 10000 7 290 11:18 10.11.2019
4623 Clear 15 1009 33 10000 7 290 11:18 10.11.2019
4624 Clear 14 1008 33 10000 8 290 10:42 10.11.2019
4625 Clear 15 1008 29 10000 8 290 10:21 10.11.2019
4626 Clear 15 1007 31 10000 8 290 09:56 10.11.2019
4627 Clear 15 1007 31 10000 9 280 09:38 10.11.2019
4628 Clear 15 1007 31 10000 9 280 09:19 10.11.2019
4629 Clear 16 1007 29 10000 10 290 08:39 10.11.2019
4630 Clouds 16 1007 29 10000 10 290 08:20 10.11.2019
4631 Clouds 16 1007 27 10000 7 290 07:45 10.11.2019
4632 Clouds 16 1007 25 10000 10 300 07:26 10.11.2019
4633 Clouds 16 1007 26 10000 11 290 06:57 10.11.2019
4634 Clouds 16 1007 28 10000 12 290 05:55 10.11.2019
4635 Clouds 13 1008 37 10000 11 320 03:31 10.11.2019
4636 Clouds 12 1008 24 10000 10 320 02:27 10.11.2019
4637 Rain 10 1007 70 10000 5 340 01:36 10.11.2019
4638 Rain 9 1007 70 10000 5 340 01:18 10.11.2019
4639 Rain 8 1006 75 10000 8 330 00:23 10.11.2019
4640 Rain 8 1006 75 10000 8 330 00:23 10.11.2019
4641 Rain 8 1006 75 10000 9 320 23:40 09.11.2019
4642 Rain 9 1006 75 10000 10 320 23:19 09.11.2019
4643 Rain 8 1006 75 10000 10 310 22:42 09.11.2019
4644 Rain 9 1006 75 10000 10 310 22:22 09.11.2019
4645 Rain 8 1006 75 10000 10 310 21:58 09.11.2019
4646 Rain 8 1006 75 10000 10 310 21:39 09.11.2019
4647 Rain 8 1006 76 10000 11 310 21:20 09.11.2019
4648 Rain 8 1006 76 10000 10 300 20:56 09.11.2019
4649 Rain 8 1006 81 10000 9 290 20:37 09.11.2019
4650 Rain 9 1006 81 10000 9 290 20:18 09.11.2019
4651 Rain 9 1006 81 10000 7 290 19:41 09.11.2019
4652 Rain 9 1007 81 10000 9 290 19:23 09.11.2019
4653 Rain 9 1008 93 2100 4 290 18:59 09.11.2019
4654 Rain 10 1009 93 1800 5 300 18:39 09.11.2019
4655 Rain 10 1009 93 1800 5 300 18:19 09.11.2019
4656 Rain 10 1009 93 1100 1 0 17:43 09.11.2019
4657 Rain 10 1009 93 1100 1 0 17:23 09.11.2019
4658 Rain 10 1010 93 1500 2 110 16:59 09.11.2019
4659 Rain 10 1011 93 3000 1 0 16:41 09.11.2019
4660 Rain 10 1011 93 3000 1 0 16:20 09.11.2019
4661 Rain 10 1011 93 3000 1 0 16:20 09.11.2019
4662 Rain 10 1012 87 2800 1 0 15:43 09.11.2019
4663 Rain 11 1013 87 2800 1 0 15:24 09.11.2019
4664 Rain 11 1013 87 2800 1 0 14:59 09.11.2019
4665 Rain 11 1013 87 2800 1 0 14:59 09.11.2019
4666 Rain 11 1013 87 2800 1 0 14:40 09.11.2019
4667 Rain 11 1014 76 2800 1 0 14:18 09.11.2019
4668 Rain 12 1014 76 2800 1 0 13:56 09.11.2019
4669 Rain 12 1015 76 3000 1 0 13:36 09.11.2019
4670 Rain 12 1015 76 3000 1 0 13:18 09.11.2019
4671 Rain 12 1015 76 3000 1 0 13:18 09.11.2019
4672 Haze 13 1015 71 3000 1 0 12:42 09.11.2019
4673 Haze 13 1015 71 3000 1 0 12:24 09.11.2019
4674 Haze 13 1016 71 2800 1 0 11:56 09.11.2019
4675 Haze 12 1016 76 2800 1 80 11:38 09.11.2019
4676 Haze 12 1016 76 2800 1 80 11:18 09.11.2019
4677 Haze 12 1016 76 3200 1 90 10:41 09.11.2019
4678 Haze 13 1016 76 3200 1 90 10:19 09.11.2019
4679 Haze 13 1016 71 3200 1 0 09:57 09.11.2019
4680 Haze 13 1017 66 3500 2 100 09:38 09.11.2019
4681 Haze 14 1017 66 3500 2 100 09:18 09.11.2019
4682 Haze 14 1017 66 3500 2 130 08:43 09.11.2019
4683 Haze 14 1017 58 4000 2 130 08:24 09.11.2019
4684 Haze 14 1018 54 4500 1 0 07:48 09.11.2019
4685 Clouds 14 1018 54 6000 2 180 07:24 09.11.2019
4686 Clouds 14 1019 50 6000 1 0 06:56 09.11.2019
4687 Clouds 14 1019 54 7000 1 0 06:38 09.11.2019
4688 Clouds 15 1019 54 7000 1 0 06:19 09.11.2019
4689 Clouds 15 1020 54 8000 2 120 05:37 09.11.2019
4690 Clouds 13 1022 46 10000 1 0 03:57 09.11.2019
4691 Clouds 13 1022 46 10000 1 0 03:57 09.11.2019
4692 Clouds 12 1023 61 10000 1 0 02:46 09.11.2019
4693 Clear 9 1023 24 10000 1 0 02:24 09.11.2019
4694 Clear 6 1023 24 10000 3 360 01:18 09.11.2019
4695 Clear 5 1023 86 10000 2 350 00:39 09.11.2019
4696 Clear 4 1023 86 10000 2 350 00:21 09.11.2019
4697 Clear 4 1023 24 10000 1 10 23:40 08.11.2019
4698 Clear 4 1023 25 10000 1 10 23:22 08.11.2019
4699 Clear 5 1023 86 10000 1 340 22:56 08.11.2019
4700 Clear 5 1023 74 10000 2 350 22:38 08.11.2019
4701 Clear 5 1023 74 10000 2 350 22:19 08.11.2019
4702 Clear 5 1023 86 10000 2 340 21:41 08.11.2019
4703 Clear 5 1023 86 10000 2 340 21:23 08.11.2019
4704 Clear 5 1022 25 10000 2 340 20:57 08.11.2019
4705 Clear 6 1023 25 10000 1 0 20:38 08.11.2019
4706 Clear 6 1023 28 10000 1 0 20:18 08.11.2019
4707 Clear 6 1023 93 10000 1 340 19:40 08.11.2019
4708 Clear 6 1023 93 10000 1 340 19:19 08.11.2019
4709 Clear 6 1023 93 10000 1 340 19:19 08.11.2019
4710 Clear 6 1023 93 10000 2 50 18:57 08.11.2019
4711 Clear 6 1023 93 10000 2 50 18:57 08.11.2019
4712 Clear 6 1023 93 10000 2 50 18:57 08.11.2019
4713 Clear 6 1023 93 10000 2 50 18:57 08.11.2019
4714 Clear 6 1023 93 10000 1 20 18:39 08.11.2019
4715 Clear 6 1023 93 10000 1 20 18:20 08.11.2019
4716 Clear 7 1023 93 10000 1 0 17:56 08.11.2019
4717 Clear 7 1023 93 10000 1 10 17:38 08.11.2019
4718 Clear 6 1023 93 10000 1 10 17:20 08.11.2019
4719 Clear 7 1023 93 10000 1.33 32 16:59 08.11.2019
4720 Clear 7 1023 86 10000 1 70 16:40 08.11.2019
4721 Clear 7 1023 86 10000 1 70 16:21 08.11.2019
4722 Clear 7 1023 86 10000 1 0 15:59 08.11.2019
4723 Clear 8 1023 86 10000 1 0 15:40 08.11.2019
4724 Clear 8 1023 86 10000 1 0 15:22 08.11.2019
4725 Clear 8 1023 86 10000 1 0 15:22 08.11.2019
4726 Clear 8 1023 86 10000 1 0 14:57 08.11.2019
4727 Clear 8 1023 80 10000 1 0 14:38 08.11.2019
4728 Clear 8 1023 80 10000 1 0 14:20 08.11.2019
4729 Clear 8 1023 80 10000 1 0 13:58 08.11.2019
4730 Clear 9 1023 80 10000 1 0 13:39 08.11.2019
4731 Clear 9 1023 80 10000 1 0 13:39 08.11.2019
4732 Clear 9 1023 80 10000 1 0 13:20 08.11.2019
4733 Clear 9 1023 70 10000 1 0 12:45 08.11.2019
4734 Clear 9 1023 70 10000 1 0 12:27 08.11.2019
4735 Clear 9 1022 25 10000 1 0 11:58 08.11.2019
4736 Clear 10 1022 61 10000 1 0 11:40 08.11.2019
4737 Clear 11 1022 61 10000 1 0 11:21 08.11.2019
4738 Clear 11 1022 61 10000 1 0 11:21 08.11.2019
4739 Clear 12 1022 20 10000 1 0 10:58 08.11.2019
4740 Clear 13 1022 30 10000 2 190 10:40 08.11.2019
4741 Clear 15 1022 30 10000 3 190 10:21 08.11.2019
4742 Clear 15 1022 30 10000 3 190 09:56 08.11.2019
4743 Clear 16 1022 26 10000 2 210 09:37 08.11.2019
4744 Clear 16 1022 26 10000 2 210 09:18 08.11.2019
4745 Clear 17 1022 25 10000 2 170 08:44 08.11.2019
4746 Clear 17 1022 25 10000 2 170 08:20 08.11.2019
4747 Clear 16 1022 23 10000 1 0 07:43 08.11.2019
4748 Clear 16 1022 23 10000 1 0 07:23 08.11.2019
4749 Clear 16 1023 23 10000 2 0 06:56 08.11.2019
4750 Clear 16 1023 23 10000 2 0 06:56 08.11.2019
4751 Clear 15 1023 21 10000 1 0 06:36 08.11.2019
4752 Clear 14 1024 28 10000 2 290 06:18 08.11.2019
4753 Clear 14 1024 30 10000 2 300 05:25 08.11.2019
4754 Clear 12 1026 37 10000 2 320 04:28 08.11.2019
4755 Clear 10 1026 43 10000 3 320 03:42 08.11.2019
4756 Clear 10 1026 43 10000 3 320 03:42 08.11.2019
4757 Clear 9 1026 49 10000 3 330 02:55 08.11.2019
4758 Clear 6 1026 60 10000 4 330 01:54 08.11.2019
4759 Clear 4 1026 30 10000 2 360 01:35 08.11.2019
4760 Clear 3 1026 74 10000 3 330 00:45 08.11.2019
4761 Clear 4 1025 80 10000 2 320 00:21 08.11.2019
4762 Clear 3 1025 80 10000 2 330 23:48 07.11.2019
4763 Clear 3 1025 34 10000 1 330 23:27 07.11.2019
4764 Clear 3 1025 34 10000 2 350 22:57 07.11.2019
4765 Clear 3 1025 92 10000 2 350 22:39 07.11.2019
4766 Clear 3 1025 92 10000 2 350 22:20 07.11.2019
4767 Clear 3 1025 92 10000 1 350 21:39 07.11.2019
4768 Clear 3 1025 92 10000 1 350 21:21 07.11.2019
4769 Clear 3 1025 92 10000 1.34 21 20:59 07.11.2019
4770 Clear 3 1025 92 10000 1.34 21 20:40 07.11.2019
4771 Clear 3 1025 92 10000 1.34 21 20:40 07.11.2019
4772 Clear 3 1025 92 10000 1.28 29 20:22 07.11.2019
4773 Clear 3 1026 38 10000 1 19 19:58 07.11.2019
4774 Clear 4 1026 38 10000 1 0 19:39 07.11.2019
4775 Clear 4 1026 38 10000 1 0 19:20 07.11.2019
4776 Clear 4 1026 38 10000 1 50 18:57 07.11.2019
4777 Clear 4 1026 38 10000 1 0 18:38 07.11.2019
4778 Clear 4 1026 38 10000 1 0 18:38 07.11.2019
4779 Clear 4 1026 38 10000 1 0 18:19 07.11.2019
4780 Clear 5 1026 38 10000 1 80 17:56 07.11.2019
4781 Clear 5 1026 38 10000 1 80 17:37 07.11.2019
4782 Clear 5 1026 80 10000 2 50 17:19 07.11.2019
4783 Clear 5 1026 80 10000 2 50 16:55 07.11.2019
4784 Clear 5 1026 32 10000 1 60 16:37 07.11.2019
4785 Clear 5 1026 32 10000 1 60 16:18 07.11.2019
4786 Clear 6 1026 32 10000 1 70 15:40 07.11.2019
4787 Clear 6 1026 32 10000 1 70 15:21 07.11.2019
4788 Clear 7 1026 32 10000 1 0 14:58 07.11.2019
4789 Clear 7 1026 32 10000 1 0 14:38 07.11.2019
4790 Clear 7 1026 65 10000 2 150 14:20 07.11.2019
4791 Clear 7 1026 65 10000 2 150 13:55 07.11.2019
4792 Clear 8 1026 56 10000 1 0 13:37 07.11.2019
4793 Clear 9 1026 56 10000 1 0 13:18 07.11.2019
4794 Clear 9 1026 43 10000 3 190 12:56 07.11.2019
4795 Clear 9 1026 40 10000 3 190 12:38 07.11.2019
4796 Clear 10 1026 40 10000 3 180 12:18 07.11.2019
4797 Clear 10 1026 37 10000 4 180 11:41 07.11.2019
4798 Clear 10 1026 37 10000 4 180 11:22 07.11.2019
4799 Clear 11 1026 32 10000 3 190 10:42 07.11.2019
4800 Clear 11 1026 32 10000 3 190 10:42 07.11.2019
4801 Clear 12 1026 32 10000 3 190 10:19 07.11.2019
4802 Clear 12 1026 32 10000 3 190 10:19 07.11.2019
4803 Clear 12 1026 32 10000 3 190 10:19 07.11.2019
4804 Clear 12 1026 34 10000 4 190 09:55 07.11.2019
4805 Clear 13 1026 30 10000 3 190 09:37 07.11.2019
4806 Clear 13 1026 28 10000 3 190 09:19 07.11.2019
4807 -273 0 0 0 0 0 08:41 07.11.2019
4808 Clear 13 1026 26 10000 4 170 08:41 07.11.2019
4809 Clear 13 1026 26 10000 4 170 08:22 07.11.2019
4810 Clear 13 1026 22 10000 3 210 07:56 07.11.2019
4811 Clear 13 1026 22 10000 2 200 07:38 07.11.2019
4812 Clear 14 1026 22 10000 2 200 07:20 07.11.2019
4813 Clear 14 1027 24 10000 3 210 06:45 07.11.2019
4814 Clear 13 1027 24 10000 3 210 06:25 07.11.2019
4815 Clear 14 1028 23 10000 1 0 05:49 07.11.2019
4816 Clear 14 1028 22 10000 2 0 05:31 07.11.2019
4817 Clear 11 1029 21 10000 2 250 04:51 07.11.2019
4818 Clear 12 1029 20 10000 1 0 04:51 07.11.2019
4819 Clear 12 1029 20 10000 1 0 04:29 07.11.2019
4820 Clear 7 1029 24 10000 3 40 01:28 07.11.2019
4821 Clear 7 1028 30 10000 4 30 00:32 07.11.2019
4822 Clear 7 1027 26 10000 4 40 23:59 06.11.2019
4823 Clear 7 1027 28 10000 5 20 23:40 06.11.2019
4824 Clear 7 1027 28 10000 5 20 23:20 06.11.2019
4825 Clear 8 1026 36 10000 5 20 22:40 06.11.2019
4826 Clear 8 1026 36 10000 5 20 22:21 06.11.2019
4827 Clear 8 1026 39 10000 5 20 21:58 06.11.2019
4828 Clear 9 1025 45 10000 4 20 21:39 06.11.2019
4829 Clear 8 1025 45 10000 4 20 21:20 06.11.2019
4830 Clear 8 1025 49 10000 4 20 20:57 06.11.2019
4831 Clear 8 1025 27 10000 3 30 20:39 06.11.2019
4832 Clouds 8 1024 70 10000 2 50 20:20 06.11.2019
4833 Clouds 8 1024 70 10000 2 50 19:58 06.11.2019
4834 Clouds 8 1024 93 10000 3 30 19:37 06.11.2019
4835 Clouds 8 1023 93 7000 1 0 19:19 06.11.2019
4836 Clouds 8 1023 93 7000 1 0 18:56 06.11.2019
4837 Clouds 8 1023 93 7000 1 0 18:38 06.11.2019
4838 Clouds 8 1023 93 7000 1 0 18:18 06.11.2019
4839 Clouds 8 1022 93 7000 2 350 17:42 06.11.2019
4840 Clouds 8 1022 93 7000 2 350 17:42 06.11.2019
4841 Clouds 8 1022 93 7000 2 350 17:24 06.11.2019
4842 Clear 8 1022 93 7000 1 0 16:58 06.11.2019
4843 Clear 8 1021 93 7000 1 0 16:39 06.11.2019
4844 Clear 8 1021 93 7000 1 0 16:21 06.11.2019
4845 Clear 9 1021 87 7000 3 350 15:58 06.11.2019
4846 Clear 9 1020 93 7000 3 350 15:38 06.11.2019
4847 Clear 9 1020 93 7000 3 350 15:19 06.11.2019
4848 Clear 9 1020 87 7000 2 340 14:59 06.11.2019
4849 Clear 9 1020 93 7000 2 20 14:41 06.11.2019
4850 Clouds 9 1020 93 7000 2 20 14:22 06.11.2019
4851 Clouds 9 1019 87 7000 1 0 13:59 06.11.2019
4852 Clouds 9 1019 93 7000 1 50 13:38 06.11.2019
4853 Clouds 10 1019 93 7000 1 50 13:19 06.11.2019
4854 Clouds 10 1018 93 7000 2 350 12:55 06.11.2019
4855 Clouds 10 1018 87 7000 1 0 12:37 06.11.2019
4856 Clouds 10 1018 87 7000 1 0 12:18 06.11.2019
4857 Clouds 10 1018 87 7000 1 0 12:18 06.11.2019
4858 Clouds 11 1017 87 7000 1 0 11:57 06.11.2019
4859 Clouds 11 1017 93 7000 1 60 11:36 06.11.2019
4860 Clear 11 1017 93 7000 1 60 11:18 06.11.2019
4861 Clear 12 1017 87 7000 1 60 10:55 06.11.2019
4862 Clear 12 1016 81 7000 1 0 10:37 06.11.2019
4863 Clear 12 1016 81 7000 1 0 10:18 06.11.2019
4864 Clear 13 1016 62 10000 1 0 09:41 06.11.2019
4865 Clear 14 1016 62 10000 1 0 09:21 06.11.2019
4866 Clear 14 1016 62 10000 2 130 08:56 06.11.2019
4867 Clear 14 1016 66 10000 2 130 08:38 06.11.2019
4868 Clouds 14 1016 66 10000 2 130 08:18 06.11.2019
4869 Clouds 14 1016 62 10000 1 0 07:47 06.11.2019
4870 Clouds 15 1016 58 10000 2 80 07:29 06.11.2019
4871 Clouds 15 1017 58 10000 1 0 06:54 06.11.2019
4872 Clouds 15 1017 58 10000 1 0 06:36 06.11.2019
4873 Clouds 14 1017 62 10000 1 0 05:58 06.11.2019
4874 Clouds 13 1019 71 10000 1 0 03:48 06.11.2019
4875 Clouds 10 1020 76 10000 1 0 01:59 06.11.2019
4876 Clouds 10 1020 76 10000 1 100 00:51 06.11.2019
4877 Clouds 10 1020 76 10000 1 0 00:26 06.11.2019
4878 Clouds 9 1020 81 10000 1 100 23:56 05.11.2019
4879 Clouds 9 1020 81 10000 1.07 161 23:37 05.11.2019
4880 Clouds 9 1020 81 10000 1.07 161 23:37 05.11.2019
4881 Clouds 9 1020 81 10000 1.6 123 23:18 05.11.2019
4882 Clouds 9 1020 81 10000 1.6 123 23:18 05.11.2019
4883 Clouds 9 1020 76 10000 1 120 22:41 05.11.2019
4884 Clouds 9 1020 76 10000 1 120 22:19 05.11.2019
4885 Clouds 9 1020 76 10000 1 90 21:57 05.11.2019
4886 Clouds 9 1020 76 10000 1 80 21:39 05.11.2019
4887 Clouds 9 1020 76 10000 1 80 21:19 05.11.2019
4888 Clouds 9 1020 76 10000 1 0 20:56 05.11.2019
4889 Clouds 9 1021 76 10000 1 100 20:38 05.11.2019
4890 Clouds 9 1021 76 10000 1 100 20:19 05.11.2019
4891 Clouds 10 1021 76 10000 1 0 19:42 05.11.2019
4892 Clouds 10 1021 76 10000 1 0 19:23 05.11.2019
4893 Clouds 10 1022 76 10000 1 80 18:59 05.11.2019
4894 Clouds 10 1022 76 10000 1 0 18:40 05.11.2019
4895 Clouds 10 1022 76 10000 1 0 18:22 05.11.2019
4896 Clouds 10 1022 81 10000 2 80 17:59 05.11.2019
4897 Clouds 9 1022 87 10000 2 90 17:39 05.11.2019
4898 Clouds 9 1022 87 10000 1 90 17:20 05.11.2019
4899 Clouds 9 1022 87 10000 1 90 16:57 05.11.2019
4900 Clouds 9 1022 87 10000 1 90 16:57 05.11.2019
4901 Clouds 9 1022 87 10000 1 90 16:57 05.11.2019
4902 Clouds 10 1022 87 10000 2 70 16:39 05.11.2019
4903 Clouds 9 1022 87 10000 2 70 16:20 05.11.2019
4904 Clouds 10 1023 75 10000 1 160 15:39 05.11.2019
4905 Clouds 10 1023 75 10000 1 160 15:20 05.11.2019
4906 Clouds 10 1023 75 10000 1 160 15:20 05.11.2019
4907 Clouds 10 1023 75 10000 1 160 15:20 05.11.2019
4908 Clouds 10 1023 70 10000 1 0 14:59 05.11.2019
4909 Clouds 10 1023 71 10000 2 130 14:40 05.11.2019
4910 Clouds 11 1023 71 10000 2 130 14:22 05.11.2019
4911 Clouds 11 1022 66 10000 3 130 13:58 05.11.2019
4912 Clouds 11 1022 66 10000 3 130 13:58 05.11.2019
4913 Clouds 11 1022 62 10000 3 130 13:39 05.11.2019
4914 Clouds 11 1022 62 10000 3 130 13:21 05.11.2019
4915 Clouds 12 1022 58 10000 3 130 12:40 05.11.2019
4916 Clouds 13 1022 58 10000 3 130 12:21 05.11.2019
4917 Clouds 13 1022 54 10000 3 140 11:56 05.11.2019
4918 Clouds 13 1022 54 10000 3 140 11:38 05.11.2019
4919 Clouds 13 1022 54 10000 3 140 11:19 05.11.2019
4920 Clouds 14 1021 54 10000 2 140 10:48 05.11.2019
4921 Clouds 14 1021 47 10000 2 140 10:27 05.11.2019
4922 Clouds 14 1021 47 10000 2 140 10:27 05.11.2019
4923 Clouds 15 1022 44 10000 2 140 09:59 05.11.2019
4924 Clouds 16 1022 41 10000 3 160 09:41 05.11.2019
4925 Clouds 16 1022 41 10000 3 160 09:21 05.11.2019
4926 Clouds 16 1022 41 10000 4 150 08:59 05.11.2019
4927 Clouds 17 1022 39 10000 4 150 08:37 05.11.2019
4928 Clear 17 1022 39 10000 4 150 08:19 05.11.2019
4929 Clear 17 1022 42 10000 3 160 07:46 05.11.2019
4930 Clear 17 1023 42 10000 4 150 07:26 05.11.2019
4931 Clear 17 1023 42 10000 4 160 06:52 05.11.2019
4932 Clear 18 1023 45 10000 3 130 06:33 05.11.2019
4933 Clear 17 1024 42 10000 4 160 05:49 05.11.2019
4934 Clear 16 1025 44 10000 4 130 05:21 05.11.2019
4935 Clear 15 1026 44 10000 4 140 04:23 05.11.2019
4936 Clear 16 1026 47 10000 3 120 03:32 05.11.2019
4937 Clear 14 1026 47 10000 4 20 02:43 05.11.2019
4938 Clear 11 1025 54 10000 5 10 01:56 05.11.2019
4939 Clear 9 1024 81 10000 3 350 00:48 05.11.2019
4940 Clear 7 1024 93 8000 4 340 00:27 05.11.2019
4941 Clear 7 1024 93 8000 4 350 23:43 04.11.2019
4942 Clear 7 1023 93 8000 4 350 23:20 04.11.2019
4943 Clear 7 1023 93 8000 3 340 22:59 04.11.2019
4944 Clear 7 1023 93 8000 3 340 22:40 04.11.2019
4945 Clear 7 1023 93 8000 3 340 22:21 04.11.2019
4946 Clear 7 1023 93 8000 2 330 21:55 04.11.2019
4947 Clear 7 1023 93 8000 3 340 21:37 04.11.2019
4948 Clear 7 1023 93 8000 3 340 21:37 04.11.2019
4949 Clear 8 1023 93 8000 3 340 21:19 04.11.2019
4950 Clear 8 1023 93 8000 2 340 20:57 04.11.2019
4951 Clear 7 1023 100 8000 2 350 20:38 04.11.2019
4952 Clear 7 1023 100 8000 2 350 20:20 04.11.2019
4953 Clear 8 1023 93 8000 2 340 19:57 04.11.2019
4954 Clear 7 1023 93 7000 1 350 19:39 04.11.2019
4955 Clear 8 1023 93 7000 1 350 19:21 04.11.2019
4956 Clear 7 1023 93 7000 1 10 18:56 04.11.2019
4957 Clear 7 1023 93 7000 1 10 18:56 04.11.2019
4958 Clear 8 1023 93 7000 1 10 18:37 04.11.2019
4959 Clear 8 1023 93 7000 1 10 18:18 04.11.2019
4960 Clear 8 1023 93 8000 1 0 17:39 04.11.2019
4961 Clear 8 1023 93 8000 1 0 17:21 04.11.2019
4962 Clear 8 1023 93 8000 1.34 34 16:57 04.11.2019
4963 Clear 9 1023 93 8000 1 20 16:39 04.11.2019
4964 Clear 9 1023 93 8000 1 20 16:20 04.11.2019
4965 Clear 9 1024 100 8000 1 50 15:54 04.11.2019
4966 Clear 9 1024 93 8000 1 0 15:36 04.11.2019
4967 Clear 10 1024 93 8000 1 0 15:18 04.11.2019
4968 Clear 10 1023 87 8000 1 0 14:41 04.11.2019
4969 Clear 10 1023 87 8000 1 0 14:21 04.11.2019
4970 Clear 11 1023 81 8000 2 0 13:58 04.11.2019
4971 Clear 11 1023 87 8000 2 200 13:40 04.11.2019
4972 Clear 10 1023 87 8000 2 200 13:21 04.11.2019
4973 Clear 10 1023 87 8000 2 200 13:21 04.11.2019
4974 Clear 11 1023 81 8000 1 0 12:58 04.11.2019
4975 Clear 12 1023 87 8000 2 150 12:39 04.11.2019
4976 Clear 12 1023 87 8000 2 150 12:21 04.11.2019
4977 Clear 13 1023 66 8000 2 190 11:55 04.11.2019
4978 Clear 13 1023 71 8000 2 170 11:37 04.11.2019
4979 Clear 13 1023 71 8000 2 170 11:19 04.11.2019
4980 Clear 14 1023 58 8000 2 190 10:42 04.11.2019
4981 Clear 15 1023 58 8000 2 190 10:24 04.11.2019
4982 Clear 15 1023 55 10000 3 200 09:46 04.11.2019
4983 Clear 16 1023 55 10000 3 210 09:28 04.11.2019
4984 Clear 16 1023 55 10000 3 210 09:28 04.11.2019
4985 Clear 16 1023 51 10000 3 200 08:59 04.11.2019
4986 Clear 16 1023 48 10000 2 190 08:38 04.11.2019
4987 Clear 16 1023 48 10000 2 190 08:38 04.11.2019
4988 Clear 17 1023 48 10000 2 190 08:20 04.11.2019
4989 Clear 16 1024 48 10000 2 0 07:44 04.11.2019
4990 Clear 17 1024 51 10000 3 200 07:24 04.11.2019
4991 Clear 17 1024 51 10000 2 210 06:57 04.11.2019
4992 Clear 17 1025 51 10000 2 230 06:34 04.11.2019
4993 Clear 16 1025 54 10000 1 0 05:57 04.11.2019
4994 Clear 14 1026 50 10000 1 0 04:45 04.11.2019
4995 Clear 13 1027 54 10000 1 0 04:21 04.11.2019
4996 Clear 12 1028 75 10000 1 0 02:34 04.11.2019
4997 Clear 8 1028 93 10000 2 350 01:22 04.11.2019
4998 Clear 6 1028 100 10000 1 0 00:43 04.11.2019
4999 Clear 5 1027 100 10000 2 350 00:21 04.11.2019
5000 Clear 5 1027 100 10000 2 350 00:21 04.11.2019
5001 Clear 5 1027 100 10000 1 0 23:44 03.11.2019
5002 Clear 5 1027 100 10000 1 350 23:44 03.11.2019
5003 Clear 5 1027 100 10000 1 350 23:22 03.11.2019
5004 Clear 5 1027 100 10000 1 20 22:59 03.11.2019
5005 Clear 6 1027 100 10000 1 350 22:41 03.11.2019
5006 Clear 5 1027 100 10000 1 350 22:21 03.11.2019
5007 Clear 6 1027 93 10000 1 350 21:58 03.11.2019
5008 Clear 6 1028 93 10000 0.38 86 21:40 03.11.2019
5009 Clear 6 1028 93 10000 0.38 86 21:20 03.11.2019
5010 Clear 6 1028 93 10000 0.38 86 20:56 03.11.2019
5011 Clear 6 1028 93 10000 0.38 86 20:36 03.11.2019
5012 Clear 6 1028 93 10000 1.05 136 20:18 03.11.2019
5013 Clear 6 1028 93 10000 1 10 19:56 03.11.2019
5014 Clear 6 1028 93 10000 1 0 19:37 03.11.2019
5015 Clear 7 1028 93 10000 1 0 19:19 03.11.2019
5016 Clear 7 1028 93 10000 1 70 18:39 03.11.2019
5017 Clear 6 1028 93 10000 1 70 18:19 03.11.2019
5018 Clear 6 1028 93 10000 1 0 17:58 03.11.2019
5019 Clear 6 1028 93 10000 1 0 17:40 03.11.2019
5020 Clear 7 1028 93 10000 1 0 17:19 03.11.2019
5021 Clear 8 1028 93 10000 1.32 189 16:56 03.11.2019
5022 Clear 8 1029 93 10000 1 0 16:38 03.11.2019
5023 Clear 8 1029 93 10000 1 0 16:19 03.11.2019
5024 Clear 8 1029 93 10000 1 0 15:56 03.11.2019
5025 Clear 8 1029 93 10000 1 80 15:38 03.11.2019
5026 Clear 8 1029 93 10000 1 80 15:20 03.11.2019
5027 Clear 9 1029 93 10000 1 0 14:41 03.11.2019
5028 Clouds 9 1029 93 10000 1 0 14:19 03.11.2019
5029 Clouds 9 1029 93 10000 1 0 13:56 03.11.2019
5030 Clouds 9 1029 87 10000 1 0 13:37 03.11.2019
5031 Clear 9 1029 87 10000 1 0 13:18 03.11.2019
5032 Clear 10 1028 81 10000 1.71 198 12:38 03.11.2019
5033 Clear 10 1028 81 10000 1.71 198 12:19 03.11.2019
5034 Clear 11 1028 70 10000 2 290 11:56 03.11.2019
5035 Clear 10 1028 70 10000 2 290 11:56 03.11.2019
5036 Clear 12 1028 54 10000 2 0 11:38 03.11.2019
5037 Clear 12 1028 54 10000 2 0 11:19 03.11.2019
5038 Clear 12 1028 47 10000 3 250 10:42 03.11.2019
5039 Clear 13 1028 47 10000 3 250 10:22 03.11.2019
5040 Clear 13 1028 47 10000 3 250 10:22 03.11.2019
5041 Clear 13 1028 47 10000 3 250 10:22 03.11.2019
5042 Clear 13 1028 47 10000 3 250 10:22 03.11.2019
5043 Clear 13 1028 43 10000 1 0 09:58 03.11.2019
5044 Clear 13 1028 33 10000 2 310 09:40 03.11.2019
5045 Clear 13 1028 33 10000 2 310 09:22 03.11.2019
5046 Clear 14 1028 33 10000 2 360 08:48 03.11.2019
5047 Clouds 14 1028 35 10000 3 320 08:25 03.11.2019
5048 Clouds 14 1028 35 10000 4 320 07:47 03.11.2019
5049 Clouds 13 1028 41 10000 3 350 07:29 03.11.2019
5050 Clouds 14 1028 28 10000 3 350 06:54 03.11.2019
5051 Clouds 13 1028 43 10000 2 20 06:35 03.11.2019
5052 Clouds 13 1029 28 10000 3 10 05:40 03.11.2019
5053 Clouds 12 1029 41 10000 3 10 05:18 03.11.2019
5054 Clouds 12 1029 46 10000 3 10 04:45 03.11.2019
5055 Rain 12 1029 53 10000 4 30 03:39 03.11.2019
5056 Clouds 11 1029 62 10000 4 20 02:46 03.11.2019
5057 Rain 11 1029 57 10000 3 30 02:21 03.11.2019
5058 Rain 11 1029 62 10000 3 30 01:44 03.11.2019
5059 Rain 11 1028 62 10000 3 30 01:21 03.11.2019
5060 Rain 11 1028 62 10000 3 20 00:46 03.11.2019
5061 Rain 11 1027 62 10000 3 30 00:28 03.11.2019
5062 Rain 11 1027 66 10000 3 20 23:58 02.11.2019
5063 Rain 11 1027 71 10000 3 30 23:39 02.11.2019
5064 Rain 11 1027 71 10000 3 30 23:19 02.11.2019
5065 Rain 11 1026 71 10000 3 30 22:56 02.11.2019
5066 Rain 11 1026 71 10000 3 30 22:56 02.11.2019
5067 Rain 11 1026 71 10000 3 30 22:38 02.11.2019
5068 Rain 11 1026 71 10000 3 30 22:19 02.11.2019
5069 Rain 11 1026 76 10000 4 30 21:56 02.11.2019
5070 Rain 11 1025 76 10000 4 20 21:38 02.11.2019
5071 Rain 12 1025 76 10000 4 20 21:18 02.11.2019
5072 Rain 12 1025 76 10000 4 20 21:18 02.11.2019
5073 Rain 12 1025 76 10000 4 20 21:18 02.11.2019
5074 Rain 12 1025 76 10000 4 20 21:18 02.11.2019
5075 Rain 12 1025 87 10000 3 10 20:59 02.11.2019
5076 Rain 12 1025 81 10000 2 20 20:40 02.11.2019
5077 Rain 12 1025 81 10000 2 20 20:20 02.11.2019
5078 Rain 12 1025 87 10000 3 20 19:55 02.11.2019
5079 Rain 12 1025 87 10000 3 10 19:36 02.11.2019
5080 Rain 12 1025 87 10000 3 10 19:18 02.11.2019
5081 Rain 12 1025 87 10000 3 20 18:43 02.11.2019
5082 Rain 12 1024 87 10000 3 20 18:24 02.11.2019
5083 Rain 12 1024 87 10000 3 10 17:59 02.11.2019
5084 Rain 12 1024 87 10000 3 10 17:40 02.11.2019
5085 Rain 12 1024 87 10000 3 10 17:22 02.11.2019
5086 Rain 12 1024 87 10000 3 10 17:22 02.11.2019
5087 Rain 12 1024 93 10000 2 360 16:58 02.11.2019
5088 Rain 12 1023 93 10000 3 350 16:38 02.11.2019
5089 Rain 12 1023 93 10000 3 350 16:20 02.11.2019
5090 Rain 12 1023 93 10000 3 350 15:42 02.11.2019
5091 Rain 12 1023 93 8000 2 360 15:20 02.11.2019
5092 Rain 12 1023 87 8000 3 350 14:56 02.11.2019
5093 Rain 12 1022 87 8000 4 350 14:38 02.11.2019
5094 Rain 12 1022 87 8000 4 350 14:20 02.11.2019
5095 Rain 12 1022 87 10000 4 350 13:40 02.11.2019
5096 Rain 12 1022 87 10000 4 350 13:20 02.11.2019
5097 Rain 13 1022 76 10000 4 350 12:57 02.11.2019
5098 Rain 13 1021 71 10000 5 360 12:38 02.11.2019
5099 Rain 13 1021 71 10000 5 360 12:19 02.11.2019
5100 Rain 13 1021 71 10000 3 350 11:42 02.11.2019
5101 Rain 13 1021 71 10000 3 350 11:24 02.11.2019
5102 Clouds 13 1021 71 10000 2 350 10:57 02.11.2019
5103 Clouds 13 1020 71 10000 2 360 10:39 02.11.2019
5104 Clouds 14 1020 71 10000 2 360 10:18 02.11.2019
5105 Clouds 14 1020 71 10000 2 360 10:18 02.11.2019
5106 Clouds 14 1020 67 10000 3 350 09:42 02.11.2019
5107 Clouds 14 1020 67 10000 3 350 09:22 02.11.2019
5108 Clouds 14 1020 67 10000 3 10 08:52 02.11.2019
5109 Rain 14 1020 67 10000 2 360 08:25 02.11.2019
5110 Rain 14 1020 71 10000 2 360 07:58 02.11.2019
5111 Rain 14 1020 71 10000 2 350 07:40 02.11.2019
5112 Rain 14 1020 71 10000 2 350 07:40 02.11.2019
5113 Rain 14 1020 71 10000 2 350 07:22 02.11.2019
5114 Rain 15 1020 71 10000 2 350 06:50 02.11.2019
5115 Rain 14 1020 71 10000 3 350 06:22 02.11.2019
5116 Rain 14 1021 58 10000 3 350 05:41 02.11.2019
5117 Rain 13 1022 54 10000 2 360 04:24 02.11.2019
5118 Rain 14 1022 54 10000 2 360 03:51 02.11.2019
5119 Rain 14 1022 58 10000 3 320 03:30 02.11.2019
5120 Rain 14 1022 58 10000 3 320 03:30 02.11.2019
5121 Rain 13 1023 71 10000 4 350 02:29 02.11.2019
5122 Clouds 12 1023 66 10000 3 340 01:29 02.11.2019
5123 Clouds 11 1023 71 10000 1 0 00:57 02.11.2019
5124 Clouds 11 1022 76 10000 3 340 00:30 02.11.2019
5125 Clouds 11 1022 76 10000 1 0 23:57 01.11.2019
5126 Clouds 11 1022 81 10000 2 20 23:39 01.11.2019
5127 Clouds 11 1022 81 10000 2 20 23:19 01.11.2019
5128 Rain 11 1022 81 10000 1 0 22:42 01.11.2019
5129 Clouds 11 1022 76 10000 1 0 22:21 01.11.2019
5130 Rain 11 1022 76 10000 1.09 45 21:43 01.11.2019
5131 Rain 11 1022 76 10000 1.09 45 21:24 01.11.2019
5132 Rain 11 1022 71 10000 1 0 20:59 01.11.2019
5133 Clouds 11 1022 66 10000 1 0 20:41 01.11.2019
5134 Clouds 12 1022 66 10000 1 0 20:23 01.11.2019
5135 Clouds 12 1023 71 10000 1 60 19:59 01.11.2019
5136 Clouds 12 1023 71 10000 1 60 19:59 01.11.2019
5137 Clouds 12 1023 71 10000 1 60 19:59 01.11.2019
5138 Clouds 12 1023 71 10000 1 60 19:59 01.11.2019
5139 Clouds 12 1023 71 10000 1 60 19:40 01.11.2019
5140 Clouds 12 1023 71 10000 1 60 19:21 01.11.2019
5141 Clouds 12 1024 66 10000 2 70 18:41 01.11.2019
5142 Clouds 12 1024 66 10000 2 70 18:21 01.11.2019
5143 Clouds 12 1024 66 10000 2 90 17:59 01.11.2019
5144 Clouds 12 1024 66 10000 2 70 17:41 01.11.2019
5145 Clouds 13 1024 66 10000 2 70 17:22 01.11.2019
5146 Clouds 12 1024 71 10000 1 0 16:40 01.11.2019
5147 Clouds 12 1024 71 10000 1 0 16:20 01.11.2019
5148 Clouds 13 1024 71 10000 1 0 15:58 01.11.2019
5149 Clouds 13 1025 66 10000 1 80 15:40 01.11.2019
5150 Clouds 13 1025 66 10000 1 80 15:22 01.11.2019
5151 Clouds 13 1025 58 10000 1 130 14:44 01.11.2019
5152 Clouds 14 1025 54 10000 2 160 14:26 01.11.2019
5153 Clouds 14 1025 54 10000 2 170 14:00 01.11.2019
5154 Clouds 13 1025 54 10000 2 160 13:41 01.11.2019
5155 Clouds 13 1025 54 10000 2 160 13:22 01.11.2019
5156 Clouds 13 1025 66 10000 1 0 12:56 01.11.2019
5157 Clouds 13 1025 76 10000 2 150 12:37 01.11.2019
5158 Clouds 13 1025 76 10000 2 150 12:37 01.11.2019
5159 Clouds 13 1025 76 10000 2 150 12:19 01.11.2019
5160 Clouds 15 1024 66 10000 1 0 11:42 01.11.2019
5161 Clouds 15 1024 66 10000 1 0 11:24 01.11.2019
5162 Clouds 15 1024 66 10000 1.76 133 10:55 01.11.2019
5163 Clouds 16 1024 62 10000 1 80 10:37 01.11.2019
5164 Clouds 16 1024 62 10000 1 80 10:18 01.11.2019
5165 Clouds 17 1025 45 10000 1 0 09:42 01.11.2019
5166 Clouds 17 1025 45 10000 1 0 09:22 01.11.2019
5167 Clouds 18 1025 45 10000 2 130 08:55 01.11.2019
5168 Clouds 18 1025 42 10000 3 120 08:36 01.11.2019
5169 Clouds 18 1025 42 10000 3 120 08:18 01.11.2019
5170 Clouds 19 1025 42 10000 2 90 07:46 01.11.2019
5171 Clouds 18 1026 42 10000 2 120 07:22 01.11.2019
5172 Clouds 19 1026 42 10000 2 0 06:55 01.11.2019
5173 Clouds 18 1026 42 10000 3 130 06:23 01.11.2019
5174 Clouds 18 1027 39 10000 3 120 05:57 01.11.2019
5175 Clouds 19 1027 39 10000 3 120 05:35 01.11.2019
5176 Clouds 17 1028 38 10000 3 150 03:32 01.11.2019
5177 Clouds 12 1028 71 10000 2 350 01:48 01.11.2019
5178 Clouds 10 1027 70 10000 2 360 01:19 01.11.2019
5179 Clouds 9 1026 93 10000 1 0 00:20 01.11.2019
5180 Clouds 9 1026 86 10000 2 360 23:45 31.10.2019
5181 Clear 8 1025 80 10000 2 360 23:25 31.10.2019
5182 Clear 8 1025 81 10000 1 0 22:58 31.10.2019
5183 Clear 8 1025 86 10000 1 360 22:40 31.10.2019
5184 Clear 8 1025 86 10000 1 360 22:22 31.10.2019
5185 Clear 9 1025 80 10000 2 340 21:56 31.10.2019
5186 Clear 9 1024 81 10000 2 350 21:37 31.10.2019
5187 Clear 9 1024 81 10000 2 350 21:18 31.10.2019
5188 Clear 9 1024 86 10000 2 350 20:40 31.10.2019
5189 Clear 9 1024 86 10000 2 350 20:22 31.10.2019
5190 Clear 10 1024 81 10000 3 360 19:48 31.10.2019
5191 Clear 9 1024 87 10000 1.13 65 19:29 31.10.2019
5192 Clear 10 1024 93 10000 1 350 18:59 31.10.2019
5193 Clear 11 1024 81 10000 2 360 18:41 31.10.2019
5194 Clear 10 1024 81 10000 2 360 18:22 31.10.2019
5195 Clear 10 1024 81 10000 1 0 17:56 31.10.2019
5196 Clear 10 1023 81 10000 1 0 17:37 31.10.2019
5197 Clear 10 1023 81 10000 1 0 17:18 31.10.2019
5198 Clear 11 1023 81 10000 1 0 16:41 31.10.2019
5199 Clear 11 1023 81 10000 1 0 16:20 31.10.2019
5200 Clear 11 1023 87 10000 1 0 15:59 31.10.2019
5201 Clear 11 1023 76 10000 1 0 15:40 31.10.2019
5202 Clear 11 1023 76 10000 1 0 15:20 31.10.2019
5203 Clear 12 1022 81 10000 2 40 14:57 31.10.2019
5204 Clear 12 1022 76 10000 1 0 14:39 31.10.2019
5205 Clear 12 1022 76 10000 1 0 14:39 31.10.2019
5206 Clear 12 1022 76 10000 1 0 14:21 31.10.2019
5207 Clear 12 1021 76 10000 1 0 13:57 31.10.2019
5208 Clear 13 1021 71 10000 1 30 13:38 31.10.2019
5209 Clear 13 1021 71 10000 1 30 13:19 31.10.2019
5210 Clear 15 1021 50 10000 2 210 12:55 31.10.2019
5211 Clear 10 1020 71 10000 1 70 12:37 31.10.2019
5212 Clear 12 1020 71 10000 1 70 12:18 31.10.2019
5213 Clear 14 1020 66 10000 2 60 11:44 31.10.2019
5214 Clear 18 1020 50 10000 1 0 11:20 31.10.2019
5215 Clear 18 1019 51 10000 2 60 10:57 31.10.2019
5216 Clear 18 1019 51 10000 2 60 10:57 31.10.2019
5217 Clear 19 1019 39 10000 2 90 10:38 31.10.2019
5218 Clear 20 1019 39 10000 2 90 10:20 31.10.2019
5219 Clear 23 1019 28 10000 2 100 09:44 31.10.2019
5220 Clear 24 1019 19 10000 2 40 09:19 31.10.2019
5221 Clear 24 1018 16 10000 2 360 08:56 31.10.2019
5222 Clear 25 1018 15 10000 2 0 08:38 31.10.2019
5223 Clear 25 1018 15 10000 2 0 08:19 31.10.2019
5224 Clear 25 1018 15 10000 2 280 07:43 31.10.2019
5225 Clear 25 1018 15 10000 3 300 07:24 31.10.2019
5226 Clear 26 1019 17 10000 4 300 06:39 31.10.2019
5227 Clear 26 1019 17 10000 4 300 06:20 31.10.2019
5228 Clear 22 1020 19 10000 4 320 05:18 31.10.2019
5229 Clear 21 1020 34 10000 5 340 02:47 31.10.2019
5230 Clear 18 1020 36 10000 4 360 02:22 31.10.2019
5231 Clear 12 1019 70 10000 3 360 00:47 31.10.2019
5232 Clear 11 1018 75 10000 4 350 00:24 31.10.2019
5233 Clear 10 1018 75 10000 3 350 23:34 30.10.2019
5234 Clear 10 1018 75 10000 3 320 22:59 30.10.2019
5235 Clear 10 1018 75 10000 1 0 22:39 30.10.2019
5236 Clear 11 1018 75 10000 1 0 22:19 30.10.2019
5237 Clear 11 1018 70 10000 1 0 21:54 30.10.2019
5238 Clear 10 1018 75 10000 2 330 21:36 30.10.2019
5239 Clear 10 1018 75 10000 2 330 21:18 30.10.2019
5240 Clear 10 1018 75 10000 2 330 21:18 30.10.2019
5241 Clear 10 1017 80 10000 3 340 20:57 30.10.2019
5242 Clear 10 1017 80 10000 2 340 20:37 30.10.2019
5243 Clear 10 1017 80 10000 2 340 20:19 30.10.2019
5244 Clear 11 1017 93 10000 3 360 19:42 30.10.2019
5245 Clear 10 1017 93 10000 2 360 19:23 30.10.2019
5246 Clear 10 1017 93 10000 1 0 18:59 30.10.2019
5247 Clear 10 1017 93 10000 1 0 18:38 30.10.2019
5248 Clear 10 1017 93 10000 1 0 18:38 30.10.2019
5249 Clear 11 1017 93 10000 1 0 18:19 30.10.2019
5250 Clear 10 1017 93 10000 1 0 18:19 30.10.2019
5251 Clear 11 1017 86 10000 1 0 17:55 30.10.2019
5252 Clear 11 1017 93 10000 1 0 17:37 30.10.2019
5253 Clear 11 1017 93 10000 1 0 17:37 30.10.2019
5254 Clear 11 1017 93 10000 1 0 17:37 30.10.2019
5255 Clear 11 1017 93 10000 1 0 17:18 30.10.2019
5256 Clear 11 1017 87 10000 2 360 16:42 30.10.2019
5257 Clear 12 1017 87 10000 1.61 328 16:24 30.10.2019
5258 Clear 12 1016 87 10000 1.61 328 15:59 30.10.2019
5259 Clear 11 1016 86 10000 1 10 15:39 30.10.2019
5260 Clear 9 1016 86 10000 1 10 15:20 30.10.2019
5261 Clear 9 1016 81 10000 1 140 14:59 30.10.2019
5262 Clear 12 1016 81 10000 1 0 14:40 30.10.2019
5263 Clear 12 1016 81 10000 1 0 14:22 30.10.2019
5264 Clear 13 1016 75 10000 1 0 13:55 30.10.2019
5265 Clear 13 1016 70 10000 1 0 13:37 30.10.2019
5266 Clear 13 1016 70 10000 1 0 13:18 30.10.2019
5267 Clear 14 1015 70 10000 1 0 12:45 30.10.2019
5268 Clear 14 1015 53 10000 1 0 12:27 30.10.2019
5269 Clear 16 1015 33 10000 3 190 11:58 30.10.2019
5270 Clear 17 1015 31 10000 3 190 11:40 30.10.2019
5271 Clear 17 1015 31 10000 3 190 11:21 30.10.2019
5272 Clear 18 1014 17 10000 3 190 10:43 30.10.2019
5273 Clear 19 1014 17 10000 3 190 10:23 30.10.2019
5274 Clear 20 1014 26 10000 4 180 09:42 30.10.2019
5275 Clear 21 1014 26 10000 4 180 09:24 30.10.2019
5276 Clear 21 1014 17 10000 4 190 08:57 30.10.2019
5277 Clear 21 1014 17 10000 4 180 08:39 30.10.2019
5278 Clear 22 1014 15 10000 4 180 08:20 30.10.2019
5279 Clear 22 1014 15 10000 3 180 07:46 30.10.2019
5280 Clear 22 1015 15 10000 3 210 07:21 30.10.2019
5281 Clear 23 1015 32 10000 3 190 06:42 30.10.2019
5282 Clear 23 1015 32 10000 3 190 06:42 30.10.2019
5283 Clear 22 1015 32 10000 3 190 06:20 30.10.2019
5284 Clear 22 1016 27 10000 1 0 05:42 30.10.2019
5285 Clear 18 1017 27 10000 1 0 04:55 30.10.2019
5286 Clear 18 1017 21 10000 2 320 03:43 30.10.2019
5287 Clear 13 1018 43 10000 2 310 02:52 30.10.2019
5288 Clear 12 1018 57 10000 1 0 02:19 30.10.2019
5289 Clear 10 1018 86 10000 1 0 01:31 30.10.2019
5290 Clear 7 1017 23 10000 1 340 00:31 30.10.2019
5291 Clear 6 1016 86 10000 2 10 23:46 29.10.2019
5292 Clear 6 1016 23 10000 1 29 23:24 29.10.2019
5293 Clear 5 1016 24 10000 1 0 22:49 29.10.2019
5294 Clear 6 1016 24 10000 2 350 22:20 29.10.2019
5295 Clear 6 1017 24 10000 1 330 21:59 29.10.2019
5296 Clear 6 1017 24 10000 1 330 21:59 29.10.2019
5297 Clear 4 1017 24 10000 2 360 21:41 29.10.2019
5298 Clear 6 1017 24 10000 2 360 21:20 29.10.2019
5299 Clear 6 1016 93 10000 1.05 16 20:58 29.10.2019
5300 Clear 4 1017 24 10000 1 20 20:40 29.10.2019
5301 Clear 6 1017 21 10000 1 20 20:21 29.10.2019
5302 Clear 7 1017 93 10000 1 10 19:57 29.10.2019
5303 Clear 7 1017 86 10000 2 360 19:38 29.10.2019
5304 Clear 7 1017 86 10000 2 360 19:20 29.10.2019
5305 Clear 5 1017 86 10000 2 350 18:56 29.10.2019
5306 Clear 5 1017 86 10000 2 350 18:37 29.10.2019
5307 Clear 5 1017 86 10000 2 350 18:19 29.10.2019
5308 Clear 5 1017 86 10000 2 350 17:54 29.10.2019
5309 Clear 6 1017 80 10000 1 350 17:36 29.10.2019
5310 Clear 9 1017 80 10000 1 350 17:18 29.10.2019
5311 Clear 7 1018 86 10000 1 0 16:39 29.10.2019
5312 Clear 6 1018 86 10000 1 0 16:21 29.10.2019
5313 Clear 7 1018 80 10000 2 360 15:56 29.10.2019
5314 Clear 7 1018 80 10000 1 0 15:38 29.10.2019
5315 Clear 9 1018 80 10000 1 0 15:20 29.10.2019
5316 Clear 9 1018 80 10000 1 0 14:55 29.10.2019
5317 Clear 9 1018 80 10000 1 70 14:37 29.10.2019
5318 Clear 9 1018 80 10000 1 70 14:18 29.10.2019
5319 Clear 8 1018 80 10000 1 0 13:40 29.10.2019
5320 Clear 10 1018 80 10000 1 0 13:22 29.10.2019
5321 Clear 10 1017 75 10000 1 0 12:46 29.10.2019
5322 Clear 11 1017 65 10000 1 0 12:26 29.10.2019
5323 Clear 11 1017 65 10000 1 0 12:26 29.10.2019
5324 Clear 11 1017 70 10000 1.21 47 11:59 29.10.2019
5325 Clear 11 1017 65 10000 1 0 11:41 29.10.2019
5326 Clear 12 1017 65 10000 1 0 11:20 29.10.2019
5327 Clear 13 1017 61 10000 1 80 10:57 29.10.2019
5328 Clear 14 1017 14 10000 0.17 198 10:38 29.10.2019
5329 Clear 15 1017 14 10000 0.17 198 10:20 29.10.2019
5330 Clear 17 1017 29 10000 1 140 09:56 29.10.2019
5331 Clear 17 1017 18 10000 2 180 09:37 29.10.2019
5332 Clear 18 1017 18 10000 2 180 09:19 29.10.2019
5333 Clear 18 1017 18 10000 2 160 08:44 29.10.2019
5334 Clear 18 1017 17 10000 3 190 08:25 29.10.2019
5335 Clear 18 1017 17 10000 3 200 07:55 29.10.2019
5336 Clear 18 1017 16 10000 2 0 07:36 29.10.2019
5337 Clear 18 1017 16 10000 2 0 07:18 29.10.2019
5338 Clear 19 1018 18 10000 3 0 06:43 29.10.2019
5339 Clear 19 1018 18 10000 2 240 06:21 29.10.2019
5340 Clear 18 1018 19 10000 2 210 05:50 29.10.2019
5341 Clear 15 1019 21 10000 3 0 05:19 29.10.2019
5342 Clear 14 1019 22 10000 2 150 03:55 29.10.2019
5343 Clear 13 1020 42 10000 2 80 02:32 29.10.2019
5344 Clear 8 1020 80 10000 1 0 01:46 29.10.2019
5345 Clear 7 1020 80 10000 1 0 01:18 29.10.2019
5346 Clear 6 1019 92 10000 1 0 00:31 29.10.2019
5347 Clear 5 1019 86 10000 1 0 23:43 28.10.2019
5348 Clear 3 1019 86 10000 1 0 23:20 28.10.2019
5349 Clear 3 1018 86 10000 1 0 22:57 28.10.2019
5350 Clear 3 1018 86 10000 1 150 22:37 28.10.2019
5351 Clear 3 1018 86 10000 1 150 22:18 28.10.2019
5352 Clear 4 1018 19 10000 1.73 16 21:55 28.10.2019
5353 Clear 4 1018 19 10000 1 0 21:37 28.10.2019
5354 Clear 4 1018 19 10000 1 0 21:18 28.10.2019
5355 Clear 4 1018 19 10000 1 0 21:18 28.10.2019
5356 Clear 4 1018 19 10000 3 360 20:44 28.10.2019
5357 Clear 4 1018 19 10000 2 360 20:24 28.10.2019
5358 Clear 4 1019 18 10000 1 30 19:59 28.10.2019
5359 Clear 5 1019 18 10000 1.99 357 19:39 28.10.2019
5360 Clear 6 1019 18 10000 1.99 357 19:21 28.10.2019
5361 Clear 7 1018 18 10000 1 360 18:58 28.10.2019
5362 Clear 5 1019 18 10000 1 0 18:39 28.10.2019
5363 Clear 7 1019 18 10000 1 0 18:21 28.10.2019
5364 Clear 7 1018 74 10000 1 100 17:56 28.10.2019
5365 Clear 5 1018 18 10000 2 100 17:38 28.10.2019
5366 Clear 6 1018 15 10000 2 100 17:19 28.10.2019
5367 Clear 6 1019 59 10000 1 0 16:57 28.10.2019
5368 Clear 6 1019 55 10000 1 0 16:39 28.10.2019
5369 Clear 8 1019 55 10000 1 0 16:20 28.10.2019
5370 Clear 8 1019 51 10000 2 150 15:56 28.10.2019
5371 Clear 8 1018 48 10000 3 10 15:38 28.10.2019
5372 Clear 8 1018 48 10000 3 10 15:20 28.10.2019
5373 Clear 8 1018 35 10000 1 0 14:56 28.10.2019
5374 Clear 9 1018 23 10000 3 10 14:38 28.10.2019
5375 Clear 9 1018 23 10000 3 10 14:18 28.10.2019
5376 Clear 10 1018 19 10000 5 360 13:54 28.10.2019
5377 Clear 10 1018 23 10000 6 350 13:36 28.10.2019
5378 Clear 11 1018 23 10000 6 350 13:18 28.10.2019
5379 Clear 11 1017 19 10000 5 360 12:41 28.10.2019
5380 Clear 11 1017 19 10000 5 360 12:41 28.10.2019
5381 Clear 11 1017 19 10000 5 360 12:20 28.10.2019
5382 Clear 12 1016 21 10000 5 360 11:40 28.10.2019
5383 Clear 12 1016 21 10000 5 360 11:21 28.10.2019
5384 Clear 12 1015 17 10000 6 340 10:57 28.10.2019
5385 Clear 13 1015 19 10000 5 350 10:38 28.10.2019
5386 Clear 13 1015 19 10000 5 350 10:20 28.10.2019
5387 Clear 14 1015 15 10000 7 330 09:55 28.10.2019
5388 Clear 14 1015 15 10000 7 330 09:37 28.10.2019
5389 Clear 14 1015 15 10000 7 330 09:18 28.10.2019
5390 Clear 14 1015 15 10000 7 300 08:56 28.10.2019
5391 Clear 15 1015 16 10000 6 320 08:37 28.10.2019
5392 Clear 14 1015 16 10000 6 320 08:18 28.10.2019
5393 Clear 15 1015 15 10000 7 320 07:47 28.10.2019
5394 Clear 16 1014 14 10000 10 310 07:23 28.10.2019
5395 Clear 15 1014 16 10000 10 310 06:59 28.10.2019
5396 Clear 16 1015 18 10000 9 300 06:39 28.10.2019
5397 Clear 14 1014 19 10000 11 290 05:19 28.10.2019
5398 Clear 13 1013 22 10000 12 280 03:44 28.10.2019
5399 Clear 13 1013 22 10000 10 290 02:46 28.10.2019
5400 Clear 12 1012 23 10000 11 290 01:52 28.10.2019
5401 Clear 12 1012 23 10000 11 290 01:52 28.10.2019
5402 Clear 12 1012 22 8000 9 280 00:47 28.10.2019
5403 Clear 12 1012 22 10000 8 290 00:25 28.10.2019
5404 Clear 12 1011 22 10000 9 290 23:44 27.10.2019
5405 Clear 12 1011 18 10000 9 280 23:22 27.10.2019
5406 Clear 12 1011 16 10000 11 280 22:57 27.10.2019
5407 Clear 13 1011 15 10000 12 280 22:37 27.10.2019
5408 Clear 13 1011 15 10000 12 280 22:37 27.10.2019
5409 Clear 13 1011 15 10000 12 280 22:19 27.10.2019
5410 Clear 13 1011 19 10000 13 290 21:56 27.10.2019
5411 Clear 14 1010 21 10000 13 290 21:38 27.10.2019
5412 Clear 14 1010 21 10000 13 290 21:20 27.10.2019
5413 Clear 13 1009 70 10000 5 300 20:41 27.10.2019
5414 Clouds 12 1009 70 10000 5 300 20:23 27.10.2019
5415 Clouds 13 1009 70 10000 5 300 19:58 27.10.2019
5416 Clouds 10 1008 93 10000 2 0 19:39 27.10.2019
5417 Clouds 10 1008 93 10000 2 0 19:20 27.10.2019
5418 Clouds 10 1008 93 10000 2 0 18:57 27.10.2019
5419 Clouds 11 1008 86 10000 2 110 18:39 27.10.2019
5420 Clouds 11 1008 86 10000 2 110 18:20 27.10.2019
5421 Clouds 11 1009 93 10000 2 70 17:55 27.10.2019
5422 Clouds 10 1009 86 10000 1 0 17:37 27.10.2019
5423 Clear 10 1009 86 10000 1 0 17:19 27.10.2019
5424 Clear 9 1009 86 10000 2 90 16:55 27.10.2019
5425 Clear 9 1010 81 10000 1 0 16:37 27.10.2019
5426 Clear 9 1010 81 10000 1 0 16:19 27.10.2019
5427 Clear 9 1010 75 10000 1 0 15:55 27.10.2019
5428 Clear 10 1010 81 10000 2 70 15:37 27.10.2019
5429 Clear 10 1010 81 10000 2 70 15:18 27.10.2019
5430 Clear 10 1011 87 10000 2 70 14:41 27.10.2019
5431 Clear 10 1011 87 10000 2 70 14:20 27.10.2019
5432 Clear 11 1011 81 10000 1 0 13:56 27.10.2019
5433 Clear 11 1011 81 10000 2.15 179 13:37 27.10.2019
5434 Clear 11 1011 81 10000 2.11 176 13:19 27.10.2019
5435 Clear 12 1012 81 10000 2 60 12:43 27.10.2019
5436 Clear 13 1012 75 10000 1 0 12:24 27.10.2019
5437 Clear 13 1012 75 10000 1 120 11:57 27.10.2019
5438 Clear 13 1012 66 10000 2 130 11:38 27.10.2019
5439 Clear 14 1012 66 10000 2 130 11:19 27.10.2019
5440 Clear 15 1012 57 10000 1 0 10:43 27.10.2019
5441 Clear 16 1011 50 10000 1 150 10:24 27.10.2019
5442 Clear 17 1012 33 10000 2 150 09:55 27.10.2019
5443 Clear 18 1012 18 10000 3 190 09:37 27.10.2019
5444 Clear 18 1012 18 10000 3 190 09:18 27.10.2019
5445 Clear 19 1013 18 10000 3 180 08:41 27.10.2019
5446 Clear 19 1013 16 10000 3 180 08:21 27.10.2019
5447 Clear 19 1013 16 10000 4 160 07:50 27.10.2019
5448 Clear 19 1013 16 10000 3 160 07:29 27.10.2019
5449 Clear 18 1014 16 10000 2 170 06:59 27.10.2019
5450 Clear 19 1014 33 10000 3 200 06:40 27.10.2019
5451 Clear 18 1014 33 10000 3 200 06:21 27.10.2019
5452 Clear 19 1016 38 10000 2 180 05:38 27.10.2019
5453 Clear 16 1016 44 10000 2 210 04:47 27.10.2019
5454 Clear 14 1017 57 10000 2 360 02:48 27.10.2019
5455 Clear 10 1018 61 10000 1 0 02:18 27.10.2019
5456 Clear 7 1018 86 10000 3 360 01:51 27.10.2019
5457 Clear 7 1017 93 10000 2 350 01:23 27.10.2019
5458 Clear 6 1017 32 10000 3 350 00:48 27.10.2019
5459 Clear 6 1017 93 10000 2 10 00:27 27.10.2019
5460 Clear 6 1017 36 10000 2 350 23:56 26.10.2019
5461 Clear 6 1017 36 10000 1 0 23:38 26.10.2019
5462 Clear 6 1017 36 10000 1 0 23:20 26.10.2019
5463 Clear 6 1017 36 10000 1.89 8 22:56 26.10.2019
5464 Clear 6 1017 100 10000 1 0 22:37 26.10.2019
5465 Clear 6 1017 100 10000 1 0 22:18 26.10.2019
5466 Clear 7 1017 36 10000 2 10 21:43 26.10.2019
5467 Clouds 5 1017 34 10000 2 10 21:21 26.10.2019
5468 Clouds 5 1017 93 10000 1 20 20:57 26.10.2019
5469 Clouds 6 1018 93 10000 1 10 20:37 26.10.2019
5470 Clouds 7 1018 93 10000 1 10 20:18 26.10.2019
5471 Clouds 7 1018 93 10000 1 10 20:18 26.10.2019
5472 Clouds 8 1018 100 10000 1 0 19:42 26.10.2019
5473 Clouds 8 1018 100 10000 1 0 19:20 26.10.2019
5474 Clouds 8 1018 100 10000 1 0 19:20 26.10.2019
5475 Clouds 8 1017 93 10000 1 30 18:57 26.10.2019
5476 Clouds 9 1017 93 10000 1 0 18:39 26.10.2019
5477 Clouds 8 1017 93 10000 1 0 18:19 26.10.2019
5478 Clouds 8 1018 93 10000 1 0 17:56 26.10.2019
5479 Clouds 7 1018 93 10000 2 10 17:37 26.10.2019
5480 Clouds 9 1018 93 10000 2 10 17:19 26.10.2019
5481 Clouds 8 1018 86 10000 1 0 16:43 26.10.2019
5482 Clouds 9 1018 86 10000 1 0 16:25 26.10.2019
5483 Clouds 9 1018 93 10000 1 0 15:59 26.10.2019
5484 Clouds 9 1018 86 10000 1 0 15:37 26.10.2019
5485 Clear 9 1018 86 10000 1 0 15:18 26.10.2019
5486 Clear 9 1018 86 10000 1 0 14:38 26.10.2019
5487 Clear 10 1018 86 10000 1 0 14:19 26.10.2019
5488 Clear 15 1018 23 0 3.2 207 13:55 26.10.2019
5489 Clear 11 1018 81 10000 1 90 13:36 26.10.2019
5490 Clear 14 1012 44 0 3.2 207 13:18 26.10.2019
5491 Clear 13 1011 47 0 3.2 207 12:42 26.10.2019
5492 Clear 14 1018 20 10000 3 180 12:18 26.10.2019
5493 Clear 14 1018 20 10000 3 180 11:45 26.10.2019
5494 Clear 16 1018 20 10000 3 180 11:24 26.10.2019
5495 Clear 16 1018 20 10000 4 180 10:46 26.10.2019
5496 Clear 16 1018 20 10000 3 210 10:25 26.10.2019
5497 Clear 16 1019 20 10000 4 190 09:49 26.10.2019
5498 Clear 16 1019 20 10000 4 200 09:30 26.10.2019
5499 Clouds 16 1019 31 10000 4 200 08:50 26.10.2019
5500 Clouds 15 1020 30 10000 4 210 08:28 26.10.2019
5501 Clouds 15 1020 30 10000 4 180 07:57 26.10.2019
5502 Clouds 15 1021 33 10000 2 0 07:39 26.10.2019
5503 Clouds 15 1021 33 10000 2 0 07:19 26.10.2019
5504 Clouds 13 1022 32 10000 2 0 06:39 26.10.2019
5505 Clouds 11 1024 34 10000 1 0 05:24 26.10.2019
5506 Clouds 11 1024 37 10000 1 0 04:59 26.10.2019
5507 Clouds 10 1025 18 10000 1 0 03:45 26.10.2019
5508 Clouds 7 1025 75 10000 2 10 02:29 26.10.2019
5509 Clouds 4 1025 86 10000 2 360 01:46 26.10.2019
5510 Clouds 5 1025 23 10000 2 360 00:51 26.10.2019
5511 Clouds 4 1026 24 10000 1 350 23:48 25.10.2019
5512 Clouds 4 1026 86 10000 1 0 23:23 25.10.2019
5513 Clouds 4 1026 24 10000 1 0 22:58 25.10.2019
5514 Clouds 5 1026 80 10000 2 350 22:39 25.10.2019
5515 Clouds 5 1026 80 10000 2 350 22:21 25.10.2019
5516 Clouds 5 1026 86 10000 2 360 21:55 25.10.2019
5517 Clouds 5 1027 24 10000 2 340 21:37 25.10.2019
5518 Clouds 5 1027 24 10000 2 340 21:19 25.10.2019
5519 Clouds 5 1027 24 10000 1 340 20:43 25.10.2019
5520 Clouds 5 1027 24 10000 1 0 20:19 25.10.2019
5521 Clouds 5 1028 86 10000 1 0 19:47 25.10.2019
5522 Clouds 3 1028 24 10000 2 40 19:27 25.10.2019
5523 Clouds 6 1028 24 10000 1 0 18:56 25.10.2019
5524 Clouds 6 1028 24 10000 1 40 18:37 25.10.2019
5525 Clear 6 1028 23 10000 1 40 18:19 25.10.2019
5526 Clear 6 1028 86 10000 1.16 199 17:39 25.10.2019
5527 Clear 6 1028 86 10000 1.16 199 17:20 25.10.2019
5528 Clear 6 1028 23 10000 1 0 16:46 25.10.2019
5529 Clear 6 1028 23 10000 1 0 16:23 25.10.2019
5530 Clear 4 1028 93 10000 1 70 15:57 25.10.2019
5531 Clear 4 1028 23 10000 1 50 15:38 25.10.2019
5532 Clear 6 1028 20 10000 1 50 15:20 25.10.2019
5533 Clear 6 1028 20 10000 1 50 15:20 25.10.2019
5534 Clear 6 1028 20 10000 1 50 15:20 25.10.2019
5535 Clear 7 1027 86 10000 1 0 14:42 25.10.2019
5536 Clear 6 1027 86 10000 1 0 14:23 25.10.2019
5537 Clear 7 1027 80 10000 1 0 13:59 25.10.2019
5538 Clear 6 1027 20 10000 1 0 13:39 25.10.2019
5539 Clear 9 1027 20 10000 1 0 13:21 25.10.2019
5540 Clear 10 1026 48 10000 1 0 12:43 25.10.2019
5541 Clear 10 1026 48 10000 1 0 12:22 25.10.2019
5542 Clear 11 1026 32 10000 3 340 11:59 25.10.2019
5543 Clear 12 1026 22 10000 6 300 11:38 25.10.2019
5544 Clear 13 1026 22 10000 6 300 11:19 25.10.2019
5545 Clear 13 1026 20 10000 7 290 10:41 25.10.2019
5546 Clear 14 1026 20 10000 7 290 10:23 25.10.2019
5547 Clear 14 1026 20 10000 7 300 09:59 25.10.2019
5548 Clear 14 1026 19 10000 7 300 09:39 25.10.2019
5549 Clear 14 1026 19 10000 7 300 09:20 25.10.2019
5550 Clear 14 1026 20 10000 6 290 08:51 25.10.2019
5551 Clear 14 1027 22 10000 5 290 08:33 25.10.2019
5552 Clear 13 1027 20 10000 5 310 07:57 25.10.2019
5553 Clear 13 1028 22 10000 5 340 07:35 25.10.2019
5554 Clear 13 1028 22 10000 5 320 06:53 25.10.2019
5555 Clear 13 1029 22 10000 6 320 06:31 25.10.2019
5556 Clear 12 1030 25 10000 6 320 05:40 25.10.2019
5557 -273 0 0 0 0 0 04:54 25.10.2019
5558 Clear 11 1031 34 10000 5 330 03:59 25.10.2019
5559 Clear 8 1031 42 10000 4 10 02:22 25.10.2019
5560 Clear 7 1031 48 10000 3 360 01:51 25.10.2019
5561 Clear 5 1030 48 10000 3 10 00:26 25.10.2019
5562 Clear 5 1029 52 10000 3 360 23:41 24.10.2019
5563 Clear 6 1029 52 10000 3 360 23:23 24.10.2019
5564 Clear 6 1029 48 10000 4 350 22:56 24.10.2019
5565 Clear 6 1028 41 10000 7 340 22:37 24.10.2019
5566 Clear 6 1028 41 10000 7 340 22:19 24.10.2019
5567 Clear 7 1028 42 10000 7 340 21:57 24.10.2019
5568 Clear 7 1028 42 10000 5 360 21:38 24.10.2019
5569 Clear 7 1028 42 10000 5 360 21:19 24.10.2019
5570 Clear 7 1028 39 10000 8 320 20:57 24.10.2019
5571 Clear 7 1027 39 10000 9 320 20:38 24.10.2019
5572 Clear 8 1027 39 10000 9 320 20:20 24.10.2019
5573 Clear 8 1027 39 10000 9 320 19:54 24.10.2019
5574 Clear 8 1027 36 10000 11 320 19:36 24.10.2019
5575 Clear 8 1027 36 10000 11 320 19:18 24.10.2019
5576 Clear 8 1027 36 10000 11 320 19:18 24.10.2019
5577 Clear 8 1027 36 10000 9 320 18:40 24.10.2019
5578 Clear 9 1027 36 10000 9 320 18:22 24.10.2019
5579 Clear 9 1027 39 10000 10 320 17:59 24.10.2019
5580 Clear 9 1027 39 10000 7 310 17:39 24.10.2019
5581 Clear 9 1027 39 10000 7 310 17:20 24.10.2019
5582 Clear 9 1027 37 10000 9 310 16:55 24.10.2019
5583 Clear 9 1026 37 10000 11 320 16:37 24.10.2019
5584 Clear 10 1026 37 10000 11 320 16:18 24.10.2019
5585 Clear 11 1026 39 10000 10 310 15:55 24.10.2019
5586 Clear 11 1026 37 10000 11 320 15:37 24.10.2019
5587 Clouds 10 1026 37 10000 11 320 15:19 24.10.2019
5588 Clouds 11 1025 37 10000 10 330 14:44 24.10.2019
5589 Clouds 11 1025 37 10000 10 320 14:26 24.10.2019
5590 Clouds 11 1024 34 10000 9 320 13:59 24.10.2019
5591 Clouds 12 1024 34 10000 10 320 13:39 24.10.2019
5592 Clouds 12 1024 34 10000 10 320 13:19 24.10.2019
5593 Clouds 12 1023 37 10000 11 330 12:56 24.10.2019
5594 Clouds 13 1023 35 10000 10 330 12:38 24.10.2019
5595 Rain 13 1023 35 10000 10 330 12:19 24.10.2019
5596 Rain 13 1022 46 10000 7 350 11:56 24.10.2019
5597 Rain 14 1022 43 10000 5 360 11:36 24.10.2019
5598 Rain 14 1022 43 10000 5 360 11:36 24.10.2019
5599 Rain 14 1022 43 10000 5 360 11:18 24.10.2019
5600 Rain 14 1021 76 10000 3 340 10:42 24.10.2019
5601 Rain 14 1021 76 10000 3 340 10:23 24.10.2019
5602 Rain 14 1021 76 10000 3 10 09:55 24.10.2019
5603 Rain 14 1021 76 10000 3 340 09:36 24.10.2019
5604 Rain 14 1021 76 10000 3 340 09:18 24.10.2019
5605 Rain 13 1020 87 10000 3 350 08:42 24.10.2019
5606 Rain 14 1020 87 10000 3 350 08:20 24.10.2019
5607 Rain 13 1020 71 10000 7 300 07:48 24.10.2019
5608 Rain 14 1020 62 10000 10 290 07:23 24.10.2019
5609 Rain 14 1020 62 10000 10 290 07:23 24.10.2019
5610 Rain 16 1020 62 10000 10 300 06:56 24.10.2019
5611 Rain 15 1020 93 1000 2 150 06:36 24.10.2019
5612 Rain 15 1020 93 1000 2 150 05:55 24.10.2019
5613 Rain 15 1020 93 1200 1 0 05:31 24.10.2019
5614 Mist 15 1020 93 1200 2 180 04:23 24.10.2019
5615 Mist 15 1019 93 1200 1 0 03:35 24.10.2019
5616 Mist 13 1019 100 1500 1 0 02:39 24.10.2019
5617 Mist 13 1019 100 1500 1 0 02:19 24.10.2019
5618 Mist 12 1019 100 2000 1 0 01:31 24.10.2019
5619 Mist 12 1018 100 2700 1.11 186 00:56 24.10.2019
5620 Mist 12 1018 93 3000 1 310 00:27 24.10.2019
5621 Mist 13 1018 93 3500 2 60 23:57 23.10.2019
5622 Mist 13 1017 93 4000 2 90 23:38 23.10.2019
5623 Mist 12 1017 93 4000 2 90 23:18 23.10.2019
5624 Mist 12 1018 93 5000 2 90 22:54 23.10.2019
5625 Mist 12 1018 93 5000 2 90 22:54 23.10.2019
5626 Mist 12 1018 100 5000 2 80 22:36 23.10.2019
5627 Mist 12 1018 100 5000 2 80 22:18 23.10.2019
5628 Clouds 12 1019 93 6000 1 0 21:55 23.10.2019
5629 Clouds 11 1019 93 6000 1 10 21:36 23.10.2019
5630 Clear 12 1019 93 6000 1 10 21:18 23.10.2019
5631 Clear 12 1019 93 6000 1 20 20:54 23.10.2019
5632 Clear 12 1019 93 6000 1 20 20:54 23.10.2019
5633 Clear 12 1019 93 6000 2 350 20:36 23.10.2019
5634 Clear 12 1019 93 6000 2 350 20:18 23.10.2019
5635 Clear 13 1019 93 6000 1 0 19:42 23.10.2019
5636 Clear 13 1019 93 6000 1 0 19:19 23.10.2019
5637 Clear 13 1018 93 6000 1 0 18:57 23.10.2019
5638 Clear 13 1018 93 6000 1.16 118 18:38 23.10.2019
5639 Clear 13 1018 93 6000 0.99 88 18:19 23.10.2019
5640 Clear 13 1018 93 6000 1 0 17:46 23.10.2019
5641 Clear 14 1019 100 6000 1 30 17:21 23.10.2019
5642 Clear 14 1019 93 6000 1 50 16:59 23.10.2019
5643 Clear 14 1019 93 7000 2 70 16:40 23.10.2019
5644 Clear 14 1019 93 7000 2 70 16:40 23.10.2019
5645 Clear 14 1019 93 7000 2 70 16:20 23.10.2019
5646 Clear 14 1019 93 7000 2 70 16:20 23.10.2019
5647 Clear 13 1019 93 7000 1 50 15:56 23.10.2019
5648 Clear 14 1018 93 7000 0.99 88 15:37 23.10.2019
5649 Clear 14 1018 93 7000 0.82 106 15:18 23.10.2019
5650 Clear 15 1018 93 7000 1 360 14:55 23.10.2019
5651 Clear 15 1018 87 7000 0.82 106 14:37 23.10.2019
5652 Clouds 15 1018 87 7000 1.14 65 14:18 23.10.2019
5653 Clouds 15 1018 87 7000 1.14 65 14:18 23.10.2019
5654 Clouds 16 1017 87 7000 1 30 13:42 23.10.2019
5655 Clouds 16 1017 87 7000 1 30 13:24 23.10.2019
5656 Clouds 16 1017 82 7000 1 60 12:57 23.10.2019
5657 Clouds 16 1017 87 7000 1 70 12:38 23.10.2019
5658 Clouds 17 1017 87 7000 1 70 12:19 23.10.2019
5659 Clouds 16 1016 76 7000 1 50 11:57 23.10.2019
5660 Clouds 18 1016 72 7000 1 0 11:39 23.10.2019
5661 Clouds 19 1016 72 7000 1 0 11:20 23.10.2019
5662 Clouds 21 1016 55 8000 1 0 10:46 23.10.2019
5663 Clouds 21 1016 55 8000 1 0 10:46 23.10.2019
5664 Clouds 21 1016 46 8000 1 0 10:26 23.10.2019
5665 Clouds 21 1016 40 8000 2 0 09:58 23.10.2019
5666 Clear 22 1016 43 10000 2 130 09:39 23.10.2019
5667 Clouds 22 1016 43 10000 2 130 09:21 23.10.2019
5668 Clouds 22 1016 40 10000 2 150 08:43 23.10.2019
5669 Clouds 22 1016 40 10000 1 0 08:25 23.10.2019
5670 Clouds 21 1016 37 10000 2 150 07:47 23.10.2019
5671 Clouds 21 1016 37 10000 2 150 07:47 23.10.2019
5672 Clouds 22 1017 37 10000 1 0 07:26 23.10.2019
5673 Clouds 22 1017 42 10000 1 0 06:48 23.10.2019
5674 Clouds 21 1018 40 10000 1 0 06:23 23.10.2019
5675 Clouds 21 1018 45 10000 2 280 05:59 23.10.2019
5676 Clouds 19 1019 48 10000 2 310 05:18 23.10.2019
5677 Clouds 17 1019 67 7000 2 350 03:37 23.10.2019
5678 Clear 13 1019 81 6000 3 360 02:42 23.10.2019
5679 Clear 13 1018 81 7000 2 340 01:35 23.10.2019
5680 Clear 11 1018 87 7000 2 340 00:59 23.10.2019
5681 Clear 11 1018 87 8000 2 350 00:33 23.10.2019
5682 Clear 10 1017 87 8000 1 340 23:43 22.10.2019
5683 Clear 10 1017 87 8000 1 340 23:19 22.10.2019
5684 Clear 10 1017 87 8000 2 340 22:59 22.10.2019
5685 Clear 10 1017 87 8000 2 340 22:59 22.10.2019
5686 Clear 10 1017 87 8000 1 0 22:40 22.10.2019
5687 Clear 12 1017 87 8000 1 0 22:21 22.10.2019
5688 Clear 11 1017 93 8000 2 340 21:57 22.10.2019
5689 Clear 11 1017 87 8000 2 350 21:38 22.10.2019
5690 Clouds 11 1017 87 8000 2 350 21:19 22.10.2019
5691 Clouds 11 1017 87 8000 2 350 20:58 22.10.2019
5692 Clouds 11 1017 93 8000 2 360 20:40 22.10.2019
5693 Clouds 12 1017 93 8000 2 360 20:21 22.10.2019
5694 Clouds 12 1018 93 8000 2 350 19:56 22.10.2019
5695 Clouds 12 1017 93 8000 1 340 19:38 22.10.2019
5696 Clouds 13 1017 93 8000 1 340 19:20 22.10.2019
5697 Clouds 13 1018 93 8000 2 350 18:54 22.10.2019
5698 Clouds 13 1018 93 8000 1.34 32 18:36 22.10.2019
5699 Clouds 13 1018 93 8000 1.28 47 18:18 22.10.2019
5700 Clouds 12 1018 93 8000 1 0 17:39 22.10.2019
5701 Clouds 13 1018 93 8000 1 0 17:20 22.10.2019
5702 Clouds 12 1018 93 8000 1 0 16:59 22.10.2019
5703 Clouds 12 1018 93 8000 1.28 47 16:39 22.10.2019
5704 Clouds 12 1018 93 8000 1.28 47 16:39 22.10.2019
5705 Clouds 14 1018 93 8000 1.28 47 16:20 22.10.2019
5706 Clouds 14 1018 93 8000 1.28 47 16:20 22.10.2019
5707 Clouds 14 1018 93 10000 1 30 15:58 22.10.2019
5708 Clouds 15 1017 93 10000 1 0 15:40 22.10.2019
5709 Clouds 14 1017 93 10000 1 0 15:19 22.10.2019
5710 Clouds 14 1017 87 10000 1 360 14:46 22.10.2019
5711 Clouds 14 1017 87 10000 2 80 14:21 22.10.2019
5712 Clouds 14 1017 93 10000 2 70 13:54 22.10.2019
5713 Clouds 15 1017 87 10000 2 60 13:36 22.10.2019
5714 Clouds 14 1017 87 10000 2 60 13:18 22.10.2019
5715 Clouds 15 1016 81 10000 1 80 12:41 22.10.2019
5716 Clouds 17 1016 81 10000 1 80 12:22 22.10.2019
5717 Clouds 17 1016 76 10000 1 60 11:59 22.10.2019
5718 Clouds 17 1016 72 10000 1 70 11:39 22.10.2019
5719 Clouds 17 1016 72 10000 1 70 11:21 22.10.2019
5720 Clouds 18 1016 63 10000 1 70 10:58 22.10.2019
5721 Clouds 19 1016 55 10000 1 0 10:37 22.10.2019
5722 Clouds 19 1016 55 10000 1 0 10:37 22.10.2019
5723 Clouds 19 1016 55 10000 1 0 10:19 22.10.2019
5724 Clouds 19 1016 45 10000 1 90 09:55 22.10.2019
5725 Clouds 20 1016 45 10000 2 120 09:36 22.10.2019
5726 Clouds 20 1016 45 10000 2 120 09:18 22.10.2019
5727 Clouds 20 1017 45 10000 2 0 08:42 22.10.2019
5728 Clouds 20 1017 45 10000 2 0 08:21 22.10.2019
5729 Clouds 21 1017 45 10000 2 0 07:49 22.10.2019
5730 Clouds 21 1018 42 10000 2 0 07:27 22.10.2019
5731 Clouds 21 1018 45 10000 2 0 06:52 22.10.2019
5732 Clouds 19 1018 48 10000 1 0 06:31 22.10.2019
5733 Clear 19 1018 51 10000 1 0 05:58 22.10.2019
5734 Clear 18 1019 48 10000 1 0 05:24 22.10.2019
5735 Clear 12 1019 66 10000 2 350 02:48 22.10.2019
5736 Clear 12 1019 81 10000 2 340 02:28 22.10.2019
5737 Clear 10 1019 75 10000 2 360 01:29 22.10.2019
5738 Clear 9 1018 93 10000 2 350 00:58 22.10.2019
5739 Clear 9 1018 93 10000 1 0 00:40 22.10.2019
5740 Clear 10 1018 93 10000 1 0 00:21 22.10.2019
5741 Clear 10 1018 93 10000 1 350 23:55 21.10.2019
5742 Clear 10 1018 87 10000 2 340 23:37 21.10.2019
5743 Clear 9 1018 87 10000 2 340 23:18 21.10.2019
5744 Clear 9 1018 87 10000 2 340 23:18 21.10.2019
5745 Clear 10 1018 86 10000 2 350 22:56 21.10.2019
5746 Clear 10 1018 87 10000 2 350 22:38 21.10.2019
5747 Clear 10 1018 87 10000 2 350 22:19 21.10.2019
5748 Clear 9 1018 93 10000 1 340 21:54 21.10.2019
5749 Clear 9 1018 93 10000 1 0 21:36 21.10.2019
5750 Clouds 10 1018 93 10000 1 0 21:18 21.10.2019
5751 Clouds 8 1019 87 10000 0.62 59 20:41 21.10.2019
5752 Clouds 10 1019 87 10000 0.62 59 20:21 21.10.2019
5753 Clouds 10 1019 87 10000 1 350 19:59 21.10.2019
5754 Clouds 10 1019 87 10000 0.62 59 19:41 21.10.2019
5755 Clouds 10 1019 87 10000 0.62 59 19:22 21.10.2019
5756 Clouds 7 1019 87 10000 0.62 59 18:57 21.10.2019
5757 Clouds 8 1019 93 10000 0.62 59 18:38 21.10.2019
5758 Clouds 11 1019 93 10000 0.9 157 18:19 21.10.2019
5759 Clouds 10 1019 87 10000 1 0 17:57 21.10.2019
5760 Clouds 10 1019 87 10000 1 70 17:38 21.10.2019
5761 Clouds 10 1019 87 10000 1 70 17:19 21.10.2019
5762 Clouds 10 1019 87 10000 1 40 16:57 21.10.2019
5763 Clouds 11 1019 87 10000 1 60 16:39 21.10.2019
5764 Clouds 11 1019 87 10000 1 60 16:20 21.10.2019
5765 Clouds 9 1019 87 10000 1 50 15:47 21.10.2019
5766 Clouds 11 1019 87 10000 1 10 15:25 21.10.2019
5767 Clouds 12 1019 81 10000 1 40 14:58 21.10.2019
5768 Clouds 12 1019 76 10000 1.41 159 14:39 21.10.2019
5769 Clouds 13 1019 76 10000 1.41 159 14:21 21.10.2019
5770 Clouds 13 1018 76 10000 1 0 13:57 21.10.2019
5771 Clouds 15 1018 76 10000 2 60 13:39 21.10.2019
5772 Clouds 14 1018 76 10000 2 60 13:19 21.10.2019
5773 Clouds 14 1018 71 10000 1 80 12:42 21.10.2019
5774 Clear 15 1018 71 10000 1 80 12:23 21.10.2019
5775 Clear 15 1018 71 10000 1 80 12:23 21.10.2019
5776 Clear 16 1018 58 10000 1 90 11:58 21.10.2019
5777 Clear 17 1018 41 10000 1 150 11:39 21.10.2019
5778 Clear 18 1018 41 10000 1 150 11:20 21.10.2019
5779 Clear 19 1018 25 10000 2 130 10:57 21.10.2019
5780 Clear 20 1018 24 10000 2 150 10:38 21.10.2019
5781 Clear 20 1018 24 10000 2 150 10:19 21.10.2019
5782 Clear 21 1018 20 10000 3 0 09:51 21.10.2019
5783 Clear 21 1019 19 10000 3 170 09:26 21.10.2019
5784 Clear 20 1019 19 10000 3 170 08:59 21.10.2019
5785 Clear 21 1019 20 10000 1 0 08:40 21.10.2019
5786 Clear 20 1019 20 10000 1 0 08:22 21.10.2019
5787 Clear 21 1020 20 10000 3 0 07:44 21.10.2019
5788 Clear 21 1020 22 10000 2 0 07:21 21.10.2019
5789 Clear 21 1021 22 10000 2 0 06:57 21.10.2019
5790 Clear 20 1021 22 10000 2 230 06:39 21.10.2019
5791 Clear 20 1022 20 10000 2 0 05:57 21.10.2019
5792 Clear 20 1022 20 10000 2 0 05:57 21.10.2019
5793 Clear 20 1023 25 10000 2 310 04:50 21.10.2019
5794 Clear 16 1023 35 10000 4 330 03:38 21.10.2019
5795 Clear 13 1023 53 10000 3 350 02:37 21.10.2019
5796 Clear 13 1023 53 10000 3 350 02:19 21.10.2019
5797 Clear 9 1022 27 10000 3 340 01:38 21.10.2019
5798 Clear 9 1022 28 10000 2 360 00:51 21.10.2019
5799 Clear 9 1022 28 10000 1 0 00:27 21.10.2019
5800 Clear 9 1022 30 10000 3 330 23:43 20.10.2019
5801 Clear 9 1021 65 10000 2 340 23:23 20.10.2019
5802 Clear 9 1021 30 10000 2 340 22:58 20.10.2019
5803 Clear 6 1021 60 10000 2 340 22:39 20.10.2019
5804 Clear 11 1021 60 10000 2 340 22:19 20.10.2019
5805 Clear 11 1021 56 10000 1 0 21:59 20.10.2019
5806 Clear 7 1021 56 10000 3 350 21:39 20.10.2019
5807 Clear 10 1021 56 10000 3 350 21:21 20.10.2019
5808 Clear 11 1021 52 10000 3 350 20:54 20.10.2019
5809 Clear 11 1021 39 10000 3 340 20:36 20.10.2019
5810 Clear 12 1021 39 10000 3 340 20:18 20.10.2019
5811 Clear 11 1021 39 10000 4 350 19:55 20.10.2019
5812 Clear 13 1021 28 10000 3 10 19:36 20.10.2019
5813 Clear 14 1021 28 10000 3 10 19:18 20.10.2019
5814 Clear 12 1021 26 10000 2 10 18:40 20.10.2019
5815 Clear 13 1021 23 10000 2 10 18:20 20.10.2019
5816 Clear 14 1021 40 10000 4 350 17:56 20.10.2019
5817 Clear 14 1021 43 10000 3 340 17:37 20.10.2019
5818 Clear 14 1021 43 10000 3 340 17:19 20.10.2019
5819 Clear 15 1020 32 10000 4 360 16:43 20.10.2019
5820 Clear 16 1020 37 10000 3 10 16:24 20.10.2019
5821 Clear 14 1021 66 10000 1 0 15:59 20.10.2019
5822 Clear 15 1020 46 10000 3 340 15:38 20.10.2019
5823 Clear 15 1020 46 10000 3 340 15:20 20.10.2019
5824 Clear 15 1020 23 10000 1 0 14:58 20.10.2019
5825 Clear 16 1020 30 10000 2 350 14:38 20.10.2019
5826 Clear 16 1020 30 10000 2 350 14:19 20.10.2019
5827 Clear 18 1019 20 10000 4 310 13:56 20.10.2019
5828 Clear 18 1019 20 10000 4 310 13:56 20.10.2019
5829 Clear 18 1019 15 10000 4 290 13:37 20.10.2019
5830 Clear 19 1019 15 10000 4 290 13:18 20.10.2019
5831 Clear 19 1019 15 10000 5 270 12:56 20.10.2019
5832 Clear 19 1018 16 10000 4 270 12:38 20.10.2019
5833 Clear 19 1018 16 10000 4 270 12:20 20.10.2019
5834 Clear 21 1018 15 10000 5 280 11:55 20.10.2019
5835 Clear 21 1018 14 10000 5 280 11:37 20.10.2019
5836 Clear 21 1018 14 10000 5 280 11:19 20.10.2019
5837 Clear 23 1018 13 10000 4 280 10:41 20.10.2019
5838 Clear 23 1018 13 10000 4 280 10:22 20.10.2019
5839 Clear 23 1018 13 10000 5 270 09:59 20.10.2019
5840 Clear 23 1018 15 10000 5 290 09:41 20.10.2019
5841 Clear 23 1018 15 10000 5 290 09:21 20.10.2019
5842 Clear 23 1018 13 10000 6 270 08:49 20.10.2019
5843 Clear 23 1018 15 10000 6 250 08:24 20.10.2019
5844 Clear 23 1018 15 10000 7 270 07:51 20.10.2019
5845 Clear 23 1019 14 10000 6 280 07:31 20.10.2019
5846 Clear 23 1019 15 10000 6 290 06:59 20.10.2019
5847 Clear 23 1019 17 10000 7 310 06:21 20.10.2019
5848 Clear 23 1021 37 10000 4 320 04:28 20.10.2019
5849 Clear 20 1021 59 7000 3 320 03:47 20.10.2019
5850 Mist 17 1021 77 4500 4 340 03:20 20.10.2019
5851 Mist 16 1021 87 3200 2 360 02:43 20.10.2019
5852 Mist 14 1020 93 2100 1 0 01:58 20.10.2019
5853 Mist 12 1020 100 2100 2 50 01:24 20.10.2019
5854 Mist 13 1019 100 2300 1 60 00:57 20.10.2019
5855 Mist 11 1019 93 2300 2 20 00:39 20.10.2019
5856 Mist 11 1019 93 2300 2 20 00:19 20.10.2019
5857 Mist 11 1019 93 3200 1 80 23:42 19.10.2019
5858 Mist 11 1019 93 3200 1 80 23:22 19.10.2019
5859 Mist 11 1019 93 3200 1 20 22:57 19.10.2019
5860 Mist 12 1018 93 3200 2 310 22:38 19.10.2019
5861 Mist 12 1018 93 3200 2 310 22:20 19.10.2019
5862 Mist 12 1018 93 3200 3 250 21:46 19.10.2019
5863 Mist 12 1018 93 2500 2 160 21:23 19.10.2019
5864 Mist 13 1019 93 2500 1 0 20:54 19.10.2019
5865 Mist 13 1019 93 2500 2 10 20:36 19.10.2019
5866 Mist 13 1019 93 2500 2 10 20:18 19.10.2019
5867 Mist 12 1018 93 3000 1 30 19:40 19.10.2019
5868 Mist 13 1018 93 3000 1 30 19:22 19.10.2019
5869 Mist 13 1018 100 3000 1.28 312.183 18:43 19.10.2019
5870 Mist 12 1018 100 3000 1.28 312.183 18:24 19.10.2019
5871 Mist 13 1018 93 2800 1 0 17:59 19.10.2019
5872 Mist 13 1019 93 2800 1 0 17:37 19.10.2019
5873 Mist 13 1019 93 2800 1 0 17:19 19.10.2019
5874 Mist 13 1018 93 2800 1.32 277.114 16:39 19.10.2019
5875 Mist 13 1018 93 2800 1.32 277.114 16:20 19.10.2019
5876 Mist 13 1018 100 3200 1 50 15:59 19.10.2019
5877 Mist 13 1018 93 3200 1 0 15:39 19.10.2019
5878 Mist 15 1018 93 3200 1 0 15:21 19.10.2019
5879 Mist 15 1019 93 3200 1 0 14:38 19.10.2019
5880 Mist 15 1019 93 3200 1 0 14:38 19.10.2019
5881 Mist 15 1019 93 3200 1 0 14:20 19.10.2019
5882 Mist 15 1019 100 3200 1 70 13:56 19.10.2019
5883 Mist 16 1019 93 2800 1 80 13:38 19.10.2019
5884 Mist 16 1019 93 2800 1 80 13:18 19.10.2019
5885 Mist 16 1019 87 2800 1 60 12:41 19.10.2019
5886 Mist 16 1019 87 2800 1 60 12:22 19.10.2019
5887 Mist 17 1018 87 2800 1 70 11:59 19.10.2019
5888 Mist 17 1019 82 3200 1.73 181.524 11:40 19.10.2019
5889 Mist 18 1019 82 3200 1.73 181.524 11:22 19.10.2019
5890 Haze 18 1019 67 3200 1 0 10:42 19.10.2019
5891 Haze 19 1019 67 3200 1 0 10:23 19.10.2019
5892 Haze 19 1019 63 3200 2 120 09:59 19.10.2019
5893 Haze 19 1019 63 2800 2 150 09:41 19.10.2019
5894 Haze 19 1019 63 2800 2 150 09:23 19.10.2019
5895 Haze 18 1019 63 2800 1 0 08:57 19.10.2019
5896 Mist 19 1020 63 2800 1 0 08:39 19.10.2019
5897 Mist 18 1020 67 2800 1 0 08:20 19.10.2019
5898 Mist 19 1020 63 3000 2 0 07:42 19.10.2019
5899 Mist 19 1020 63 3000 2 0 07:23 19.10.2019
5900 Mist 19 1020 63 3000 2 0 07:23 19.10.2019
5901 Mist 18 1022 72 3000 1 0 06:40 19.10.2019
5902 Mist 17 1022 76 2800 2 70 05:55 19.10.2019
5903 Mist 16 1022 76 2800 1 0 05:27 19.10.2019
5904 Mist 13 1022 87 2500 1 0 03:25 19.10.2019
5905 Mist 12 1022 93 2300 1 70 02:38 19.10.2019
5906 Mist 11 1022 93 2200 1 80 01:51 19.10.2019
5907 Mist 10 1022 100 2500 1 0 01:18 19.10.2019
5908 Mist 10 1022 93 2700 1 70 00:45 19.10.2019
5909 Mist 10 1022 93 2800 0.3 2.291 00:22 19.10.2019
5910 Mist 9 1021 93 2800 0.3 2.291 23:41 18.10.2019
5911 Mist 10 1021 93 2800 0.3 2.291 23:23 18.10.2019
5912 Mist 10 1021 93 3000 0.3 2.291 22:55 18.10.2019
5913 Mist 10 1021 93 3200 0.3 2.291 22:37 18.10.2019
5914 Mist 10 1021 93 3200 0.3 2.291 22:19 18.10.2019
5915 Mist 10 1021 93 3200 1 340 21:56 18.10.2019
5916 Mist 10 1021 93 3200 1 340 21:56 18.10.2019
5917 Mist 10 1021 100 3500 1 0 21:38 18.10.2019
5918 Mist 11 1021 100 3500 1 0 21:19 18.10.2019
5919 Mist 10 1022 100 3500 0.49 314.751 20:54 18.10.2019
5920 Mist 10 1022 93 3500 1 0 20:36 18.10.2019
5921 Mist 10 1022 93 3500 1 0 20:18 18.10.2019
5922 Mist 10 1022 93 3500 1 100 19:41 18.10.2019
5923 Mist 10 1022 93 3500 1 100 19:23 18.10.2019
5924 Mist 10 1022 100 3500 1 60 18:59 18.10.2019
5925 Mist 10 1022 93 3500 1 60 18:41 18.10.2019
5926 Mist 11 1022 93 3500 1 60 18:23 18.10.2019
5927 Mist 11 1022 93 3500 1 0 17:57 18.10.2019
5928 Mist 11 1022 93 4000 1 40 17:38 18.10.2019
5929 Mist 10 1022 93 4000 1 40 17:20 18.10.2019
5930 Mist 13 1022 100 4000 1 80 16:44 18.10.2019
5931 Mist 13 1022 100 4000 1 80 16:44 18.10.2019
5932 Mist 13 1022 93 4000 0.9 271.397 16:22 18.10.2019
5933 Mist 13 1022 93 5000 1 80 15:59 18.10.2019
5934 Mist 13 1022 93 5000 1 150 15:39 18.10.2019
5935 Mist 12 1022 93 5000 1 150 15:20 18.10.2019
5936 Mist 12 1022 87 5000 1 150 14:58 18.10.2019
5937 Mist 13 1022 87 5000 1 160 14:39 18.10.2019
5938 Mist 14 1022 87 5000 1 160 14:21 18.10.2019
5939 Mist 14 1022 87 5000 1 0 13:58 18.10.2019
5940 Mist 15 1022 87 5000 2 160 13:39 18.10.2019
5941 Mist 15 1022 87 5000 2 160 13:21 18.10.2019
5942 Clear 15 1022 87 6000 2 150 12:56 18.10.2019
5943 Clear 15 1021 76 6000 2 160 12:38 18.10.2019
5944 Clear 16 1021 76 6000 2 160 12:20 18.10.2019
5945 Clear 16 1021 71 7000 1 0 11:54 18.10.2019
5946 Clear 17 1021 51 8000 3 170 11:36 18.10.2019
5947 Clear 17 1021 51 8000 3 170 11:18 18.10.2019
5948 Clear 17 1021 51 8000 3 170 11:18 18.10.2019
5949 Clear 18 1021 48 10000 3 180 10:41 18.10.2019
5950 Clear 18 1021 48 10000 3 180 10:22 18.10.2019
5951 Clear 18 1021 48 10000 3 180 10:22 18.10.2019
5952 Clear 18 1021 45 10000 4 190 09:58 18.10.2019
5953 Clear 18 1021 45 10000 3 190 09:40 18.10.2019
5954 Clear 18 1021 45 10000 3 190 09:20 18.10.2019
5955 Clear 19 1021 42 10000 4 190 08:45 18.10.2019
5956 Clear 19 1021 45 10000 3 140 08:26 18.10.2019
5957 Clear 19 1022 48 8000 2 130 07:59 18.10.2019
5958 Clear 18 1022 52 8000 2 0 07:41 18.10.2019
5959 Clear 18 1022 52 8000 2 0 07:18 18.10.2019
5960 Clear 18 1023 59 8000 2 180 06:38 18.10.2019
5961 Clear 18 1023 59 8000 2 180 06:19 18.10.2019
5962 Clear 18 1024 59 6000 2 170 05:54 18.10.2019
5963 Mist 17 1024 67 5000 1 0 05:20 18.10.2019
5964 Mist 15 1025 100 4000 2 20 03:42 18.10.2019
5965 Mist 13 1025 100 4000 2 20 03:19 18.10.2019
5966 Mist 12 1024 93 3000 3 340 02:33 18.10.2019
5967 Mist 10 1024 93 3500 2 10 01:43 18.10.2019
5968 Mist 9 1024 100 4000 1 0 01:23 18.10.2019
5969 Mist 9 1024 93 4000 1 130 00:43 18.10.2019
5970 Mist 9 1024 100 4500 1 0 00:20 18.10.2019
5971 Mist 9 1024 93 4500 0.3 347.093 23:41 17.10.2019
5972 Mist 9 1024 93 4500 0.3 347.093 23:21 17.10.2019
5973 Mist 9 1023 93 5000 0.3 347.093 22:58 17.10.2019
5974 Mist 9 1023 100 5000 1 60 22:39 17.10.2019
5975 Mist 10 1023 100 5000 1 60 22:20 17.10.2019
5976 Mist 10 1023 93 5000 1 0 21:58 17.10.2019
5977 Mist 10 1024 93 5000 1 150 21:39 17.10.2019
5978 Mist 10 1024 93 5000 1 150 21:21 17.10.2019
5979 Mist 10 1024 93 5000 1 0 20:58 17.10.2019
5980 Mist 11 1024 93 5000 1 0 20:40 17.10.2019
5981 Mist 11 1024 93 5000 1 0 20:19 17.10.2019
5982 Mist 11 1024 93 5000 1 0 20:19 17.10.2019
5983 Mist 11 1024 87 5000 2 140 19:59 17.10.2019
5984 Mist 11 1024 87 5000 2 150 19:40 17.10.2019
5985 Mist 11 1024 87 5000 2 150 19:20 17.10.2019
5986 Mist 11 1024 93 5000 2 130 18:58 17.10.2019
5987 Mist 11 1024 87 5000 1 110 18:38 17.10.2019
5988 Mist 12 1024 87 5000 1 110 18:20 17.10.2019
5989 Mist 12 1024 87 5000 2 170 17:42 17.10.2019
5990 Mist 12 1025 82 5000 1 0 17:23 17.10.2019
5991 Mist 12 1025 82 5000 2 200 16:57 17.10.2019
5992 Clouds 13 1025 82 6000 2 180 16:39 17.10.2019
5993 Clouds 13 1025 82 6000 2 180 16:18 17.10.2019
5994 Clouds 13 1025 82 6000 2 0 15:56 17.10.2019
5995 Clouds 13 1025 82 6000 2 0 15:38 17.10.2019
5996 Clouds 13 1025 82 6000 2 0 15:20 17.10.2019
5997 Clouds 13 1025 82 6000 2 180 14:55 17.10.2019
5998 Clouds 13 1024 76 6000 2 170 14:37 17.10.2019
5999 Clouds 13 1024 76 6000 2 170 14:18 17.10.2019
6000 Clouds 13 1024 71 7000 3 180 13:39 17.10.2019
6001 Clouds 13 1024 71 7000 3 180 13:19 17.10.2019
6002 Clouds 13 1024 71 8000 2 190 12:55 17.10.2019
6003 Clouds 13 1024 71 8000 2 190 12:55 17.10.2019
6004 Clouds 13 1024 67 8000 2 190 12:36 17.10.2019
6005 Clouds 13 1024 67 8000 2 190 12:18 17.10.2019
6006 Clouds 15 1024 62 9000 2 160 11:41 17.10.2019
6007 Clouds 14 1024 62 9000 2 160 11:22 17.10.2019
6008 Clouds 15 1024 58 9000 2 190 10:58 17.10.2019
6009 Clouds 14 1024 58 9000 2 220 10:39 17.10.2019
6010 Clouds 14 1024 58 9000 2 220 10:19 17.10.2019
6011 Clouds 15 1024 58 9000 2 190 09:55 17.10.2019
6012 Clouds 15 1024 58 9000 2 190 09:55 17.10.2019
6013 -273 0 0 0 0 0 09:55 17.10.2019
6014 Clouds 15 1024 55 8000 2 200 09:37 17.10.2019
6015 Clouds 15 1024 55 8000 2 200 09:19 17.10.2019
6016 Clouds 16 1024 55 7000 2 210 08:46 17.10.2019
6017 Clouds 16 1024 55 7000 1 0 08:26 17.10.2019
6018 Clouds 16 1024 58 6000 1 0 07:58 17.10.2019
6019 Clouds 16 1025 59 6000 1 0 07:40 17.10.2019
6020 Clouds 16 1025 59 6000 1 0 07:20 17.10.2019
6021 Clouds 16 1025 59 6000 1 0 07:20 17.10.2019
6022 Clouds 16 1026 62 6000 1 0 06:42 17.10.2019
6023 Clouds 15 1026 62 6000 1 0 06:23 17.10.2019
6024 Clouds 15 1026 71 7000 1 0 05:58 17.10.2019
6025 Clouds 15 1026 67 8000 1 0 05:34 17.10.2019
6026 Clouds 13 1027 66 8000 1 0 04:57 17.10.2019
6027 Rain 14 1027 71 7000 1 0 03:58 17.10.2019
6028 Rain 13 1027 76 7000 1 0 03:38 17.10.2019
6029 Clouds 11 1026 93 7000 1 0 01:55 17.10.2019
6030 Clouds 10 1025 87 10000 1 150 00:41 17.10.2019
6031 Clouds 10 1025 87 10000 1 150 00:20 17.10.2019
6032 Clouds 11 1026 87 10000 1 150 23:42 16.10.2019
6033 Clouds 10 1026 87 10000 1 100 23:22 16.10.2019
6034 Clouds 10 1025 87 10000 1 140 22:58 16.10.2019
6035 Clouds 11 1025 87 10000 1 100 22:38 16.10.2019
6036 Clouds 11 1025 87 10000 1 100 22:20 16.10.2019
6037 Clouds 11 1025 87 10000 1 60 21:58 16.10.2019
6038 Clouds 11 1025 87 10000 1 60 21:58 16.10.2019
6039 Clouds 11 1025 87 10000 1 70 21:38 16.10.2019
6040 Clouds 11 1025 87 10000 1 70 21:20 16.10.2019
6041 Clouds 11 1026 87 10000 1 80 20:59 16.10.2019
6042 Clouds 11 1026 87 10000 1 80 20:59 16.10.2019
6043 Clouds 11 1026 81 10000 1 80 20:41 16.10.2019
6044 Clouds 11 1026 81 10000 1 80 20:22 16.10.2019
6045 Clouds 11 1026 81 10000 1 0 19:59 16.10.2019
6046 Clouds 11 1026 81 10000 2 120 19:40 16.10.2019
6047 Clouds 11 1026 81 10000 2 120 19:21 16.10.2019
6048 Clouds 11 1026 76 10000 2 140 18:56 16.10.2019
6049 Clouds 11 1026 76 10000 2 140 18:56 16.10.2019
6050 Clouds 11 1026 76 10000 2 140 18:56 16.10.2019
6051 -273 0 0 0 0 0 18:56 16.10.2019
6052 Clouds 11 1026 76 10000 2 160 18:37 16.10.2019
6053 Clouds 11 1026 76 10000 2 160 18:18 16.10.2019
6054 Clouds 11 1026 76 10000 2 160 18:18 16.10.2019
6055 Clouds 11 1026 76 10000 2 160 18:18 16.10.2019
6056 Clouds 11 1026 81 10000 1 140 17:55 16.10.2019
6057 Clouds 11 1026 81 10000 1 140 17:55 16.10.2019
6058 Clouds 11 1027 76 10000 2 160 17:36 16.10.2019
6059 Clouds 11 1027 76 10000 2 160 17:18 16.10.2019
6060 Clouds 11 1027 76 10000 1 0 16:43 16.10.2019
6061 Clouds 12 1027 71 10000 1 150 16:22 16.10.2019
6062 Clouds 12 1027 66 10000 2 140 15:59 16.10.2019
6063 Clouds 12 1027 58 10000 3 180 15:39 16.10.2019
6064 Clouds 12 1027 58 10000 3 180 15:39 16.10.2019
6065 Clouds 12 1027 58 10000 3 180 15:19 16.10.2019
6066 Clouds 12 1027 58 10000 3 180 14:58 16.10.2019
6067 Clouds 13 1027 58 10000 3 180 14:39 16.10.2019
6068 Clouds 13 1027 58 10000 3 180 14:39 16.10.2019
6069 Clouds 13 1027 62 10000 3 170 14:20 16.10.2019
6070 Clouds 13 1027 62 10000 4 170 13:57 16.10.2019
6071 Clouds 13 1027 62 10000 4 170 13:39 16.10.2019
6072 Clouds 13 1026 62 10000 4 180 13:20 16.10.2019
6073 Clouds 14 1026 58 10000 4 180 12:42 16.10.2019
6074 Clouds 14 1026 54 10000 3 180 12:20 16.10.2019
6075 Clouds 14 1026 47 10000 4 180 11:45 16.10.2019
6076 Clouds 14 1026 47 10000 4 180 11:45 16.10.2019
6077 Clouds 14 1025 47 10000 4 180 11:19 16.10.2019
6078 Clouds 15 1025 44 10000 6 180 10:56 16.10.2019
6079 Clouds 15 1025 33 10000 2 170 10:36 16.10.2019
6080 Clouds 16 1025 33 10000 2 170 10:18 16.10.2019
6081 -273 0 0 0 0 0 09:40 16.10.2019
6082 Clouds 17 1025 22 10000 2 0 09:40 16.10.2019
6083 Clouds 17 1025 22 10000 1 0 09:21 16.10.2019
6084 Clouds 19 1025 19 10000 2 150 08:46 16.10.2019
6085 Clouds 19 1026 24 10000 3 0 08:26 16.10.2019
6086 Clouds 19 1026 24 10000 1 0 07:59 16.10.2019
6087 Clouds 19 1026 24 10000 1 0 07:41 16.10.2019
6088 Clouds 18 1026 25 10000 2 0 07:22 16.10.2019
6089 Clouds 19 1027 23 10000 2 310 06:47 16.10.2019
6090 Clouds 18 1027 25 10000 2 0 06:28 16.10.2019
6091 Clouds 17 1028 15 10000 4 350 04:25 16.10.2019
6092 Clouds 13 1029 43 10000 3 330 02:51 16.10.2019
6093 Clouds 10 1028 75 10000 3 350 01:20 16.10.2019
6094 Clouds 10 1028 75 10000 4 350 00:58 16.10.2019
6095 Clouds 10 1028 75 10000 4 350 00:39 16.10.2019
6096 Clouds 10 1028 75 10000 2 350 23:58 15.10.2019
6097 Clouds 10 1028 75 10000 2 350 23:38 15.10.2019
6098 Clouds 10 1028 75 10000 4 350 23:19 15.10.2019
6099 Clouds 10 1028 80 10000 3 340 22:55 15.10.2019
6100 Clouds 10 1028 80 10000 3 340 22:37 15.10.2019
6101 Clouds 10 1028 80 10000 3 350 22:18 15.10.2019
6102 Clouds 10 1028 80 10000 3 350 21:54 15.10.2019
6103 Clouds 9 1029 80 10000 2 350 21:36 15.10.2019
6104 Clouds 9 1029 80 10000 2 350 21:18 15.10.2019
6105 -273 0 0 0 0 0 20:54 15.10.2019
6106 Clouds 9 1029 86 10000 2 330 20:36 15.10.2019
6107 Clouds 9 1029 86 10000 2 330 20:18 15.10.2019
6108 Clouds 11 1030 93 10000 2 350 19:41 15.10.2019
6109 Clouds 11 1030 93 10000 2 350 19:41 15.10.2019
6110 Clouds 11 1030 93 10000 2 350 19:20 15.10.2019
6111 Clouds 10 1030 93 10000 1 0 18:57 15.10.2019
6112 Clouds 10 1030 93 10000 1 0 18:39 15.10.2019
6113 Clouds 10 1030 93 10000 0.119 172 18:20 15.10.2019
6114 Clouds 9 1030 87 10000 1 350 17:54 15.10.2019
6115 Clouds 9 1030 93 10000 1 70 17:36 15.10.2019
6116 Clouds 11 1030 93 10000 1 70 17:18 15.10.2019
6117 Clouds 10 1030 87 10000 2 60 16:42 15.10.2019
6118 Clouds 10 1030 93 10000 1 0 16:21 15.10.2019
6119 Clouds 11 1030 87 10000 2 50 15:56 15.10.2019
6120 Clouds 11 1030 87 10000 2 50 15:38 15.10.2019
6121 Clouds 11 1030 87 10000 1 0 15:19 15.10.2019
6122 Clouds 11 1030 87 10000 1 0 14:55 15.10.2019
6123 Clouds 11 1030 87 10000 1 0 14:36 15.10.2019
6124 Clouds 11 1030 87 10000 1 0 14:18 15.10.2019
6125 Clouds 12 1030 75 10000 1 0 13:43 15.10.2019
6126 Clouds 12 1030 75 10000 1 0 13:20 15.10.2019
6127 Clouds 13 1030 66 10000 1 0 12:56 15.10.2019
6128 Clouds 13 1030 66 10000 1 140 12:37 15.10.2019
6129 Clouds 13 1030 66 10000 1 140 12:37 15.10.2019
6130 Clouds 14 1030 66 10000 1 140 12:18 15.10.2019
6131 Clouds 14 1030 57 10000 1 0 11:42 15.10.2019
6132 Clouds 15 1030 41 10000 1 0 11:20 15.10.2019
6133 Clouds 16 1030 26 10000 3 190 10:56 15.10.2019
6134 Clear 16 1030 21 10000 2 210 10:37 15.10.2019
6135 Clear 17 1030 21 10000 2 210 10:18 15.10.2019
6136 Clear 17 1030 20 10000 3 220 09:41 15.10.2019
6137 Clear 18 1030 20 10000 3 220 09:21 15.10.2019
6138 Clear 18 1030 20 10000 3 220 09:21 15.10.2019
6139 Clear 18 1031 18 10000 3 230 08:58 15.10.2019
6140 Clear 18 1031 18 10000 3 230 08:58 15.10.2019
6141 -273 0 0 0 0 0 08:58 15.10.2019
6142 Clear 18 1031 18 10000 3 250 08:40 15.10.2019
6143 Clear 17 1031 18 10000 3 250 08:20 15.10.2019
6144 Clear 18 1031 18 10000 2 0 07:48 15.10.2019
6145 Clear 19 1032 18 10000 3 240 07:23 15.10.2019
6146 Clear 19 1033 17 10000 2 0 06:58 15.10.2019
6147 Clear 19 1033 17 10000 2 0 06:40 15.10.2019
6148 Clear 17 1034 25 10000 1 0 05:58 15.10.2019
6149 Clear 16 1034 25 10000 1 0 05:37 15.10.2019
6150 Clear 16 1035 33 10000 2 300 04:53 15.10.2019
6151 Clear 15 1036 32 10000 1 0 04:19 15.10.2019
6152 Clear 13 1036 50 10000 3 330 03:35 15.10.2019
6153 Clear 13 1036 50 10000 3 330 03:35 15.10.2019
6154 Clear 9 1036 80 10000 3 340 01:59 15.10.2019
6155 Clear 8 1036 80 10000 3 340 01:40 15.10.2019
6156 Clear 7 1035 24 10000 3 360 00:59 15.10.2019
6157 Clear 7 1036 80 10000 3 350 00:26 15.10.2019
6158 Clear 4 1036 30 10000 2 330 23:59 14.10.2019
6159 Clear 6 1036 30 10000 2 330 23:37 14.10.2019
6160 Clear 7 1036 86 10000 2 360 23:19 14.10.2019
6161 Clear 7 1036 86 10000 2 360 23:19 14.10.2019
6162 Clear 6 1036 30 10000 2 360 22:40 14.10.2019
6163 Clear 8 1036 30 10000 2 340 22:21 14.10.2019
6164 Clear 6 1036 86 10000 2 350 21:58 14.10.2019
6165 Clear 7 1036 86 10000 2 350 21:40 14.10.2019
6166 Clear 8 1036 93 10000 2 360 21:21 14.10.2019
6167 Clear 8 1036 35 10000 2 360 20:58 14.10.2019
6168 Clear 7 1037 93 10000 1 0 20:38 14.10.2019
6169 Clear 7 1037 93 10000 1 0 20:19 14.10.2019
6170 -273 0 0 0 0 0 19:55 14.10.2019
6171 -273 0 0 0 0 0 19:54 14.10.2019
6172 Clear 8 1037 93 10000 1 50 19:36 14.10.2019
6173 Clear 9 1037 93 10000 1 50 19:18 14.10.2019
6174 Clear 9 1037 93 10000 1 0 18:54 14.10.2019
6175 Clear 9 1037 86 10000 1 30 18:36 14.10.2019
6176 Clear 7 1037 86 10000 1 30 18:18 14.10.2019
6177 Clear 7 1037 93 10000 1 40 17:41 14.10.2019
6178 Clear 7 1037 93 10000 1 40 17:22 14.10.2019
6179 Clear 8 1037 93 10000 1 0 16:54 14.10.2019
6180 Clear 8 1037 93 10000 1 60 16:36 14.10.2019
6181 Clear 8 1037 93 10000 1 60 16:18 14.10.2019
6182 Clear 9 1037 86 10000 1 0 15:40 14.10.2019
6183 Clear 9 1037 86 10000 1 0 15:40 14.10.2019
6184 Clear 9 1037 86 10000 1 0 15:21 14.10.2019
6185 Clear 9 1036 80 10000 2 130 14:44 14.10.2019
6186 Clear 11 1036 80 10000 1 0 14:25 14.10.2019
6187 Clear 10 1036 70 10000 2 180 13:57 14.10.2019
6188 Clear 10 1036 70 10000 2 150 13:39 14.10.2019
6189 Clear 10 1036 70 10000 2 150 13:20 14.10.2019
6190 Clear 10 1036 70 10000 2 150 13:20 14.10.2019
6191 Clear 11 1035 33 10000 2 160 12:41 14.10.2019
6192 Clear 12 1035 24 10000 2 160 12:21 14.10.2019
6193 Clear 12 1035 24 10000 2 130 11:55 14.10.2019
6194 Clear 13 1035 28 10000 2 140 11:36 14.10.2019
6195 Clear 14 1035 28 10000 2 140 11:18 14.10.2019
6196 Clear 15 1035 19 10000 2 150 10:44 14.10.2019
6197 Clear 16 1035 19 10000 2 150 10:21 14.10.2019
6198 Clear 16 1035 18 10000 3 0 09:59 14.10.2019
6199 -273 0 0 0 0 0 09:40 14.10.2019
6200 Clear 16 1035 19 10000 1 0 09:20 14.10.2019
6201 Clear 16 1036 17 10000 2 0 08:48 14.10.2019
6202 Clear 16 1036 17 10000 2 30 08:23 14.10.2019
6203 Clear 16 1036 19 10000 2 210 07:45 14.10.2019
6204 Clear 16 1037 19 10000 1 0 07:23 14.10.2019
6205 Clear 15 1038 17 10000 2 0 06:56 14.10.2019
6206 Clear 15 1038 20 10000 2 0 06:28 14.10.2019
6207 Clear 14 1039 24 10000 2 360 05:55 14.10.2019
6208 Clear 13 1039 25 10000 2 350 04:59 14.10.2019
6209 Clear 13 1039 30 10000 4 330 03:49 14.10.2019
6210 Clear 10 1039 46 10000 4 350 03:22 14.10.2019
6211 Clear 8 1038 64 10000 2 10 01:56 14.10.2019
6212 Clear 7 1038 51 10000 3 320 01:18 14.10.2019
6213 Clear 4 1038 80 10000 1 0 00:41 14.10.2019
6214 Clear 5 1038 80 10000 1 0 00:18 14.10.2019
6215 Clear 4 1037 31 10000 3 360 23:40 13.10.2019
6216 Clear 4 1037 31 10000 3 360 23:19 13.10.2019
6217 Clear 5 1037 74 10000 3 350 22:56 13.10.2019
6218 Clear 6 1037 69 10000 2 340 22:38 13.10.2019
6219 Clear 6 1037 69 10000 2 340 22:19 13.10.2019
6220 Clear 6 1037 74 10000 1 0 21:56 13.10.2019
6221 Clear 6 1037 80 10000 4 340 21:36 13.10.2019
6222 Clear 6 1037 80 10000 4 340 21:36 13.10.2019
6223 Clear 5 1037 80 10000 4 340 21:18 13.10.2019
6224 Clear 5 1037 80 10000 4 340 21:18 13.10.2019
6225 Clear 6 1037 33 10000 3 350 20:55 13.10.2019
6226 Clear 6 1037 86 10000 2 360 20:37 13.10.2019
6227 Clear 6 1037 86 10000 2 360 20:18 13.10.2019
6228 Clear 6 1036 86 10000 3 360 19:54 13.10.2019
6229 Clear 6 1036 86 10000 3 360 19:54 13.10.2019
6230 Clear 6 1036 93 10000 3 360 19:36 13.10.2019
6231 Clear 6 1036 93 10000 3 360 19:36 13.10.2019
6232 Clear 6 1036 93 10000 3 360 19:18 13.10.2019
6233 Clear 7 1036 100 10000 2 360 18:40 13.10.2019
6234 Clear 7 1036 100 10000 2 360 18:40 13.10.2019
6235 Clear 6 1036 100 10000 2 360 18:21 13.10.2019
6236 Clear 7 1036 93 6000 1 0 17:59 13.10.2019
6237 Clouds 7 1035 100 6000 1 0 17:41 13.10.2019
6238 Clouds 7 1035 100 6000 1 0 17:22 13.10.2019
6239 Clouds 8 1035 93 7000 1 60 16:43 13.10.2019
6240 Clouds 8 1035 93 7000 1 60 16:19 13.10.2019
6241 Clouds 8 1034 100 7000 1 0 15:58 13.10.2019
6242 Clouds 8 1034 100 7000 1 70 15:39 13.10.2019
6243 Clouds 8 1034 100 7000 1 70 15:20 13.10.2019
6244 Clouds 9 1033 100 8000 1.38 15.041 14:58 13.10.2019
6245 Clear 9 1032 93 10000 1 80 14:39 13.10.2019
6246 Clear 8 1032 93 10000 1 80 14:20 13.10.2019
6247 Clear 9 1032 93 10000 1 70 13:56 13.10.2019
6248 Clear 9 1031 93 10000 1 70 13:37 13.10.2019
6249 Clear 9 1031 93 10000 1 70 13:18 13.10.2019
6250 Clear 9 1031 93 10000 1 10 12:55 13.10.2019
6251 Clear 9 1030 93 10000 1 0 12:37 13.10.2019
6252 Clear 9 1030 93 10000 1 0 12:18 13.10.2019
6253 Clear 10 1029 93 10000 1 90 11:55 13.10.2019
6254 Clear 10 1029 81 10000 1 0 11:37 13.10.2019
6255 Clear 10 1029 81 10000 1 0 11:18 13.10.2019
6256 Clear 10 1029 87 10000 2 70 10:41 13.10.2019
6257 Clear 10 1029 87 10000 2 70 10:22 13.10.2019
6258 Clear 10 1029 87 10000 2 70 10:22 13.10.2019
6259 Clouds 10 1029 93 10000 2 360 09:41 13.10.2019
6260 Clouds 10 1029 93 10000 2 360 09:21 13.10.2019
6261 Rain 10 1029 93 8000 2 20 08:58 13.10.2019
6262 Rain 10 1029 93 7000 2 30 08:38 13.10.2019
6263 Rain 10 1029 93 7000 2 30 08:19 13.10.2019
6264 Rain 10 1029 87 10000 1 0 07:46 13.10.2019
6265 Rain 10 1029 81 10000 2 70 06:59 13.10.2019
6266 Rain 10 1028 76 10000 1 0 06:41 13.10.2019
6267 Rain 11 1028 76 10000 2 80 05:39 13.10.2019
6268 Rain 11 1028 76 10000 2 50 04:46 13.10.2019
6269 Rain 12 1027 66 10000 2 50 03:51 13.10.2019
6270 Clouds 13 1025 58 10000 1 0 02:41 13.10.2019
6271 Clouds 14 1025 54 10000 1 0 01:53 13.10.2019
6272 Clouds 14 1024 58 10000 1 80 01:26 13.10.2019
6273 Clouds 14 1024 62 10000 1 0 00:47 13.10.2019
6274 Clouds 14 1024 62 10000 1 0 00:47 13.10.2019
6275 Clouds 14 1024 54 10000 1 0 00:21 13.10.2019
6276 Clouds 14 1023 50 10000 3 130 23:56 12.10.2019
6277 Clouds 14 1023 54 10000 2 120 23:37 12.10.2019
6278 Clouds 15 1023 54 10000 2 120 23:19 12.10.2019
6279 Clouds 15 1023 51 10000 3 130 22:57 12.10.2019
6280 Clouds 15 1023 54 10000 3 140 22:38 12.10.2019
6281 Clouds 15 1023 54 10000 3 140 22:20 12.10.2019
6282 Clouds 15 1023 54 10000 2 140 21:54 12.10.2019
6283 Clouds 15 1023 62 10000 2 140 21:36 12.10.2019
6284 Clouds 15 1023 62 10000 2 140 21:18 12.10.2019
6285 Clouds 15 1023 62 10000 2 130 20:39 12.10.2019
6286 Clouds 15 1023 62 10000 2 130 20:21 12.10.2019
6287 Clouds 15 1023 67 10000 2 70 19:37 12.10.2019
6288 Clouds 15 1023 67 10000 2 70 19:19 12.10.2019
6289 Clouds 15 1023 71 10000 2 60 18:56 12.10.2019
6290 Clouds 15 1023 67 10000 1 80 18:37 12.10.2019
6291 Clouds 15 1023 67 10000 1 80 18:19 12.10.2019
6292 Clouds 15 1023 67 10000 2.34 183.993 17:42 12.10.2019
6293 Clouds 15 1023 67 10000 2.34 183.993 17:19 12.10.2019
6294 Clouds 15 1023 67 10000 2.34 183.993 16:54 12.10.2019
6295 Clouds 15 1023 67 10000 2.34 183.993 16:54 12.10.2019
6296 Clouds 16 1023 58 10000 1 0 16:36 12.10.2019
6297 Clouds 16 1023 58 10000 1 0 16:18 12.10.2019
6298 Clouds 16 1024 76 10000 1 160 15:40 12.10.2019
6299 Clouds 16 1024 76 10000 1 160 15:22 12.10.2019
6300 Clouds 16 1023 82 10000 1.31 179.956 14:43 12.10.2019
6301 Clouds 16 1023 76 10000 1.31 179.956 14:22 12.10.2019
6302 Clouds 16 1023 76 10000 1.31 179.956 13:57 12.10.2019
6303 Clouds 16 1023 77 10000 1 0 13:38 12.10.2019
6304 Clouds 16 1023 77 10000 1 0 13:20 12.10.2019
6305 Clouds 16 1022 72 10000 1 90 12:39 12.10.2019
6306 Clouds 16 1022 72 10000 1 90 12:21 12.10.2019
6307 Clouds 16 1022 72 10000 1 40 11:58 12.10.2019
6308 Clouds 17 1022 63 10000 1 0 11:38 12.10.2019
6309 Clouds 17 1022 63 10000 1 0 11:19 12.10.2019
6310 Clear 17 1023 48 10000 1 0 10:41 12.10.2019
6311 Clear 17 1023 48 10000 1 0 10:23 12.10.2019
6312 Clear 17 1023 48 10000 1 0 09:58 12.10.2019
6313 -273 0 0 0 0 0 09:57 12.10.2019
6314 Clear 17 1023 48 10000 1 0 09:57 12.10.2019
6315 Clear 18 1023 45 10000 1 0 09:38 12.10.2019
6316 Clear 17 1023 45 10000 1 0 09:19 12.10.2019
6317 -273 0 0 0 0 0 08:44 12.10.2019
6318 Clear 18 1023 48 10000 1 0 08:44 12.10.2019
6319 Clear 18 1023 45 10000 1 0 08:24 12.10.2019
6320 Clear 18 1023 45 10000 1 0 07:57 12.10.2019
6321 Clear 18 1023 48 10000 1 0 07:31 12.10.2019
6322 Clear 16 1024 48 10000 2 200 06:28 12.10.2019
6323 Clear 16 1025 51 10000 1 0 05:43 12.10.2019
6324 Clear 17 1025 51 10000 2 200 04:34 12.10.2019
6325 Clear 17 1025 55 10000 2 200 03:54 12.10.2019
6326 Clouds 15 1024 67 10000 2 150 02:50 12.10.2019
6327 Clouds 15 1023 82 10000 1.4 116.382 01:33 12.10.2019
6328 Clouds 15 1023 87 10000 1 90 00:56 12.10.2019
6329 Clouds 15 1023 82 10000 1.4 116.382 00:37 12.10.2019
6330 Clouds 15 1023 76 10000 1.03 120.392 23:55 11.10.2019
6331 Clouds 15 1022 76 10000 1.03 120.392 23:36 11.10.2019
6332 Clouds 15 1022 76 10000 1.03 120.392 23:18 11.10.2019
6333 Clouds 15 1022 82 10000 1 20 22:38 11.10.2019
6334 Clouds 15 1022 82 10000 1 20 22:19 11.10.2019
6335 Clouds 15 1022 76 10000 1 0 21:43 11.10.2019
6336 Clouds 15 1022 76 10000 1 0 21:22 11.10.2019
6337 Clouds 15 1022 71 10000 1 30 20:59 11.10.2019
6338 Clouds 16 1022 76 10000 1 30 20:41 11.10.2019
6339 Clouds 15 1022 76 10000 1 30 20:23 11.10.2019
6340 Clouds 16 1022 62 10000 1 0 19:55 11.10.2019
6341 Clouds 16 1022 62 10000 1 0 19:37 11.10.2019
6342 Clouds 16 1022 62 10000 1 0 19:18 11.10.2019
6343 Clouds 16 1022 62 10000 1 0 19:18 11.10.2019
6344 Clouds 16 1022 62 10000 1 0 19:18 11.10.2019
6345 Clouds 16 1022 62 10000 1 0 19:18 11.10.2019
6346 Clouds 16 1022 62 10000 1 0 19:18 11.10.2019
6347 Clouds 16 1022 62 10000 1 0 18:56 11.10.2019
6348 Clouds 16 1022 58 10000 1 0 18:37 11.10.2019
6349 Clouds 16 1022 58 10000 1 0 18:18 11.10.2019
6350 Clouds 16 1022 62 10000 1 0 17:55 11.10.2019
6351 Clouds 16 1022 62 10000 1 70 17:36 11.10.2019
6352 Clouds 16 1022 62 10000 1 70 17:18 11.10.2019
6353 Clouds 16 1021 62 10000 1 0 16:40 11.10.2019
6354 Clouds 16 1021 62 10000 1 0 16:20 11.10.2019
6355 Clouds 16 1021 62 10000 1 0 16:20 11.10.2019
6356 Clouds 16 1021 67 10000 1 100 15:59 11.10.2019
6357 Clouds 16 1021 62 10000 1 0 15:38 11.10.2019
6358 Clouds 16 1021 62 10000 1 0 15:19 11.10.2019
6359 Clouds 17 1020 59 10000 1 0 14:47 11.10.2019
6360 Clouds 16 1020 67 10000 1 0 14:29 11.10.2019
6361 Clouds 17 1020 62 10000 1 0 13:56 11.10.2019
6362 Clear 17 1020 62 10000 2 110 13:37 11.10.2019
6363 Clear 17 1020 62 10000 2 110 13:19 11.10.2019
6364 Clear 17 1020 51 10000 2 130 12:54 11.10.2019
6365 Clear 17 1019 55 10000 2 120 12:36 11.10.2019
6366 Clear 18 1019 59 10000 2 110 12:18 11.10.2019
6367 Clear 18 1019 52 10000 2 130 11:41 11.10.2019
6368 Clear 19 1019 52 10000 2 130 11:22 11.10.2019
6369 Clear 19 1019 52 10000 1 0 10:56 11.10.2019
6370 Clear 19 1019 42 10000 2 150 10:38 11.10.2019
6371 Clear 19 1019 42 10000 2 150 10:20 11.10.2019
6372 Clouds 20 1019 42 10000 2 120 09:55 11.10.2019
6373 Clouds 20 1019 45 10000 2 110 09:37 11.10.2019
6374 Clouds 20 1019 45 10000 2 110 09:18 11.10.2019
6375 Clouds 20 1019 45 10000 2 110 09:18 11.10.2019
6376 Clouds 20 1020 42 10000 3 140 08:54 11.10.2019
6377 Clouds 20 1020 39 10000 3 140 08:36 11.10.2019
6378 Clouds 20 1020 39 10000 3 140 08:18 11.10.2019
6379 Clouds 20 1020 45 10000 4 180 07:41 11.10.2019
6380 Clouds 20 1020 45 10000 4 180 07:22 11.10.2019
6381 Clouds 20 1021 55 10000 3 150 06:47 11.10.2019
6382 Clouds 19 1021 55 10000 3 150 06:22 11.10.2019
6383 Mist 18 1022 72 4500 2 0 05:37 11.10.2019
6384 Mist 17 1022 77 4500 2 200 04:59 11.10.2019
6385 Mist 17 1022 77 4500 2 180 04:24 11.10.2019
6386 Mist 16 1021 93 4000 1 80 02:19 11.10.2019
6387 Mist 15 1020 93 4500 1 0 00:43 11.10.2019
6388 Mist 15 1020 93 4500 1 0 00:25 11.10.2019
6389 Mist 14 1019 93 4500 1 360 23:43 10.10.2019
6390 Mist 14 1019 93 4500 2.13 107.115 23:21 10.10.2019
6391 Mist 14 1019 93 4500 1 0 22:57 10.10.2019
6392 Mist 14 1019 93 4500 1 0 22:39 10.10.2019
6393 Mist 16 1019 93 4500 1 0 22:20 10.10.2019
6394 Mist 15 1019 100 4500 1 0 21:57 10.10.2019
6395 Mist 15 1019 100 4500 2.13 107.115 21:38 10.10.2019
6396 Mist 15 1019 100 4500 0.44 61.275 21:20 10.10.2019
6397 Mist 14 1018 100 4500 1 0 20:42 10.10.2019
6398 Mist 15 1018 100 4500 1 0 20:21 10.10.2019
6399 Mist 15 1018 93 4500 1 80 19:58 10.10.2019
6400 Mist 15 1018 93 4500 0.88 49.42 19:40 10.10.2019
6401 Mist 15 1018 93 4500 0.88 49.42 19:40 10.10.2019
6402 Mist 15 1018 93 4500 0.88 49.42 19:20 10.10.2019
6403 Mist 15 1018 93 4500 0.88 49.42 19:20 10.10.2019
6404 Mist 15 1018 93 4200 0.88 49.42 18:57 10.10.2019
6405 Mist 16 1018 93 4200 0.88 49.42 18:38 10.10.2019
6406 Mist 16 1018 93 4200 0.55 90.936 18:19 10.10.2019
6407 Mist 16 1018 93 4200 1 50 17:54 10.10.2019
6408 Mist 16 1018 93 4200 0.55 90.936 17:36 10.10.2019
6409 Mist 16 1018 93 4200 0.55 90.936 17:36 10.10.2019
6410 Mist 16 1018 93 4200 0.55 90.936 17:18 10.10.2019
6411 Mist 17 1018 93 4500 1 10 16:41 10.10.2019
6412 Mist 17 1018 93 4500 1 10 16:22 10.10.2019
6413 Mist 17 1017 93 5000 2 70 15:44 10.10.2019
6414 Mist 17 1017 93 5000 2 70 15:25 10.10.2019
6415 Mist 17 1016 87 5000 2 80 14:59 10.10.2019
6416 Mist 17 1016 93 5000 1 90 14:38 10.10.2019
6417 Mist 17 1016 93 5000 1 90 14:38 10.10.2019
6418 Mist 17 1016 93 5000 1 90 14:19 10.10.2019
6419 Mist 17 1016 87 5000 1 100 13:59 10.10.2019
6420 Mist 17 1016 87 5000 1 100 13:59 10.10.2019
6421 Mist 18 1015 93 5000 1 0 13:41 10.10.2019
6422 Mist 17 1015 93 5000 1 0 13:20 10.10.2019
6423 Mist 18 1015 93 5000 1 0 12:57 10.10.2019
6424 Mist 18 1014 87 5000 1 0 12:39 10.10.2019
6425 Mist 18 1014 87 5000 1 0 12:19 10.10.2019
6426 Haze 18 1014 77 5000 2 10 11:55 10.10.2019
6427 Haze 19 1014 72 5000 3 20 11:37 10.10.2019
6428 Haze 19 1014 72 5000 3 20 11:18 10.10.2019
6429 Haze 20 1013 63 5000 1 0 10:44 10.10.2019
6430 Haze 21 1013 63 5000 1 0 10:25 10.10.2019
6431 Haze 20 1013 63 5000 1 0 09:56 10.10.2019
6432 Clouds 20 1013 63 6000 1 0 09:38 10.10.2019
6433 Clouds 20 1013 63 6000 1 0 09:19 10.10.2019
6434 Haze 20 1013 63 5000 1 0 08:41 10.10.2019
6435 Haze 20 1013 63 5000 1 0 08:23 10.10.2019
6436 Haze 22 1014 63 5000 1 0 07:59 10.10.2019
6437 Haze 22 1014 63 5000 1 0 07:40 10.10.2019
6438 Haze 22 1014 63 5000 1 0 07:20 10.10.2019
6439 Haze 20 1014 67 5000 2 130 06:45 10.10.2019
6440 Haze 20 1014 67 5000 2 130 06:24 10.10.2019
6441 Clouds 18 1015 77 6000 1 0 05:24 10.10.2019
6442 Clouds 18 1015 77 7000 2 150 04:37 10.10.2019
6443 Clouds 17 1015 82 8000 1 0 03:42 10.10.2019
6444 Clouds 15 1014 82 8000 2 140 01:42 10.10.2019
6445 Clouds 15 1014 82 8000 2 140 01:24 10.10.2019
6446 Clouds 15 1014 82 10000 2 130 00:45 10.10.2019
6447 Clear 14 1014 82 10000 2 120 00:21 10.10.2019
6448 Clear 14 1014 82 10000 1 130 23:39 09.10.2019
6449 Clear 15 1014 82 10000 1 130 23:20 09.10.2019
6450 Clear 15 1013 82 10000 2 140 22:43 09.10.2019
6451 Clear 15 1013 82 10000 2 140 22:24 09.10.2019
6452 Clear 15 1013 87 10000 2 130 21:59 09.10.2019
6453 Clear 15 1013 87 10000 2 130 21:59 09.10.2019
6454 Clear 15 1013 87 10000 1 140 21:40 09.10.2019
6455 Clear 14 1013 87 10000 1 140 21:20 09.10.2019
6456 Clear 15 1014 87 10000 2 150 20:56 09.10.2019
6457 Clear 15 1014 87 10000 2 150 20:56 09.10.2019
6458 Clear 15 1014 82 10000 2 170 20:37 09.10.2019
6459 Clear 15 1014 82 10000 2 170 20:18 09.10.2019
6460 Clear 15 1014 82 10000 3 170 19:46 09.10.2019
6461 Clear 16 1014 72 10000 4 180 19:24 09.10.2019
6462 Clear 16 1014 72 10000 4 180 18:58 09.10.2019
6463 Clear 16 1013 67 10000 5 180 18:38 09.10.2019
6464 Clear 16 1013 67 10000 5 180 18:18 09.10.2019
6465 Clear 17 1014 63 10000 5 180 17:56 09.10.2019
6466 Clear 17 1014 63 10000 5 170 17:37 09.10.2019
6467 Clear 17 1014 63 10000 5 170 17:18 09.10.2019
6468 Clear 17 1014 55 10000 5 180 16:42 09.10.2019
6469 Clear 18 1014 55 10000 5 180 16:23 09.10.2019
6470 Clear 19 1014 52 10000 5 190 15:58 09.10.2019
6471 Clear 18 1013 55 10000 5 190 15:39 09.10.2019
6472 Clear 19 1013 55 10000 5 190 15:20 09.10.2019
6473 Clear 19 1013 56 10000 4 190 14:59 09.10.2019
6474 Clear 18 1013 82 10000 1 0 14:41 09.10.2019
6475 Clear 18 1013 82 10000 1 0 14:18 09.10.2019
6476 Clear 19 1013 87 10000 1 70 13:40 09.10.2019
6477 Clear 19 1013 87 10000 1 70 13:22 09.10.2019
6478 Clear 19 1012 82 10000 2 350 12:59 09.10.2019
6479 Clear 19 1012 82 10000 1 120 12:41 09.10.2019
6480 Clear 20 1012 82 10000 1 120 12:21 09.10.2019
6481 Clear 21 1012 72 10000 1 0 11:55 09.10.2019
6482 Clear 22 1012 60 10000 1 0 11:37 09.10.2019
6483 Clear 22 1012 60 10000 1 0 11:19 09.10.2019
6484 Clear 23 1012 46 10000 1 0 10:44 09.10.2019
6485 Clear 23 1012 46 10000 1 0 10:22 09.10.2019
6486 Clear 23 1013 43 10000 3 230 09:59 09.10.2019
6487 Clear 23 1013 43 10000 3 210 09:41 09.10.2019
6488 Clear 23 1013 43 10000 3 210 09:19 09.10.2019
6489 Clear 24 1013 43 10000 3 0 08:43 09.10.2019
6490 Clear 23 1014 40 10000 2 0 08:23 09.10.2019
6491 Clear 24 1014 43 10000 1 0 07:59 09.10.2019
6492 Clear 24 1015 45 10000 2 0 07:39 09.10.2019
6493 Clear 24 1015 45 10000 2 0 07:20 09.10.2019
6494 Clear 23 1015 45 10000 2 0 06:51 09.10.2019
6495 Clear 22 1017 45 10000 2 0 05:56 09.10.2019
6496 Clear 21 1017 45 10000 1 0 05:37 09.10.2019
6497 Clear 20 1018 55 10000 1 0 04:25 09.10.2019
6498 Clear 16 1019 66 10000 1 0 02:53 09.10.2019
6499 Clear 13 1019 93 10000 1 10 01:43 09.10.2019
6500 Clear 13 1019 93 10000 1 10 01:20 09.10.2019
6501 Clear 12 1019 93 10000 1 0 00:57 09.10.2019
6502 Clear 12 1019 93 10000 0.47 134.129 00:38 09.10.2019
6503 Clear 11 1019 93 10000 0.05 132.58 00:20 09.10.2019
6504 Clear 11 1019 93 10000 1 0 23:39 08.10.2019
6505 Clear 10 1019 93 10000 1 0 23:19 08.10.2019
6506 Clear 10 1019 93 10000 1 0 23:19 08.10.2019
6507 Clear 11 1019 93 10000 1 0 22:57 08.10.2019
6508 Clear 11 1019 93 10000 0.05 132.58 22:38 08.10.2019
6509 Clear 11 1019 93 10000 0.05 132.58 22:19 08.10.2019
6510 Clear 9 1019 93 10000 0.05 132.58 21:57 08.10.2019
6511 Clear 11 1020 93 10000 1 60 21:39 08.10.2019
6512 Clear 12 1020 93 10000 1 60 21:19 08.10.2019
6513 Clear 12 1020 93 10000 0.74 264.56 20:56 08.10.2019
6514 Clear 12 1020 93 10000 0.74 264.56 20:56 08.10.2019
6515 Clear 12 1020 93 10000 0.51 258.47 20:37 08.10.2019
6516 Clear 12 1020 93 10000 0.51 258.47 20:19 08.10.2019
6517 Clear 12 1020 93 10000 1 0 19:57 08.10.2019
6518 Clear 14 1020 93 10000 1 0 19:38 08.10.2019
6519 Clear 14 1020 93 10000 1 0 19:20 08.10.2019
6520 Clear 14 1020 87 10000 2 350 18:46 08.10.2019
6521 Clear 13 1020 87 10000 1 0 18:28 08.10.2019
6522 Clear 14 1021 81 10000 1 0 17:59 08.10.2019
6523 Clear 13 1021 81 10000 1 30 17:40 08.10.2019
6524 Clear 13 1021 81 10000 1 30 17:20 08.10.2019
6525 Clear 13 1021 87 10000 1 0 16:57 08.10.2019
6526 Clear 13 1022 87 10000 1 0 16:38 08.10.2019
6527 Clear 14 1022 87 10000 1 0 16:20 08.10.2019
6528 Clear 13 1022 81 10000 1 150 15:40 08.10.2019
6529 Clear 14 1022 81 10000 1 150 15:21 08.10.2019
6530 Clear 14 1022 81 10000 1 150 14:57 08.10.2019
6531 Clear 15 1022 76 10000 2 150 14:39 08.10.2019
6532 Clear 15 1022 76 10000 2 150 14:20 08.10.2019
6533 Clear 16 1021 62 10000 2 160 13:56 08.10.2019
6534 Clear 16 1021 41 10000 2 190 13:38 08.10.2019
6535 Clear 17 1021 41 10000 2 190 13:18 08.10.2019
6536 Clear 18 1021 48 10000 3 210 12:56 08.10.2019
6537 Clear 18 1021 48 10000 4 200 12:37 08.10.2019
6538 Clear 18 1021 48 10000 4 200 12:37 08.10.2019
6539 Clear 19 1021 34 10000 4 200 12:18 08.10.2019
6540 Clear 20 1021 34 10000 4 200 11:41 08.10.2019
6541 Clear 21 1021 34 10000 4 200 11:23 08.10.2019
6542 Clear 21 1021 22 10000 5 200 10:56 08.10.2019
6543 Clear 22 1021 21 10000 4 200 10:37 08.10.2019
6544 Clear 22 1021 21 10000 4 200 10:19 08.10.2019
6545 Clear 22 1022 22 10000 4 200 09:55 08.10.2019
6546 Clear 22 1022 21 10000 4 200 09:37 08.10.2019
6547 Clear 22 1022 21 10000 4 200 09:18 08.10.2019
6548 Clear 22 1023 21 10000 3 200 08:42 08.10.2019
6549 Clear 22 1023 21 10000 3 200 08:23 08.10.2019
6550 Clear 22 1024 19 10000 2 0 07:44 08.10.2019
6551 Clear 22 1024 19 10000 2 0 07:21 08.10.2019
6552 Clear 22 1025 19 10000 2 10 06:50 08.10.2019
6553 Clear 22 1026 20 10000 2 0 06:28 08.10.2019
6554 Clear 21 1026 24 10000 3 300 05:46 08.10.2019
6555 Clear 20 1026 22 10000 3 320 05:25 08.10.2019
6556 Clear 19 1028 27 10000 4 50 03:57 08.10.2019
6557 Clear 17 1028 31 10000 2 60 03:24 08.10.2019
6558 Clear 17 1027 35 10000 3 20 02:35 08.10.2019
6559 Clear 14 1027 35 10000 2 30 01:45 08.10.2019
6560 Clear 14 1027 35 10000 2 30 01:26 08.10.2019
6561 Clear 12 1026 40 10000 3 10 00:46 08.10.2019
6562 Clear 12 1026 34 10000 4 20 00:20 08.10.2019
6563 Clear 14 1025 37 10000 3 20 23:39 07.10.2019
6564 Clear 14 1025 37 10000 3 20 23:20 07.10.2019
6565 Clear 13 1025 37 10000 4 20 22:56 07.10.2019
6566 Clear 13 1024 37 10000 4 30 22:38 07.10.2019
6567 Clear 13 1024 37 10000 4 30 22:20 07.10.2019
6568 Clear 14 1024 35 10000 3 40 21:56 07.10.2019
6569 Clear 14 1024 33 10000 4 30 21:37 07.10.2019
6570 Clear 14 1024 33 10000 4 30 21:37 07.10.2019
6571 Clear 14 1024 33 10000 4 30 21:19 07.10.2019
6572 Clear 14 1024 33 10000 4 30 21:19 07.10.2019
6573 Clear 14 1024 33 10000 4 30 21:19 07.10.2019
6574 Clear 15 1024 33 10000 5 30 20:57 07.10.2019
6575 Clear 15 1023 33 10000 5 30 20:39 07.10.2019
6576 Clear 15 1023 33 10000 5 30 20:20 07.10.2019
6577 Clear 16 1023 44 10000 6 20 19:57 07.10.2019
6578 Clear 16 1023 36 10000 6 30 19:39 07.10.2019
6579 Clear 16 1023 36 10000 6 30 19:18 07.10.2019
6580 Clear 16 1022 38 10000 7 30 18:56 07.10.2019
6581 Clear 17 1021 48 10000 7 20 18:38 07.10.2019
6582 Clear 17 1021 76 10000 4 360 18:18 07.10.2019
6583 Clear 17 1020 81 10000 1 0 17:42 07.10.2019
6584 Clear 16 1020 81 10000 1 0 17:20 07.10.2019
6585 Clear 17 1019 81 10000 2 350 16:56 07.10.2019
6586 Clear 17 1019 87 10000 2 20 16:38 07.10.2019
6587 Clear 17 1019 87 10000 2 20 16:19 07.10.2019
6588 Clear 17 1018 82 10000 3 360 15:43 07.10.2019
6589 Clear 18 1018 82 10000 3 360 15:25 07.10.2019
6590 Clear 18 1017 87 10000 1 0 14:43 07.10.2019
6591 -273 0 0 0 0 0 14:24 07.10.2019
6592 Clear 18 1017 82 10000 1 0 14:24 07.10.2019
6593 Clear 19 1016 76 10000 1 0 13:59 07.10.2019
6594 Clear 19 1016 72 10000 1 0 13:41 07.10.2019
6595 Clear 19 1016 72 10000 1 0 13:19 07.10.2019
6596 Clear 20 1015 63 10000 1 0 12:55 07.10.2019
6597 Clear 22 1015 45 10000 2 180 12:37 07.10.2019
6598 Clear 21 1015 45 10000 2 180 12:18 07.10.2019
6599 Clear 22 1014 37 10000 4 210 11:56 07.10.2019
6600 Clear 23 1014 35 10000 5 210 11:37 07.10.2019
6601 Clear 23 1014 35 10000 5 210 11:18 07.10.2019
6602 Clear 24 1014 31 10000 5 190 10:41 07.10.2019
6603 Clear 24 1014 31 10000 5 190 10:20 07.10.2019
6604 Clear 24 1015 35 10000 5 190 09:42 07.10.2019
6605 Clear 24 1015 35 10000 5 190 09:23 07.10.2019
6606 Clear 24 1015 40 10000 5 200 08:56 07.10.2019
6607 Clear 24 1016 38 10000 5 190 08:38 07.10.2019
6608 Clear 24 1016 38 10000 5 190 08:19 07.10.2019
6609 Clear 24 1017 46 10000 5 200 07:41 07.10.2019
6610 Clear 23 1017 46 10000 5 200 07:21 07.10.2019
6611 Clear 23 1017 46 10000 3 200 06:49 07.10.2019
6612 Clear 22 1018 40 10000 4 210 06:27 07.10.2019
6613 Clear 21 1018 45 10000 2 0 05:47 07.10.2019
6614 Clear 20 1019 52 10000 2 0 05:21 07.10.2019
6615 Clear 19 1020 59 10000 1 0 04:24 07.10.2019
6616 Clear 18 1021 67 10000 2 310 03:44 07.10.2019
6617 Clear 18 1021 67 10000 2 310 03:44 07.10.2019
6618 Clear 17 1021 67 10000 2 310 03:20 07.10.2019
6619 Clear 15 1021 71 10000 2 320 02:20 07.10.2019
6620 Clear 13 1020 87 10000 2 360 01:50 07.10.2019
6621 Clear 12 1020 87 10000 2 10 01:21 07.10.2019
6622 Clear 11 1020 93 10000 2 350 00:39 07.10.2019
6623 Clear 12 1020 93 10000 2 350 00:20 07.10.2019
6624 Clear 12 1020 93 10000 2 360 23:42 06.10.2019
6625 Clear 12 1020 93 10000 2 360 23:42 06.10.2019
6626 Clear 12 1020 93 10000 2 360 23:42 06.10.2019
6627 Clear 12 1020 93 10000 2 360 23:21 06.10.2019
6628 Clear 12 1020 100 10000 1 360 22:59 06.10.2019
6629 Clear 12 1020 100 10000 1 20 22:41 06.10.2019
6630 Clear 12 1020 100 10000 1 20 22:22 06.10.2019
6631 Clear 12 1021 93 10000 1 360 21:57 06.10.2019
6632 Clear 13 1021 93 10000 1 40 21:37 06.10.2019
6633 Clear 13 1021 93 10000 1 40 21:19 06.10.2019
6634 Clear 13 1021 93 10000 0.56 302.981 20:57 06.10.2019
6635 Clear 13 1021 93 10000 1 0 20:39 06.10.2019
6636 Clear 13 1021 93 10000 1 0 20:20 06.10.2019
6637 Clear 13 1022 93 10000 1 0 19:57 06.10.2019
6638 Clear 13 1022 93 10000 1 0 19:57 06.10.2019
6639 Clear 13 1022 93 10000 1 130 19:37 06.10.2019
6640 Clear 14 1022 93 10000 1 130 19:19 06.10.2019
6641 Clear 14 1022 93 10000 1 130 19:19 06.10.2019
6642 Clear 14 1022 87 10000 1 0 18:56 06.10.2019
6643 Clear 14 1022 81 10000 2 150 18:38 06.10.2019
6644 Clear 14 1022 81 10000 2 150 18:19 06.10.2019
6645 Clear 15 1022 76 10000 2 160 17:57 06.10.2019
6646 Clear 15 1022 82 10000 2 160 17:38 06.10.2019
6647 Clear 15 1022 82 10000 2 160 17:18 06.10.2019
6648 Clear 15 1022 76 10000 1 150 16:42 06.10.2019
6649 Clear 15 1022 76 10000 1 150 16:23 06.10.2019
6650 Clear 15 1022 82 10000 1 0 15:45 06.10.2019
6651 Clear 15 1022 76 10000 1 140 15:23 06.10.2019
6652 Clear 15 1022 67 10000 2 160 14:59 06.10.2019
6653 Clear 15 1022 67 10000 3 170 14:41 06.10.2019
6654 Clear 15 1022 67 10000 3 170 14:23 06.10.2019
6655 Clear 16 1022 67 10000 4 170 13:55 06.10.2019
6656 Clear 16 1022 62 10000 3 180 13:37 06.10.2019
6657 Clear 16 1022 62 10000 3 180 13:19 06.10.2019
6658 Clear 16 1022 62 10000 4 170 12:56 06.10.2019
6659 Clear 16 1022 62 10000 4 180 12:37 06.10.2019
6660 Clear 16 1022 62 10000 4 180 12:19 06.10.2019
6661 Clear 16 1022 48 10000 4 180 11:43 06.10.2019
6662 Clear 17 1022 48 10000 4 180 11:25 06.10.2019
6663 Clear 17 1022 48 10000 4 180 11:25 06.10.2019
6664 Clear 17 1022 42 10000 4 180 10:58 06.10.2019
6665 Clear 17 1023 42 10000 4 190 10:39 06.10.2019
6666 Clear 17 1023 42 10000 4 190 10:21 06.10.2019
6667 Clear 18 1023 36 10000 5 190 09:42 06.10.2019
6668 Clear 18 1023 36 10000 5 190 09:21 06.10.2019
6669 Clear 18 1023 36 10000 5 190 09:21 06.10.2019
6670 Clear 18 1023 42 10000 4 170 08:59 06.10.2019
6671 Clear 18 1023 42 10000 3 200 08:39 06.10.2019
6672 Clear 18 1023 42 10000 3 200 08:19 06.10.2019
6673 Clear 19 1024 45 10000 3 190 07:42 06.10.2019
6674 Clear 19 1024 45 10000 3 190 07:18 06.10.2019
6675 Clear 19 1025 48 10000 2 0 06:18 06.10.2019
6676 Clear 18 1025 51 10000 1 0 05:27 06.10.2019
6677 Clear 15 1026 66 10000 1 0 03:23 06.10.2019
6678 Clear 14 1026 66 10000 1 0 02:40 06.10.2019
6679 Clear 14 1026 93 10000 1 50 01:57 06.10.2019
6680 Clear 13 1025 93 10000 1 0 01:37 06.10.2019
6681 Clear 12 1025 93 10000 1 0 01:18 06.10.2019
6682 Clear 12 1025 87 10000 1 100 00:45 06.10.2019
6683 Clear 12 1025 93 10000 1 30 00:21 06.10.2019
6684 Clear 12 1025 87 10000 1 0 23:42 05.10.2019
6685 Clear 12 1025 93 10000 0.67 60.962 23:21 05.10.2019
6686 Clear 13 1025 87 10000 1 0 22:57 05.10.2019
6687 Clear 11 1025 93 10000 1 0 22:38 05.10.2019
6688 Clear 11 1025 93 10000 1 0 22:38 05.10.2019
6689 Clear 11 1025 93 10000 1 0 22:38 05.10.2019
6690 Clear 12 1025 93 10000 1 0 22:19 05.10.2019
6691 Clear 12 1025 93 10000 1 0 21:42 05.10.2019
6692 Clear 12 1025 87 10000 1 0 21:42 05.10.2019
6693 Clear 12 1025 87 10000 1 0 21:24 05.10.2019
6694 Clear 12 1025 87 10000 1 350 20:59 05.10.2019
6695 Clear 12 1026 87 10000 1 20 20:40 05.10.2019
6696 Clear 12 1026 87 10000 1 20 20:20 05.10.2019
6697 Clear 12 1025 81 10000 1 0 19:58 05.10.2019
6698 Clear 12 1026 81 10000 1 50 19:37 05.10.2019
6699 Clear 13 1026 81 10000 1 50 19:18 05.10.2019
6700 Clear 13 1026 93 10000 2 70 18:55 05.10.2019
6701 Clear 13 1026 93 10000 1 40 18:36 05.10.2019
6702 Clear 13 1026 93 10000 1 40 18:18 05.10.2019
6703 Clear 14 1026 93 10000 1 80 17:42 05.10.2019
6704 Clear 14 1026 93 10000 1 80 17:22 05.10.2019
6705 Clear 14 1026 93 10000 1 0 16:56 05.10.2019
6706 Clear 14 1026 93 10000 1 0 16:56 05.10.2019
6707 Clear 14 1026 87 10000 1 0 16:37 05.10.2019
6708 Clear 14 1026 87 10000 1 0 16:19 05.10.2019
6709 Clear 14 1026 87 10000 1 0 15:56 05.10.2019
6710 Clear 15 1026 66 10000 2 0 15:37 05.10.2019
6711 Clear 15 1026 66 10000 2 0 15:19 05.10.2019
6712 Clear 15 1025 76 10000 2 170 14:42 05.10.2019
6713 Clear 15 1025 76 10000 2 170 14:23 05.10.2019
6714 Clear 15 1025 81 10000 1 0 13:44 05.10.2019
6715 Clear 15 1025 81 10000 1 0 13:26 05.10.2019
6716 Clear 15 1025 81 10000 1 0 13:26 05.10.2019
6717 Clear 16 1025 76 10000 1 160 12:59 05.10.2019
6718 Clear 16 1025 76 10000 1 160 12:59 05.10.2019
6719 Clear 17 1025 66 10000 1 0 12:41 05.10.2019
6720 Clear 17 1025 66 10000 1 0 12:19 05.10.2019
6721 Clear 19 1025 39 10000 2 160 11:41 05.10.2019
6722 Clear 20 1025 39 10000 2 160 11:20 05.10.2019
6723 Clear 19 1025 31 10000 2 150 10:57 05.10.2019
6724 Clear 20 1025 24 10000 3 0 10:38 05.10.2019
6725 Clear 20 1025 24 10000 3 0 10:38 05.10.2019
6726 Clear 20 1025 24 10000 3 0 10:20 05.10.2019
6727 Clear 21 1026 24 10000 2 310 09:41 05.10.2019
6728 Clear 20 1026 24 10000 2 310 09:23 05.10.2019
6729 Clear 21 1026 25 10000 2 40 08:43 05.10.2019
6730 Clear 21 1026 25 10000 2 40 08:24 05.10.2019
6731 Clear 20 1027 24 10000 3 20 07:59 05.10.2019
6732 Clear 20 1028 24 10000 3 360 07:40 05.10.2019
6733 Clear 20 1028 24 10000 3 360 07:21 05.10.2019
6734 Clear 20 1028 27 10000 3 10 06:52 05.10.2019
6735 Clear 20 1029 25 10000 3 0 06:21 05.10.2019
6736 Clear 19 1030 29 10000 3 290 04:46 05.10.2019
6737 Clear 16 1031 38 10000 3 350 03:32 05.10.2019
6738 Clear 15 1031 44 10000 3 340 02:29 05.10.2019
6739 Clear 13 1030 87 10000 1 0 01:26 05.10.2019
6740 Clear 11 1030 93 10000 1 350 00:48 05.10.2019
6741 Clear 11 1030 87 10000 1 0 00:27 05.10.2019
6742 Clear 11 1029 81 10000 2 340 23:57 04.10.2019
6743 Clear 11 1029 75 10000 2 330 23:39 04.10.2019
6744 Clear 11 1029 75 10000 2 330 23:21 04.10.2019
6745 Clear 12 1029 70 10000 3 350 22:42 04.10.2019
6746 Clear 12 1029 70 10000 3 350 22:24 04.10.2019
6747 Clear 12 1029 66 10000 2 10 21:59 04.10.2019
6748 Clear 13 1028 66 10000 3 30 21:40 04.10.2019
6749 Clear 13 1028 66 10000 3 30 21:22 04.10.2019
6750 Clear 13 1028 62 10000 3 30 20:59 04.10.2019
6751 Clear 13 1028 66 10000 2 20 20:40 04.10.2019
6752 Clear 13 1028 66 10000 2 20 20:22 04.10.2019
6753 Clear 14 1028 62 10000 2 20 19:56 04.10.2019
6754 Clear 12 1028 66 10000 2 30 19:37 04.10.2019
6755 Clear 14 1028 66 10000 2 30 19:19 04.10.2019
6756 Clear 13 1028 93 10000 1 30 18:54 04.10.2019
6757 Clear 12 1028 93 10000 1 0 18:36 04.10.2019
6758 Clear 12 1028 93 10000 1 0 18:18 04.10.2019
6759 Clear 13 1028 87 10000 1.64 67.426 17:39 04.10.2019
6760 Clear 13 1028 87 10000 1.64 67.426 17:21 04.10.2019
6761 Clear 13 1028 87 10000 1 0 16:58 04.10.2019
6762 Clear 14 1027 82 10000 1 0 16:39 04.10.2019
6763 Clear 15 1027 82 10000 1 0 16:18 04.10.2019
6764 Clear 15 1027 82 10000 1 0 15:56 04.10.2019
6765 Clear 15 1027 82 10000 1 0 15:37 04.10.2019
6766 Clear 15 1027 82 10000 1 0 15:19 04.10.2019
6767 Clear 15 1026 87 10000 1 0 14:55 04.10.2019
6768 Clear 15 1026 87 10000 1 0 14:55 04.10.2019
6769 Clear 15 1026 87 10000 2.09 82.235 14:36 04.10.2019
6770 Clear 15 1026 87 10000 2.09 82.235 14:18 04.10.2019
6771 Clear 16 1026 82 10000 1 60 13:43 04.10.2019
6772 Clear 16 1025 82 10000 1 80 13:21 04.10.2019
6773 Clear 16 1025 76 10000 1 100 12:47 04.10.2019
6774 Clear 16 1025 71 10000 1 0 12:29 04.10.2019
6775 Clear 16 1024 58 10000 1 70 11:59 04.10.2019
6776 Clear 16 1024 51 10000 2 100 11:41 04.10.2019
6777 Clear 17 1024 51 10000 2 100 11:20 04.10.2019
6778 Clear 17 1024 51 10000 2 100 11:20 04.10.2019
6779 Clear 17 1024 51 10000 2 100 11:20 04.10.2019
6780 Clear 16 1023 55 10000 2 60 10:41 04.10.2019
6781 Clear 16 1023 55 10000 2 60 10:21 04.10.2019
6782 Clear 17 1023 51 10000 2 50 09:50 04.10.2019
6783 Clear 17 1023 48 10000 4 20 09:31 04.10.2019
6784 Clouds 17 1023 51 10000 4 40 08:57 04.10.2019
6785 Clouds 17 1023 55 10000 3 20 08:38 04.10.2019
6786 Clouds 16 1023 55 10000 3 20 08:38 04.10.2019
6787 Clouds 16 1023 55 10000 3 20 08:20 04.10.2019
6788 Clouds 15 1023 58 10000 6 40 07:46 04.10.2019
6789 Clouds 15 1023 58 10000 6 40 07:23 04.10.2019
6790 Clouds 15 1023 58 10000 6 30 06:47 04.10.2019
6791 Clear 15 1024 62 10000 5 20 06:27 04.10.2019
6792 Rain 14 1024 71 10000 3 20 05:52 04.10.2019
6793 Rain 14 1024 76 10000 5 20 05:19 04.10.2019
6794 Rain 13 1023 87 10000 4 30 03:56 04.10.2019
6795 Rain 14 1023 87 10000 5 20 02:54 04.10.2019
6796 Rain 14 1022 87 10000 6 30 02:21 04.10.2019
6797 Rain 14 1021 87 10000 4 40 01:43 04.10.2019
6798 Rain 14 1021 87 10000 4 40 01:24 04.10.2019
6799 Rain 15 1019 87 10000 5 30 00:18 04.10.2019
6800 Rain 15 1019 87 10000 5 20 23:37 03.10.2019
6801 Rain 15 1019 87 10000 5 20 23:18 03.10.2019
6802 Rain 16 1018 93 10000 4 40 22:57 03.10.2019
6803 Rain 16 1018 93 10000 4 40 22:57 03.10.2019
6804 Rain 16 1018 93 8000 5 50 22:39 03.10.2019
6805 Rain 16 1018 93